GFSCGP_prec_precacc_021.txt.gz
Total_Precipitation_Accumulation
0.00 0.00 0.00 0.00 0.00 0.00 0.00 0.00 0.00 0.00 0.00 0.00 0.00 0.00 0.00 0.00 0.00 0.00 0.00 0.00 0.00 0.00 0.00 0.00 0.00 0.00 0.00 0.00 0.00 0.00 0.00 0.00 0.00 0.00 0.00 0.00 0.00 0.00 0.00 0.00 0.00 0.00 0.00 0.00
0.00 0.00 0.00 0.00 0.00 0.00 0.00 0.00 0.00 0.00 0.00 0.00 0.00 0.00 0.00 0.00 0.00 0.00 0.00 0.00 0.00 0.00 0.00 0.00 0.00 0.00 0.00 0.00 0.00 0.00 0.00 0.00 0.00 0.00 0.00 0.00 0.00 0.00 0.00 0.00 0.00 0.00 0.00 0.00
0.00 0.00 0.00 0.00 0.00 0.00 0.00 0.00 0.00 0.00 0.00 0.00 0.00 0.00 0.00 0.00 0.00 0.00 0.00 0.00 0.00 0.00 0.00 0.00 0.00 0.00 0.00 0.00 0.00 0.00 0.00 0.00 0.00 0.00 0.00 0.00 0.00 0.00 0.00 0.00 0.00 0.00 0.00 0.00
0.00 0.00 0.00 0.00 0.00 0.00 0.00 0.00 0.00 0.00 0.00 0.00 0.00 0.00 0.00 0.00 0.00 0.00 0.00 0.00 0.00 0.00 0.00 0.00 0.00 0.00 0.00 0.00 0.00 0.00 0.00 0.00 0.00 0.00 0.00 0.00 0.00 0.00 0.00 0.00 0.00 0.00 0.00 0.00
0.00 0.00 0.00 0.00 0.00 0.00 0.00 0.00 0.00 0.00 0.00 0.00 0.00 0.00 0.00 0.00 0.00 0.00 0.00 0.00 0.00 0.00 0.00 0.00 0.00 0.00 0.00 0.00 0.00 0.00 0.00 0.00 0.00 0.00 0.00 0.00 0.00 0.00 0.00 0.00 0.00 0.00 0.00 0.00
0.00 0.00 0.00 0.00 0.00 0.00 0.00 0.00 0.00 0.00 0.00 0.00 0.00 0.00 0.00 0.00 0.00 0.00 0.00 0.00 0.00 0.00 0.00 0.00 0.00 0.00 0.00 0.00 0.00 0.00 0.00 0.00 0.00 0.00 0.00 0.00 0.00 0.00 0.00 0.00 0.00 0.00 0.00 0.00
0.00 0.00 0.00 0.00 0.00 0.00 0.00 0.00 0.00 0.00 0.00 0.00 0.00 0.00 0.00 0.00 0.00 0.00 0.00 0.00 0.00 0.00 0.00 0.00 0.00 0.00 0.00 0.00 0.00 0.00 0.00 0.00 0.00 0.00 0.00 0.00 0.00 0.00 0.00 0.00 0.00 0.00 0.00 0.00
0.00 0.00 0.00 0.00 0.00 0.00 0.00 0.00 0.00 0.00 0.00 0.00 0.00 0.00 0.00 0.00 0.00 0.00 0.00 0.00 0.00 0.00 0.00 0.00 0.00 0.00 0.00 0.00 0.00 0.00 0.00 0.00 0.00 0.00 0.00 0.00 0.00 0.00 0.00 0.00 0.00 0.00 0.00 0.00
0.00 0.00 0.00 0.00 0.00 0.00 0.00 0.00 0.00 0.00 0.00 0.00 0.00 0.00 0.00 0.00 0.00 0.00 0.00 0.00 0.00 0.00 0.00 0.00 0.00 0.00 0.00 0.00 0.00 0.00 0.00 0.00 0.00 0.00 0.00 0.00 0.00 0.00 0.00 0.00 0.00 0.00 0.00 0.00
0.00 0.00 0.00 0.00 0.00 0.00 0.00 0.00 0.00 0.00 0.00 0.00 0.00 0.00 0.00 0.00 0.00 0.00 0.00 0.00 0.00 0.00 0.00 0.00 0.00 0.00 0.00 0.00 0.00 0.00 0.00 0.00 0.00 0.00 0.00 0.00 0.00 0.00 0.00 0.00 0.00 0.00 0.00 0.00
0.00 0.00 0.00 0.00 0.00 0.00 0.00 0.00 0.00 0.00 0.00 0.04 0.07 0.01 0.00 0.00 0.00 0.00 0.00 0.00 0.00 0.00 0.00 0.00 0.00 0.00 0.00 0.00 0.00 0.00 0.00 0.00 0.00 0.00 0.00 0.00 0.00 0.00 0.00 0.00 0.00 0.00 0.00 0.00
0.00 0.00 0.00 0.00 0.00 0.00 0.00 0.00 0.00 0.01 0.02 0.01 0.02 0.01 0.00 0.00 0.00 0.00 0.01 0.00 0.00 0.00 0.00 0.00 0.00 0.00 0.00 0.00 0.00 0.00 0.00 0.00 0.00 0.00 0.00 0.00 0.00 0.00 0.00 0.00 0.00 0.00 0.00 0.00
0.00 0.00 0.00 0.00 0.00 0.00 0.00 0.00 0.00 0.00 0.00 0.00 0.02 0.00 0.00 0.00 0.00 0.00 0.00 0.00 0.00 0.00 0.00 0.00 0.00 0.00 0.00 0.00 0.00 0.00 0.00 0.00 0.00 0.00 0.00 0.00 0.00 0.00 0.00 0.00 0.00 0.01 0.01 0.03
0.00 0.00 0.00 0.00 0.00 0.00 0.00 0.00 0.00 0.00 0.00 0.00 0.00 0.00 0.00 0.00 0.00 0.00 0.00 0.00 0.00 0.00 0.00 0.00 0.00 0.00 0.00 0.00 0.00 0.00 0.00 0.00 0.00 0.00 0.00 0.00 0.00 0.00 0.00 0.01 0.01 0.01 0.01 0.02
0.00 0.00 0.00 0.00 0.00 0.00 0.00 0.00 0.00 0.00 0.00 0.00 0.00 0.00 0.00 0.00 0.00 0.00 0.00 0.00 0.00 0.00 0.00 0.00 0.00 0.00 0.00 0.00 0.00 0.00 0.00 0.00 0.00 0.00 0.00 0.00 0.00 0.00 0.01 0.00 0.00 0.00 0.00 0.01
0.00 0.00 0.00 0.00 0.00 0.00 0.00 0.00 0.00 0.00 0.00 0.00 0.00 0.00 0.00 0.00 0.00 0.00 0.00 0.00 0.00 0.00 0.00 0.00 0.00 0.00 0.00 0.00 0.00 0.00 0.00 0.00 0.00 0.00 0.00 0.01 0.03 0.07 0.10 0.12 0.07 0.02 0.01 0.01
0.00 0.00 0.00 0.00 0.00 0.01 0.01 0.00 0.00 0.00 0.00 0.00 0.00 0.00 0.00 0.00 0.00 0.00 0.00 0.00 0.00 0.00 0.00 0.00 0.00 0.00 0.00 0.00 0.00 0.00 0.00 0.00 0.00 0.00 0.01 0.05 0.09 0.11 0.07 0.01 0.00 0.00 0.00 0.00
0.00 0.00 0.00 0.00 0.01 0.04 0.00 0.00 0.00 0.00 0.00 0.00 0.00 0.00 0.00 0.00 0.00 0.00 0.00 0.00 0.00 0.00 0.00 0.01 0.00 0.00 0.00 0.00 0.00 0.00 0.00 0.00 0.01 0.00 0.01 0.01 0.00 0.00 0.00 0.00 0.00 0.00 0.00 0.00
0.00 0.00 0.00 0.00 0.01 0.01 0.00 0.00 0.00 0.00 0.00 0.00 0.00 0.01 0.01 0.02 0.01 0.00 0.00 0.01 0.04 0.05 0.03 0.01 0.00 0.00 0.00 0.00 0.00 0.00 0.00 0.01 0.02 0.00 0.00 0.00 0.00 0.00 0.00 0.00 0.00 0.00 0.00 0.00
0.00 0.00 0.00 0.00 0.02 0.02 0.00 0.00 0.00 0.00 0.00 0.00 0.02 0.06 0.10 0.05 0.05 0.03 0.05 0.09 0.08 0.03 0.01 0.00 0.00 0.00 0.00 0.00 0.00 0.00 0.01 0.01 0.00 0.00 0.00 0.00 0.00 0.00 0.00 0.00 0.00 0.00 0.00 0.00
0.00 0.00 0.00 0.00 0.02 0.00 0.00 0.00 0.01 0.10 0.09 0.02 0.10 0.11 0.04 0.08 0.14 0.14 0.13 0.06 0.01 0.00 0.00 0.00 0.00 0.00 0.00 0.00 0.00 0.00 0.00 0.00 0.00 0.00 0.00 0.00 0.00 0.00 0.00 0.00 0.00 0.00 0.00 0.00
0.00 0.00 0.00 0.01 0.05 0.01 0.00 0.01 0.06 0.05 0.02 0.03 0.02 0.01 0.02 0.08 0.13 0.08 0.05 0.01 0.00 0.00 0.00 0.00 0.00 0.00 0.00 0.00 0.00 0.00 0.00 0.00 0.00 0.00 0.01 0.01 0.01 0.00 0.00 0.00 0.00 0.00 0.00 0.00
0.00 0.00 0.00 0.02 0.01 0.00 0.00 0.00 0.01 0.02 0.02 0.01 0.02 0.04 0.14 0.15 0.08 0.06 0.01 0.00 0.00 0.00 0.00 0.00 0.00 0.00 0.00 0.00 0.00 0.00 0.01 0.00 0.00 0.01 0.02 0.01 0.00 0.00 0.00 0.00 0.00 0.00 0.00 0.00
0.02 0.00 0.00 0.01 0.00 0.00 0.01 0.01 0.00 0.01 0.05 0.07 0.13 0.19 0.13 0.11 0.07 0.01 0.00 0.00 0.00 0.00 0.00 0.00 0.00 0.00 0.00 0.00 0.00 0.00 0.00 0.00 0.00 0.01 0.01 0.01 0.01 0.00 0.00 0.00 0.00 0.00 0.00 0.00
0.03 0.04 0.02 0.02 0.00 0.01 0.01 0.02 0.08 0.18 0.26 0.24 0.18 0.13 0.11 0.04 0.00 0.00 0.00 0.00 0.00 0.00 0.00 0.00 0.01 0.02 0.00 0.00 0.00 0.00 0.00 0.00 0.00 0.00 0.00 0.00 0.00 0.00 0.00 0.00 0.00 0.00 0.00 0.00
0.02 0.01 0.04 0.03 0.05 0.10 0.12 0.23 0.42 0.32 0.21 0.21 0.15 0.04 0.00 0.00 0.00 0.00 0.00 0.00 0.00 0.00 0.00 0.01 0.01 0.00 0.00 0.00 0.00 0.00 0.00 0.00 0.00 0.00 0.00 0.00 0.00 0.00 0.00 0.00 0.00 0.00 0.00 0.00

GFSCGP_prec_precacc_024.txt.gz
Total_Precipitation_Accumulation
0.00 0.00 0.00 0.00 0.00 0.00 0.00 0.00 0.00 0.00 0.00 0.00 0.00 0.00 0.00 0.00 0.00 0.00 0.00 0.00 0.00 0.00 0.00 0.00 0.00 0.00 0.00 0.00 0.00 0.00 0.01 0.03 0.01 0.00 0.00 0.00 0.00 0.00 0.00 0.00 0.00 0.00 0.00 0.00
0.00 0.00 0.00 0.00 0.00 0.00 0.00 0.00 0.00 0.00 0.00 0.00 0.00 0.00 0.00 0.00 0.00 0.00 0.00 0.00 0.00 0.00 0.00 0.00 0.00 0.00 0.00 0.00 0.00 0.00 0.00 0.00 0.00 0.00 0.00 0.00 0.00 0.00 0.00 0.00 0.00 0.00 0.00 0.00
0.00 0.00 0.00 0.00 0.00 0.00 0.00 0.00 0.00 0.00 0.00 0.00 0.00 0.00 0.00 0.00 0.00 0.00 0.00 0.00 0.00 0.00 0.00 0.00 0.00 0.00 0.00 0.00 0.00 0.00 0.00 0.00 0.00 0.00 0.00 0.00 0.00 0.00 0.00 0.00 0.00 0.00 0.00 0.00
0.00 0.00 0.00 0.00 0.00 0.00 0.00 0.00 0.00 0.00 0.00 0.00 0.00 0.00 0.00 0.00 0.00 0.00 0.00 0.00 0.00 0.00 0.00 0.00 0.00 0.00 0.00 0.00 0.00 0.00 0.00 0.00 0.00 0.00 0.00 0.00 0.00 0.00 0.00 0.00 0.00 0.00 0.00 0.00
0.00 0.00 0.00 0.00 0.00 0.00 0.00 0.00 0.00 0.00 0.00 0.00 0.00 0.00 0.00 0.00 0.00 0.00 0.00 0.00 0.00 0.00 0.00 0.00 0.00 0.00 0.00 0.00 0.00 0.00 0.00 0.00 0.00 0.00 0.00 0.00 0.00 0.00 0.00 0.00 0.00 0.00 0.00 0.00
0.00 0.00 0.00 0.00 0.00 0.00 0.00 0.00 0.00 0.00 0.00 0.00 0.00 0.00 0.00 0.00 0.00 0.00 0.00 0.00 0.00 0.00 0.00 0.00 0.00 0.00 0.00 0.00 0.00 0.00 0.00 0.00 0.00 0.00 0.00 0.00 0.00 0.00 0.00 0.00 0.00 0.00 0.00 0.00
0.00 0.00 0.00 0.00 0.00 0.00 0.00 0.00 0.00 0.01 0.00 0.00 0.01 0.00 0.00 0.00 0.00 0.00 0.00 0.00 0.00 0.00 0.00 0.00 0.00 0.00 0.00 0.00 0.00 0.00 0.00 0.00 0.00 0.00 0.00 0.00 0.00 0.00 0.00 0.00 0.00 0.00 0.00 0.00
0.00 0.00 0.00 0.00 0.00 0.00 0.00 0.00 0.00 0.01 0.01 0.01 0.00 0.00 0.00 0.00 0.00 0.00 0.00 0.00 0.00 0.00 0.00 0.00 0.00 0.00 0.00 0.00 0.00 0.00 0.00 0.00 0.00 0.00 0.00 0.00 0.00 0.00 0.00 0.00 0.00 0.00 0.00 0.00
0.00 0.00 0.00 0.00 0.00 0.00 0.00 0.00 0.00 0.00 0.00 0.00 0.00 0.00 0.00 0.00 0.00 0.00 0.00 0.00 0.00 0.00 0.00 0.00 0.00 0.00 0.00 0.00 0.00 0.00 0.00 0.00 0.00 0.00 0.00 0.00 0.00 0.00 0.00 0.00 0.00 0.00 0.00 0.00
0.00 0.00 0.00 0.00 0.00 0.00 0.00 0.00 0.00 0.00 0.00 0.00 0.00 0.00 0.00 0.00 0.00 0.00 0.00 0.00 0.00 0.00 0.00 0.00 0.00 0.00 0.00 0.00 0.00 0.00 0.00 0.00 0.00 0.00 0.00 0.00 0.00 0.00 0.00 0.00 0.00 0.00 0.00 0.00
0.00 0.00 0.00 0.00 0.00 0.00 0.00 0.00 0.00 0.00 0.00 0.04 0.07 0.01 0.00 0.00 0.00 0.00 0.00 0.00 0.00 0.00 0.00 0.00 0.00 0.00 0.00 0.00 0.00 0.00 0.00 0.00 0.00 0.00 0.00 0.00 0.00 0.00 0.00 0.00 0.00 0.00 0.00 0.00
0.00 0.00 0.00 0.00 0.00 0.00 0.00 0.00 0.00 0.01 0.02 0.01 0.02 0.01 0.00 0.00 0.00 0.00 0.01 0.00 0.00 0.00 0.00 0.00 0.00 0.00 0.00 0.00 0.00 0.00 0.00 0.00 0.00 0.00 0.00 0.00 0.00 0.00 0.00 0.00 0.00 0.00 0.00 0.00
0.00 0.00 0.00 0.00 0.00 0.00 0.00 0.00 0.00 0.00 0.00 0.00 0.03 0.00 0.00 0.00 0.00 0.00 0.00 0.00 0.00 0.00 0.00 0.00 0.00 0.00 0.00 0.00 0.00 0.00 0.00 0.00 0.00 0.00 0.00 0.00 0.00 0.00 0.00 0.00 0.00 0.01 0.02 0.03
0.00 0.00 0.00 0.00 0.00 0.00 0.00 0.00 0.00 0.00 0.00 0.00 0.00 0.00 0.00 0.00 0.00 0.00 0.00 0.00 0.00 0.00 0.00 0.00 0.00 0.00 0.00 0.00 0.00 0.00 0.00 0.00 0.00 0.00 0.00 0.00 0.00 0.00 0.00 0.01 0.01 0.01 0.01 0.02
0.00 0.00 0.00 0.00 0.00 0.00 0.00 0.00 0.00 0.00 0.00 0.00 0.00 0.00 0.00 0.00 0.00 0.00 0.00 0.00 0.00 0.00 0.00 0.00 0.00 0.00 0.00 0.00 0.00 0.00 0.00 0.00 0.00 0.00 0.00 0.00 0.00 0.00 0.01 0.00 0.00 0.00 0.00 0.01
0.00 0.00 0.00 0.00 0.00 0.00 0.00 0.00 0.00 0.00 0.00 0.00 0.00 0.00 0.00 0.00 0.00 0.00 0.00 0.00 0.00 0.00 0.00 0.00 0.00 0.00 0.00 0.00 0.00 0.00 0.00 0.00 0.00 0.00 0.00 0.01 0.03 0.07 0.10 0.12 0.07 0.02 0.01 0.01
0.00 0.00 0.00 0.00 0.00 0.01 0.01 0.00 0.00 0.00 0.00 0.00 0.00 0.00 0.00 0.00 0.00 0.00 0.00 0.00 0.00 0.00 0.00 0.00 0.00 0.00 0.00 0.00 0.00 0.00 0.00 0.00 0.00 0.00 0.01 0.05 0.09 0.11 0.07 0.01 0.00 0.00 0.00 0.00
0.00 0.00 0.00 0.00 0.01 0.04 0.00 0.00 0.00 0.00 0.00 0.00 0.00 0.00 0.00 0.00 0.00 0.00 0.00 0.00 0.00 0.00 0.00 0.01 0.00 0.00 0.00 0.00 0.00 0.00 0.00 0.00 0.01 0.00 0.01 0.01 0.00 0.00 0.00 0.00 0.00 0.00 0.00 0.00
0.00 0.00 0.00 0.00 0.01 0.01 0.00 0.00 0.00 0.00 0.00 0.00 0.00 0.01 0.01 0.02 0.01 0.00 0.00 0.01 0.04 0.05 0.03 0.01 0.00 0.00 0.00 0.00 0.00 0.00 0.00 0.01 0.02 0.00 0.00 0.01 0.00 0.00 0.00 0.00 0.00 0.00 0.00 0.00
0.00 0.00 0.00 0.00 0.02 0.02 0.00 0.00 0.00 0.00 0.00 0.00 0.02 0.06 0.10 0.05 0.05 0.03 0.05 0.09 0.08 0.03 0.01 0.00 0.00 0.00 0.00 0.00 0.00 0.00 0.01 0.01 0.00 0.00 0.01 0.00 0.00 0.00 0.00 0.00 0.00 0.00 0.00 0.00
0.00 0.00 0.00 0.00 0.02 0.00 0.00 0.00 0.01 0.10 0.10 0.02 0.10 0.11 0.04 0.08 0.14 0.14 0.13 0.06 0.01 0.00 0.00 0.00 0.00 0.00 0.00 0.00 0.00 0.00 0.00 0.00 0.00 0.00 0.00 0.01 0.00 0.02 0.03 0.01 0.00 0.00 0.00 0.00
0.00 0.00 0.01 0.02 0.05 0.01 0.00 0.01 0.06 0.05 0.02 0.04 0.02 0.01 0.02 0.08 0.13 0.08 0.05 0.01 0.00 0.00 0.00 0.00 0.00 0.00 0.00 0.00 0.00 0.00 0.00 0.00 0.00 0.00 0.01 0.03 0.03 0.03 0.01 0.00 0.00 0.00 0.00 0.00
0.00 0.00 0.00 0.02 0.01 0.00 0.00 0.01 0.01 0.02 0.03 0.01 0.02 0.04 0.14 0.15 0.08 0.06 0.01 0.00 0.00 0.00 0.00 0.00 0.00 0.00 0.00 0.00 0.00 0.00 0.01 0.00 0.00 0.01 0.03 0.04 0.04 0.03 0.01 0.01 0.00 0.00 0.00 0.00
0.02 0.00 0.00 0.01 0.00 0.00 0.01 0.01 0.00 0.01 0.05 0.07 0.13 0.19 0.13 0.11 0.07 0.01 0.00 0.00 0.00 0.00 0.00 0.00 0.00 0.00 0.00 0.00 0.00 0.00 0.00 0.00 0.00 0.01 0.01 0.02 0.02 0.01 0.01 0.00 0.00 0.00 0.00 0.00
0.03 0.04 0.02 0.03 0.01 0.01 0.02 0.03 0.08 0.18 0.26 0.24 0.18 0.13 0.11 0.04 0.00 0.00 0.00 0.00 0.00 0.00 0.00 0.00 0.01 0.02 0.00 0.00 0.00 0.00 0.00 0.00 0.00 0.00 0.00 0.00 0.01 0.01 0.00 0.00 0.00 0.00 0.00 0.00
0.02 0.01 0.04 0.04 0.05 0.10 0.12 0.23 0.42 0.32 0.21 0.21 0.15 0.04 0.00 0.00 0.00 0.00 0.00 0.00 0.00 0.00 0.00 0.01 0.01 0.00 0.00 0.00 0.00 0.00 0.00 0.00 0.00 0.00 0.00 0.00 0.00 0.00 0.00 0.00 0.00 0.00 0.00 0.00

GFSCGP_prec_precacc_027.txt.gz
Total_Precipitation_Accumulation
0.00 0.00 0.00 0.00 0.00 0.00 0.00 0.00 0.00 0.00 0.00 0.00 0.00 0.00 0.00 0.00 0.00 0.00 0.00 0.00 0.00 0.00 0.00 0.00 0.00 0.00 0.01 0.00 0.00 0.00 0.02 0.03 0.01 0.00 0.00 0.00 0.00 0.00 0.00 0.00 0.00 0.00 0.00 0.00
0.00 0.00 0.00 0.00 0.00 0.00 0.00 0.00 0.00 0.00 0.00 0.00 0.00 0.00 0.00 0.00 0.00 0.00 0.00 0.00 0.00 0.00 0.00 0.00 0.01 0.01 0.01 0.00 0.00 0.00 0.00 0.00 0.00 0.00 0.00 0.00 0.00 0.00 0.00 0.00 0.00 0.00 0.00 0.00
0.00 0.00 0.00 0.00 0.00 0.00 0.00 0.00 0.00 0.00 0.00 0.00 0.00 0.00 0.00 0.00 0.00 0.00 0.00 0.00 0.00 0.00 0.00 0.00 0.00 0.00 0.00 0.00 0.00 0.00 0.00 0.00 0.00 0.00 0.00 0.00 0.00 0.00 0.00 0.00 0.00 0.00 0.00 0.00
0.00 0.00 0.00 0.00 0.00 0.00 0.00 0.00 0.00 0.00 0.00 0.00 0.00 0.00 0.00 0.00 0.00 0.00 0.00 0.00 0.00 0.00 0.00 0.00 0.00 0.00 0.00 0.00 0.00 0.00 0.00 0.00 0.00 0.00 0.00 0.00 0.00 0.00 0.00 0.00 0.00 0.00 0.00 0.00
0.00 0.00 0.00 0.00 0.00 0.00 0.00 0.00 0.00 0.00 0.00 0.00 0.00 0.00 0.00 0.00 0.00 0.00 0.00 0.00 0.00 0.00 0.00 0.00 0.00 0.00 0.00 0.00 0.00 0.00 0.00 0.00 0.00 0.00 0.00 0.00 0.00 0.00 0.00 0.00 0.00 0.00 0.00 0.00
0.00 0.00 0.00 0.00 0.00 0.00 0.00 0.00 0.00 0.00 0.00 0.00 0.00 0.01 0.01 0.00 0.00 0.00 0.00 0.00 0.00 0.00 0.00 0.00 0.00 0.00 0.00 0.00 0.00 0.00 0.00 0.00 0.00 0.00 0.00 0.00 0.00 0.00 0.00 0.00 0.00 0.00 0.00 0.00
0.00 0.00 0.00 0.00 0.00 0.00 0.00 0.00 0.00 0.02 0.02 0.01 0.04 0.04 0.02 0.00 0.00 0.00 0.00 0.00 0.00 0.00 0.00 0.00 0.00 0.00 0.00 0.00 0.00 0.00 0.00 0.00 0.00 0.00 0.00 0.00 0.00 0.00 0.00 0.00 0.00 0.00 0.00 0.00
0.00 0.00 0.00 0.00 0.00 0.00 0.00 0.00 0.00 0.01 0.01 0.02 0.01 0.00 0.00 0.00 0.00 0.00 0.00 0.00 0.00 0.00 0.00 0.00 0.00 0.00 0.00 0.00 0.00 0.00 0.00 0.00 0.00 0.00 0.00 0.00 0.00 0.00 0.00 0.00 0.00 0.00 0.00 0.00
0.00 0.00 0.00 0.00 0.00 0.00 0.00 0.00 0.00 0.00 0.00 0.00 0.00 0.00 0.00 0.00 0.00 0.00 0.00 0.00 0.00 0.00 0.00 0.00 0.00 0.00 0.00 0.00 0.00 0.00 0.00 0.00 0.00 0.00 0.00 0.00 0.00 0.00 0.00 0.00 0.00 0.00 0.00 0.00
0.00 0.00 0.00 0.00 0.00 0.00 0.00 0.00 0.00 0.00 0.00 0.00 0.00 0.00 0.01 0.00 0.00 0.00 0.00 0.00 0.00 0.00 0.00 0.00 0.00 0.00 0.00 0.00 0.00 0.00 0.00 0.00 0.00 0.00 0.00 0.00 0.00 0.00 0.00 0.00 0.00 0.00 0.00 0.00
0.00 0.00 0.00 0.00 0.00 0.00 0.00 0.00 0.00 0.00 0.00 0.04 0.07 0.01 0.00 0.00 0.00 0.00 0.00 0.00 0.00 0.00 0.00 0.00 0.00 0.00 0.00 0.00 0.00 0.00 0.00 0.00 0.00 0.00 0.00 0.00 0.00 0.00 0.00 0.00 0.00 0.00 0.00 0.00
0.00 0.00 0.00 0.00 0.00 0.00 0.00 0.00 0.00 0.01 0.02 0.01 0.02 0.01 0.00 0.00 0.00 0.00 0.01 0.00 0.00 0.00 0.00 0.00 0.00 0.00 0.00 0.00 0.00 0.00 0.00 0.00 0.00 0.00 0.00 0.00 0.00 0.00 0.00 0.00 0.00 0.00 0.00 0.00
0.00 0.00 0.00 0.00 0.00 0.00 0.00 0.00 0.00 0.00 0.00 0.00 0.03 0.00 0.00 0.00 0.00 0.00 0.00 0.00 0.00 0.00 0.00 0.00 0.00 0.00 0.00 0.00 0.00 0.00 0.00 0.00 0.00 0.00 0.00 0.00 0.00 0.00 0.00 0.00 0.00 0.01 0.02 0.03
0.00 0.00 0.00 0.00 0.00 0.00 0.00 0.00 0.00 0.00 0.00 0.00 0.00 0.00 0.00 0.00 0.00 0.00 0.00 0.00 0.00 0.00 0.00 0.00 0.00 0.00 0.00 0.00 0.00 0.00 0.00 0.00 0.00 0.00 0.00 0.00 0.00 0.00 0.00 0.01 0.01 0.01 0.01 0.02
0.00 0.00 0.00 0.00 0.00 0.00 0.00 0.00 0.00 0.00 0.00 0.00 0.00 0.00 0.00 0.00 0.00 0.00 0.00 0.00 0.00 0.00 0.00 0.00 0.00 0.00 0.00 0.00 0.00 0.00 0.00 0.00 0.00 0.00 0.00 0.00 0.00 0.00 0.01 0.00 0.00 0.00 0.00 0.01
0.00 0.00 0.00 0.00 0.00 0.00 0.00 0.00 0.00 0.00 0.00 0.00 0.00 0.00 0.00 0.00 0.00 0.00 0.00 0.00 0.00 0.00 0.00 0.00 0.00 0.00 0.00 0.00 0.00 0.00 0.00 0.00 0.00 0.00 0.00 0.01 0.03 0.07 0.11 0.12 0.07 0.02 0.01 0.01
0.00 0.00 0.00 0.00 0.00 0.01 0.01 0.00 0.00 0.00 0.00 0.00 0.00 0.00 0.00 0.00 0.00 0.00 0.00 0.00 0.00 0.00 0.00 0.00 0.00 0.00 0.00 0.00 0.00 0.00 0.00 0.00 0.00 0.00 0.02 0.06 0.09 0.12 0.08 0.04 0.02 0.00 0.00 0.00
0.00 0.00 0.00 0.00 0.01 0.04 0.00 0.00 0.00 0.00 0.00 0.00 0.00 0.00 0.00 0.00 0.00 0.00 0.00 0.00 0.00 0.00 0.00 0.01 0.00 0.00 0.00 0.00 0.00 0.00 0.00 0.00 0.01 0.01 0.01 0.01 0.02 0.03 0.02 0.02 0.00 0.00 0.00 0.00
0.00 0.00 0.00 0.00 0.01 0.01 0.00 0.00 0.00 0.00 0.00 0.00 0.00 0.01 0.01 0.02 0.01 0.00 0.00 0.01 0.04 0.05 0.03 0.01 0.00 0.00 0.00 0.00 0.00 0.00 0.00 0.01 0.02 0.00 0.00 0.01 0.02 0.02 0.01 0.01 0.03 0.03 0.00 0.00
0.00 0.00 0.00 0.00 0.02 0.02 0.00 0.00 0.00 0.00 0.00 0.00 0.02 0.06 0.10 0.05 0.05 0.03 0.05 0.09 0.08 0.03 0.01 0.00 0.00 0.00 0.00 0.00 0.00 0.00 0.01 0.01 0.00 0.00 0.01 0.01 0.00 0.03 0.03 0.03 0.02 0.01 0.00 0.00
0.00 0.00 0.00 0.00 0.02 0.00 0.00 0.00 0.01 0.10 0.10 0.02 0.10 0.11 0.04 0.08 0.14 0.14 0.13 0.06 0.01 0.00 0.00 0.00 0.00 0.00 0.00 0.00 0.00 0.00 0.00 0.00 0.00 0.00 0.00 0.01 0.01 0.04 0.05 0.04 0.01 0.00 0.00 0.00
0.00 0.00 0.01 0.02 0.05 0.01 0.00 0.01 0.06 0.05 0.02 0.04 0.02 0.01 0.02 0.08 0.13 0.08 0.05 0.01 0.00 0.00 0.00 0.00 0.00 0.00 0.00 0.00 0.00 0.00 0.00 0.00 0.00 0.00 0.01 0.03 0.04 0.05 0.09 0.08 0.01 0.00 0.00 0.00
0.00 0.00 0.00 0.02 0.01 0.00 0.00 0.01 0.01 0.02 0.03 0.01 0.02 0.04 0.14 0.15 0.08 0.06 0.01 0.00 0.00 0.00 0.00 0.00 0.00 0.00 0.00 0.00 0.00 0.00 0.01 0.00 0.00 0.01 0.03 0.04 0.04 0.04 0.02 0.01 0.01 0.00 0.00 0.00
0.02 0.00 0.00 0.01 0.00 0.00 0.01 0.01 0.00 0.01 0.05 0.07 0.13 0.19 0.13 0.11 0.07 0.01 0.00 0.00 0.00 0.00 0.00 0.00 0.00 0.00 0.00 0.00 0.00 0.00 0.00 0.00 0.00 0.01 0.01 0.02 0.02 0.01 0.01 0.00 0.00 0.00 0.00 0.00
0.03 0.04 0.02 0.03 0.01 0.01 0.02 0.03 0.08 0.18 0.26 0.24 0.18 0.13 0.11 0.04 0.00 0.00 0.00 0.00 0.00 0.00 0.00 0.00 0.01 0.02 0.00 0.00 0.00 0.00 0.00 0.00 0.00 0.00 0.00 0.00 0.01 0.01 0.00 0.00 0.00 0.00 0.00 0.00
0.02 0.01 0.04 0.04 0.05 0.10 0.12 0.23 0.42 0.32 0.21 0.21 0.15 0.04 0.00 0.00 0.00 0.00 0.00 0.00 0.00 0.00 0.00 0.01 0.01 0.00 0.00 0.00 0.00 0.00 0.00 0.00 0.00 0.00 0.00 0.00 0.00 0.00 0.00 0.00 0.00 0.00 0.00 0.00

GFSCGP_prec_precacc_030.txt.gz
Total_Precipitation_Accumulation
0.00 0.00 0.00 0.00 0.00 0.00 0.00 0.00 0.00 0.00 0.00 0.00 0.00 0.00 0.00 0.00 0.00 0.00 0.00 0.00 0.00 0.00 0.00 0.00 0.00 0.01 0.02 0.01 0.02 0.04 0.06 0.06 0.02 0.01 0.01 0.00 0.00 0.00 0.00 0.00 0.00 0.00 0.00 0.00
0.00 0.00 0.00 0.00 0.00 0.00 0.00 0.00 0.00 0.00 0.00 0.00 0.00 0.00 0.00 0.00 0.00 0.00 0.00 0.00 0.00 0.00 0.00 0.00 0.02 0.03 0.05 0.06 0.04 0.01 0.00 0.00 0.00 0.00 0.00 0.00 0.00 0.00 0.00 0.00 0.00 0.00 0.00 0.00
0.00 0.00 0.00 0.00 0.00 0.00 0.00 0.00 0.00 0.00 0.00 0.00 0.00 0.00 0.00 0.00 0.00 0.00 0.00 0.00 0.00 0.00 0.00 0.01 0.01 0.01 0.01 0.00 0.00 0.00 0.00 0.00 0.00 0.00 0.00 0.00 0.00 0.00 0.00 0.00 0.00 0.00 0.00 0.00
0.00 0.00 0.00 0.00 0.00 0.00 0.00 0.00 0.00 0.00 0.00 0.00 0.00 0.00 0.00 0.00 0.00 0.00 0.00 0.00 0.00 0.00 0.00 0.00 0.00 0.00 0.00 0.00 0.00 0.00 0.00 0.00 0.00 0.00 0.00 0.00 0.00 0.00 0.00 0.00 0.00 0.00 0.00 0.00
0.00 0.00 0.00 0.00 0.00 0.00 0.00 0.00 0.00 0.00 0.00 0.00 0.00 0.00 0.00 0.00 0.00 0.00 0.00 0.00 0.00 0.00 0.00 0.00 0.00 0.00 0.00 0.00 0.00 0.00 0.00 0.00 0.00 0.00 0.00 0.00 0.00 0.00 0.00 0.00 0.00 0.00 0.00 0.00
0.00 0.00 0.00 0.00 0.00 0.00 0.00 0.00 0.00 0.00 0.00 0.00 0.00 0.01 0.01 0.00 0.00 0.00 0.00 0.00 0.00 0.00 0.00 0.00 0.00 0.00 0.00 0.00 0.00 0.00 0.00 0.00 0.00 0.00 0.00 0.00 0.00 0.00 0.00 0.00 0.00 0.00 0.00 0.00
0.00 0.00 0.00 0.00 0.00 0.00 0.00 0.00 0.00 0.02 0.02 0.01 0.04 0.04 0.02 0.00 0.00 0.00 0.00 0.00 0.00 0.00 0.00 0.00 0.00 0.00 0.00 0.00 0.00 0.00 0.00 0.00 0.00 0.00 0.00 0.00 0.00 0.00 0.00 0.00 0.00 0.00 0.00 0.00
0.00 0.00 0.00 0.00 0.00 0.00 0.00 0.00 0.00 0.01 0.01 0.02 0.01 0.00 0.00 0.00 0.00 0.00 0.00 0.00 0.00 0.00 0.00 0.00 0.00 0.00 0.00 0.00 0.00 0.00 0.00 0.00 0.00 0.00 0.00 0.00 0.00 0.00 0.00 0.00 0.00 0.00 0.00 0.00
0.00 0.00 0.00 0.00 0.00 0.00 0.00 0.00 0.00 0.00 0.00 0.00 0.00 0.00 0.00 0.00 0.00 0.00 0.00 0.00 0.00 0.00 0.00 0.00 0.00 0.00 0.00 0.00 0.00 0.00 0.00 0.00 0.00 0.00 0.00 0.00 0.00 0.00 0.00 0.00 0.00 0.00 0.00 0.00
0.00 0.00 0.00 0.00 0.00 0.00 0.00 0.00 0.00 0.00 0.00 0.00 0.00 0.00 0.01 0.00 0.00 0.00 0.00 0.00 0.00 0.00 0.00 0.00 0.00 0.00 0.00 0.00 0.00 0.00 0.00 0.00 0.00 0.00 0.00 0.00 0.00 0.00 0.00 0.00 0.00 0.00 0.00 0.00
0.00 0.00 0.00 0.00 0.00 0.00 0.00 0.00 0.00 0.00 0.00 0.04 0.07 0.01 0.00 0.00 0.00 0.00 0.00 0.00 0.00 0.00 0.00 0.00 0.00 0.00 0.00 0.00 0.00 0.00 0.00 0.00 0.00 0.00 0.00 0.00 0.00 0.00 0.00 0.00 0.00 0.00 0.00 0.00
0.00 0.00 0.00 0.00 0.00 0.00 0.00 0.00 0.00 0.01 0.02 0.01 0.02 0.01 0.00 0.00 0.00 0.00 0.01 0.00 0.00 0.00 0.00 0.00 0.00 0.00 0.00 0.00 0.00 0.00 0.00 0.00 0.00 0.00 0.00 0.00 0.00 0.00 0.00 0.00 0.00 0.00 0.00 0.00
0.00 0.00 0.00 0.00 0.00 0.00 0.00 0.00 0.00 0.00 0.00 0.00 0.03 0.00 0.00 0.00 0.00 0.00 0.00 0.00 0.00 0.00 0.00 0.00 0.00 0.00 0.00 0.00 0.00 0.00 0.00 0.00 0.00 0.00 0.00 0.00 0.00 0.00 0.00 0.00 0.00 0.01 0.02 0.03
0.00 0.00 0.00 0.00 0.00 0.00 0.00 0.00 0.00 0.00 0.00 0.00 0.00 0.00 0.00 0.00 0.00 0.00 0.00 0.00 0.00 0.00 0.00 0.00 0.00 0.00 0.00 0.00 0.00 0.00 0.00 0.00 0.00 0.00 0.00 0.00 0.00 0.00 0.00 0.01 0.02 0.01 0.03 0.06
0.00 0.00 0.00 0.00 0.00 0.00 0.00 0.00 0.00 0.00 0.00 0.00 0.00 0.00 0.00 0.00 0.00 0.00 0.00 0.00 0.00 0.00 0.00 0.00 0.00 0.00 0.00 0.00 0.00 0.00 0.00 0.00 0.00 0.00 0.00 0.00 0.00 0.00 0.01 0.01 0.01 0.03 0.06 0.03
0.00 0.00 0.00 0.00 0.00 0.00 0.00 0.00 0.00 0.00 0.00 0.00 0.00 0.00 0.00 0.00 0.00 0.00 0.00 0.00 0.00 0.00 0.00 0.00 0.00 0.00 0.00 0.00 0.00 0.00 0.00 0.00 0.00 0.00 0.00 0.01 0.03 0.07 0.11 0.14 0.10 0.07 0.08 0.04
0.00 0.00 0.00 0.00 0.00 0.01 0.01 0.00 0.00 0.00 0.00 0.00 0.00 0.00 0.00 0.00 0.00 0.00 0.00 0.00 0.00 0.00 0.00 0.00 0.00 0.00 0.00 0.00 0.00 0.00 0.00 0.00 0.00 0.00 0.02 0.06 0.09 0.12 0.09 0.05 0.06 0.05 0.02 0.00
0.00 0.00 0.00 0.00 0.01 0.04 0.00 0.00 0.00 0.00 0.00 0.00 0.00 0.00 0.00 0.00 0.00 0.00 0.00 0.00 0.00 0.00 0.00 0.01 0.00 0.00 0.00 0.00 0.00 0.00 0.00 0.00 0.01 0.01 0.01 0.01 0.02 0.03 0.03 0.02 0.02 0.01 0.01 0.02
0.00 0.00 0.00 0.00 0.01 0.01 0.00 0.00 0.00 0.00 0.00 0.00 0.00 0.01 0.01 0.02 0.01 0.00 0.00 0.01 0.04 0.05 0.03 0.01 0.00 0.00 0.00 0.00 0.00 0.00 0.00 0.01 0.02 0.00 0.00 0.01 0.02 0.03 0.02 0.02 0.03 0.04 0.04 0.02
0.00 0.00 0.00 0.00 0.02 0.02 0.00 0.00 0.00 0.00 0.00 0.00 0.02 0.06 0.10 0.05 0.05 0.03 0.05 0.09 0.08 0.03 0.01 0.00 0.00 0.00 0.00 0.00 0.00 0.00 0.01 0.01 0.00 0.00 0.01 0.01 0.00 0.03 0.03 0.04 0.03 0.04 0.02 0.00
0.00 0.00 0.00 0.00 0.02 0.00 0.00 0.00 0.01 0.10 0.10 0.02 0.10 0.11 0.04 0.08 0.14 0.14 0.13 0.06 0.01 0.00 0.00 0.00 0.00 0.00 0.00 0.00 0.00 0.00 0.00 0.00 0.00 0.00 0.00 0.01 0.01 0.04 0.05 0.04 0.02 0.00 0.00 0.00
0.00 0.00 0.01 0.02 0.05 0.01 0.00 0.01 0.06 0.05 0.02 0.04 0.02 0.01 0.02 0.08 0.13 0.08 0.05 0.01 0.00 0.00 0.00 0.00 0.00 0.00 0.00 0.00 0.00 0.00 0.00 0.00 0.00 0.00 0.01 0.03 0.04 0.05 0.09 0.08 0.02 0.01 0.00 0.00
0.00 0.00 0.00 0.02 0.01 0.00 0.00 0.01 0.01 0.02 0.03 0.01 0.02 0.04 0.14 0.15 0.08 0.06 0.01 0.00 0.00 0.00 0.00 0.00 0.00 0.00 0.00 0.00 0.00 0.00 0.01 0.00 0.00 0.01 0.03 0.04 0.04 0.04 0.02 0.01 0.01 0.00 0.00 0.00
0.02 0.00 0.00 0.01 0.00 0.00 0.01 0.01 0.00 0.01 0.05 0.07 0.13 0.19 0.13 0.11 0.07 0.01 0.00 0.00 0.00 0.00 0.00 0.00 0.00 0.00 0.00 0.00 0.00 0.00 0.00 0.00 0.00 0.01 0.01 0.02 0.02 0.01 0.01 0.00 0.00 0.00 0.00 0.00
0.03 0.04 0.02 0.03 0.01 0.01 0.02 0.03 0.08 0.18 0.26 0.24 0.18 0.13 0.11 0.04 0.00 0.00 0.00 0.00 0.00 0.00 0.00 0.00 0.01 0.02 0.00 0.00 0.00 0.00 0.00 0.00 0.00 0.00 0.00 0.00 0.01 0.01 0.00 0.00 0.00 0.00 0.00 0.00
0.02 0.01 0.04 0.04 0.05 0.10 0.12 0.23 0.42 0.32 0.21 0.21 0.15 0.04 0.00 0.00 0.00 0.00 0.00 0.00 0.00 0.00 0.00 0.01 0.01 0.00 0.00 0.00 0.00 0.00 0.00 0.00 0.00 0.00 0.00 0.00 0.00 0.00 0.00 0.00 0.00 0.00 0.00 0.00

GFSCGP_prec_precacc_036.txt.gz
Total_Precipitation_Accumulation
0.00 0.00 0.00 0.00 0.00 0.00 0.00 0.00 0.00 0.00 0.00 0.00 0.00 0.00 0.00 0.00 0.00 0.00 0.00 0.00 0.00 0.00 0.00 0.00 0.01 0.02 0.02 0.08 0.31 0.54 0.53 0.38 0.15 0.10 0.05 0.02 0.01 0.00 0.00 0.00 0.00 0.00 0.00 0.00
0.00 0.00 0.00 0.00 0.00 0.00 0.00 0.00 0.00 0.00 0.00 0.00 0.00 0.00 0.00 0.00 0.00 0.00 0.00 0.00 0.00 0.00 0.00 0.00 0.04 0.09 0.16 0.25 0.20 0.09 0.03 0.00 0.00 0.00 0.00 0.00 0.00 0.00 0.00 0.00 0.00 0.00 0.00 0.00
0.00 0.00 0.00 0.00 0.00 0.00 0.00 0.00 0.00 0.00 0.00 0.00 0.00 0.00 0.00 0.00 0.00 0.00 0.00 0.00 0.00 0.00 0.00 0.04 0.05 0.07 0.05 0.02 0.00 0.00 0.00 0.00 0.00 0.00 0.00 0.00 0.00 0.00 0.00 0.00 0.00 0.00 0.00 0.00
0.00 0.00 0.00 0.00 0.00 0.00 0.00 0.00 0.00 0.00 0.00 0.00 0.00 0.00 0.00 0.00 0.00 0.00 0.00 0.00 0.00 0.00 0.01 0.01 0.00 0.00 0.00 0.00 0.00 0.00 0.00 0.00 0.00 0.00 0.00 0.00 0.00 0.00 0.00 0.00 0.00 0.00 0.00 0.00
0.00 0.00 0.00 0.00 0.00 0.00 0.00 0.00 0.00 0.00 0.00 0.00 0.00 0.00 0.00 0.00 0.00 0.00 0.00 0.00 0.00 0.00 0.00 0.00 0.00 0.00 0.00 0.00 0.00 0.00 0.00 0.00 0.00 0.00 0.00 0.00 0.00 0.00 0.00 0.00 0.00 0.00 0.00 0.00
0.00 0.00 0.00 0.00 0.00 0.00 0.00 0.00 0.00 0.00 0.00 0.00 0.00 0.01 0.01 0.00 0.00 0.00 0.00 0.00 0.00 0.00 0.00 0.00 0.00 0.00 0.00 0.00 0.00 0.00 0.00 0.00 0.00 0.00 0.00 0.00 0.00 0.00 0.00 0.00 0.00 0.00 0.00 0.00
0.00 0.00 0.00 0.00 0.00 0.00 0.00 0.00 0.00 0.02 0.02 0.01 0.04 0.04 0.02 0.00 0.00 0.00 0.00 0.00 0.00 0.00 0.00 0.00 0.00 0.00 0.00 0.00 0.00 0.00 0.00 0.00 0.00 0.00 0.00 0.00 0.00 0.00 0.00 0.00 0.00 0.00 0.00 0.00
0.00 0.00 0.00 0.00 0.00 0.00 0.00 0.00 0.00 0.01 0.01 0.02 0.01 0.00 0.00 0.00 0.00 0.00 0.00 0.00 0.00 0.00 0.00 0.00 0.00 0.00 0.00 0.00 0.00 0.00 0.00 0.00 0.00 0.00 0.00 0.00 0.00 0.00 0.00 0.00 0.00 0.00 0.00 0.00
0.00 0.00 0.00 0.00 0.00 0.00 0.00 0.00 0.00 0.00 0.00 0.00 0.00 0.00 0.00 0.00 0.00 0.00 0.00 0.00 0.00 0.00 0.00 0.00 0.00 0.00 0.00 0.00 0.00 0.00 0.00 0.00 0.00 0.00 0.00 0.00 0.00 0.00 0.00 0.00 0.00 0.00 0.00 0.00
0.00 0.00 0.00 0.00 0.00 0.00 0.00 0.00 0.00 0.00 0.00 0.00 0.00 0.00 0.01 0.00 0.00 0.00 0.00 0.00 0.00 0.00 0.00 0.00 0.00 0.00 0.00 0.00 0.00 0.00 0.00 0.00 0.00 0.00 0.00 0.00 0.00 0.00 0.00 0.00 0.00 0.00 0.00 0.00
0.00 0.00 0.00 0.00 0.00 0.00 0.00 0.00 0.00 0.00 0.00 0.04 0.07 0.01 0.00 0.00 0.00 0.00 0.00 0.00 0.00 0.00 0.00 0.00 0.00 0.00 0.00 0.00 0.00 0.00 0.00 0.00 0.00 0.00 0.00 0.00 0.00 0.00 0.00 0.00 0.00 0.00 0.00 0.00
0.00 0.00 0.00 0.00 0.00 0.00 0.00 0.00 0.00 0.01 0.02 0.01 0.02 0.01 0.00 0.00 0.00 0.00 0.01 0.00 0.00 0.00 0.00 0.00 0.00 0.00 0.00 0.00 0.00 0.00 0.00 0.00 0.00 0.00 0.00 0.00 0.00 0.00 0.00 0.00 0.00 0.00 0.00 0.00
0.00 0.00 0.00 0.00 0.00 0.00 0.00 0.00 0.00 0.00 0.00 0.00 0.03 0.00 0.00 0.00 0.00 0.00 0.00 0.00 0.00 0.00 0.00 0.00 0.00 0.00 0.00 0.00 0.00 0.00 0.00 0.00 0.00 0.00 0.00 0.00 0.00 0.00 0.00 0.00 0.00 0.01 0.02 0.03
0.00 0.00 0.00 0.00 0.00 0.00 0.00 0.00 0.00 0.00 0.00 0.00 0.00 0.00 0.00 0.00 0.00 0.00 0.00 0.00 0.00 0.00 0.00 0.00 0.00 0.00 0.00 0.00 0.00 0.00 0.00 0.00 0.00 0.00 0.00 0.00 0.00 0.00 0.00 0.01 0.02 0.01 0.03 0.07
0.00 0.00 0.00 0.00 0.00 0.00 0.00 0.00 0.00 0.00 0.00 0.00 0.00 0.00 0.00 0.00 0.00 0.00 0.00 0.00 0.00 0.00 0.00 0.00 0.00 0.00 0.00 0.00 0.00 0.00 0.00 0.00 0.00 0.00 0.00 0.00 0.00 0.00 0.01 0.01 0.01 0.04 0.06 0.05
0.00 0.00 0.00 0.00 0.00 0.00 0.00 0.00 0.00 0.00 0.00 0.00 0.00 0.00 0.00 0.00 0.00 0.00 0.00 0.00 0.00 0.00 0.00 0.00 0.00 0.00 0.00 0.00 0.00 0.00 0.00 0.00 0.00 0.00 0.00 0.01 0.03 0.07 0.11 0.14 0.10 0.07 0.08 0.08
0.00 0.00 0.00 0.00 0.00 0.01 0.01 0.00 0.00 0.00 0.00 0.00 0.00 0.00 0.00 0.00 0.00 0.00 0.00 0.00 0.00 0.00 0.00 0.00 0.00 0.00 0.00 0.00 0.00 0.00 0.00 0.00 0.00 0.00 0.02 0.06 0.09 0.12 0.09 0.05 0.06 0.05 0.02 0.01
0.00 0.00 0.00 0.00 0.01 0.04 0.00 0.00 0.00 0.00 0.00 0.00 0.00 0.00 0.00 0.00 0.00 0.00 0.00 0.00 0.00 0.00 0.00 0.01 0.00 0.00 0.00 0.00 0.00 0.00 0.00 0.00 0.01 0.01 0.01 0.01 0.02 0.03 0.03 0.02 0.02 0.01 0.01 0.02
0.00 0.00 0.00 0.00 0.01 0.01 0.00 0.00 0.00 0.00 0.00 0.00 0.00 0.01 0.01 0.02 0.01 0.00 0.00 0.01 0.04 0.05 0.03 0.01 0.00 0.00 0.00 0.00 0.00 0.00 0.00 0.01 0.02 0.00 0.00 0.01 0.02 0.03 0.02 0.02 0.03 0.04 0.07 0.04
0.00 0.00 0.00 0.00 0.02 0.02 0.00 0.00 0.00 0.00 0.00 0.00 0.02 0.06 0.10 0.05 0.05 0.03 0.05 0.09 0.08 0.03 0.01 0.00 0.00 0.00 0.00 0.00 0.00 0.00 0.01 0.01 0.00 0.00 0.01 0.01 0.00 0.03 0.03 0.04 0.03 0.04 0.03 0.00
0.00 0.00 0.00 0.00 0.02 0.00 0.00 0.00 0.01 0.10 0.10 0.02 0.10 0.11 0.04 0.08 0.14 0.14 0.13 0.06 0.01 0.00 0.00 0.00 0.00 0.00 0.00 0.00 0.00 0.00 0.00 0.00 0.00 0.00 0.00 0.01 0.01 0.04 0.05 0.04 0.02 0.02 0.02 0.00
0.00 0.00 0.01 0.02 0.05 0.01 0.00 0.01 0.06 0.05 0.02 0.04 0.02 0.01 0.02 0.08 0.13 0.08 0.05 0.01 0.00 0.00 0.00 0.00 0.00 0.00 0.00 0.00 0.00 0.00 0.00 0.00 0.00 0.00 0.01 0.03 0.04 0.05 0.09 0.08 0.02 0.01 0.00 0.00
0.00 0.00 0.00 0.02 0.01 0.00 0.00 0.01 0.01 0.02 0.03 0.01 0.02 0.04 0.14 0.15 0.08 0.06 0.01 0.00 0.00 0.00 0.00 0.00 0.00 0.00 0.00 0.00 0.00 0.00 0.01 0.00 0.00 0.01 0.03 0.04 0.04 0.04 0.02 0.01 0.01 0.00 0.00 0.00
0.02 0.00 0.00 0.01 0.00 0.00 0.01 0.01 0.00 0.01 0.05 0.07 0.13 0.19 0.13 0.11 0.07 0.01 0.00 0.00 0.00 0.00 0.00 0.00 0.00 0.00 0.00 0.00 0.00 0.00 0.00 0.00 0.00 0.01 0.01 0.02 0.02 0.01 0.01 0.00 0.00 0.00 0.00 0.00
0.03 0.04 0.02 0.03 0.01 0.01 0.02 0.03 0.08 0.18 0.26 0.24 0.18 0.13 0.11 0.04 0.00 0.00 0.00 0.00 0.00 0.00 0.00 0.00 0.01 0.02 0.00 0.00 0.00 0.00 0.00 0.00 0.00 0.00 0.00 0.00 0.01 0.01 0.00 0.00 0.00 0.00 0.00 0.00
0.02 0.01 0.04 0.04 0.05 0.10 0.12 0.23 0.42 0.32 0.21 0.21 0.15 0.04 0.00 0.00 0.00 0.00 0.00 0.00 0.00 0.00 0.00 0.01 0.01 0.00 0.00 0.00 0.00 0.00 0.00 0.00 0.00 0.00 0.00 0.01 0.01 0.00 0.00 0.00 0.00 0.00 0.00 0.00

GFSCGP_prec_precacc_039.txt.gz
Total_Precipitation_Accumulation
0.00 0.00 0.00 0.00 0.00 0.00 0.00 0.00 0.00 0.00 0.00 0.00 0.00 0.00 0.00 0.00 0.00 0.00 0.00 0.00 0.00 0.00 0.00 0.00 0.01 0.03 0.03 0.12 0.42 0.62 0.64 0.62 0.31 0.11 0.05 0.02 0.01 0.00 0.00 0.00 0.00 0.00 0.00 0.00
0.00 0.00 0.00 0.00 0.00 0.00 0.00 0.00 0.00 0.00 0.00 0.00 0.00 0.00 0.00 0.00 0.00 0.00 0.00 0.00 0.00 0.00 0.00 0.00 0.05 0.09 0.17 0.30 0.28 0.13 0.04 0.00 0.00 0.00 0.00 0.00 0.00 0.00 0.00 0.00 0.00 0.00 0.00 0.00
0.00 0.00 0.00 0.00 0.00 0.00 0.00 0.00 0.00 0.00 0.00 0.00 0.00 0.00 0.00 0.00 0.00 0.00 0.00 0.00 0.00 0.00 0.00 0.04 0.05 0.07 0.06 0.02 0.00 0.00 0.00 0.00 0.00 0.00 0.00 0.00 0.00 0.00 0.00 0.00 0.00 0.00 0.00 0.00
0.00 0.00 0.00 0.00 0.00 0.00 0.00 0.00 0.00 0.00 0.00 0.00 0.00 0.00 0.00 0.00 0.00 0.00 0.00 0.00 0.00 0.00 0.01 0.01 0.00 0.00 0.00 0.00 0.00 0.00 0.00 0.00 0.00 0.00 0.00 0.00 0.00 0.00 0.00 0.00 0.00 0.00 0.00 0.00
0.00 0.00 0.00 0.00 0.00 0.00 0.00 0.00 0.00 0.00 0.00 0.00 0.00 0.00 0.00 0.00 0.00 0.00 0.00 0.00 0.00 0.00 0.00 0.00 0.00 0.00 0.00 0.00 0.00 0.00 0.00 0.00 0.00 0.00 0.00 0.00 0.00 0.00 0.00 0.00 0.00 0.00 0.00 0.00
0.00 0.00 0.00 0.00 0.00 0.00 0.00 0.00 0.00 0.00 0.00 0.00 0.00 0.01 0.01 0.00 0.00 0.00 0.00 0.00 0.00 0.00 0.00 0.00 0.00 0.00 0.00 0.00 0.00 0.00 0.00 0.00 0.00 0.00 0.00 0.00 0.00 0.00 0.00 0.00 0.00 0.00 0.00 0.00
0.00 0.00 0.00 0.00 0.00 0.00 0.00 0.00 0.00 0.02 0.02 0.01 0.04 0.04 0.02 0.00 0.00 0.00 0.00 0.00 0.00 0.00 0.00 0.00 0.00 0.00 0.00 0.00 0.00 0.00 0.00 0.00 0.00 0.00 0.00 0.00 0.00 0.00 0.00 0.00 0.00 0.00 0.00 0.00
0.00 0.00 0.00 0.00 0.00 0.00 0.00 0.00 0.00 0.01 0.01 0.02 0.01 0.00 0.00 0.00 0.00 0.00 0.00 0.00 0.00 0.00 0.00 0.00 0.00 0.00 0.00 0.00 0.00 0.00 0.00 0.00 0.00 0.00 0.00 0.00 0.00 0.00 0.00 0.00 0.00 0.00 0.00 0.00
0.00 0.00 0.00 0.00 0.00 0.00 0.00 0.00 0.00 0.00 0.00 0.00 0.00 0.00 0.00 0.00 0.00 0.00 0.00 0.00 0.00 0.00 0.00 0.00 0.00 0.00 0.00 0.00 0.00 0.00 0.00 0.00 0.00 0.00 0.00 0.00 0.00 0.00 0.00 0.00 0.00 0.00 0.00 0.00
0.00 0.00 0.00 0.00 0.00 0.00 0.00 0.00 0.00 0.00 0.00 0.00 0.00 0.00 0.01 0.00 0.00 0.00 0.00 0.00 0.00 0.00 0.00 0.00 0.00 0.00 0.00 0.00 0.00 0.00 0.00 0.00 0.00 0.00 0.00 0.00 0.00 0.00 0.00 0.00 0.00 0.00 0.00 0.00
0.00 0.00 0.00 0.00 0.00 0.00 0.00 0.00 0.00 0.00 0.00 0.04 0.07 0.01 0.00 0.00 0.00 0.00 0.00 0.00 0.00 0.00 0.00 0.00 0.00 0.00 0.00 0.00 0.00 0.00 0.00 0.00 0.00 0.00 0.00 0.00 0.00 0.00 0.00 0.00 0.00 0.00 0.00 0.00
0.00 0.00 0.00 0.00 0.00 0.00 0.00 0.00 0.00 0.01 0.02 0.01 0.02 0.01 0.00 0.00 0.00 0.00 0.01 0.00 0.00 0.00 0.00 0.00 0.00 0.00 0.00 0.00 0.00 0.00 0.00 0.00 0.00 0.00 0.00 0.00 0.00 0.00 0.00 0.00 0.00 0.00 0.00 0.00
0.00 0.00 0.00 0.00 0.00 0.00 0.00 0.00 0.00 0.00 0.00 0.00 0.03 0.00 0.00 0.00 0.00 0.00 0.00 0.00 0.00 0.00 0.00 0.00 0.00 0.00 0.00 0.00 0.00 0.00 0.00 0.00 0.00 0.00 0.00 0.00 0.00 0.00 0.00 0.00 0.00 0.01 0.02 0.03
0.00 0.00 0.00 0.00 0.00 0.00 0.00 0.00 0.00 0.00 0.00 0.00 0.00 0.00 0.00 0.00 0.00 0.00 0.00 0.00 0.00 0.00 0.00 0.00 0.00 0.00 0.00 0.00 0.00 0.00 0.00 0.00 0.00 0.00 0.00 0.00 0.00 0.00 0.00 0.01 0.02 0.01 0.03 0.07
0.00 0.00 0.00 0.00 0.00 0.00 0.00 0.00 0.00 0.00 0.00 0.00 0.00 0.00 0.00 0.00 0.00 0.00 0.00 0.00 0.00 0.00 0.00 0.00 0.00 0.00 0.00 0.00 0.00 0.00 0.00 0.00 0.00 0.00 0.00 0.00 0.00 0.00 0.01 0.01 0.01 0.04 0.06 0.05
0.00 0.00 0.00 0.00 0.00 0.00 0.00 0.00 0.00 0.00 0.00 0.00 0.00 0.00 0.00 0.00 0.00 0.00 0.00 0.00 0.00 0.00 0.00 0.00 0.00 0.00 0.00 0.00 0.00 0.00 0.00 0.00 0.00 0.00 0.00 0.01 0.03 0.07 0.11 0.14 0.10 0.07 0.08 0.08
0.00 0.00 0.00 0.00 0.00 0.01 0.01 0.00 0.00 0.00 0.00 0.00 0.00 0.00 0.00 0.00 0.00 0.00 0.00 0.00 0.00 0.00 0.00 0.00 0.00 0.00 0.00 0.00 0.00 0.00 0.00 0.00 0.00 0.00 0.02 0.06 0.09 0.12 0.09 0.05 0.06 0.05 0.02 0.01
0.00 0.00 0.00 0.00 0.01 0.04 0.00 0.00 0.00 0.00 0.00 0.00 0.00 0.00 0.00 0.00 0.00 0.00 0.00 0.00 0.00 0.00 0.00 0.01 0.00 0.00 0.00 0.00 0.00 0.00 0.00 0.00 0.01 0.01 0.01 0.01 0.02 0.03 0.03 0.02 0.02 0.01 0.01 0.03
0.00 0.00 0.00 0.00 0.01 0.01 0.00 0.00 0.00 0.00 0.00 0.00 0.00 0.01 0.01 0.02 0.01 0.00 0.00 0.01 0.04 0.05 0.03 0.01 0.00 0.00 0.00 0.00 0.00 0.00 0.00 0.01 0.02 0.00 0.00 0.01 0.02 0.03 0.02 0.02 0.03 0.04 0.07 0.04
0.00 0.00 0.00 0.00 0.02 0.02 0.00 0.00 0.00 0.00 0.00 0.00 0.02 0.06 0.10 0.05 0.05 0.03 0.05 0.09 0.08 0.03 0.01 0.00 0.00 0.00 0.00 0.00 0.00 0.00 0.01 0.01 0.00 0.00 0.01 0.01 0.00 0.03 0.03 0.04 0.03 0.04 0.03 0.01
0.00 0.00 0.00 0.00 0.02 0.00 0.00 0.00 0.01 0.10 0.10 0.02 0.10 0.11 0.04 0.08 0.14 0.14 0.13 0.06 0.01 0.00 0.00 0.00 0.00 0.00 0.00 0.00 0.00 0.00 0.00 0.00 0.00 0.00 0.00 0.01 0.01 0.04 0.05 0.04 0.02 0.02 0.02 0.01
0.00 0.00 0.01 0.02 0.05 0.01 0.00 0.01 0.06 0.05 0.02 0.04 0.02 0.01 0.02 0.08 0.13 0.08 0.05 0.01 0.00 0.00 0.00 0.00 0.00 0.00 0.00 0.00 0.00 0.00 0.00 0.00 0.00 0.00 0.01 0.03 0.04 0.05 0.09 0.08 0.02 0.01 0.00 0.00
0.00 0.00 0.00 0.02 0.01 0.00 0.00 0.01 0.01 0.02 0.03 0.01 0.02 0.04 0.14 0.15 0.08 0.06 0.01 0.00 0.00 0.00 0.00 0.00 0.00 0.00 0.00 0.00 0.00 0.00 0.01 0.00 0.00 0.01 0.03 0.04 0.04 0.04 0.02 0.01 0.01 0.00 0.00 0.01
0.02 0.00 0.00 0.01 0.00 0.00 0.01 0.01 0.00 0.01 0.05 0.07 0.13 0.19 0.13 0.11 0.07 0.01 0.00 0.00 0.00 0.00 0.00 0.00 0.00 0.00 0.00 0.00 0.00 0.00 0.00 0.00 0.00 0.01 0.01 0.02 0.02 0.01 0.01 0.00 0.00 0.00 0.00 0.00
0.03 0.04 0.02 0.03 0.01 0.01 0.02 0.03 0.08 0.18 0.26 0.24 0.18 0.13 0.11 0.04 0.00 0.00 0.00 0.01 0.01 0.01 0.00 0.00 0.01 0.02 0.00 0.00 0.00 0.00 0.00 0.00 0.00 0.00 0.00 0.00 0.01 0.02 0.00 0.00 0.00 0.00 0.00 0.00
0.02 0.01 0.04 0.04 0.05 0.10 0.12 0.23 0.42 0.32 0.21 0.21 0.15 0.04 0.00 0.00 0.00 0.02 0.03 0.01 0.00 0.00 0.00 0.01 0.01 0.00 0.00 0.00 0.00 0.00 0.00 0.00 0.00 0.00 0.00 0.01 0.01 0.01 0.00 0.00 0.00 0.00 0.00 0.00

GFSCGP_prec_precacc_042.txt.gz
Total_Precipitation_Accumulation
0.00 0.00 0.00 0.00 0.00 0.00 0.00 0.00 0.00 0.00 0.00 0.00 0.00 0.00 0.00 0.00 0.00 0.00 0.00 0.00 0.00 0.00 0.00 0.00 0.01 0.03 0.03 0.13 0.43 0.65 0.68 0.73 0.49 0.16 0.06 0.02 0.01 0.00 0.00 0.00 0.00 0.00 0.00 0.00
0.00 0.00 0.00 0.00 0.00 0.00 0.00 0.00 0.00 0.00 0.00 0.00 0.00 0.00 0.00 0.00 0.00 0.00 0.00 0.00 0.00 0.00 0.00 0.00 0.05 0.10 0.17 0.31 0.29 0.14 0.05 0.01 0.00 0.00 0.00 0.00 0.00 0.00 0.00 0.00 0.00 0.00 0.00 0.00
0.00 0.00 0.00 0.00 0.00 0.00 0.00 0.00 0.00 0.00 0.00 0.00 0.00 0.00 0.00 0.00 0.00 0.00 0.00 0.00 0.00 0.00 0.00 0.04 0.05 0.07 0.06 0.02 0.00 0.00 0.00 0.00 0.00 0.00 0.00 0.00 0.00 0.00 0.00 0.00 0.00 0.00 0.00 0.00
0.00 0.00 0.00 0.00 0.00 0.00 0.00 0.00 0.00 0.00 0.00 0.00 0.00 0.00 0.00 0.00 0.00 0.00 0.00 0.00 0.00 0.00 0.01 0.01 0.00 0.00 0.00 0.00 0.00 0.00 0.00 0.00 0.00 0.00 0.00 0.00 0.00 0.00 0.00 0.00 0.00 0.00 0.00 0.00
0.00 0.00 0.00 0.00 0.00 0.00 0.00 0.00 0.00 0.00 0.00 0.00 0.00 0.00 0.00 0.00 0.00 0.00 0.00 0.00 0.00 0.00 0.00 0.00 0.00 0.00 0.00 0.00 0.00 0.00 0.00 0.00 0.00 0.00 0.00 0.00 0.00 0.00 0.00 0.00 0.00 0.00 0.00 0.00
0.00 0.00 0.00 0.00 0.00 0.00 0.00 0.00 0.00 0.00 0.00 0.00 0.00 0.01 0.01 0.00 0.00 0.00 0.00 0.00 0.00 0.00 0.00 0.00 0.00 0.00 0.00 0.00 0.00 0.00 0.00 0.00 0.00 0.00 0.00 0.00 0.00 0.00 0.00 0.00 0.00 0.00 0.00 0.00
0.00 0.00 0.00 0.00 0.00 0.00 0.00 0.00 0.00 0.02 0.02 0.01 0.04 0.04 0.02 0.00 0.00 0.00 0.00 0.00 0.00 0.00 0.00 0.00 0.00 0.00 0.00 0.00 0.00 0.00 0.00 0.00 0.00 0.00 0.00 0.00 0.00 0.00 0.00 0.00 0.00 0.00 0.00 0.00
0.00 0.00 0.00 0.00 0.00 0.00 0.00 0.00 0.00 0.01 0.01 0.02 0.01 0.00 0.00 0.00 0.00 0.00 0.00 0.00 0.00 0.00 0.00 0.00 0.00 0.00 0.00 0.00 0.00 0.00 0.00 0.00 0.00 0.00 0.00 0.00 0.00 0.00 0.00 0.00 0.00 0.00 0.00 0.00
0.00 0.00 0.00 0.00 0.00 0.00 0.00 0.00 0.00 0.00 0.00 0.00 0.00 0.00 0.00 0.00 0.00 0.00 0.00 0.00 0.00 0.00 0.00 0.00 0.00 0.00 0.00 0.00 0.00 0.00 0.00 0.00 0.00 0.00 0.00 0.00 0.00 0.00 0.00 0.00 0.00 0.00 0.00 0.00
0.00 0.00 0.00 0.00 0.00 0.00 0.00 0.00 0.00 0.00 0.00 0.00 0.00 0.00 0.01 0.00 0.00 0.00 0.00 0.00 0.00 0.00 0.00 0.00 0.00 0.00 0.00 0.00 0.00 0.00 0.00 0.00 0.00 0.00 0.00 0.00 0.00 0.00 0.00 0.00 0.00 0.00 0.00 0.00
0.00 0.00 0.00 0.00 0.00 0.00 0.00 0.00 0.00 0.00 0.00 0.04 0.07 0.01 0.00 0.00 0.00 0.00 0.00 0.00 0.00 0.00 0.00 0.00 0.00 0.00 0.00 0.00 0.00 0.00 0.00 0.00 0.00 0.00 0.00 0.00 0.00 0.00 0.00 0.00 0.00 0.00 0.00 0.00
0.00 0.00 0.00 0.00 0.00 0.00 0.00 0.00 0.00 0.01 0.02 0.01 0.02 0.01 0.00 0.00 0.00 0.00 0.01 0.00 0.00 0.00 0.00 0.00 0.00 0.00 0.00 0.00 0.00 0.00 0.00 0.00 0.00 0.00 0.00 0.00 0.00 0.00 0.00 0.00 0.00 0.00 0.00 0.00
0.00 0.00 0.00 0.00 0.00 0.00 0.00 0.00 0.00 0.00 0.00 0.00 0.03 0.00 0.00 0.00 0.00 0.00 0.00 0.00 0.00 0.00 0.00 0.00 0.00 0.00 0.00 0.00 0.00 0.00 0.00 0.00 0.00 0.00 0.00 0.00 0.00 0.00 0.00 0.00 0.00 0.01 0.02 0.03
0.00 0.00 0.00 0.00 0.00 0.00 0.00 0.00 0.00 0.00 0.00 0.00 0.00 0.00 0.00 0.00 0.00 0.00 0.00 0.00 0.00 0.00 0.00 0.00 0.00 0.00 0.00 0.00 0.00 0.00 0.00 0.00 0.00 0.00 0.00 0.00 0.00 0.00 0.00 0.01 0.02 0.01 0.03 0.07
0.00 0.00 0.00 0.00 0.00 0.00 0.00 0.00 0.00 0.00 0.00 0.00 0.00 0.00 0.00 0.00 0.00 0.00 0.00 0.00 0.00 0.00 0.00 0.00 0.00 0.00 0.00 0.00 0.00 0.00 0.00 0.00 0.00 0.00 0.00 0.00 0.00 0.00 0.01 0.01 0.01 0.04 0.06 0.05
0.00 0.00 0.00 0.00 0.00 0.00 0.00 0.00 0.00 0.00 0.00 0.00 0.00 0.00 0.00 0.00 0.00 0.00 0.00 0.00 0.00 0.00 0.00 0.00 0.00 0.00 0.00 0.00 0.00 0.00 0.00 0.00 0.00 0.00 0.00 0.01 0.03 0.07 0.11 0.14 0.10 0.07 0.08 0.08
0.00 0.00 0.00 0.00 0.00 0.01 0.01 0.00 0.00 0.00 0.00 0.00 0.00 0.00 0.00 0.00 0.00 0.00 0.00 0.00 0.00 0.00 0.00 0.00 0.00 0.00 0.00 0.00 0.00 0.00 0.00 0.00 0.00 0.00 0.02 0.06 0.09 0.12 0.09 0.05 0.06 0.05 0.02 0.01
0.00 0.00 0.00 0.00 0.01 0.04 0.00 0.00 0.00 0.00 0.00 0.00 0.00 0.00 0.00 0.00 0.00 0.00 0.00 0.00 0.00 0.00 0.00 0.01 0.00 0.00 0.00 0.00 0.00 0.00 0.00 0.00 0.01 0.01 0.01 0.01 0.02 0.03 0.03 0.02 0.02 0.01 0.01 0.03
0.00 0.00 0.00 0.00 0.01 0.01 0.00 0.00 0.00 0.00 0.00 0.00 0.00 0.01 0.01 0.02 0.01 0.00 0.00 0.01 0.04 0.05 0.03 0.01 0.00 0.00 0.00 0.00 0.00 0.00 0.00 0.01 0.02 0.00 0.00 0.01 0.02 0.03 0.02 0.02 0.03 0.04 0.07 0.04
0.00 0.00 0.00 0.00 0.02 0.02 0.00 0.00 0.00 0.00 0.00 0.00 0.02 0.06 0.10 0.05 0.05 0.03 0.05 0.09 0.08 0.03 0.01 0.00 0.00 0.00 0.00 0.00 0.00 0.00 0.01 0.01 0.00 0.00 0.01 0.01 0.00 0.03 0.03 0.04 0.03 0.04 0.03 0.01
0.00 0.00 0.00 0.00 0.02 0.00 0.00 0.00 0.01 0.10 0.10 0.02 0.10 0.11 0.04 0.08 0.14 0.14 0.13 0.06 0.01 0.00 0.00 0.00 0.00 0.00 0.00 0.00 0.00 0.00 0.00 0.00 0.00 0.00 0.00 0.01 0.01 0.04 0.05 0.04 0.02 0.02 0.03 0.01
0.00 0.00 0.01 0.02 0.05 0.01 0.00 0.01 0.06 0.05 0.02 0.04 0.02 0.01 0.02 0.08 0.13 0.08 0.05 0.01 0.00 0.00 0.00 0.00 0.00 0.00 0.00 0.00 0.00 0.00 0.00 0.00 0.00 0.00 0.01 0.03 0.04 0.05 0.09 0.08 0.03 0.01 0.00 0.00
0.00 0.00 0.00 0.02 0.01 0.00 0.00 0.01 0.01 0.02 0.03 0.01 0.02 0.04 0.14 0.15 0.08 0.06 0.01 0.00 0.00 0.00 0.00 0.00 0.00 0.00 0.00 0.00 0.00 0.00 0.01 0.00 0.00 0.01 0.03 0.04 0.04 0.04 0.02 0.01 0.01 0.00 0.00 0.01
0.02 0.00 0.00 0.01 0.00 0.00 0.01 0.01 0.00 0.01 0.05 0.07 0.13 0.19 0.13 0.11 0.07 0.01 0.00 0.00 0.00 0.00 0.01 0.01 0.00 0.00 0.00 0.00 0.00 0.00 0.00 0.00 0.00 0.01 0.01 0.02 0.02 0.01 0.01 0.00 0.00 0.00 0.00 0.01
0.03 0.04 0.02 0.03 0.01 0.01 0.02 0.03 0.08 0.18 0.26 0.24 0.18 0.13 0.11 0.04 0.00 0.00 0.00 0.01 0.02 0.02 0.01 0.00 0.01 0.02 0.00 0.00 0.00 0.00 0.00 0.00 0.00 0.00 0.00 0.00 0.01 0.02 0.00 0.00 0.00 0.00 0.00 0.01
0.02 0.01 0.04 0.04 0.05 0.10 0.12 0.23 0.42 0.32 0.21 0.21 0.15 0.04 0.00 0.00 0.00 0.02 0.04 0.05 0.03 0.00 0.01 0.02 0.02 0.00 0.00 0.00 0.00 0.00 0.00 0.00 0.00 0.00 0.00 0.01 0.01 0.01 0.00 0.00 0.00 0.00 0.00 0.00

GFSCGP_prec_precacc_045.txt.gz
Total_Precipitation_Accumulation
0.00 0.00 0.00 0.00 0.00 0.00 0.00 0.00 0.00 0.00 0.00 0.00 0.00 0.00 0.00 0.00 0.00 0.00 0.00 0.00 0.00 0.00 0.00 0.00 0.01 0.03 0.03 0.13 0.43 0.65 0.69 0.74 0.50 0.20 0.06 0.02 0.01 0.00 0.00 0.00 0.00 0.00 0.00 0.00
0.00 0.00 0.00 0.00 0.00 0.00 0.00 0.00 0.00 0.00 0.00 0.00 0.00 0.00 0.00 0.00 0.00 0.00 0.00 0.00 0.00 0.00 0.00 0.00 0.05 0.10 0.17 0.31 0.29 0.14 0.06 0.01 0.00 0.00 0.00 0.00 0.00 0.00 0.00 0.00 0.00 0.00 0.00 0.00
0.01 0.00 0.00 0.00 0.00 0.00 0.00 0.00 0.00 0.00 0.00 0.00 0.00 0.00 0.00 0.00 0.00 0.00 0.00 0.00 0.00 0.00 0.00 0.04 0.05 0.07 0.06 0.02 0.01 0.00 0.00 0.00 0.00 0.00 0.00 0.00 0.00 0.00 0.00 0.00 0.00 0.00 0.00 0.00
0.00 0.00 0.00 0.00 0.00 0.00 0.00 0.00 0.00 0.00 0.00 0.00 0.00 0.00 0.00 0.00 0.00 0.00 0.00 0.00 0.00 0.00 0.01 0.01 0.00 0.00 0.00 0.00 0.00 0.00 0.00 0.00 0.00 0.00 0.00 0.00 0.00 0.00 0.00 0.00 0.00 0.00 0.00 0.00
0.00 0.00 0.00 0.00 0.00 0.00 0.00 0.00 0.00 0.00 0.00 0.00 0.00 0.00 0.01 0.00 0.00 0.00 0.00 0.00 0.00 0.00 0.00 0.00 0.00 0.00 0.00 0.00 0.00 0.00 0.00 0.00 0.00 0.00 0.00 0.00 0.00 0.00 0.00 0.00 0.00 0.00 0.00 0.00
0.00 0.00 0.00 0.00 0.00 0.00 0.00 0.00 0.00 0.00 0.00 0.00 0.00 0.01 0.01 0.00 0.00 0.00 0.00 0.00 0.00 0.00 0.00 0.00 0.00 0.00 0.00 0.00 0.00 0.00 0.00 0.00 0.00 0.00 0.00 0.00 0.00 0.00 0.00 0.00 0.00 0.00 0.00 0.00
0.00 0.00 0.00 0.00 0.00 0.00 0.00 0.00 0.00 0.02 0.02 0.01 0.04 0.04 0.02 0.00 0.00 0.00 0.00 0.00 0.00 0.00 0.00 0.00 0.00 0.00 0.00 0.00 0.00 0.00 0.00 0.00 0.00 0.00 0.00 0.00 0.00 0.00 0.00 0.00 0.00 0.00 0.00 0.00
0.00 0.00 0.00 0.00 0.00 0.00 0.00 0.00 0.00 0.01 0.01 0.02 0.01 0.00 0.00 0.00 0.00 0.00 0.00 0.00 0.00 0.00 0.00 0.00 0.00 0.00 0.00 0.00 0.00 0.00 0.00 0.00 0.00 0.00 0.00 0.00 0.00 0.00 0.00 0.00 0.00 0.00 0.00 0.00
0.00 0.00 0.00 0.00 0.00 0.00 0.00 0.00 0.00 0.00 0.00 0.00 0.00 0.00 0.00 0.00 0.00 0.00 0.00 0.00 0.00 0.00 0.00 0.00 0.00 0.00 0.00 0.00 0.00 0.00 0.00 0.00 0.00 0.00 0.00 0.00 0.00 0.00 0.00 0.00 0.00 0.00 0.00 0.00
0.00 0.00 0.00 0.00 0.00 0.00 0.00 0.00 0.00 0.00 0.00 0.00 0.00 0.00 0.01 0.00 0.00 0.00 0.00 0.00 0.00 0.00 0.00 0.00 0.00 0.00 0.00 0.00 0.00 0.00 0.00 0.00 0.00 0.00 0.00 0.00 0.00 0.00 0.00 0.00 0.00 0.00 0.00 0.00
0.00 0.00 0.00 0.00 0.00 0.00 0.00 0.00 0.00 0.00 0.00 0.04 0.07 0.01 0.00 0.00 0.00 0.00 0.00 0.00 0.00 0.00 0.00 0.00 0.00 0.00 0.00 0.00 0.00 0.00 0.00 0.00 0.00 0.00 0.00 0.00 0.00 0.00 0.00 0.00 0.00 0.00 0.00 0.00
0.00 0.00 0.00 0.00 0.00 0.00 0.00 0.00 0.00 0.01 0.02 0.01 0.02 0.01 0.00 0.00 0.00 0.00 0.01 0.00 0.00 0.00 0.00 0.00 0.00 0.00 0.00 0.00 0.00 0.00 0.00 0.00 0.00 0.00 0.00 0.00 0.00 0.00 0.00 0.00 0.00 0.00 0.00 0.00
0.00 0.00 0.00 0.00 0.00 0.00 0.00 0.00 0.00 0.00 0.00 0.00 0.03 0.00 0.00 0.00 0.00 0.00 0.00 0.00 0.00 0.00 0.00 0.00 0.00 0.00 0.00 0.00 0.00 0.00 0.00 0.00 0.00 0.00 0.00 0.00 0.00 0.00 0.00 0.00 0.00 0.01 0.02 0.03
0.00 0.00 0.00 0.00 0.00 0.00 0.00 0.00 0.00 0.00 0.00 0.00 0.00 0.00 0.00 0.00 0.00 0.00 0.00 0.00 0.00 0.00 0.00 0.00 0.00 0.00 0.00 0.00 0.00 0.00 0.00 0.00 0.00 0.00 0.00 0.00 0.00 0.00 0.00 0.01 0.02 0.01 0.03 0.07
0.00 0.00 0.00 0.00 0.00 0.00 0.00 0.00 0.00 0.00 0.00 0.00 0.00 0.00 0.00 0.00 0.00 0.00 0.00 0.00 0.00 0.00 0.00 0.00 0.00 0.00 0.00 0.00 0.00 0.00 0.00 0.00 0.00 0.00 0.00 0.00 0.00 0.00 0.01 0.01 0.01 0.04 0.06 0.05
0.00 0.00 0.00 0.00 0.00 0.00 0.00 0.00 0.00 0.00 0.00 0.00 0.00 0.00 0.00 0.00 0.00 0.00 0.00 0.00 0.00 0.00 0.00 0.00 0.00 0.00 0.00 0.00 0.00 0.00 0.00 0.00 0.00 0.00 0.00 0.01 0.03 0.07 0.11 0.14 0.10 0.07 0.08 0.08
0.00 0.00 0.00 0.00 0.00 0.01 0.01 0.00 0.00 0.00 0.00 0.00 0.00 0.00 0.00 0.00 0.00 0.00 0.00 0.00 0.00 0.00 0.00 0.00 0.00 0.00 0.00 0.00 0.00 0.00 0.00 0.00 0.00 0.00 0.02 0.06 0.09 0.12 0.09 0.05 0.06 0.05 0.02 0.01
0.00 0.00 0.00 0.00 0.01 0.04 0.00 0.00 0.00 0.00 0.00 0.00 0.00 0.00 0.00 0.00 0.00 0.00 0.00 0.00 0.00 0.00 0.00 0.01 0.00 0.00 0.00 0.00 0.00 0.00 0.00 0.00 0.01 0.01 0.01 0.01 0.02 0.03 0.03 0.02 0.02 0.01 0.01 0.03
0.00 0.00 0.00 0.00 0.01 0.01 0.00 0.00 0.00 0.00 0.00 0.00 0.00 0.01 0.01 0.02 0.01 0.00 0.00 0.01 0.04 0.05 0.03 0.01 0.00 0.00 0.00 0.00 0.00 0.00 0.00 0.01 0.02 0.00 0.00 0.01 0.02 0.03 0.02 0.02 0.03 0.04 0.07 0.04
0.00 0.00 0.00 0.00 0.02 0.02 0.00 0.00 0.00 0.00 0.00 0.00 0.02 0.06 0.10 0.05 0.05 0.03 0.05 0.09 0.08 0.03 0.01 0.00 0.00 0.00 0.00 0.00 0.00 0.00 0.01 0.01 0.00 0.00 0.01 0.01 0.00 0.03 0.03 0.04 0.03 0.04 0.03 0.01
0.00 0.00 0.00 0.00 0.03 0.00 0.00 0.00 0.01 0.10 0.10 0.02 0.10 0.11 0.04 0.08 0.14 0.14 0.13 0.06 0.01 0.00 0.00 0.00 0.00 0.00 0.00 0.00 0.00 0.00 0.00 0.00 0.00 0.00 0.00 0.01 0.01 0.04 0.05 0.04 0.02 0.02 0.03 0.01
0.00 0.00 0.01 0.02 0.05 0.01 0.00 0.01 0.06 0.05 0.02 0.04 0.02 0.01 0.02 0.08 0.13 0.08 0.05 0.01 0.00 0.00 0.00 0.00 0.00 0.00 0.00 0.00 0.00 0.00 0.00 0.00 0.00 0.00 0.01 0.03 0.04 0.05 0.09 0.08 0.03 0.01 0.00 0.00
0.00 0.00 0.00 0.02 0.01 0.00 0.00 0.01 0.01 0.02 0.03 0.01 0.02 0.04 0.14 0.15 0.08 0.06 0.01 0.00 0.00 0.00 0.00 0.00 0.00 0.00 0.00 0.00 0.00 0.01 0.01 0.00 0.00 0.01 0.03 0.04 0.04 0.04 0.02 0.01 0.01 0.00 0.00 0.01
0.02 0.00 0.00 0.01 0.00 0.00 0.01 0.01 0.00 0.01 0.05 0.07 0.13 0.19 0.13 0.11 0.07 0.01 0.00 0.00 0.00 0.00 0.01 0.01 0.01 0.00 0.00 0.00 0.00 0.00 0.00 0.00 0.00 0.01 0.01 0.02 0.02 0.01 0.01 0.00 0.00 0.00 0.00 0.01
0.03 0.04 0.02 0.03 0.01 0.01 0.02 0.03 0.08 0.18 0.26 0.24 0.18 0.13 0.11 0.04 0.00 0.00 0.00 0.01 0.02 0.02 0.01 0.00 0.01 0.02 0.01 0.00 0.00 0.00 0.00 0.00 0.00 0.00 0.00 0.00 0.01 0.02 0.00 0.00 0.00 0.00 0.00 0.01
0.02 0.01 0.04 0.04 0.05 0.10 0.12 0.23 0.42 0.32 0.21 0.21 0.15 0.04 0.00 0.00 0.00 0.02 0.04 0.05 0.03 0.01 0.01 0.03 0.02 0.00 0.00 0.00 0.00 0.00 0.00 0.00 0.00 0.00 0.00 0.01 0.01 0.01 0.00 0.00 0.00 0.00 0.00 0.00

GFSCGP_prec_precacc_048.txt.gz
Total_Precipitation_Accumulation
0.00 0.00 0.00 0.00 0.00 0.00 0.00 0.00 0.00 0.00 0.00 0.00 0.00 0.00 0.00 0.00 0.00 0.00 0.00 0.00 0.00 0.00 0.00 0.00 0.01 0.03 0.03 0.13 0.43 0.67 0.73 0.76 0.50 0.20 0.07 0.02 0.01 0.00 0.00 0.00 0.00 0.00 0.00 0.00
0.00 0.00 0.00 0.00 0.00 0.00 0.00 0.00 0.00 0.00 0.00 0.00 0.00 0.00 0.00 0.00 0.00 0.00 0.00 0.00 0.00 0.00 0.00 0.00 0.05 0.10 0.17 0.31 0.32 0.18 0.06 0.01 0.00 0.01 0.00 0.00 0.00 0.00 0.00 0.00 0.00 0.00 0.00 0.00
0.01 0.01 0.00 0.00 0.00 0.00 0.00 0.00 0.00 0.00 0.00 0.00 0.00 0.00 0.00 0.00 0.00 0.00 0.00 0.00 0.00 0.00 0.00 0.04 0.05 0.07 0.06 0.03 0.02 0.01 0.00 0.00 0.00 0.00 0.00 0.00 0.00 0.00 0.00 0.00 0.00 0.00 0.00 0.00
0.02 0.00 0.00 0.00 0.00 0.00 0.00 0.00 0.00 0.00 0.00 0.00 0.00 0.00 0.01 0.00 0.00 0.00 0.00 0.00 0.00 0.00 0.01 0.01 0.00 0.01 0.00 0.01 0.00 0.00 0.00 0.00 0.00 0.00 0.00 0.00 0.00 0.00 0.00 0.00 0.00 0.00 0.00 0.00
0.01 0.00 0.00 0.00 0.00 0.00 0.01 0.00 0.00 0.00 0.00 0.01 0.01 0.00 0.02 0.00 0.00 0.00 0.00 0.00 0.00 0.00 0.00 0.00 0.00 0.00 0.00 0.00 0.00 0.00 0.00 0.00 0.00 0.00 0.00 0.00 0.00 0.00 0.00 0.00 0.00 0.00 0.00 0.00
0.01 0.01 0.00 0.00 0.00 0.00 0.00 0.00 0.00 0.00 0.00 0.00 0.00 0.01 0.01 0.01 0.01 0.01 0.00 0.00 0.00 0.00 0.00 0.00 0.00 0.00 0.00 0.00 0.00 0.00 0.00 0.00 0.00 0.00 0.00 0.00 0.00 0.00 0.00 0.00 0.00 0.00 0.00 0.00
0.00 0.00 0.00 0.00 0.00 0.00 0.00 0.00 0.00 0.07 0.04 0.01 0.04 0.04 0.02 0.00 0.00 0.00 0.00 0.00 0.00 0.00 0.00 0.00 0.00 0.00 0.00 0.00 0.00 0.00 0.00 0.00 0.00 0.00 0.00 0.00 0.00 0.00 0.00 0.00 0.00 0.00 0.00 0.00
0.00 0.00 0.00 0.00 0.00 0.02 0.00 0.00 0.02 0.02 0.02 0.02 0.01 0.00 0.00 0.00 0.00 0.00 0.00 0.00 0.00 0.00 0.00 0.00 0.00 0.00 0.00 0.00 0.00 0.00 0.00 0.00 0.00 0.00 0.00 0.00 0.00 0.00 0.00 0.00 0.00 0.00 0.00 0.00
0.00 0.01 0.00 0.00 0.00 0.00 0.00 0.00 0.00 0.00 0.00 0.00 0.00 0.00 0.00 0.00 0.00 0.00 0.00 0.00 0.00 0.00 0.00 0.00 0.00 0.00 0.00 0.00 0.00 0.00 0.00 0.00 0.00 0.00 0.00 0.00 0.00 0.00 0.00 0.00 0.00 0.00 0.00 0.00
0.02 0.05 0.02 0.00 0.00 0.00 0.00 0.00 0.00 0.00 0.00 0.00 0.00 0.00 0.01 0.01 0.00 0.00 0.00 0.00 0.00 0.00 0.00 0.00 0.00 0.00 0.00 0.00 0.00 0.00 0.00 0.00 0.00 0.00 0.00 0.00 0.00 0.00 0.00 0.00 0.00 0.00 0.00 0.00
0.00 0.01 0.01 0.00 0.00 0.00 0.00 0.00 0.00 0.00 0.00 0.04 0.07 0.01 0.00 0.00 0.00 0.00 0.00 0.00 0.00 0.00 0.00 0.00 0.00 0.00 0.00 0.00 0.00 0.00 0.00 0.00 0.00 0.00 0.00 0.00 0.00 0.00 0.00 0.00 0.00 0.00 0.00 0.00
0.00 0.00 0.00 0.00 0.00 0.00 0.00 0.00 0.00 0.01 0.02 0.01 0.02 0.01 0.00 0.00 0.00 0.00 0.01 0.00 0.00 0.00 0.00 0.00 0.00 0.00 0.00 0.00 0.00 0.00 0.00 0.00 0.00 0.00 0.00 0.00 0.00 0.00 0.00 0.00 0.00 0.00 0.00 0.00
0.00 0.00 0.00 0.00 0.00 0.00 0.00 0.00 0.00 0.00 0.00 0.00 0.03 0.00 0.00 0.00 0.00 0.00 0.00 0.00 0.00 0.00 0.00 0.00 0.00 0.00 0.00 0.00 0.00 0.00 0.00 0.00 0.00 0.00 0.00 0.00 0.00 0.00 0.00 0.00 0.00 0.01 0.02 0.03
0.00 0.00 0.00 0.00 0.00 0.00 0.00 0.00 0.00 0.00 0.00 0.00 0.00 0.00 0.00 0.00 0.00 0.00 0.00 0.00 0.00 0.00 0.00 0.00 0.00 0.00 0.00 0.00 0.00 0.00 0.00 0.00 0.00 0.00 0.00 0.00 0.00 0.00 0.00 0.01 0.02 0.01 0.03 0.07
0.00 0.00 0.00 0.00 0.00 0.00 0.00 0.00 0.00 0.00 0.00 0.00 0.00 0.00 0.00 0.00 0.00 0.00 0.00 0.00 0.00 0.00 0.00 0.00 0.00 0.00 0.00 0.00 0.00 0.00 0.00 0.00 0.00 0.00 0.00 0.00 0.00 0.00 0.01 0.01 0.01 0.04 0.06 0.05
0.00 0.00 0.00 0.00 0.00 0.00 0.00 0.00 0.00 0.00 0.00 0.00 0.00 0.00 0.00 0.00 0.00 0.00 0.00 0.00 0.00 0.00 0.00 0.00 0.00 0.00 0.00 0.00 0.00 0.00 0.00 0.00 0.00 0.00 0.00 0.01 0.03 0.07 0.11 0.14 0.10 0.07 0.08 0.08
0.00 0.00 0.00 0.00 0.00 0.01 0.01 0.00 0.00 0.00 0.00 0.00 0.00 0.00 0.00 0.00 0.00 0.00 0.00 0.00 0.00 0.00 0.00 0.00 0.00 0.00 0.00 0.00 0.00 0.00 0.00 0.00 0.00 0.00 0.02 0.06 0.09 0.12 0.09 0.05 0.06 0.05 0.02 0.01
0.00 0.00 0.00 0.00 0.01 0.04 0.00 0.00 0.00 0.00 0.00 0.00 0.00 0.00 0.00 0.00 0.00 0.00 0.00 0.00 0.00 0.00 0.00 0.01 0.00 0.00 0.00 0.00 0.00 0.00 0.00 0.00 0.01 0.01 0.01 0.01 0.02 0.03 0.03 0.02 0.02 0.01 0.01 0.03
0.00 0.00 0.00 0.00 0.01 0.01 0.00 0.00 0.00 0.00 0.00 0.00 0.00 0.01 0.01 0.02 0.01 0.00 0.00 0.01 0.04 0.05 0.03 0.01 0.00 0.00 0.00 0.00 0.00 0.00 0.00 0.01 0.02 0.00 0.00 0.01 0.02 0.03 0.02 0.02 0.03 0.04 0.07 0.04
0.00 0.00 0.00 0.00 0.02 0.02 0.00 0.00 0.00 0.00 0.00 0.00 0.02 0.06 0.10 0.05 0.05 0.03 0.05 0.09 0.08 0.03 0.01 0.00 0.00 0.00 0.00 0.00 0.00 0.00 0.01 0.01 0.00 0.00 0.01 0.01 0.00 0.03 0.03 0.04 0.03 0.04 0.03 0.01
0.00 0.00 0.00 0.00 0.03 0.00 0.00 0.00 0.01 0.10 0.10 0.02 0.10 0.11 0.04 0.08 0.14 0.14 0.13 0.06 0.01 0.00 0.00 0.00 0.00 0.00 0.00 0.00 0.00 0.00 0.00 0.00 0.00 0.00 0.00 0.01 0.01 0.04 0.05 0.04 0.02 0.02 0.03 0.01
0.00 0.00 0.01 0.02 0.05 0.01 0.00 0.01 0.06 0.05 0.02 0.04 0.02 0.01 0.02 0.08 0.13 0.08 0.05 0.01 0.00 0.00 0.00 0.00 0.00 0.00 0.00 0.00 0.00 0.00 0.00 0.00 0.00 0.00 0.01 0.03 0.04 0.05 0.09 0.08 0.03 0.01 0.00 0.00
0.00 0.00 0.00 0.02 0.01 0.00 0.00 0.01 0.01 0.02 0.03 0.01 0.02 0.04 0.14 0.15 0.08 0.06 0.01 0.00 0.00 0.00 0.00 0.00 0.00 0.00 0.00 0.00 0.00 0.01 0.01 0.00 0.00 0.01 0.03 0.04 0.04 0.04 0.02 0.01 0.01 0.00 0.00 0.01
0.02 0.00 0.00 0.01 0.00 0.00 0.01 0.01 0.00 0.01 0.05 0.07 0.13 0.19 0.13 0.11 0.07 0.01 0.00 0.00 0.00 0.00 0.01 0.01 0.01 0.00 0.00 0.00 0.00 0.00 0.00 0.00 0.00 0.01 0.01 0.02 0.02 0.01 0.01 0.00 0.00 0.00 0.00 0.01
0.03 0.04 0.02 0.03 0.01 0.01 0.02 0.03 0.08 0.18 0.26 0.24 0.18 0.13 0.11 0.04 0.00 0.00 0.00 0.01 0.02 0.02 0.01 0.01 0.02 0.03 0.01 0.00 0.00 0.00 0.00 0.00 0.00 0.00 0.00 0.00 0.01 0.02 0.00 0.00 0.00 0.00 0.00 0.01
0.02 0.01 0.04 0.04 0.05 0.10 0.12 0.23 0.42 0.32 0.21 0.21 0.15 0.04 0.00 0.00 0.00 0.02 0.04 0.05 0.03 0.01 0.02 0.03 0.02 0.01 0.00 0.00 0.00 0.00 0.00 0.00 0.00 0.00 0.00 0.01 0.01 0.01 0.00 0.00 0.00 0.00 0.00 0.00

GFSCGP_prec_precacc_051.txt.gz
Total_Precipitation_Accumulation
0.00 0.00 0.00 0.00 0.00 0.00 0.00 0.00 0.00 0.00 0.00 0.00 0.00 0.00 0.00 0.00 0.00 0.01 0.00 0.00 0.00 0.00 0.00 0.00 0.01 0.03 0.03 0.15 0.46 0.72 0.74 0.77 0.50 0.21 0.08 0.03 0.01 0.00 0.00 0.00 0.00 0.00 0.00 0.00
0.00 0.00 0.00 0.00 0.00 0.00 0.00 0.00 0.00 0.00 0.00 0.00 0.00 0.00 0.00 0.00 0.00 0.00 0.01 0.00 0.00 0.00 0.00 0.00 0.05 0.10 0.17 0.31 0.34 0.21 0.07 0.01 0.01 0.02 0.00 0.00 0.00 0.00 0.00 0.00 0.00 0.00 0.00 0.00
0.01 0.01 0.00 0.00 0.00 0.00 0.00 0.00 0.00 0.00 0.00 0.00 0.00 0.00 0.00 0.00 0.00 0.00 0.00 0.00 0.00 0.00 0.00 0.04 0.05 0.07 0.06 0.03 0.09 0.03 0.01 0.01 0.00 0.00 0.00 0.00 0.00 0.00 0.00 0.00 0.00 0.00 0.00 0.00
0.02 0.00 0.00 0.00 0.00 0.00 0.01 0.00 0.00 0.00 0.00 0.00 0.00 0.00 0.01 0.00 0.00 0.00 0.00 0.00 0.01 0.00 0.01 0.01 0.00 0.01 0.01 0.05 0.01 0.02 0.01 0.00 0.00 0.00 0.00 0.00 0.00 0.00 0.00 0.00 0.00 0.00 0.00 0.00
0.01 0.00 0.00 0.00 0.00 0.00 0.01 0.00 0.00 0.00 0.00 0.01 0.01 0.00 0.02 0.00 0.00 0.00 0.00 0.00 0.00 0.00 0.00 0.00 0.00 0.00 0.01 0.02 0.01 0.02 0.00 0.00 0.00 0.00 0.00 0.00 0.00 0.00 0.00 0.00 0.00 0.00 0.00 0.00
0.01 0.01 0.01 0.01 0.00 0.00 0.00 0.00 0.00 0.00 0.00 0.00 0.00 0.01 0.01 0.01 0.01 0.03 0.02 0.00 0.00 0.00 0.00 0.00 0.01 0.00 0.00 0.00 0.00 0.00 0.00 0.00 0.00 0.00 0.00 0.00 0.00 0.00 0.00 0.00 0.00 0.00 0.00 0.00
0.00 0.00 0.01 0.01 0.00 0.00 0.00 0.00 0.00 0.08 0.04 0.01 0.04 0.05 0.03 0.00 0.00 0.01 0.01 0.00 0.00 0.00 0.00 0.00 0.00 0.00 0.00 0.01 0.00 0.00 0.00 0.00 0.00 0.00 0.00 0.00 0.00 0.00 0.00 0.00 0.00 0.00 0.00 0.00
0.00 0.00 0.00 0.00 0.00 0.02 0.01 0.00 0.02 0.03 0.03 0.03 0.02 0.01 0.00 0.00 0.00 0.00 0.00 0.00 0.00 0.00 0.00 0.00 0.00 0.00 0.00 0.00 0.00 0.00 0.00 0.00 0.00 0.00 0.00 0.00 0.00 0.00 0.00 0.00 0.00 0.00 0.00 0.00
0.00 0.01 0.01 0.00 0.00 0.00 0.01 0.02 0.00 0.00 0.00 0.00 0.00 0.00 0.00 0.00 0.00 0.00 0.00 0.00 0.00 0.00 0.00 0.00 0.00 0.00 0.00 0.00 0.00 0.00 0.00 0.00 0.00 0.00 0.00 0.00 0.00 0.00 0.00 0.00 0.00 0.00 0.00 0.00
0.02 0.06 0.03 0.00 0.00 0.00 0.00 0.00 0.00 0.00 0.00 0.00 0.00 0.00 0.01 0.01 0.00 0.00 0.00 0.00 0.00 0.00 0.00 0.00 0.00 0.00 0.00 0.00 0.00 0.00 0.00 0.00 0.00 0.00 0.00 0.00 0.00 0.00 0.00 0.00 0.00 0.00 0.00 0.00
0.00 0.03 0.08 0.00 0.00 0.00 0.00 0.00 0.00 0.00 0.00 0.04 0.07 0.01 0.00 0.00 0.00 0.00 0.00 0.00 0.00 0.00 0.00 0.00 0.00 0.00 0.00 0.00 0.00 0.00 0.00 0.00 0.00 0.00 0.00 0.00 0.00 0.00 0.00 0.00 0.00 0.00 0.00 0.00
0.00 0.00 0.01 0.01 0.00 0.01 0.00 0.00 0.00 0.01 0.02 0.01 0.02 0.01 0.00 0.00 0.00 0.00 0.01 0.00 0.00 0.00 0.00 0.00 0.00 0.00 0.00 0.00 0.00 0.00 0.00 0.00 0.00 0.00 0.00 0.00 0.00 0.00 0.00 0.00 0.00 0.00 0.00 0.00
0.00 0.00 0.00 0.00 0.00 0.01 0.00 0.00 0.00 0.00 0.00 0.00 0.03 0.00 0.00 0.00 0.00 0.00 0.00 0.00 0.00 0.00 0.00 0.00 0.00 0.00 0.00 0.00 0.00 0.00 0.00 0.00 0.00 0.00 0.00 0.00 0.00 0.00 0.00 0.00 0.00 0.01 0.02 0.03
0.00 0.00 0.00 0.00 0.00 0.00 0.00 0.00 0.00 0.00 0.00 0.00 0.00 0.00 0.00 0.00 0.00 0.00 0.00 0.00 0.00 0.00 0.00 0.00 0.00 0.00 0.00 0.01 0.01 0.01 0.00 0.00 0.00 0.00 0.00 0.00 0.00 0.00 0.00 0.01 0.02 0.01 0.03 0.07
0.00 0.00 0.00 0.00 0.00 0.00 0.00 0.00 0.00 0.00 0.00 0.00 0.00 0.00 0.00 0.00 0.00 0.00 0.00 0.00 0.00 0.00 0.00 0.00 0.00 0.01 0.02 0.01 0.01 0.00 0.00 0.00 0.00 0.00 0.00 0.00 0.00 0.00 0.01 0.01 0.01 0.04 0.06 0.05
0.00 0.00 0.00 0.00 0.00 0.00 0.00 0.00 0.00 0.00 0.00 0.00 0.00 0.00 0.00 0.00 0.00 0.00 0.00 0.00 0.00 0.00 0.00 0.00 0.00 0.01 0.01 0.00 0.00 0.00 0.00 0.00 0.00 0.00 0.00 0.01 0.03 0.07 0.11 0.14 0.10 0.07 0.08 0.08
0.00 0.00 0.00 0.00 0.00 0.01 0.01 0.00 0.00 0.00 0.00 0.00 0.00 0.00 0.00 0.00 0.00 0.00 0.00 0.00 0.00 0.00 0.00 0.00 0.00 0.00 0.00 0.00 0.00 0.00 0.00 0.00 0.00 0.00 0.02 0.06 0.09 0.12 0.09 0.05 0.06 0.05 0.02 0.01
0.00 0.00 0.00 0.00 0.01 0.04 0.00 0.00 0.00 0.00 0.00 0.00 0.00 0.00 0.00 0.00 0.00 0.00 0.00 0.00 0.00 0.00 0.00 0.01 0.00 0.00 0.00 0.00 0.00 0.00 0.00 0.00 0.01 0.01 0.01 0.01 0.02 0.03 0.03 0.02 0.02 0.01 0.01 0.03
0.01 0.01 0.00 0.00 0.01 0.01 0.00 0.00 0.00 0.00 0.00 0.00 0.00 0.01 0.01 0.02 0.01 0.00 0.00 0.01 0.04 0.05 0.03 0.01 0.00 0.00 0.00 0.00 0.00 0.00 0.00 0.01 0.02 0.00 0.00 0.01 0.02 0.03 0.02 0.02 0.03 0.04 0.07 0.04
0.00 0.00 0.01 0.00 0.02 0.02 0.00 0.00 0.00 0.00 0.00 0.00 0.02 0.06 0.10 0.05 0.05 0.03 0.05 0.09 0.08 0.03 0.01 0.00 0.00 0.00 0.00 0.00 0.00 0.00 0.01 0.01 0.00 0.00 0.01 0.01 0.01 0.03 0.03 0.04 0.03 0.04 0.03 0.01
0.00 0.00 0.00 0.00 0.03 0.00 0.00 0.00 0.01 0.10 0.10 0.02 0.10 0.11 0.04 0.08 0.14 0.14 0.13 0.06 0.01 0.00 0.00 0.00 0.00 0.00 0.00 0.00 0.00 0.00 0.00 0.00 0.00 0.00 0.01 0.01 0.01 0.04 0.05 0.04 0.02 0.02 0.03 0.01
0.00 0.00 0.01 0.02 0.05 0.01 0.00 0.01 0.06 0.05 0.02 0.04 0.02 0.01 0.02 0.08 0.13 0.08 0.05 0.01 0.00 0.00 0.00 0.00 0.00 0.00 0.00 0.00 0.00 0.00 0.00 0.00 0.00 0.00 0.01 0.03 0.04 0.05 0.09 0.08 0.03 0.01 0.00 0.00
0.00 0.00 0.00 0.02 0.01 0.00 0.00 0.01 0.01 0.02 0.03 0.01 0.02 0.04 0.14 0.15 0.08 0.06 0.01 0.00 0.00 0.00 0.00 0.00 0.00 0.00 0.00 0.00 0.00 0.01 0.01 0.00 0.00 0.01 0.03 0.04 0.04 0.04 0.02 0.01 0.01 0.00 0.00 0.01
0.02 0.00 0.00 0.01 0.00 0.00 0.01 0.01 0.00 0.01 0.05 0.07 0.13 0.19 0.13 0.11 0.07 0.01 0.00 0.00 0.00 0.00 0.01 0.01 0.01 0.00 0.00 0.00 0.00 0.00 0.00 0.00 0.00 0.01 0.01 0.02 0.02 0.01 0.01 0.00 0.00 0.00 0.00 0.01
0.03 0.04 0.02 0.03 0.01 0.01 0.02 0.03 0.08 0.18 0.26 0.24 0.18 0.13 0.11 0.04 0.00 0.00 0.00 0.01 0.02 0.02 0.01 0.01 0.02 0.03 0.01 0.00 0.00 0.00 0.00 0.00 0.00 0.00 0.00 0.00 0.01 0.02 0.00 0.00 0.00 0.00 0.00 0.01
0.02 0.01 0.04 0.04 0.05 0.10 0.12 0.23 0.42 0.32 0.21 0.21 0.15 0.04 0.00 0.00 0.00 0.02 0.04 0.05 0.03 0.01 0.02 0.03 0.02 0.01 0.00 0.00 0.00 0.00 0.00 0.00 0.00 0.00 0.00 0.01 0.01 0.01 0.00 0.00 0.00 0.00 0.00 0.00

GFSCGP_prec_precacc_054.txt.gz
Total_Precipitation_Accumulation
0.00 0.00 0.00 0.00 0.00 0.00 0.00 0.00 0.00 0.00 0.00 0.00 0.00 0.00 0.00 0.00 0.00 0.01 0.00 0.00 0.00 0.00 0.00 0.00 0.01 0.03 0.03 0.15 0.46 0.72 0.74 0.77 0.50 0.21 0.09 0.03 0.01 0.00 0.00 0.00 0.00 0.00 0.00 0.00
0.00 0.00 0.00 0.00 0.00 0.00 0.00 0.00 0.00 0.00 0.00 0.00 0.00 0.00 0.00 0.00 0.00 0.00 0.01 0.00 0.00 0.00 0.00 0.00 0.05 0.10 0.17 0.31 0.34 0.21 0.07 0.02 0.01 0.02 0.00 0.00 0.00 0.00 0.00 0.00 0.00 0.00 0.00 0.00
0.01 0.01 0.00 0.00 0.00 0.00 0.00 0.00 0.00 0.00 0.00 0.00 0.00 0.00 0.00 0.00 0.00 0.01 0.01 0.00 0.00 0.00 0.00 0.04 0.05 0.07 0.06 0.03 0.09 0.03 0.03 0.02 0.01 0.00 0.00 0.00 0.00 0.00 0.00 0.00 0.00 0.00 0.00 0.00
0.02 0.00 0.00 0.00 0.00 0.00 0.01 0.00 0.00 0.00 0.00 0.00 0.00 0.00 0.01 0.00 0.00 0.00 0.01 0.01 0.01 0.00 0.01 0.01 0.00 0.01 0.01 0.06 0.02 0.04 0.05 0.01 0.02 0.00 0.00 0.00 0.00 0.00 0.00 0.00 0.00 0.00 0.00 0.00
0.01 0.00 0.00 0.00 0.00 0.00 0.01 0.00 0.00 0.00 0.00 0.01 0.01 0.00 0.02 0.00 0.00 0.00 0.00 0.00 0.00 0.00 0.00 0.00 0.00 0.00 0.02 0.02 0.04 0.06 0.03 0.04 0.01 0.00 0.00 0.00 0.00 0.00 0.00 0.00 0.00 0.00 0.00 0.00
0.01 0.01 0.01 0.01 0.00 0.00 0.00 0.00 0.00 0.00 0.00 0.00 0.00 0.01 0.01 0.01 0.01 0.03 0.02 0.00 0.00 0.00 0.00 0.00 0.01 0.00 0.00 0.02 0.01 0.02 0.03 0.02 0.01 0.00 0.00 0.00 0.00 0.00 0.00 0.00 0.00 0.00 0.00 0.00
0.00 0.00 0.01 0.01 0.00 0.00 0.00 0.00 0.00 0.08 0.04 0.01 0.04 0.05 0.03 0.00 0.00 0.01 0.01 0.00 0.00 0.01 0.01 0.00 0.00 0.00 0.02 0.01 0.01 0.02 0.01 0.00 0.00 0.00 0.00 0.00 0.00 0.00 0.00 0.00 0.00 0.00 0.00 0.00
0.00 0.00 0.00 0.00 0.00 0.02 0.01 0.00 0.02 0.03 0.03 0.03 0.02 0.01 0.00 0.00 0.00 0.00 0.00 0.00 0.00 0.00 0.00 0.00 0.00 0.02 0.04 0.02 0.02 0.01 0.00 0.00 0.00 0.00 0.00 0.00 0.00 0.00 0.00 0.00 0.00 0.00 0.00 0.00
0.00 0.01 0.01 0.00 0.00 0.00 0.01 0.02 0.00 0.00 0.00 0.00 0.00 0.00 0.00 0.00 0.00 0.00 0.00 0.00 0.00 0.00 0.00 0.00 0.00 0.02 0.02 0.01 0.01 0.00 0.00 0.00 0.00 0.00 0.00 0.00 0.00 0.00 0.00 0.00 0.00 0.00 0.01 0.00
0.02 0.06 0.03 0.00 0.00 0.00 0.00 0.00 0.00 0.00 0.00 0.00 0.00 0.00 0.01 0.01 0.00 0.00 0.00 0.00 0.00 0.00 0.00 0.00 0.00 0.01 0.00 0.00 0.00 0.00 0.00 0.00 0.00 0.00 0.00 0.00 0.00 0.00 0.00 0.00 0.01 0.01 0.01 0.00
0.00 0.03 0.08 0.00 0.00 0.00 0.00 0.00 0.00 0.00 0.00 0.04 0.07 0.01 0.00 0.00 0.00 0.00 0.00 0.00 0.00 0.00 0.00 0.00 0.00 0.00 0.00 0.00 0.00 0.00 0.00 0.00 0.00 0.00 0.00 0.00 0.00 0.00 0.00 0.01 0.01 0.01 0.01 0.00
0.00 0.00 0.01 0.01 0.01 0.01 0.00 0.00 0.01 0.01 0.02 0.01 0.02 0.01 0.00 0.00 0.00 0.00 0.01 0.00 0.00 0.00 0.00 0.00 0.00 0.00 0.00 0.00 0.00 0.00 0.00 0.00 0.00 0.00 0.00 0.01 0.01 0.00 0.01 0.01 0.02 0.01 0.00 0.00
0.00 0.00 0.00 0.00 0.02 0.01 0.00 0.00 0.00 0.00 0.00 0.00 0.03 0.00 0.00 0.00 0.00 0.00 0.00 0.00 0.00 0.00 0.00 0.00 0.00 0.00 0.00 0.00 0.00 0.00 0.00 0.00 0.01 0.02 0.02 0.01 0.01 0.01 0.01 0.01 0.01 0.02 0.02 0.03
0.00 0.00 0.00 0.00 0.00 0.00 0.00 0.00 0.00 0.00 0.00 0.00 0.00 0.00 0.00 0.00 0.00 0.00 0.00 0.00 0.00 0.00 0.00 0.00 0.00 0.00 0.00 0.01 0.01 0.01 0.01 0.02 0.03 0.02 0.02 0.01 0.01 0.01 0.01 0.01 0.02 0.01 0.03 0.07
0.00 0.00 0.00 0.00 0.00 0.00 0.00 0.00 0.00 0.00 0.00 0.00 0.00 0.00 0.00 0.00 0.00 0.00 0.00 0.00 0.00 0.00 0.00 0.00 0.01 0.02 0.02 0.02 0.02 0.02 0.02 0.02 0.01 0.01 0.00 0.00 0.00 0.00 0.01 0.01 0.01 0.04 0.06 0.05
0.00 0.00 0.00 0.00 0.00 0.00 0.00 0.00 0.00 0.00 0.00 0.00 0.00 0.00 0.00 0.00 0.00 0.00 0.00 0.00 0.00 0.00 0.00 0.00 0.01 0.02 0.02 0.02 0.01 0.02 0.02 0.01 0.00 0.00 0.00 0.01 0.03 0.07 0.11 0.14 0.10 0.07 0.08 0.08
0.00 0.00 0.00 0.00 0.00 0.01 0.01 0.00 0.00 0.00 0.00 0.00 0.00 0.00 0.00 0.00 0.00 0.00 0.00 0.00 0.00 0.00 0.00 0.00 0.00 0.00 0.00 0.01 0.02 0.02 0.00 0.00 0.00 0.00 0.02 0.06 0.09 0.12 0.09 0.05 0.06 0.05 0.02 0.01
0.00 0.00 0.00 0.00 0.01 0.04 0.00 0.00 0.00 0.00 0.00 0.00 0.00 0.00 0.00 0.00 0.00 0.00 0.00 0.00 0.00 0.00 0.00 0.01 0.00 0.00 0.00 0.00 0.00 0.00 0.00 0.00 0.01 0.01 0.01 0.01 0.02 0.03 0.03 0.03 0.02 0.01 0.01 0.03
0.01 0.01 0.00 0.00 0.01 0.01 0.00 0.00 0.00 0.00 0.00 0.00 0.00 0.01 0.01 0.02 0.01 0.00 0.00 0.01 0.04 0.05 0.03 0.01 0.00 0.00 0.00 0.00 0.00 0.00 0.00 0.01 0.02 0.00 0.00 0.01 0.02 0.05 0.03 0.02 0.03 0.04 0.07 0.04
0.00 0.00 0.01 0.00 0.02 0.02 0.00 0.00 0.00 0.00 0.00 0.00 0.02 0.06 0.10 0.05 0.05 0.03 0.05 0.09 0.08 0.03 0.01 0.00 0.00 0.00 0.00 0.00 0.00 0.00 0.01 0.01 0.00 0.00 0.01 0.03 0.02 0.03 0.03 0.04 0.03 0.04 0.03 0.01
0.00 0.00 0.00 0.00 0.03 0.00 0.00 0.00 0.01 0.10 0.10 0.02 0.10 0.11 0.04 0.08 0.14 0.14 0.13 0.06 0.01 0.00 0.00 0.00 0.00 0.00 0.00 0.00 0.00 0.00 0.00 0.00 0.00 0.01 0.02 0.01 0.01 0.04 0.05 0.04 0.02 0.02 0.03 0.01
0.00 0.00 0.01 0.02 0.05 0.01 0.00 0.01 0.06 0.05 0.02 0.04 0.02 0.01 0.02 0.08 0.13 0.08 0.05 0.01 0.00 0.00 0.00 0.00 0.00 0.00 0.00 0.00 0.00 0.00 0.00 0.00 0.00 0.00 0.01 0.03 0.04 0.05 0.09 0.08 0.03 0.01 0.00 0.00
0.00 0.00 0.00 0.02 0.01 0.00 0.00 0.01 0.01 0.02 0.03 0.01 0.02 0.04 0.14 0.15 0.08 0.06 0.01 0.00 0.00 0.00 0.00 0.00 0.00 0.00 0.00 0.00 0.00 0.01 0.01 0.00 0.00 0.01 0.03 0.04 0.04 0.04 0.02 0.01 0.01 0.00 0.00 0.01
0.02 0.00 0.00 0.01 0.00 0.00 0.01 0.01 0.00 0.01 0.05 0.07 0.13 0.19 0.13 0.11 0.07 0.01 0.00 0.00 0.00 0.00 0.01 0.01 0.01 0.00 0.00 0.00 0.00 0.00 0.00 0.00 0.00 0.01 0.01 0.02 0.02 0.01 0.01 0.00 0.00 0.00 0.00 0.01
0.03 0.04 0.02 0.03 0.01 0.01 0.02 0.03 0.08 0.18 0.26 0.24 0.18 0.13 0.11 0.04 0.00 0.00 0.00 0.01 0.02 0.02 0.01 0.01 0.02 0.03 0.01 0.00 0.00 0.00 0.00 0.00 0.00 0.00 0.00 0.00 0.01 0.02 0.00 0.00 0.00 0.00 0.00 0.01
0.02 0.01 0.04 0.04 0.05 0.10 0.12 0.23 0.42 0.32 0.21 0.21 0.15 0.04 0.00 0.00 0.00 0.02 0.04 0.05 0.03 0.01 0.02 0.03 0.02 0.01 0.00 0.00 0.00 0.00 0.00 0.00 0.00 0.00 0.00 0.01 0.01 0.01 0.00 0.00 0.00 0.00 0.00 0.00

GFSCGP_prec_precacc_057.txt.gz
Total_Precipitation_Accumulation
0.00 0.00 0.00 0.00 0.00 0.00 0.00 0.00 0.00 0.00 0.00 0.00 0.00 0.00 0.00 0.00 0.00 0.01 0.00 0.00 0.00 0.00 0.00 0.00 0.01 0.03 0.03 0.15 0.47 0.72 0.74 0.77 0.50 0.21 0.09 0.03 0.01 0.00 0.00 0.00 0.00 0.00 0.00 0.00
0.00 0.00 0.00 0.00 0.00 0.00 0.00 0.00 0.00 0.00 0.00 0.00 0.00 0.00 0.00 0.00 0.00 0.00 0.01 0.00 0.00 0.00 0.00 0.00 0.05 0.10 0.17 0.31 0.35 0.22 0.07 0.02 0.01 0.02 0.00 0.00 0.00 0.00 0.00 0.00 0.00 0.00 0.00 0.00
0.01 0.01 0.00 0.00 0.00 0.00 0.00 0.00 0.00 0.00 0.00 0.00 0.00 0.00 0.00 0.00 0.01 0.01 0.01 0.00 0.00 0.00 0.00 0.04 0.05 0.07 0.06 0.03 0.09 0.04 0.03 0.02 0.01 0.01 0.00 0.00 0.00 0.00 0.00 0.00 0.00 0.00 0.00 0.00
0.02 0.00 0.00 0.00 0.00 0.00 0.01 0.00 0.00 0.00 0.00 0.00 0.00 0.00 0.01 0.00 0.00 0.00 0.01 0.01 0.01 0.00 0.01 0.01 0.00 0.01 0.01 0.06 0.02 0.06 0.10 0.04 0.03 0.02 0.01 0.00 0.00 0.00 0.00 0.00 0.00 0.00 0.00 0.00
0.01 0.00 0.00 0.00 0.00 0.00 0.01 0.00 0.00 0.00 0.00 0.01 0.01 0.00 0.02 0.00 0.00 0.00 0.00 0.00 0.00 0.00 0.00 0.00 0.00 0.00 0.02 0.03 0.05 0.09 0.08 0.09 0.09 0.04 0.02 0.01 0.00 0.00 0.00 0.00 0.00 0.00 0.00 0.00
0.01 0.01 0.01 0.01 0.00 0.00 0.00 0.00 0.00 0.00 0.00 0.00 0.00 0.01 0.01 0.01 0.01 0.03 0.02 0.00 0.00 0.00 0.01 0.00 0.01 0.00 0.00 0.03 0.02 0.05 0.07 0.06 0.11 0.09 0.02 0.01 0.00 0.00 0.00 0.00 0.00 0.00 0.00 0.00
0.00 0.00 0.01 0.01 0.00 0.00 0.00 0.00 0.00 0.08 0.04 0.01 0.04 0.05 0.03 0.00 0.00 0.01 0.01 0.00 0.00 0.01 0.01 0.00 0.00 0.00 0.02 0.02 0.06 0.12 0.07 0.07 0.06 0.02 0.02 0.00 0.00 0.00 0.00 0.00 0.00 0.00 0.00 0.00
0.00 0.00 0.00 0.00 0.00 0.02 0.01 0.00 0.02 0.03 0.03 0.03 0.02 0.01 0.00 0.00 0.00 0.00 0.00 0.00 0.00 0.00 0.00 0.00 0.00 0.02 0.04 0.03 0.09 0.19 0.14 0.09 0.05 0.01 0.00 0.00 0.00 0.00 0.00 0.00 0.00 0.00 0.00 0.00
0.00 0.01 0.01 0.00 0.00 0.00 0.01 0.02 0.00 0.00 0.00 0.00 0.00 0.00 0.00 0.00 0.00 0.00 0.00 0.00 0.00 0.00 0.00 0.00 0.00 0.02 0.03 0.04 0.08 0.13 0.09 0.03 0.01 0.00 0.00 0.00 0.00 0.00 0.00 0.00 0.00 0.01 0.04 0.08
0.02 0.06 0.03 0.00 0.00 0.00 0.00 0.00 0.00 0.00 0.00 0.00 0.00 0.00 0.01 0.01 0.00 0.00 0.00 0.00 0.00 0.00 0.00 0.00 0.00 0.01 0.01 0.01 0.02 0.04 0.01 0.01 0.00 0.00 0.00 0.00 0.00 0.00 0.00 0.01 0.01 0.03 0.05 0.07
0.00 0.03 0.08 0.00 0.00 0.00 0.00 0.00 0.00 0.00 0.00 0.04 0.07 0.01 0.00 0.00 0.00 0.00 0.00 0.00 0.00 0.00 0.00 0.00 0.00 0.00 0.00 0.00 0.00 0.00 0.00 0.00 0.00 0.00 0.00 0.00 0.00 0.00 0.00 0.02 0.05 0.08 0.08 0.06
0.00 0.00 0.01 0.01 0.01 0.01 0.00 0.00 0.01 0.01 0.02 0.01 0.02 0.01 0.00 0.00 0.00 0.00 0.01 0.00 0.00 0.00 0.00 0.00 0.00 0.00 0.00 0.00 0.00 0.00 0.00 0.00 0.00 0.00 0.00 0.01 0.01 0.02 0.03 0.03 0.03 0.04 0.06 0.05
0.00 0.00 0.00 0.00 0.02 0.01 0.00 0.00 0.00 0.00 0.00 0.00 0.03 0.00 0.00 0.00 0.00 0.00 0.00 0.00 0.00 0.00 0.00 0.00 0.00 0.00 0.00 0.00 0.01 0.00 0.00 0.00 0.01 0.03 0.03 0.03 0.04 0.04 0.04 0.03 0.02 0.03 0.04 0.04
0.00 0.00 0.00 0.00 0.00 0.00 0.00 0.00 0.00 0.00 0.00 0.00 0.00 0.00 0.00 0.00 0.00 0.00 0.00 0.00 0.00 0.00 0.00 0.00 0.00 0.00 0.01 0.03 0.03 0.02 0.01 0.02 0.04 0.05 0.05 0.04 0.05 0.04 0.02 0.02 0.02 0.01 0.03 0.07
0.00 0.00 0.00 0.00 0.00 0.00 0.00 0.00 0.00 0.00 0.00 0.00 0.00 0.00 0.00 0.00 0.00 0.00 0.00 0.00 0.00 0.00 0.00 0.01 0.02 0.03 0.03 0.03 0.04 0.03 0.04 0.05 0.06 0.06 0.06 0.04 0.02 0.01 0.01 0.01 0.01 0.04 0.06 0.05
0.00 0.00 0.00 0.00 0.00 0.00 0.00 0.00 0.00 0.00 0.00 0.00 0.00 0.00 0.00 0.00 0.00 0.00 0.00 0.00 0.00 0.00 0.00 0.00 0.02 0.03 0.03 0.02 0.02 0.04 0.06 0.06 0.06 0.04 0.02 0.02 0.04 0.08 0.11 0.14 0.10 0.07 0.08 0.08
0.00 0.00 0.00 0.00 0.00 0.01 0.01 0.00 0.00 0.00 0.00 0.00 0.00 0.00 0.00 0.00 0.00 0.00 0.00 0.00 0.00 0.00 0.00 0.00 0.00 0.00 0.01 0.01 0.04 0.03 0.02 0.02 0.02 0.01 0.02 0.06 0.09 0.12 0.09 0.05 0.06 0.06 0.03 0.01
0.00 0.00 0.00 0.00 0.01 0.04 0.00 0.00 0.00 0.00 0.00 0.00 0.00 0.00 0.00 0.00 0.00 0.00 0.00 0.00 0.00 0.00 0.00 0.01 0.00 0.00 0.00 0.00 0.00 0.00 0.00 0.01 0.01 0.01 0.01 0.01 0.02 0.03 0.04 0.05 0.04 0.02 0.01 0.03
0.01 0.01 0.00 0.00 0.01 0.01 0.00 0.00 0.00 0.00 0.00 0.00 0.00 0.01 0.01 0.02 0.01 0.00 0.00 0.01 0.04 0.05 0.03 0.01 0.00 0.00 0.00 0.00 0.00 0.00 0.00 0.01 0.02 0.00 0.00 0.01 0.02 0.07 0.06 0.04 0.03 0.04 0.07 0.04
0.01 0.01 0.01 0.00 0.02 0.02 0.00 0.00 0.00 0.00 0.00 0.00 0.02 0.06 0.10 0.05 0.05 0.03 0.05 0.09 0.08 0.03 0.01 0.00 0.00 0.00 0.00 0.00 0.00 0.00 0.01 0.01 0.00 0.00 0.01 0.03 0.05 0.05 0.03 0.04 0.03 0.04 0.03 0.01
0.02 0.02 0.01 0.01 0.03 0.00 0.00 0.00 0.01 0.10 0.10 0.02 0.10 0.11 0.04 0.08 0.14 0.14 0.13 0.06 0.01 0.00 0.00 0.00 0.00 0.00 0.00 0.00 0.00 0.00 0.00 0.00 0.00 0.01 0.03 0.02 0.01 0.04 0.05 0.04 0.02 0.02 0.03 0.01
0.00 0.01 0.01 0.02 0.05 0.01 0.00 0.01 0.06 0.05 0.02 0.04 0.02 0.01 0.02 0.08 0.13 0.08 0.05 0.01 0.00 0.00 0.00 0.00 0.00 0.00 0.00 0.00 0.00 0.00 0.00 0.00 0.00 0.00 0.01 0.03 0.04 0.05 0.09 0.08 0.03 0.01 0.00 0.00
0.00 0.00 0.00 0.02 0.01 0.00 0.00 0.01 0.01 0.02 0.03 0.01 0.02 0.04 0.14 0.15 0.08 0.06 0.01 0.00 0.00 0.00 0.00 0.00 0.00 0.00 0.00 0.00 0.00 0.01 0.01 0.00 0.00 0.01 0.03 0.04 0.04 0.04 0.02 0.01 0.01 0.00 0.00 0.01
0.02 0.00 0.00 0.01 0.00 0.00 0.01 0.01 0.00 0.01 0.05 0.07 0.13 0.19 0.13 0.11 0.07 0.01 0.00 0.00 0.00 0.00 0.01 0.01 0.01 0.00 0.00 0.00 0.00 0.00 0.00 0.00 0.00 0.01 0.01 0.02 0.02 0.01 0.01 0.00 0.00 0.00 0.00 0.01
0.03 0.04 0.02 0.03 0.01 0.01 0.02 0.03 0.08 0.18 0.26 0.24 0.18 0.13 0.11 0.04 0.00 0.00 0.00 0.01 0.02 0.02 0.01 0.01 0.02 0.03 0.01 0.00 0.00 0.00 0.00 0.00 0.00 0.00 0.00 0.00 0.01 0.02 0.00 0.00 0.00 0.00 0.00 0.01
0.03 0.01 0.04 0.04 0.05 0.10 0.12 0.23 0.42 0.32 0.21 0.21 0.15 0.04 0.00 0.00 0.00 0.02 0.04 0.05 0.03 0.01 0.02 0.03 0.02 0.01 0.00 0.00 0.00 0.00 0.00 0.00 0.00 0.00 0.00 0.01 0.01 0.01 0.00 0.00 0.00 0.00 0.00 0.00

GFSCGP_prec_precacc_060.txt.gz
Total_Precipitation_Accumulation
0.00 0.00 0.00 0.00 0.00 0.00 0.00 0.00 0.00 0.00 0.00 0.00 0.00 0.00 0.00 0.00 0.00 0.01 0.00 0.00 0.00 0.00 0.00 0.00 0.01 0.03 0.03 0.15 0.47 0.72 0.74 0.77 0.50 0.21 0.09 0.05 0.04 0.03 0.01 0.01 0.00 0.00 0.00 0.00
0.00 0.00 0.00 0.00 0.00 0.00 0.00 0.00 0.00 0.00 0.00 0.00 0.00 0.00 0.00 0.00 0.00 0.00 0.01 0.00 0.00 0.00 0.00 0.00 0.05 0.10 0.17 0.31 0.35 0.22 0.07 0.02 0.01 0.02 0.00 0.00 0.01 0.00 0.00 0.00 0.00 0.00 0.00 0.00
0.01 0.01 0.00 0.00 0.00 0.00 0.00 0.00 0.00 0.00 0.00 0.00 0.00 0.00 0.00 0.00 0.01 0.01 0.01 0.00 0.00 0.00 0.00 0.04 0.05 0.07 0.06 0.03 0.09 0.04 0.03 0.02 0.01 0.01 0.00 0.00 0.00 0.01 0.00 0.00 0.00 0.00 0.00 0.00
0.02 0.00 0.00 0.00 0.00 0.00 0.01 0.00 0.00 0.00 0.00 0.00 0.00 0.00 0.01 0.00 0.00 0.00 0.01 0.01 0.01 0.00 0.01 0.01 0.00 0.01 0.01 0.06 0.02 0.06 0.10 0.04 0.04 0.02 0.02 0.02 0.02 0.01 0.00 0.00 0.00 0.00 0.00 0.00
0.01 0.00 0.00 0.00 0.00 0.00 0.01 0.00 0.00 0.00 0.00 0.01 0.01 0.00 0.02 0.00 0.00 0.00 0.00 0.00 0.00 0.00 0.00 0.00 0.00 0.01 0.03 0.04 0.05 0.09 0.08 0.10 0.10 0.06 0.07 0.07 0.05 0.04 0.01 0.00 0.00 0.00 0.00 0.00
0.01 0.01 0.01 0.01 0.00 0.00 0.00 0.00 0.00 0.00 0.00 0.00 0.00 0.01 0.01 0.01 0.01 0.03 0.02 0.00 0.00 0.00 0.01 0.00 0.01 0.00 0.01 0.03 0.03 0.06 0.11 0.15 0.15 0.16 0.12 0.13 0.09 0.03 0.01 0.00 0.00 0.00 0.00 0.00
0.00 0.00 0.01 0.01 0.00 0.00 0.00 0.00 0.00 0.08 0.04 0.01 0.04 0.05 0.03 0.00 0.00 0.01 0.01 0.00 0.00 0.01 0.01 0.00 0.00 0.00 0.02 0.03 0.06 0.15 0.16 0.17 0.15 0.12 0.12 0.10 0.06 0.04 0.01 0.00 0.00 0.00 0.00 0.00
0.00 0.00 0.00 0.00 0.00 0.02 0.01 0.00 0.02 0.03 0.03 0.03 0.02 0.01 0.00 0.00 0.00 0.00 0.00 0.00 0.00 0.00 0.00 0.00 0.00 0.02 0.05 0.04 0.10 0.24 0.30 0.23 0.20 0.16 0.14 0.07 0.03 0.01 0.00 0.00 0.00 0.00 0.00 0.00
0.00 0.01 0.01 0.00 0.00 0.00 0.01 0.02 0.00 0.00 0.00 0.00 0.00 0.00 0.00 0.00 0.00 0.00 0.00 0.00 0.00 0.00 0.00 0.00 0.00 0.02 0.03 0.04 0.08 0.20 0.20 0.10 0.11 0.08 0.06 0.05 0.05 0.02 0.00 0.00 0.00 0.01 0.05 0.08
0.02 0.06 0.03 0.00 0.00 0.00 0.00 0.00 0.00 0.00 0.00 0.00 0.00 0.00 0.01 0.01 0.00 0.00 0.00 0.00 0.00 0.00 0.00 0.00 0.00 0.01 0.01 0.01 0.03 0.07 0.05 0.03 0.00 0.00 0.03 0.03 0.02 0.01 0.01 0.01 0.01 0.03 0.05 0.08
0.00 0.03 0.08 0.00 0.00 0.00 0.00 0.00 0.00 0.00 0.00 0.04 0.07 0.01 0.00 0.00 0.00 0.00 0.00 0.00 0.00 0.00 0.00 0.00 0.00 0.00 0.00 0.00 0.01 0.01 0.02 0.01 0.00 0.00 0.02 0.01 0.01 0.01 0.02 0.03 0.06 0.09 0.09 0.09
0.00 0.00 0.01 0.01 0.01 0.01 0.00 0.00 0.01 0.01 0.02 0.01 0.02 0.01 0.00 0.00 0.00 0.00 0.01 0.00 0.00 0.00 0.00 0.00 0.00 0.00 0.00 0.00 0.00 0.00 0.01 0.01 0.01 0.01 0.01 0.01 0.02 0.02 0.04 0.04 0.05 0.08 0.12 0.13
0.00 0.00 0.00 0.00 0.02 0.01 0.00 0.00 0.00 0.00 0.00 0.00 0.03 0.00 0.00 0.00 0.00 0.00 0.00 0.00 0.00 0.00 0.00 0.00 0.00 0.00 0.00 0.00 0.03 0.04 0.03 0.04 0.06 0.08 0.06 0.06 0.05 0.05 0.05 0.05 0.04 0.05 0.06 0.04
0.00 0.00 0.00 0.00 0.00 0.00 0.00 0.00 0.00 0.00 0.00 0.00 0.00 0.00 0.00 0.00 0.00 0.00 0.00 0.00 0.00 0.00 0.00 0.00 0.00 0.00 0.01 0.05 0.07 0.06 0.06 0.09 0.12 0.11 0.10 0.07 0.07 0.07 0.08 0.04 0.02 0.01 0.03 0.08
0.00 0.00 0.00 0.00 0.00 0.00 0.00 0.00 0.00 0.00 0.00 0.00 0.00 0.00 0.00 0.00 0.00 0.00 0.00 0.00 0.00 0.00 0.00 0.01 0.02 0.04 0.03 0.06 0.08 0.07 0.07 0.08 0.10 0.11 0.09 0.07 0.07 0.12 0.09 0.02 0.04 0.08 0.09 0.06
0.00 0.00 0.00 0.00 0.00 0.00 0.00 0.00 0.00 0.00 0.00 0.00 0.00 0.00 0.00 0.00 0.00 0.00 0.00 0.00 0.00 0.00 0.00 0.00 0.02 0.03 0.04 0.03 0.05 0.06 0.07 0.07 0.07 0.06 0.05 0.06 0.11 0.12 0.12 0.16 0.13 0.08 0.08 0.09
0.00 0.00 0.00 0.00 0.00 0.01 0.01 0.00 0.00 0.00 0.00 0.00 0.00 0.00 0.00 0.00 0.00 0.00 0.00 0.00 0.00 0.00 0.00 0.00 0.00 0.00 0.01 0.01 0.04 0.04 0.03 0.03 0.03 0.02 0.03 0.07 0.10 0.12 0.09 0.05 0.06 0.07 0.06 0.03
0.00 0.00 0.00 0.00 0.01 0.04 0.00 0.00 0.00 0.00 0.00 0.00 0.00 0.00 0.00 0.00 0.00 0.00 0.00 0.00 0.00 0.00 0.00 0.01 0.00 0.00 0.00 0.00 0.00 0.00 0.00 0.01 0.01 0.01 0.02 0.01 0.02 0.03 0.04 0.05 0.06 0.06 0.04 0.03
0.01 0.01 0.00 0.00 0.01 0.01 0.00 0.00 0.00 0.00 0.00 0.00 0.00 0.01 0.01 0.02 0.01 0.00 0.00 0.01 0.04 0.05 0.03 0.01 0.00 0.00 0.00 0.00 0.00 0.00 0.00 0.01 0.02 0.00 0.00 0.01 0.02 0.07 0.08 0.08 0.06 0.04 0.07 0.04
0.01 0.01 0.01 0.00 0.02 0.02 0.00 0.00 0.00 0.00 0.00 0.00 0.02 0.06 0.10 0.05 0.05 0.03 0.05 0.09 0.08 0.03 0.01 0.00 0.00 0.00 0.00 0.00 0.00 0.00 0.01 0.01 0.00 0.00 0.01 0.04 0.07 0.08 0.05 0.04 0.03 0.04 0.03 0.01
0.02 0.02 0.02 0.01 0.03 0.00 0.00 0.00 0.01 0.10 0.10 0.02 0.10 0.11 0.04 0.08 0.14 0.14 0.13 0.06 0.01 0.00 0.00 0.00 0.00 0.00 0.00 0.00 0.00 0.00 0.00 0.00 0.00 0.01 0.04 0.04 0.02 0.04 0.05 0.04 0.02 0.02 0.03 0.01
0.00 0.01 0.01 0.02 0.05 0.01 0.00 0.01 0.06 0.05 0.02 0.04 0.02 0.01 0.02 0.08 0.13 0.08 0.05 0.01 0.00 0.00 0.00 0.00 0.00 0.00 0.00 0.00 0.00 0.00 0.00 0.00 0.00 0.00 0.01 0.03 0.04 0.05 0.09 0.08 0.03 0.01 0.00 0.00
0.00 0.00 0.00 0.02 0.01 0.00 0.00 0.01 0.01 0.02 0.03 0.01 0.02 0.04 0.14 0.15 0.08 0.06 0.01 0.00 0.00 0.00 0.00 0.00 0.00 0.00 0.00 0.00 0.00 0.01 0.01 0.00 0.00 0.01 0.03 0.04 0.04 0.04 0.02 0.01 0.01 0.00 0.00 0.01
0.02 0.00 0.00 0.01 0.00 0.00 0.01 0.01 0.00 0.01 0.05 0.07 0.13 0.19 0.13 0.11 0.07 0.01 0.00 0.00 0.00 0.00 0.01 0.01 0.01 0.00 0.00 0.00 0.00 0.00 0.00 0.00 0.00 0.01 0.01 0.02 0.02 0.01 0.01 0.00 0.00 0.00 0.00 0.01
0.04 0.04 0.02 0.03 0.01 0.01 0.02 0.03 0.08 0.18 0.26 0.24 0.18 0.13 0.11 0.04 0.00 0.00 0.00 0.01 0.02 0.02 0.01 0.01 0.02 0.03 0.01 0.00 0.00 0.00 0.00 0.00 0.00 0.00 0.00 0.00 0.01 0.02 0.00 0.00 0.00 0.00 0.00 0.01
0.03 0.01 0.04 0.04 0.05 0.10 0.12 0.23 0.42 0.32 0.21 0.21 0.15 0.04 0.00 0.00 0.00 0.02 0.04 0.05 0.03 0.01 0.02 0.03 0.02 0.01 0.00 0.00 0.00 0.00 0.00 0.00 0.00 0.00 0.00 0.01 0.01 0.01 0.00 0.00 0.00 0.00 0.00 0.00

GFSCGP_prec_precacc_063.txt.gz
Total_Precipitation_Accumulation
0.00 0.00 0.00 0.00 0.00 0.00 0.00 0.00 0.00 0.00 0.00 0.00 0.00 0.00 0.00 0.00 0.00 0.01 0.00 0.00 0.00 0.00 0.00 0.00 0.01 0.03 0.03 0.15 0.47 0.72 0.74 0.77 0.50 0.21 0.09 0.05 0.04 0.05 0.06 0.06 0.02 0.01 0.00 0.00
0.00 0.00 0.00 0.00 0.00 0.00 0.00 0.00 0.00 0.00 0.00 0.00 0.00 0.00 0.00 0.00 0.00 0.00 0.01 0.00 0.00 0.00 0.00 0.00 0.05 0.10 0.17 0.31 0.35 0.22 0.07 0.02 0.01 0.02 0.00 0.00 0.01 0.00 0.03 0.05 0.05 0.02 0.00 0.00
0.01 0.01 0.00 0.00 0.00 0.00 0.00 0.00 0.00 0.00 0.00 0.00 0.00 0.00 0.00 0.00 0.01 0.01 0.01 0.00 0.00 0.00 0.00 0.04 0.05 0.07 0.06 0.03 0.09 0.04 0.03 0.02 0.01 0.01 0.00 0.00 0.00 0.01 0.05 0.06 0.01 0.00 0.00 0.00
0.02 0.00 0.00 0.00 0.00 0.00 0.01 0.00 0.00 0.00 0.00 0.00 0.00 0.00 0.01 0.00 0.00 0.00 0.01 0.01 0.01 0.00 0.01 0.01 0.00 0.01 0.01 0.06 0.02 0.06 0.10 0.04 0.04 0.02 0.02 0.02 0.02 0.03 0.05 0.02 0.00 0.00 0.00 0.00
0.01 0.00 0.00 0.00 0.00 0.00 0.01 0.00 0.00 0.00 0.00 0.01 0.01 0.00 0.02 0.00 0.00 0.00 0.00 0.00 0.00 0.00 0.00 0.00 0.00 0.01 0.03 0.04 0.05 0.09 0.08 0.10 0.11 0.06 0.07 0.07 0.07 0.10 0.07 0.02 0.00 0.00 0.00 0.00
0.01 0.01 0.01 0.01 0.00 0.00 0.00 0.00 0.00 0.00 0.00 0.00 0.00 0.01 0.01 0.01 0.01 0.03 0.02 0.00 0.00 0.00 0.01 0.00 0.01 0.00 0.01 0.03 0.03 0.06 0.11 0.16 0.18 0.16 0.13 0.14 0.15 0.11 0.07 0.04 0.00 0.00 0.00 0.00
0.00 0.00 0.01 0.01 0.00 0.00 0.00 0.00 0.00 0.08 0.04 0.01 0.04 0.05 0.03 0.00 0.00 0.01 0.01 0.00 0.00 0.01 0.01 0.00 0.00 0.00 0.03 0.04 0.07 0.15 0.16 0.18 0.20 0.18 0.16 0.13 0.11 0.08 0.05 0.02 0.00 0.00 0.00 0.00
0.00 0.00 0.00 0.00 0.00 0.02 0.01 0.00 0.02 0.03 0.03 0.03 0.02 0.01 0.00 0.00 0.00 0.00 0.00 0.00 0.00 0.00 0.00 0.00 0.00 0.02 0.05 0.05 0.12 0.28 0.30 0.24 0.23 0.22 0.23 0.18 0.11 0.06 0.02 0.00 0.01 0.00 0.00 0.00
0.00 0.01 0.01 0.00 0.00 0.00 0.01 0.02 0.00 0.00 0.00 0.00 0.00 0.00 0.00 0.00 0.00 0.00 0.00 0.00 0.00 0.00 0.00 0.00 0.00 0.02 0.03 0.04 0.08 0.20 0.21 0.11 0.15 0.17 0.15 0.13 0.10 0.09 0.07 0.04 0.01 0.01 0.05 0.08
0.02 0.06 0.03 0.00 0.00 0.00 0.00 0.00 0.00 0.00 0.00 0.00 0.00 0.00 0.01 0.01 0.00 0.00 0.00 0.00 0.00 0.00 0.00 0.00 0.00 0.01 0.01 0.01 0.03 0.07 0.05 0.04 0.01 0.01 0.06 0.08 0.07 0.06 0.07 0.08 0.03 0.03 0.05 0.08
0.00 0.03 0.08 0.00 0.00 0.00 0.00 0.00 0.00 0.00 0.00 0.04 0.07 0.01 0.00 0.00 0.00 0.00 0.00 0.00 0.00 0.00 0.00 0.00 0.00 0.00 0.00 0.00 0.01 0.01 0.02 0.02 0.02 0.04 0.09 0.07 0.06 0.11 0.15 0.14 0.10 0.10 0.11 0.14
0.00 0.00 0.01 0.01 0.01 0.01 0.00 0.00 0.01 0.01 0.02 0.01 0.02 0.01 0.00 0.00 0.00 0.00 0.01 0.00 0.00 0.00 0.00 0.00 0.00 0.00 0.00 0.00 0.00 0.00 0.01 0.03 0.05 0.06 0.07 0.08 0.10 0.12 0.14 0.11 0.09 0.12 0.20 0.19
0.00 0.00 0.00 0.00 0.02 0.01 0.00 0.00 0.00 0.00 0.00 0.00 0.03 0.00 0.00 0.00 0.00 0.00 0.00 0.00 0.00 0.00 0.00 0.00 0.00 0.00 0.00 0.00 0.03 0.04 0.05 0.09 0.11 0.16 0.16 0.17 0.14 0.11 0.11 0.10 0.10 0.09 0.11 0.08
0.00 0.00 0.00 0.00 0.00 0.00 0.00 0.00 0.00 0.00 0.00 0.00 0.00 0.00 0.00 0.00 0.00 0.00 0.00 0.00 0.00 0.00 0.00 0.00 0.00 0.00 0.01 0.05 0.08 0.08 0.10 0.14 0.16 0.18 0.17 0.16 0.14 0.12 0.13 0.18 0.23 0.19 0.10 0.11
0.00 0.00 0.00 0.00 0.00 0.00 0.00 0.00 0.00 0.00 0.00 0.00 0.00 0.00 0.00 0.00 0.00 0.00 0.00 0.00 0.00 0.00 0.00 0.01 0.02 0.04 0.03 0.09 0.12 0.10 0.10 0.10 0.13 0.15 0.14 0.12 0.11 0.16 0.19 0.16 0.11 0.12 0.17 0.16
0.00 0.00 0.00 0.00 0.00 0.00 0.00 0.00 0.00 0.00 0.00 0.00 0.00 0.00 0.00 0.00 0.00 0.00 0.00 0.00 0.00 0.00 0.00 0.00 0.02 0.03 0.04 0.06 0.07 0.08 0.09 0.08 0.08 0.07 0.06 0.06 0.11 0.14 0.17 0.20 0.16 0.11 0.09 0.09
0.00 0.00 0.00 0.00 0.00 0.01 0.01 0.00 0.00 0.00 0.00 0.00 0.00 0.00 0.00 0.00 0.00 0.00 0.00 0.00 0.00 0.00 0.00 0.00 0.00 0.00 0.01 0.01 0.04 0.04 0.03 0.03 0.03 0.02 0.03 0.07 0.10 0.12 0.10 0.06 0.07 0.08 0.08 0.09
0.00 0.00 0.00 0.00 0.01 0.04 0.00 0.00 0.00 0.00 0.00 0.00 0.00 0.00 0.00 0.00 0.00 0.00 0.00 0.00 0.00 0.00 0.00 0.01 0.00 0.00 0.00 0.00 0.00 0.00 0.00 0.01 0.01 0.01 0.02 0.02 0.02 0.03 0.04 0.06 0.09 0.11 0.08 0.04
0.01 0.01 0.00 0.00 0.01 0.01 0.00 0.00 0.00 0.00 0.00 0.00 0.00 0.01 0.01 0.02 0.01 0.00 0.00 0.01 0.04 0.05 0.03 0.01 0.00 0.00 0.00 0.00 0.00 0.00 0.00 0.01 0.02 0.00 0.00 0.01 0.03 0.07 0.10 0.11 0.08 0.05 0.07 0.04
0.01 0.01 0.01 0.00 0.02 0.02 0.00 0.00 0.00 0.00 0.00 0.00 0.02 0.06 0.10 0.05 0.05 0.03 0.05 0.09 0.08 0.03 0.01 0.00 0.00 0.00 0.00 0.00 0.00 0.00 0.01 0.01 0.00 0.00 0.01 0.04 0.08 0.10 0.07 0.04 0.03 0.04 0.03 0.01
0.02 0.02 0.02 0.01 0.03 0.00 0.00 0.00 0.01 0.10 0.10 0.02 0.10 0.11 0.04 0.08 0.14 0.14 0.13 0.06 0.01 0.00 0.00 0.00 0.00 0.00 0.00 0.00 0.00 0.00 0.00 0.00 0.00 0.01 0.05 0.05 0.02 0.04 0.05 0.04 0.02 0.02 0.03 0.01
0.00 0.01 0.01 0.02 0.05 0.01 0.00 0.01 0.06 0.05 0.02 0.04 0.02 0.01 0.02 0.08 0.13 0.08 0.05 0.01 0.00 0.00 0.00 0.00 0.00 0.00 0.00 0.00 0.00 0.00 0.00 0.00 0.00 0.00 0.01 0.03 0.04 0.05 0.09 0.08 0.03 0.01 0.00 0.00
0.01 0.01 0.00 0.02 0.01 0.00 0.00 0.01 0.01 0.02 0.03 0.01 0.02 0.04 0.14 0.15 0.08 0.06 0.01 0.00 0.00 0.00 0.00 0.00 0.00 0.00 0.00 0.00 0.00 0.01 0.01 0.00 0.00 0.01 0.03 0.04 0.04 0.04 0.02 0.01 0.01 0.00 0.00 0.01
0.03 0.01 0.01 0.02 0.00 0.00 0.01 0.01 0.00 0.01 0.05 0.07 0.13 0.19 0.13 0.11 0.07 0.01 0.00 0.00 0.00 0.00 0.01 0.01 0.01 0.00 0.00 0.00 0.00 0.00 0.00 0.00 0.00 0.01 0.01 0.02 0.02 0.01 0.01 0.00 0.00 0.00 0.00 0.01
0.05 0.06 0.04 0.03 0.01 0.01 0.02 0.03 0.08 0.18 0.26 0.24 0.18 0.13 0.11 0.04 0.00 0.00 0.00 0.01 0.02 0.02 0.01 0.01 0.02 0.03 0.01 0.00 0.00 0.00 0.00 0.00 0.00 0.00 0.00 0.00 0.01 0.02 0.00 0.00 0.00 0.00 0.00 0.01
0.03 0.01 0.04 0.04 0.05 0.11 0.12 0.23 0.42 0.32 0.21 0.21 0.15 0.04 0.00 0.00 0.00 0.02 0.04 0.05 0.03 0.01 0.02 0.03 0.02 0.01 0.00 0.00 0.00 0.00 0.00 0.00 0.00 0.00 0.00 0.01 0.01 0.01 0.00 0.00 0.00 0.00 0.00 0.00

GFSCGP_prec_precacc_066.txt.gz
Total_Precipitation_Accumulation
0.00 0.00 0.00 0.00 0.00 0.00 0.00 0.00 0.00 0.00 0.00 0.00 0.00 0.00 0.00 0.00 0.00 0.01 0.00 0.00 0.00 0.00 0.00 0.00 0.01 0.03 0.03 0.15 0.47 0.72 0.74 0.78 0.51 0.21 0.09 0.05 0.04 0.05 0.07 0.11 0.06 0.07 0.05 0.02
0.00 0.00 0.00 0.00 0.00 0.00 0.00 0.00 0.00 0.00 0.00 0.00 0.00 0.00 0.00 0.00 0.00 0.00 0.01 0.00 0.00 0.00 0.00 0.00 0.05 0.10 0.17 0.31 0.35 0.22 0.07 0.02 0.01 0.02 0.00 0.00 0.01 0.00 0.06 0.09 0.10 0.08 0.05 0.01
0.01 0.01 0.00 0.00 0.00 0.00 0.00 0.00 0.00 0.00 0.00 0.00 0.00 0.00 0.00 0.00 0.01 0.01 0.01 0.00 0.00 0.00 0.00 0.04 0.05 0.07 0.06 0.03 0.09 0.04 0.03 0.02 0.01 0.01 0.00 0.00 0.00 0.01 0.06 0.16 0.10 0.05 0.01 0.00
0.02 0.00 0.00 0.00 0.00 0.00 0.01 0.00 0.00 0.00 0.00 0.00 0.00 0.00 0.01 0.00 0.00 0.00 0.01 0.01 0.01 0.00 0.01 0.01 0.00 0.01 0.01 0.06 0.02 0.06 0.10 0.04 0.04 0.02 0.02 0.02 0.02 0.03 0.09 0.08 0.03 0.01 0.00 0.00
0.01 0.00 0.00 0.00 0.00 0.00 0.01 0.00 0.00 0.00 0.00 0.01 0.01 0.00 0.02 0.00 0.00 0.00 0.00 0.00 0.00 0.00 0.00 0.00 0.00 0.01 0.03 0.04 0.05 0.09 0.08 0.10 0.11 0.07 0.07 0.07 0.07 0.12 0.11 0.05 0.03 0.01 0.01 0.00
0.01 0.01 0.01 0.01 0.00 0.00 0.00 0.00 0.00 0.00 0.00 0.00 0.00 0.01 0.01 0.01 0.01 0.03 0.02 0.00 0.00 0.00 0.01 0.00 0.01 0.00 0.01 0.03 0.03 0.06 0.11 0.16 0.19 0.17 0.13 0.14 0.16 0.15 0.10 0.06 0.05 0.04 0.02 0.00
0.00 0.00 0.01 0.01 0.00 0.00 0.00 0.00 0.00 0.08 0.04 0.01 0.04 0.05 0.03 0.00 0.00 0.01 0.01 0.00 0.00 0.01 0.01 0.00 0.00 0.00 0.03 0.04 0.07 0.15 0.16 0.18 0.20 0.18 0.19 0.17 0.13 0.10 0.07 0.04 0.02 0.03 0.03 0.02
0.00 0.00 0.00 0.00 0.00 0.02 0.01 0.00 0.02 0.03 0.03 0.03 0.02 0.01 0.00 0.00 0.00 0.00 0.00 0.00 0.00 0.00 0.00 0.00 0.00 0.02 0.05 0.05 0.12 0.28 0.30 0.24 0.23 0.22 0.24 0.20 0.13 0.07 0.06 0.03 0.04 0.03 0.02 0.01
0.00 0.01 0.01 0.00 0.00 0.00 0.01 0.02 0.00 0.00 0.00 0.00 0.00 0.00 0.00 0.00 0.00 0.00 0.00 0.00 0.00 0.00 0.00 0.00 0.00 0.02 0.03 0.04 0.08 0.20 0.21 0.11 0.15 0.17 0.16 0.16 0.13 0.10 0.08 0.07 0.05 0.04 0.07 0.09
0.02 0.06 0.03 0.00 0.00 0.00 0.00 0.00 0.00 0.00 0.00 0.00 0.00 0.00 0.01 0.01 0.00 0.00 0.00 0.00 0.00 0.00 0.00 0.00 0.00 0.01 0.01 0.01 0.03 0.07 0.05 0.04 0.01 0.01 0.07 0.12 0.13 0.13 0.13 0.13 0.08 0.08 0.09 0.09
0.00 0.03 0.08 0.00 0.00 0.00 0.00 0.00 0.00 0.00 0.00 0.04 0.07 0.01 0.00 0.00 0.00 0.00 0.00 0.00 0.00 0.00 0.00 0.00 0.00 0.00 0.00 0.00 0.01 0.01 0.02 0.02 0.02 0.05 0.10 0.10 0.10 0.14 0.20 0.21 0.16 0.16 0.15 0.15
0.00 0.00 0.01 0.01 0.01 0.01 0.00 0.00 0.01 0.01 0.02 0.01 0.02 0.01 0.00 0.00 0.00 0.00 0.01 0.00 0.00 0.00 0.00 0.00 0.00 0.00 0.00 0.00 0.00 0.00 0.01 0.03 0.05 0.07 0.09 0.12 0.13 0.16 0.19 0.18 0.15 0.16 0.23 0.23
0.00 0.00 0.00 0.00 0.02 0.01 0.00 0.00 0.00 0.00 0.00 0.00 0.03 0.00 0.00 0.00 0.00 0.00 0.00 0.00 0.00 0.00 0.00 0.00 0.00 0.00 0.00 0.00 0.03 0.04 0.05 0.09 0.12 0.18 0.18 0.21 0.20 0.14 0.13 0.12 0.11 0.15 0.31 0.38
0.00 0.00 0.00 0.00 0.00 0.00 0.00 0.00 0.00 0.00 0.00 0.00 0.00 0.00 0.00 0.00 0.00 0.00 0.00 0.00 0.00 0.00 0.00 0.00 0.00 0.00 0.01 0.05 0.08 0.08 0.10 0.14 0.16 0.20 0.19 0.17 0.17 0.15 0.16 0.21 0.35 0.46 0.37 0.25
0.00 0.00 0.00 0.00 0.00 0.00 0.00 0.00 0.00 0.00 0.00 0.00 0.00 0.00 0.00 0.00 0.00 0.00 0.00 0.00 0.00 0.00 0.00 0.01 0.02 0.04 0.03 0.09 0.12 0.11 0.10 0.10 0.14 0.15 0.16 0.13 0.12 0.16 0.19 0.16 0.12 0.13 0.20 0.18
0.00 0.00 0.00 0.00 0.00 0.00 0.00 0.00 0.00 0.00 0.00 0.00 0.00 0.00 0.00 0.00 0.00 0.00 0.00 0.00 0.00 0.00 0.00 0.00 0.02 0.03 0.04 0.06 0.09 0.11 0.13 0.12 0.10 0.09 0.07 0.07 0.11 0.14 0.17 0.20 0.16 0.11 0.10 0.10
0.00 0.00 0.00 0.00 0.00 0.01 0.01 0.00 0.00 0.00 0.00 0.00 0.00 0.00 0.00 0.00 0.00 0.00 0.00 0.00 0.00 0.00 0.00 0.00 0.00 0.00 0.01 0.01 0.04 0.04 0.04 0.05 0.03 0.03 0.03 0.07 0.10 0.12 0.10 0.06 0.08 0.08 0.09 0.10
0.00 0.00 0.00 0.00 0.01 0.04 0.00 0.00 0.00 0.00 0.00 0.00 0.00 0.00 0.00 0.00 0.00 0.00 0.00 0.00 0.00 0.00 0.00 0.01 0.00 0.00 0.00 0.00 0.00 0.00 0.00 0.01 0.01 0.01 0.02 0.02 0.02 0.03 0.05 0.06 0.10 0.12 0.08 0.04
0.01 0.01 0.00 0.00 0.01 0.01 0.00 0.00 0.00 0.00 0.00 0.00 0.00 0.01 0.01 0.02 0.01 0.00 0.00 0.01 0.04 0.05 0.03 0.01 0.00 0.00 0.00 0.00 0.00 0.00 0.00 0.01 0.02 0.00 0.00 0.01 0.03 0.07 0.10 0.11 0.09 0.05 0.07 0.04
0.01 0.01 0.01 0.00 0.02 0.02 0.00 0.00 0.00 0.00 0.00 0.00 0.02 0.06 0.10 0.05 0.05 0.03 0.05 0.09 0.08 0.03 0.01 0.00 0.00 0.00 0.00 0.00 0.00 0.00 0.01 0.01 0.00 0.00 0.01 0.04 0.08 0.10 0.07 0.04 0.03 0.04 0.03 0.01
0.02 0.02 0.02 0.01 0.03 0.00 0.00 0.00 0.01 0.10 0.10 0.02 0.10 0.11 0.04 0.08 0.14 0.14 0.13 0.06 0.01 0.00 0.00 0.00 0.00 0.00 0.00 0.00 0.00 0.00 0.00 0.00 0.00 0.01 0.05 0.05 0.02 0.04 0.05 0.04 0.02 0.02 0.03 0.01
0.01 0.01 0.01 0.02 0.05 0.01 0.00 0.01 0.06 0.05 0.02 0.04 0.02 0.01 0.02 0.08 0.13 0.08 0.05 0.01 0.00 0.00 0.00 0.00 0.00 0.00 0.00 0.00 0.00 0.00 0.00 0.00 0.00 0.00 0.01 0.03 0.04 0.05 0.09 0.08 0.03 0.01 0.00 0.00
0.02 0.01 0.00 0.02 0.01 0.00 0.00 0.01 0.01 0.02 0.03 0.01 0.02 0.04 0.14 0.15 0.08 0.06 0.01 0.00 0.00 0.00 0.00 0.00 0.00 0.00 0.00 0.00 0.00 0.01 0.01 0.00 0.00 0.01 0.03 0.04 0.04 0.04 0.02 0.01 0.01 0.00 0.00 0.01
0.03 0.01 0.01 0.02 0.00 0.00 0.01 0.01 0.00 0.01 0.05 0.07 0.13 0.19 0.13 0.11 0.07 0.01 0.00 0.00 0.00 0.00 0.01 0.01 0.01 0.00 0.00 0.00 0.00 0.00 0.00 0.00 0.00 0.01 0.01 0.02 0.02 0.01 0.01 0.00 0.00 0.00 0.00 0.01
0.05 0.06 0.04 0.03 0.01 0.02 0.02 0.03 0.09 0.18 0.26 0.24 0.18 0.13 0.11 0.04 0.00 0.00 0.00 0.01 0.02 0.02 0.01 0.01 0.02 0.03 0.01 0.00 0.00 0.00 0.00 0.00 0.00 0.00 0.00 0.00 0.01 0.02 0.00 0.00 0.00 0.00 0.00 0.01
0.03 0.01 0.04 0.04 0.06 0.11 0.12 0.23 0.42 0.32 0.21 0.21 0.15 0.04 0.00 0.00 0.00 0.02 0.04 0.05 0.03 0.01 0.02 0.03 0.02 0.01 0.00 0.00 0.00 0.00 0.00 0.00 0.00 0.00 0.00 0.01 0.01 0.01 0.00 0.00 0.00 0.00 0.00 0.00

GFSCGP_prec_precacc_069.txt.gz
Total_Precipitation_Accumulation
0.00 0.00 0.00 0.00 0.00 0.00 0.00 0.00 0.00 0.00 0.00 0.00 0.00 0.00 0.00 0.00 0.00 0.01 0.00 0.00 0.00 0.00 0.00 0.00 0.01 0.03 0.03 0.15 0.47 0.72 0.75 0.82 0.55 0.22 0.09 0.05 0.04 0.05 0.07 0.14 0.09 0.08 0.05 0.03
0.00 0.00 0.00 0.00 0.00 0.00 0.00 0.00 0.00 0.00 0.00 0.00 0.00 0.00 0.00 0.00 0.00 0.00 0.01 0.00 0.00 0.00 0.00 0.00 0.05 0.10 0.17 0.31 0.35 0.22 0.07 0.02 0.01 0.02 0.00 0.00 0.01 0.00 0.06 0.11 0.12 0.09 0.06 0.02
0.01 0.01 0.00 0.00 0.00 0.00 0.00 0.00 0.00 0.00 0.00 0.00 0.00 0.00 0.00 0.00 0.01 0.01 0.01 0.00 0.00 0.00 0.00 0.04 0.05 0.07 0.06 0.03 0.09 0.04 0.03 0.02 0.01 0.01 0.00 0.00 0.00 0.01 0.06 0.16 0.10 0.06 0.03 0.02
0.02 0.00 0.00 0.00 0.00 0.00 0.01 0.00 0.00 0.00 0.00 0.01 0.00 0.00 0.01 0.00 0.00 0.00 0.01 0.01 0.01 0.00 0.01 0.01 0.00 0.01 0.01 0.06 0.02 0.06 0.10 0.04 0.04 0.02 0.02 0.02 0.02 0.03 0.09 0.08 0.03 0.01 0.00 0.00
0.01 0.00 0.00 0.00 0.00 0.00 0.01 0.00 0.00 0.00 0.00 0.01 0.01 0.00 0.02 0.00 0.00 0.00 0.00 0.00 0.00 0.00 0.00 0.00 0.00 0.01 0.03 0.04 0.05 0.09 0.08 0.10 0.11 0.07 0.07 0.07 0.07 0.12 0.11 0.05 0.03 0.02 0.02 0.03
0.01 0.01 0.01 0.01 0.00 0.00 0.00 0.00 0.00 0.00 0.00 0.00 0.01 0.01 0.01 0.01 0.01 0.03 0.02 0.00 0.00 0.00 0.01 0.00 0.01 0.00 0.01 0.03 0.03 0.06 0.11 0.16 0.19 0.17 0.13 0.14 0.16 0.15 0.10 0.08 0.06 0.05 0.04 0.04
0.00 0.00 0.01 0.01 0.00 0.00 0.00 0.00 0.01 0.08 0.04 0.01 0.04 0.05 0.03 0.00 0.00 0.01 0.01 0.00 0.00 0.01 0.01 0.00 0.00 0.00 0.03 0.04 0.07 0.15 0.16 0.18 0.20 0.18 0.19 0.17 0.13 0.10 0.07 0.04 0.03 0.05 0.06 0.06
0.00 0.00 0.00 0.00 0.00 0.02 0.01 0.00 0.02 0.04 0.03 0.03 0.02 0.01 0.00 0.00 0.00 0.00 0.00 0.00 0.00 0.00 0.00 0.00 0.00 0.02 0.05 0.05 0.12 0.28 0.30 0.24 0.23 0.22 0.24 0.20 0.13 0.07 0.09 0.04 0.05 0.04 0.04 0.05
0.00 0.01 0.01 0.00 0.00 0.00 0.01 0.02 0.00 0.00 0.00 0.00 0.00 0.00 0.00 0.00 0.00 0.00 0.00 0.00 0.00 0.00 0.00 0.00 0.00 0.02 0.03 0.04 0.08 0.20 0.21 0.11 0.15 0.17 0.16 0.16 0.13 0.10 0.09 0.08 0.06 0.05 0.08 0.11
0.02 0.06 0.03 0.00 0.00 0.00 0.00 0.00 0.00 0.00 0.00 0.01 0.00 0.00 0.01 0.01 0.00 0.00 0.00 0.00 0.00 0.00 0.00 0.00 0.00 0.01 0.01 0.01 0.03 0.07 0.05 0.04 0.01 0.01 0.07 0.12 0.13 0.13 0.14 0.15 0.11 0.11 0.12 0.13
0.00 0.03 0.08 0.00 0.00 0.00 0.00 0.00 0.00 0.00 0.00 0.04 0.07 0.01 0.00 0.00 0.00 0.00 0.00 0.00 0.00 0.00 0.00 0.00 0.00 0.00 0.00 0.00 0.01 0.01 0.02 0.02 0.02 0.05 0.10 0.10 0.10 0.14 0.21 0.24 0.20 0.19 0.21 0.25
0.00 0.00 0.01 0.01 0.01 0.01 0.00 0.00 0.01 0.01 0.02 0.01 0.02 0.01 0.00 0.00 0.00 0.00 0.01 0.00 0.00 0.00 0.00 0.00 0.00 0.00 0.00 0.00 0.00 0.00 0.01 0.03 0.05 0.07 0.09 0.13 0.14 0.16 0.20 0.19 0.15 0.17 0.24 0.24
0.00 0.00 0.00 0.00 0.02 0.01 0.00 0.00 0.00 0.00 0.00 0.00 0.03 0.00 0.00 0.00 0.00 0.00 0.00 0.00 0.00 0.00 0.00 0.00 0.00 0.00 0.00 0.00 0.03 0.04 0.05 0.09 0.12 0.18 0.18 0.21 0.21 0.18 0.17 0.13 0.12 0.16 0.37 0.51
0.00 0.00 0.00 0.00 0.00 0.00 0.00 0.00 0.00 0.00 0.00 0.00 0.00 0.00 0.00 0.00 0.00 0.00 0.00 0.00 0.00 0.00 0.00 0.00 0.00 0.00 0.01 0.05 0.08 0.08 0.10 0.14 0.16 0.20 0.19 0.18 0.19 0.17 0.17 0.22 0.35 0.48 0.44 0.35
0.00 0.00 0.00 0.00 0.00 0.00 0.00 0.00 0.00 0.00 0.00 0.00 0.00 0.00 0.00 0.00 0.00 0.00 0.00 0.00 0.00 0.00 0.00 0.01 0.02 0.04 0.03 0.09 0.12 0.11 0.10 0.11 0.16 0.18 0.17 0.15 0.13 0.17 0.21 0.16 0.12 0.13 0.20 0.18
0.00 0.00 0.00 0.00 0.00 0.00 0.00 0.00 0.00 0.00 0.00 0.00 0.00 0.00 0.00 0.00 0.00 0.00 0.00 0.00 0.00 0.00 0.00 0.00 0.02 0.03 0.04 0.06 0.09 0.12 0.13 0.12 0.13 0.13 0.14 0.11 0.13 0.14 0.17 0.20 0.16 0.11 0.10 0.10
0.00 0.00 0.00 0.00 0.00 0.01 0.01 0.00 0.00 0.00 0.00 0.00 0.00 0.00 0.00 0.00 0.00 0.00 0.00 0.00 0.00 0.00 0.00 0.00 0.00 0.00 0.01 0.01 0.06 0.07 0.07 0.08 0.08 0.08 0.07 0.09 0.11 0.13 0.10 0.06 0.08 0.08 0.09 0.10
0.00 0.00 0.00 0.00 0.01 0.04 0.00 0.00 0.00 0.00 0.00 0.00 0.00 0.00 0.00 0.00 0.00 0.00 0.00 0.00 0.00 0.00 0.00 0.01 0.00 0.00 0.00 0.00 0.00 0.00 0.00 0.01 0.02 0.02 0.02 0.02 0.02 0.03 0.05 0.06 0.10 0.12 0.08 0.04
0.01 0.01 0.00 0.01 0.01 0.01 0.00 0.00 0.00 0.00 0.00 0.00 0.00 0.01 0.01 0.02 0.01 0.00 0.00 0.01 0.04 0.05 0.03 0.01 0.00 0.00 0.00 0.00 0.00 0.00 0.00 0.01 0.02 0.00 0.00 0.01 0.03 0.07 0.10 0.11 0.09 0.05 0.07 0.04
0.01 0.01 0.02 0.00 0.02 0.02 0.00 0.00 0.00 0.00 0.00 0.00 0.02 0.06 0.10 0.05 0.05 0.03 0.05 0.09 0.08 0.03 0.01 0.00 0.00 0.00 0.00 0.00 0.00 0.00 0.01 0.01 0.00 0.00 0.01 0.04 0.08 0.10 0.07 0.04 0.03 0.04 0.03 0.01
0.02 0.02 0.02 0.02 0.03 0.00 0.00 0.00 0.01 0.10 0.10 0.02 0.10 0.11 0.04 0.08 0.14 0.14 0.13 0.06 0.01 0.00 0.00 0.00 0.00 0.00 0.00 0.00 0.00 0.00 0.00 0.00 0.00 0.01 0.05 0.05 0.02 0.04 0.05 0.04 0.02 0.02 0.03 0.01
0.03 0.03 0.02 0.03 0.06 0.02 0.00 0.01 0.06 0.05 0.02 0.04 0.02 0.01 0.02 0.08 0.13 0.08 0.05 0.01 0.00 0.00 0.00 0.00 0.00 0.00 0.00 0.00 0.00 0.00 0.00 0.00 0.00 0.00 0.01 0.03 0.04 0.05 0.09 0.08 0.03 0.01 0.00 0.00
0.03 0.03 0.04 0.03 0.02 0.00 0.00 0.01 0.01 0.02 0.03 0.01 0.02 0.04 0.14 0.15 0.08 0.06 0.01 0.00 0.00 0.00 0.00 0.00 0.00 0.00 0.00 0.00 0.00 0.01 0.01 0.00 0.00 0.01 0.03 0.04 0.04 0.04 0.02 0.01 0.01 0.00 0.00 0.01
0.03 0.01 0.01 0.02 0.00 0.00 0.01 0.01 0.00 0.01 0.05 0.07 0.13 0.19 0.13 0.11 0.07 0.01 0.00 0.00 0.00 0.00 0.01 0.01 0.01 0.00 0.00 0.00 0.00 0.00 0.00 0.00 0.00 0.01 0.01 0.02 0.02 0.01 0.01 0.00 0.00 0.00 0.00 0.01
0.05 0.06 0.04 0.03 0.01 0.02 0.02 0.03 0.09 0.18 0.26 0.24 0.18 0.13 0.11 0.04 0.00 0.00 0.00 0.01 0.02 0.02 0.01 0.01 0.02 0.03 0.01 0.00 0.00 0.00 0.00 0.00 0.00 0.00 0.00 0.00 0.01 0.02 0.00 0.00 0.00 0.00 0.00 0.01
0.03 0.01 0.04 0.04 0.06 0.11 0.12 0.23 0.42 0.32 0.21 0.21 0.15 0.04 0.00 0.00 0.00 0.02 0.04 0.05 0.03 0.01 0.02 0.03 0.02 0.01 0.00 0.00 0.00 0.00 0.00 0.00 0.00 0.00 0.00 0.01 0.01 0.01 0.00 0.00 0.00 0.00 0.00 0.00

GFSCGP_prec_precacc_072.txt.gz
Total_Precipitation_Accumulation
0.00 0.00 0.00 0.00 0.00 0.00 0.00 0.00 0.00 0.00 0.00 0.00 0.00 0.00 0.00 0.00 0.00 0.01 0.00 0.00 0.00 0.00 0.00 0.00 0.01 0.03 0.03 0.15 0.47 0.72 0.75 0.84 0.60 0.28 0.10 0.05 0.04 0.05 0.07 0.14 0.10 0.11 0.08 0.03
0.00 0.00 0.00 0.00 0.00 0.00 0.00 0.00 0.00 0.00 0.00 0.00 0.00 0.00 0.00 0.00 0.00 0.00 0.01 0.00 0.00 0.00 0.00 0.00 0.05 0.10 0.17 0.31 0.35 0.22 0.08 0.04 0.03 0.03 0.00 0.00 0.01 0.00 0.06 0.12 0.13 0.12 0.08 0.03
0.01 0.01 0.00 0.00 0.00 0.00 0.00 0.00 0.00 0.00 0.00 0.00 0.00 0.00 0.00 0.00 0.01 0.01 0.01 0.00 0.00 0.00 0.00 0.04 0.05 0.07 0.06 0.03 0.09 0.04 0.03 0.02 0.01 0.01 0.00 0.00 0.00 0.01 0.06 0.17 0.11 0.07 0.04 0.02
0.02 0.00 0.00 0.00 0.00 0.00 0.01 0.00 0.00 0.00 0.00 0.02 0.00 0.00 0.01 0.00 0.00 0.00 0.01 0.01 0.01 0.00 0.01 0.01 0.00 0.01 0.01 0.06 0.02 0.06 0.10 0.04 0.04 0.02 0.02 0.02 0.02 0.03 0.09 0.08 0.03 0.01 0.00 0.00
0.01 0.00 0.00 0.00 0.00 0.00 0.01 0.00 0.00 0.00 0.00 0.01 0.02 0.00 0.02 0.00 0.00 0.00 0.00 0.00 0.00 0.00 0.00 0.00 0.00 0.01 0.03 0.04 0.05 0.09 0.08 0.10 0.11 0.07 0.07 0.07 0.07 0.12 0.11 0.05 0.03 0.02 0.02 0.04
0.01 0.01 0.01 0.01 0.00 0.00 0.00 0.00 0.00 0.00 0.00 0.00 0.01 0.01 0.01 0.01 0.01 0.03 0.02 0.00 0.00 0.00 0.01 0.00 0.01 0.00 0.01 0.03 0.03 0.06 0.11 0.16 0.19 0.17 0.13 0.14 0.16 0.15 0.10 0.14 0.14 0.05 0.05 0.06
0.00 0.00 0.01 0.01 0.00 0.00 0.00 0.00 0.01 0.10 0.04 0.02 0.05 0.05 0.03 0.00 0.00 0.01 0.01 0.00 0.00 0.01 0.01 0.00 0.00 0.01 0.03 0.04 0.07 0.15 0.16 0.18 0.20 0.18 0.19 0.17 0.13 0.10 0.08 0.09 0.07 0.07 0.09 0.07
0.00 0.00 0.00 0.00 0.00 0.02 0.01 0.00 0.04 0.07 0.04 0.04 0.03 0.01 0.00 0.00 0.00 0.00 0.00 0.00 0.00 0.00 0.00 0.00 0.00 0.02 0.05 0.05 0.12 0.28 0.30 0.24 0.23 0.22 0.24 0.20 0.13 0.08 0.12 0.05 0.07 0.06 0.05 0.05
0.00 0.01 0.01 0.00 0.00 0.00 0.01 0.02 0.00 0.00 0.00 0.00 0.00 0.00 0.00 0.00 0.00 0.00 0.00 0.00 0.00 0.00 0.00 0.00 0.00 0.02 0.03 0.04 0.08 0.20 0.21 0.11 0.15 0.17 0.16 0.16 0.13 0.11 0.13 0.09 0.07 0.10 0.08 0.11
0.02 0.06 0.03 0.00 0.00 0.00 0.00 0.00 0.00 0.00 0.00 0.01 0.00 0.00 0.01 0.01 0.00 0.00 0.00 0.00 0.00 0.00 0.00 0.00 0.00 0.01 0.01 0.01 0.03 0.07 0.05 0.04 0.01 0.01 0.07 0.12 0.13 0.14 0.14 0.19 0.26 0.18 0.14 0.15
0.00 0.03 0.08 0.00 0.00 0.00 0.00 0.00 0.00 0.00 0.00 0.04 0.08 0.01 0.00 0.00 0.00 0.00 0.00 0.00 0.00 0.00 0.00 0.00 0.00 0.00 0.00 0.00 0.02 0.01 0.02 0.02 0.02 0.05 0.10 0.10 0.10 0.17 0.25 0.29 0.27 0.21 0.26 0.30
0.00 0.00 0.01 0.01 0.01 0.01 0.00 0.00 0.01 0.01 0.02 0.01 0.03 0.01 0.00 0.00 0.00 0.00 0.01 0.00 0.00 0.00 0.00 0.00 0.00 0.00 0.00 0.00 0.00 0.00 0.01 0.03 0.05 0.07 0.10 0.18 0.19 0.25 0.29 0.28 0.22 0.24 0.30 0.26
0.00 0.00 0.00 0.00 0.02 0.01 0.00 0.00 0.00 0.00 0.00 0.00 0.03 0.01 0.00 0.00 0.00 0.00 0.00 0.00 0.00 0.00 0.00 0.00 0.00 0.00 0.00 0.00 0.03 0.05 0.05 0.09 0.12 0.25 0.24 0.32 0.41 0.25 0.23 0.20 0.15 0.19 0.39 0.52
0.00 0.00 0.00 0.00 0.00 0.00 0.00 0.00 0.00 0.00 0.00 0.00 0.00 0.00 0.00 0.00 0.00 0.00 0.00 0.00 0.00 0.00 0.00 0.00 0.00 0.00 0.01 0.05 0.08 0.08 0.10 0.14 0.18 0.26 0.26 0.29 0.27 0.24 0.22 0.27 0.40 0.51 0.45 0.35
0.00 0.00 0.00 0.00 0.00 0.00 0.00 0.00 0.00 0.00 0.00 0.00 0.00 0.00 0.00 0.00 0.00 0.00 0.00 0.00 0.00 0.00 0.00 0.01 0.02 0.04 0.03 0.09 0.12 0.11 0.10 0.11 0.16 0.19 0.23 0.21 0.23 0.28 0.29 0.25 0.16 0.15 0.20 0.19
0.00 0.00 0.00 0.00 0.00 0.00 0.00 0.00 0.00 0.00 0.00 0.00 0.00 0.00 0.00 0.00 0.00 0.00 0.00 0.00 0.00 0.00 0.00 0.00 0.02 0.03 0.04 0.07 0.10 0.13 0.13 0.13 0.15 0.16 0.21 0.18 0.21 0.22 0.22 0.22 0.17 0.11 0.10 0.10
0.00 0.00 0.00 0.00 0.00 0.01 0.01 0.00 0.00 0.00 0.00 0.00 0.00 0.00 0.00 0.00 0.00 0.00 0.00 0.00 0.00 0.00 0.00 0.00 0.00 0.00 0.03 0.02 0.06 0.07 0.07 0.09 0.09 0.09 0.10 0.13 0.15 0.16 0.12 0.07 0.08 0.08 0.09 0.10
0.00 0.00 0.00 0.01 0.01 0.04 0.00 0.00 0.00 0.00 0.00 0.00 0.00 0.00 0.00 0.00 0.00 0.00 0.00 0.00 0.00 0.00 0.00 0.01 0.00 0.01 0.00 0.00 0.00 0.00 0.01 0.02 0.04 0.04 0.04 0.04 0.03 0.04 0.05 0.06 0.10 0.12 0.08 0.04
0.01 0.02 0.03 0.02 0.02 0.01 0.00 0.00 0.00 0.00 0.00 0.00 0.00 0.01 0.01 0.02 0.01 0.00 0.00 0.01 0.04 0.05 0.03 0.01 0.00 0.00 0.00 0.00 0.00 0.00 0.00 0.01 0.02 0.00 0.00 0.01 0.03 0.07 0.10 0.11 0.09 0.05 0.07 0.04
0.01 0.01 0.06 0.03 0.03 0.02 0.00 0.00 0.00 0.00 0.00 0.00 0.02 0.06 0.10 0.05 0.05 0.03 0.05 0.09 0.08 0.03 0.01 0.00 0.00 0.00 0.00 0.00 0.00 0.00 0.01 0.01 0.00 0.00 0.01 0.04 0.08 0.10 0.07 0.04 0.03 0.04 0.03 0.01
0.02 0.03 0.06 0.05 0.05 0.01 0.00 0.00 0.01 0.10 0.10 0.02 0.10 0.11 0.04 0.08 0.14 0.14 0.13 0.06 0.01 0.00 0.00 0.00 0.00 0.00 0.00 0.00 0.00 0.00 0.00 0.00 0.00 0.01 0.05 0.05 0.02 0.04 0.05 0.04 0.02 0.02 0.03 0.01
0.09 0.04 0.04 0.06 0.09 0.03 0.00 0.01 0.06 0.05 0.02 0.04 0.02 0.01 0.02 0.08 0.13 0.08 0.05 0.01 0.00 0.00 0.00 0.00 0.00 0.00 0.00 0.00 0.00 0.00 0.00 0.00 0.00 0.00 0.01 0.03 0.04 0.05 0.09 0.08 0.03 0.01 0.00 0.00
0.16 0.12 0.08 0.04 0.02 0.00 0.00 0.01 0.01 0.02 0.03 0.01 0.02 0.04 0.14 0.15 0.08 0.06 0.01 0.00 0.00 0.00 0.00 0.00 0.00 0.00 0.00 0.00 0.00 0.01 0.01 0.00 0.00 0.01 0.03 0.04 0.04 0.04 0.02 0.01 0.01 0.00 0.00 0.01
0.03 0.02 0.02 0.03 0.01 0.01 0.01 0.01 0.00 0.01 0.05 0.07 0.13 0.19 0.13 0.11 0.07 0.01 0.00 0.00 0.00 0.00 0.01 0.01 0.01 0.00 0.00 0.00 0.00 0.00 0.00 0.00 0.00 0.01 0.01 0.02 0.02 0.01 0.01 0.00 0.00 0.00 0.00 0.01
0.05 0.06 0.04 0.03 0.01 0.02 0.02 0.03 0.09 0.18 0.26 0.24 0.18 0.13 0.11 0.04 0.00 0.00 0.00 0.01 0.02 0.02 0.01 0.01 0.02 0.03 0.01 0.00 0.00 0.00 0.00 0.00 0.00 0.00 0.00 0.00 0.01 0.02 0.00 0.00 0.00 0.00 0.00 0.01
0.03 0.01 0.04 0.04 0.06 0.11 0.12 0.23 0.42 0.32 0.21 0.21 0.15 0.04 0.00 0.00 0.00 0.02 0.04 0.05 0.03 0.01 0.02 0.03 0.02 0.01 0.00 0.00 0.00 0.00 0.00 0.00 0.00 0.00 0.00 0.01 0.01 0.01 0.00 0.00 0.00 0.00 0.00 0.00

GFSCGP_prec_precacc_075.txt.gz
Total_Precipitation_Accumulation
0.00 0.00 0.00 0.00 0.00 0.00 0.00 0.00 0.00 0.00 0.00 0.00 0.00 0.00 0.00 0.00 0.01 0.03 0.04 0.02 0.00 0.00 0.00 0.00 0.01 0.03 0.03 0.15 0.47 0.72 0.75 0.84 0.60 0.28 0.10 0.05 0.04 0.05 0.07 0.14 0.11 0.12 0.09 0.05
0.00 0.00 0.00 0.00 0.00 0.00 0.00 0.00 0.00 0.00 0.00 0.00 0.00 0.00 0.00 0.00 0.00 0.00 0.01 0.01 0.00 0.00 0.00 0.00 0.05 0.10 0.17 0.31 0.35 0.22 0.08 0.04 0.03 0.03 0.00 0.00 0.01 0.00 0.06 0.12 0.13 0.12 0.08 0.04
0.01 0.01 0.00 0.00 0.00 0.00 0.00 0.00 0.00 0.00 0.00 0.00 0.00 0.00 0.00 0.00 0.01 0.01 0.01 0.00 0.00 0.00 0.00 0.04 0.05 0.07 0.06 0.03 0.09 0.04 0.03 0.02 0.01 0.01 0.00 0.00 0.00 0.01 0.06 0.17 0.12 0.08 0.06 0.06
0.02 0.00 0.00 0.00 0.00 0.00 0.01 0.00 0.00 0.00 0.00 0.02 0.00 0.00 0.01 0.00 0.00 0.00 0.01 0.01 0.01 0.00 0.01 0.01 0.00 0.01 0.01 0.06 0.02 0.06 0.10 0.04 0.04 0.02 0.02 0.02 0.02 0.03 0.09 0.08 0.03 0.02 0.01 0.00
0.01 0.00 0.00 0.00 0.00 0.00 0.01 0.00 0.00 0.00 0.00 0.01 0.02 0.00 0.02 0.00 0.00 0.00 0.00 0.00 0.00 0.00 0.00 0.00 0.00 0.01 0.03 0.04 0.05 0.09 0.08 0.10 0.11 0.07 0.07 0.07 0.07 0.12 0.11 0.05 0.03 0.02 0.02 0.04
0.01 0.01 0.01 0.01 0.00 0.00 0.00 0.00 0.00 0.00 0.00 0.00 0.01 0.02 0.01 0.01 0.01 0.03 0.02 0.00 0.00 0.00 0.01 0.00 0.01 0.00 0.01 0.03 0.03 0.06 0.11 0.16 0.19 0.17 0.14 0.17 0.22 0.15 0.10 0.14 0.14 0.05 0.08 0.08
0.00 0.00 0.01 0.01 0.00 0.00 0.00 0.00 0.01 0.10 0.04 0.02 0.05 0.05 0.03 0.00 0.00 0.01 0.01 0.00 0.00 0.01 0.01 0.00 0.00 0.01 0.03 0.04 0.07 0.15 0.16 0.18 0.20 0.18 0.27 0.20 0.18 0.13 0.08 0.09 0.07 0.07 0.16 0.18
0.00 0.00 0.00 0.00 0.00 0.02 0.01 0.00 0.04 0.08 0.04 0.05 0.05 0.01 0.00 0.00 0.00 0.00 0.00 0.00 0.00 0.00 0.00 0.00 0.00 0.03 0.05 0.05 0.12 0.28 0.30 0.24 0.23 0.22 0.26 0.26 0.13 0.09 0.13 0.06 0.11 0.09 0.09 0.13
0.00 0.01 0.01 0.00 0.00 0.00 0.01 0.02 0.00 0.00 0.01 0.01 0.00 0.00 0.00 0.00 0.00 0.00 0.00 0.00 0.00 0.00 0.00 0.00 0.01 0.03 0.03 0.05 0.09 0.20 0.21 0.11 0.15 0.17 0.16 0.18 0.17 0.11 0.13 0.09 0.10 0.24 0.23 0.18
0.02 0.06 0.03 0.00 0.00 0.00 0.00 0.00 0.00 0.00 0.00 0.02 0.00 0.00 0.01 0.01 0.00 0.00 0.00 0.00 0.00 0.00 0.00 0.00 0.00 0.02 0.03 0.02 0.03 0.08 0.06 0.04 0.01 0.01 0.07 0.12 0.15 0.17 0.15 0.19 0.35 0.49 0.26 0.16
0.00 0.03 0.08 0.00 0.00 0.00 0.00 0.00 0.00 0.00 0.00 0.04 0.08 0.01 0.00 0.00 0.00 0.00 0.00 0.00 0.00 0.00 0.00 0.00 0.00 0.00 0.01 0.03 0.05 0.02 0.05 0.04 0.02 0.05 0.11 0.10 0.10 0.18 0.30 0.33 0.56 0.40 0.37 0.39
0.00 0.00 0.01 0.01 0.01 0.01 0.00 0.00 0.01 0.01 0.02 0.01 0.03 0.01 0.00 0.00 0.00 0.00 0.01 0.00 0.00 0.00 0.00 0.00 0.00 0.01 0.03 0.06 0.07 0.01 0.05 0.23 0.13 0.17 0.21 0.21 0.32 0.50 0.67 0.61 0.53 0.45 0.41 0.36
0.00 0.00 0.01 0.00 0.02 0.01 0.00 0.00 0.00 0.00 0.00 0.00 0.03 0.01 0.00 0.00 0.00 0.00 0.00 0.00 0.00 0.00 0.00 0.00 0.00 0.00 0.00 0.01 0.11 0.11 0.07 0.18 0.22 0.43 0.42 0.63 0.67 0.52 0.64 0.51 0.35 0.28 0.47 0.62
0.00 0.01 0.00 0.00 0.00 0.00 0.00 0.00 0.00 0.00 0.00 0.00 0.00 0.00 0.00 0.00 0.00 0.00 0.00 0.00 0.00 0.00 0.00 0.00 0.00 0.00 0.01 0.05 0.08 0.09 0.13 0.19 0.28 0.34 0.35 0.36 0.36 0.48 0.33 0.32 0.51 0.63 0.53 0.39
0.00 0.00 0.00 0.00 0.00 0.00 0.00 0.00 0.00 0.00 0.00 0.00 0.00 0.00 0.00 0.00 0.00 0.00 0.00 0.00 0.00 0.00 0.00 0.01 0.02 0.04 0.03 0.09 0.12 0.11 0.11 0.13 0.21 0.26 0.29 0.26 0.30 0.39 0.34 0.28 0.20 0.17 0.22 0.20
0.00 0.00 0.00 0.00 0.00 0.00 0.00 0.00 0.00 0.00 0.00 0.00 0.00 0.00 0.00 0.00 0.00 0.00 0.00 0.00 0.00 0.00 0.00 0.00 0.02 0.03 0.04 0.07 0.10 0.13 0.13 0.14 0.18 0.19 0.25 0.22 0.25 0.26 0.27 0.26 0.20 0.14 0.11 0.10
0.00 0.00 0.00 0.01 0.00 0.01 0.01 0.00 0.00 0.00 0.00 0.00 0.00 0.00 0.00 0.00 0.00 0.00 0.00 0.00 0.00 0.00 0.00 0.00 0.00 0.00 0.03 0.03 0.06 0.07 0.08 0.09 0.10 0.10 0.12 0.15 0.19 0.19 0.16 0.09 0.09 0.08 0.09 0.10
0.00 0.00 0.00 0.01 0.01 0.05 0.00 0.00 0.00 0.00 0.00 0.00 0.00 0.00 0.00 0.00 0.00 0.00 0.00 0.00 0.00 0.00 0.00 0.01 0.00 0.01 0.00 0.00 0.00 0.00 0.01 0.02 0.04 0.04 0.05 0.05 0.04 0.04 0.05 0.06 0.10 0.12 0.08 0.04
0.01 0.02 0.04 0.02 0.02 0.01 0.00 0.00 0.00 0.00 0.00 0.00 0.00 0.01 0.01 0.02 0.01 0.00 0.00 0.01 0.04 0.05 0.03 0.01 0.00 0.00 0.00 0.00 0.00 0.00 0.00 0.01 0.02 0.00 0.00 0.01 0.03 0.07 0.10 0.11 0.09 0.05 0.07 0.04
0.01 0.02 0.07 0.04 0.04 0.02 0.00 0.00 0.00 0.00 0.00 0.00 0.02 0.06 0.10 0.05 0.05 0.03 0.05 0.09 0.08 0.03 0.01 0.00 0.00 0.00 0.00 0.00 0.00 0.00 0.01 0.01 0.00 0.00 0.01 0.04 0.08 0.10 0.07 0.04 0.03 0.04 0.03 0.01
0.02 0.05 0.07 0.05 0.07 0.01 0.00 0.00 0.01 0.10 0.10 0.02 0.10 0.11 0.04 0.08 0.14 0.14 0.13 0.06 0.01 0.00 0.00 0.00 0.00 0.00 0.00 0.00 0.00 0.00 0.00 0.00 0.00 0.01 0.05 0.05 0.02 0.04 0.05 0.04 0.02 0.02 0.03 0.01
0.11 0.05 0.05 0.06 0.09 0.03 0.00 0.01 0.06 0.05 0.02 0.04 0.02 0.01 0.02 0.08 0.13 0.08 0.05 0.01 0.00 0.00 0.00 0.00 0.00 0.00 0.00 0.00 0.00 0.00 0.00 0.00 0.00 0.00 0.01 0.03 0.04 0.05 0.09 0.08 0.03 0.01 0.00 0.00
0.17 0.15 0.10 0.05 0.02 0.00 0.00 0.01 0.01 0.02 0.03 0.01 0.02 0.04 0.14 0.15 0.08 0.06 0.01 0.00 0.00 0.00 0.00 0.00 0.00 0.00 0.00 0.00 0.00 0.01 0.01 0.00 0.00 0.01 0.03 0.04 0.04 0.04 0.02 0.01 0.01 0.00 0.00 0.01
0.03 0.04 0.10 0.08 0.02 0.03 0.03 0.03 0.01 0.01 0.05 0.07 0.13 0.19 0.13 0.11 0.07 0.01 0.00 0.00 0.00 0.00 0.01 0.01 0.01 0.00 0.00 0.00 0.00 0.00 0.00 0.00 0.00 0.01 0.01 0.02 0.02 0.01 0.01 0.00 0.00 0.00 0.00 0.01
0.05 0.06 0.04 0.04 0.01 0.04 0.04 0.04 0.10 0.18 0.26 0.24 0.18 0.13 0.11 0.04 0.00 0.00 0.00 0.01 0.02 0.02 0.01 0.01 0.02 0.03 0.01 0.00 0.00 0.00 0.00 0.00 0.00 0.00 0.00 0.00 0.01 0.02 0.00 0.00 0.00 0.00 0.00 0.01
0.03 0.01 0.04 0.04 0.06 0.11 0.12 0.23 0.42 0.32 0.21 0.21 0.15 0.04 0.00 0.00 0.00 0.02 0.04 0.05 0.03 0.01 0.02 0.03 0.02 0.01 0.00 0.00 0.00 0.00 0.00 0.00 0.00 0.00 0.00 0.01 0.01 0.01 0.00 0.00 0.00 0.01 0.01 0.01

GFSCGP_prec_precacc_078.txt.gz
Total_Precipitation_Accumulation
0.00 0.00 0.00 0.00 0.00 0.00 0.00 0.00 0.00 0.00 0.00 0.00 0.00 0.00 0.00 0.00 0.01 0.03 0.04 0.03 0.01 0.00 0.00 0.00 0.01 0.03 0.03 0.15 0.47 0.72 0.75 0.84 0.60 0.28 0.10 0.05 0.04 0.05 0.07 0.14 0.11 0.12 0.09 0.05
0.00 0.00 0.00 0.00 0.00 0.00 0.00 0.00 0.00 0.00 0.00 0.00 0.00 0.00 0.00 0.00 0.00 0.00 0.01 0.01 0.00 0.00 0.00 0.00 0.05 0.10 0.17 0.31 0.35 0.22 0.08 0.04 0.03 0.03 0.00 0.00 0.01 0.00 0.06 0.12 0.13 0.12 0.08 0.04
0.01 0.01 0.00 0.00 0.00 0.00 0.00 0.00 0.00 0.00 0.00 0.00 0.00 0.00 0.00 0.00 0.01 0.01 0.01 0.00 0.00 0.00 0.00 0.04 0.05 0.07 0.06 0.03 0.09 0.04 0.03 0.02 0.01 0.01 0.00 0.00 0.00 0.01 0.06 0.17 0.12 0.08 0.06 0.06
0.02 0.00 0.00 0.00 0.00 0.00 0.01 0.00 0.00 0.00 0.00 0.02 0.00 0.00 0.01 0.00 0.00 0.00 0.01 0.01 0.01 0.00 0.01 0.01 0.00 0.01 0.01 0.06 0.02 0.06 0.10 0.04 0.04 0.02 0.02 0.02 0.02 0.03 0.09 0.08 0.03 0.02 0.01 0.00
0.01 0.00 0.00 0.00 0.00 0.00 0.01 0.00 0.00 0.00 0.00 0.01 0.02 0.00 0.02 0.00 0.00 0.00 0.00 0.00 0.00 0.00 0.00 0.00 0.00 0.01 0.03 0.04 0.05 0.09 0.08 0.10 0.11 0.07 0.07 0.07 0.07 0.12 0.11 0.05 0.03 0.02 0.02 0.04
0.01 0.01 0.01 0.01 0.00 0.00 0.00 0.00 0.00 0.00 0.00 0.00 0.01 0.02 0.01 0.01 0.01 0.03 0.02 0.00 0.00 0.00 0.01 0.00 0.01 0.00 0.01 0.03 0.03 0.06 0.11 0.16 0.19 0.17 0.14 0.17 0.22 0.15 0.10 0.14 0.14 0.05 0.08 0.08
0.00 0.00 0.01 0.01 0.00 0.00 0.00 0.00 0.01 0.10 0.04 0.02 0.05 0.05 0.03 0.00 0.00 0.01 0.01 0.00 0.00 0.01 0.01 0.00 0.00 0.01 0.03 0.04 0.07 0.15 0.16 0.18 0.20 0.18 0.27 0.20 0.18 0.13 0.08 0.09 0.07 0.07 0.16 0.18
0.00 0.00 0.00 0.00 0.00 0.02 0.01 0.00 0.04 0.08 0.04 0.05 0.05 0.01 0.00 0.00 0.00 0.00 0.00 0.00 0.00 0.00 0.00 0.00 0.01 0.03 0.06 0.05 0.12 0.28 0.30 0.24 0.23 0.22 0.26 0.26 0.13 0.10 0.13 0.06 0.11 0.09 0.09 0.13
0.00 0.01 0.01 0.00 0.00 0.00 0.01 0.02 0.00 0.00 0.01 0.01 0.00 0.00 0.00 0.00 0.00 0.00 0.00 0.00 0.00 0.00 0.00 0.00 0.01 0.04 0.05 0.06 0.09 0.20 0.21 0.11 0.15 0.17 0.16 0.18 0.18 0.12 0.15 0.14 0.10 0.24 0.24 0.19
0.02 0.06 0.03 0.00 0.00 0.00 0.00 0.00 0.00 0.00 0.00 0.02 0.00 0.00 0.01 0.01 0.00 0.00 0.00 0.00 0.00 0.00 0.00 0.00 0.00 0.02 0.03 0.03 0.07 0.14 0.08 0.06 0.02 0.01 0.07 0.12 0.17 0.21 0.20 0.28 0.38 0.50 0.29 0.26
0.00 0.03 0.08 0.00 0.00 0.00 0.00 0.00 0.00 0.00 0.00 0.04 0.08 0.01 0.00 0.00 0.00 0.00 0.00 0.00 0.00 0.00 0.00 0.00 0.00 0.00 0.02 0.03 0.06 0.06 0.11 0.10 0.09 0.12 0.14 0.11 0.11 0.25 0.45 0.49 0.79 0.60 0.57 0.74
0.00 0.00 0.01 0.01 0.01 0.01 0.00 0.00 0.01 0.01 0.02 0.01 0.03 0.01 0.00 0.00 0.00 0.00 0.01 0.00 0.00 0.00 0.00 0.00 0.00 0.01 0.03 0.06 0.08 0.04 0.15 0.33 0.14 0.18 0.24 0.22 0.34 0.60 0.93 0.93 1.04 1.27 1.52 1.22
0.00 0.00 0.01 0.00 0.02 0.01 0.00 0.00 0.00 0.00 0.00 0.00 0.03 0.01 0.00 0.00 0.00 0.00 0.00 0.00 0.00 0.00 0.00 0.00 0.00 0.00 0.00 0.01 0.11 0.11 0.12 0.27 0.30 0.49 0.43 0.63 0.79 0.71 0.87 0.75 0.65 0.66 0.73 0.75
0.00 0.01 0.00 0.00 0.00 0.00 0.00 0.00 0.00 0.00 0.00 0.00 0.00 0.00 0.00 0.00 0.00 0.00 0.00 0.00 0.00 0.00 0.00 0.00 0.00 0.00 0.01 0.05 0.08 0.09 0.13 0.21 0.31 0.40 0.39 0.38 0.45 0.59 0.52 0.61 0.75 0.82 0.66 0.45
0.00 0.00 0.00 0.00 0.00 0.00 0.00 0.00 0.00 0.00 0.00 0.00 0.00 0.00 0.00 0.00 0.00 0.00 0.00 0.00 0.00 0.00 0.00 0.01 0.02 0.04 0.03 0.09 0.12 0.11 0.11 0.14 0.22 0.29 0.33 0.29 0.33 0.43 0.42 0.32 0.26 0.23 0.26 0.23
0.00 0.00 0.00 0.00 0.00 0.00 0.00 0.00 0.00 0.00 0.00 0.00 0.00 0.00 0.00 0.00 0.00 0.00 0.00 0.00 0.00 0.00 0.00 0.00 0.02 0.03 0.04 0.07 0.10 0.13 0.14 0.14 0.19 0.21 0.28 0.24 0.27 0.29 0.29 0.29 0.22 0.16 0.14 0.12
0.01 0.00 0.00 0.01 0.00 0.01 0.02 0.00 0.00 0.00 0.00 0.00 0.00 0.00 0.00 0.00 0.00 0.00 0.00 0.00 0.00 0.00 0.00 0.00 0.00 0.00 0.03 0.03 0.06 0.07 0.08 0.10 0.11 0.11 0.13 0.16 0.19 0.21 0.17 0.11 0.11 0.10 0.11 0.11
0.05 0.00 0.00 0.01 0.02 0.12 0.02 0.00 0.00 0.00 0.00 0.00 0.00 0.00 0.00 0.00 0.00 0.00 0.00 0.00 0.00 0.00 0.00 0.01 0.00 0.01 0.00 0.00 0.00 0.00 0.01 0.02 0.04 0.05 0.05 0.05 0.04 0.04 0.05 0.07 0.11 0.12 0.08 0.05
0.09 0.03 0.05 0.03 0.03 0.05 0.00 0.00 0.00 0.00 0.00 0.00 0.00 0.01 0.01 0.02 0.01 0.00 0.00 0.01 0.04 0.05 0.03 0.01 0.00 0.00 0.00 0.00 0.00 0.00 0.00 0.01 0.03 0.01 0.01 0.01 0.03 0.08 0.11 0.12 0.09 0.05 0.07 0.04
0.04 0.04 0.09 0.05 0.04 0.02 0.00 0.00 0.00 0.00 0.00 0.00 0.02 0.06 0.10 0.05 0.05 0.03 0.05 0.09 0.08 0.03 0.01 0.00 0.00 0.00 0.00 0.00 0.00 0.01 0.01 0.01 0.01 0.00 0.01 0.04 0.08 0.11 0.07 0.04 0.03 0.04 0.03 0.01
0.23 0.11 0.08 0.06 0.08 0.01 0.00 0.00 0.01 0.10 0.10 0.02 0.10 0.11 0.04 0.08 0.14 0.14 0.13 0.06 0.01 0.00 0.00 0.00 0.00 0.00 0.00 0.00 0.00 0.00 0.00 0.00 0.00 0.01 0.05 0.05 0.02 0.04 0.05 0.04 0.02 0.02 0.03 0.01
0.24 0.16 0.08 0.09 0.11 0.03 0.00 0.01 0.06 0.06 0.02 0.04 0.02 0.01 0.02 0.08 0.13 0.08 0.05 0.01 0.00 0.00 0.00 0.00 0.00 0.00 0.00 0.00 0.00 0.00 0.00 0.00 0.00 0.00 0.02 0.03 0.04 0.05 0.09 0.08 0.03 0.01 0.00 0.00
0.19 0.20 0.13 0.05 0.03 0.01 0.01 0.01 0.01 0.02 0.03 0.01 0.02 0.04 0.14 0.15 0.08 0.06 0.01 0.00 0.00 0.00 0.00 0.00 0.00 0.00 0.00 0.00 0.00 0.01 0.01 0.00 0.00 0.01 0.03 0.04 0.04 0.04 0.02 0.01 0.01 0.00 0.00 0.01
0.03 0.04 0.11 0.08 0.02 0.04 0.04 0.04 0.01 0.01 0.05 0.07 0.13 0.19 0.13 0.11 0.07 0.01 0.00 0.00 0.00 0.00 0.01 0.01 0.01 0.00 0.00 0.00 0.00 0.00 0.00 0.00 0.00 0.01 0.01 0.02 0.02 0.01 0.01 0.00 0.00 0.00 0.00 0.01
0.05 0.06 0.04 0.04 0.01 0.04 0.04 0.04 0.10 0.18 0.26 0.24 0.18 0.13 0.11 0.04 0.00 0.00 0.00 0.01 0.02 0.02 0.01 0.01 0.02 0.03 0.01 0.00 0.00 0.00 0.00 0.00 0.00 0.00 0.00 0.00 0.01 0.02 0.00 0.00 0.00 0.00 0.00 0.01
0.03 0.01 0.04 0.04 0.06 0.11 0.12 0.24 0.42 0.32 0.21 0.21 0.15 0.04 0.00 0.00 0.00 0.02 0.04 0.05 0.03 0.01 0.02 0.03 0.02 0.01 0.00 0.00 0.00 0.00 0.00 0.00 0.00 0.00 0.00 0.01 0.01 0.01 0.00 0.00 0.01 0.01 0.02 0.03

GFSCGP_prec_precacc_081.txt.gz
Total_Precipitation_Accumulation
0.00 0.00 0.00 0.00 0.00 0.00 0.00 0.00 0.00 0.00 0.00 0.00 0.00 0.00 0.00 0.00 0.01 0.03 0.04 0.03 0.01 0.00 0.00 0.00 0.01 0.03 0.03 0.15 0.47 0.72 0.76 0.86 0.62 0.31 0.14 0.06 0.05 0.05 0.07 0.14 0.11 0.12 0.09 0.05
0.00 0.00 0.00 0.00 0.00 0.00 0.00 0.00 0.00 0.00 0.00 0.00 0.00 0.00 0.00 0.00 0.00 0.00 0.01 0.01 0.00 0.00 0.00 0.00 0.05 0.10 0.17 0.32 0.35 0.22 0.08 0.04 0.04 0.04 0.01 0.00 0.01 0.00 0.06 0.12 0.13 0.12 0.08 0.04
0.01 0.01 0.00 0.00 0.00 0.00 0.00 0.00 0.00 0.00 0.00 0.00 0.00 0.00 0.00 0.00 0.01 0.01 0.01 0.00 0.00 0.00 0.00 0.04 0.05 0.07 0.06 0.04 0.09 0.04 0.03 0.02 0.01 0.01 0.00 0.00 0.00 0.01 0.06 0.17 0.12 0.08 0.06 0.06
0.02 0.00 0.00 0.00 0.00 0.00 0.01 0.00 0.00 0.00 0.00 0.02 0.00 0.00 0.01 0.00 0.00 0.00 0.01 0.01 0.01 0.00 0.01 0.01 0.00 0.01 0.01 0.06 0.02 0.06 0.10 0.04 0.04 0.02 0.02 0.02 0.02 0.03 0.09 0.08 0.03 0.02 0.01 0.00
0.01 0.00 0.00 0.00 0.00 0.00 0.01 0.00 0.00 0.00 0.00 0.01 0.02 0.00 0.02 0.00 0.00 0.00 0.00 0.00 0.00 0.00 0.00 0.00 0.00 0.01 0.03 0.04 0.05 0.09 0.08 0.10 0.11 0.07 0.07 0.07 0.07 0.12 0.11 0.05 0.03 0.02 0.02 0.04
0.01 0.01 0.01 0.01 0.00 0.00 0.00 0.00 0.00 0.00 0.00 0.00 0.01 0.02 0.01 0.01 0.01 0.03 0.02 0.00 0.00 0.00 0.01 0.00 0.01 0.00 0.01 0.03 0.03 0.06 0.11 0.16 0.19 0.17 0.14 0.17 0.22 0.15 0.10 0.14 0.14 0.05 0.08 0.08
0.00 0.00 0.01 0.01 0.00 0.00 0.00 0.00 0.01 0.10 0.04 0.02 0.05 0.05 0.03 0.00 0.00 0.01 0.01 0.00 0.00 0.01 0.01 0.00 0.00 0.01 0.03 0.04 0.07 0.15 0.16 0.18 0.20 0.18 0.27 0.20 0.18 0.13 0.08 0.09 0.07 0.07 0.16 0.18
0.00 0.00 0.00 0.00 0.00 0.02 0.01 0.00 0.04 0.08 0.04 0.05 0.05 0.01 0.00 0.00 0.00 0.00 0.00 0.00 0.00 0.00 0.00 0.00 0.01 0.03 0.06 0.05 0.12 0.28 0.30 0.24 0.23 0.22 0.26 0.26 0.13 0.10 0.13 0.06 0.11 0.09 0.09 0.13
0.00 0.01 0.01 0.00 0.00 0.00 0.01 0.02 0.00 0.00 0.01 0.01 0.00 0.00 0.00 0.00 0.00 0.00 0.00 0.00 0.00 0.00 0.00 0.00 0.01 0.04 0.05 0.06 0.10 0.20 0.21 0.11 0.15 0.17 0.16 0.18 0.18 0.12 0.15 0.14 0.10 0.25 0.25 0.20
0.02 0.06 0.03 0.00 0.00 0.00 0.00 0.00 0.00 0.00 0.00 0.02 0.00 0.00 0.01 0.01 0.00 0.00 0.00 0.00 0.00 0.00 0.00 0.00 0.00 0.02 0.04 0.05 0.10 0.16 0.09 0.06 0.02 0.01 0.07 0.12 0.17 0.21 0.20 0.28 0.40 0.54 0.40 0.33
0.00 0.03 0.08 0.00 0.00 0.00 0.00 0.00 0.00 0.00 0.00 0.04 0.08 0.01 0.00 0.00 0.00 0.00 0.00 0.00 0.00 0.00 0.00 0.00 0.00 0.00 0.02 0.06 0.10 0.13 0.18 0.14 0.14 0.15 0.16 0.12 0.12 0.25 0.46 0.51 0.84 0.70 0.66 0.84
0.00 0.00 0.01 0.01 0.01 0.01 0.00 0.00 0.01 0.01 0.02 0.01 0.03 0.01 0.00 0.00 0.00 0.00 0.01 0.00 0.00 0.00 0.00 0.00 0.00 0.01 0.03 0.06 0.08 0.06 0.23 0.43 0.25 0.24 0.30 0.29 0.42 0.67 0.98 0.95 1.10 1.36 1.61 1.48
0.00 0.00 0.01 0.00 0.02 0.01 0.00 0.00 0.00 0.00 0.00 0.00 0.03 0.01 0.00 0.00 0.00 0.00 0.00 0.00 0.00 0.00 0.00 0.00 0.00 0.00 0.00 0.01 0.11 0.11 0.12 0.31 0.34 0.53 0.47 0.72 0.88 0.76 0.94 0.85 0.79 0.88 0.93 0.90
0.04 0.03 0.00 0.00 0.00 0.00 0.00 0.00 0.00 0.00 0.00 0.00 0.00 0.00 0.00 0.00 0.00 0.00 0.00 0.00 0.00 0.00 0.00 0.00 0.00 0.00 0.01 0.05 0.08 0.09 0.13 0.21 0.31 0.40 0.39 0.39 0.47 0.64 0.56 0.65 0.81 1.00 0.93 0.68
0.08 0.06 0.00 0.00 0.00 0.00 0.00 0.00 0.00 0.00 0.00 0.00 0.00 0.00 0.00 0.00 0.00 0.00 0.00 0.00 0.00 0.00 0.00 0.01 0.02 0.04 0.03 0.09 0.12 0.11 0.11 0.14 0.22 0.29 0.33 0.29 0.34 0.45 0.46 0.37 0.33 0.31 0.34 0.28
0.10 0.04 0.00 0.00 0.00 0.00 0.01 0.00 0.00 0.00 0.00 0.00 0.00 0.00 0.00 0.00 0.00 0.00 0.00 0.00 0.00 0.00 0.00 0.00 0.02 0.03 0.04 0.07 0.10 0.13 0.14 0.14 0.19 0.21 0.28 0.24 0.29 0.31 0.32 0.33 0.26 0.22 0.19 0.15
0.24 0.11 0.01 0.01 0.00 0.01 0.04 0.00 0.00 0.00 0.00 0.00 0.00 0.00 0.00 0.00 0.00 0.00 0.00 0.00 0.00 0.00 0.00 0.00 0.00 0.00 0.03 0.03 0.06 0.07 0.08 0.10 0.11 0.11 0.14 0.17 0.21 0.22 0.19 0.12 0.13 0.13 0.13 0.13
0.27 0.23 0.08 0.01 0.02 0.15 0.05 0.00 0.00 0.00 0.00 0.00 0.00 0.00 0.00 0.00 0.00 0.00 0.00 0.00 0.00 0.00 0.00 0.01 0.00 0.01 0.00 0.00 0.00 0.00 0.01 0.02 0.04 0.06 0.07 0.06 0.04 0.05 0.06 0.07 0.12 0.14 0.10 0.06
0.16 0.24 0.24 0.06 0.03 0.05 0.00 0.00 0.00 0.00 0.00 0.00 0.00 0.01 0.01 0.02 0.01 0.00 0.00 0.01 0.04 0.05 0.03 0.01 0.00 0.00 0.00 0.00 0.00 0.00 0.00 0.01 0.03 0.01 0.01 0.02 0.03 0.08 0.11 0.13 0.10 0.06 0.09 0.06
0.06 0.10 0.24 0.17 0.08 0.02 0.00 0.00 0.00 0.00 0.01 0.00 0.02 0.06 0.10 0.05 0.05 0.03 0.05 0.09 0.08 0.03 0.01 0.00 0.00 0.00 0.00 0.00 0.00 0.01 0.01 0.01 0.01 0.00 0.01 0.04 0.08 0.11 0.09 0.06 0.04 0.06 0.04 0.02
0.26 0.20 0.16 0.14 0.15 0.02 0.00 0.00 0.01 0.15 0.12 0.02 0.10 0.11 0.04 0.08 0.14 0.14 0.13 0.06 0.01 0.00 0.00 0.00 0.00 0.00 0.00 0.00 0.00 0.00 0.00 0.00 0.00 0.02 0.05 0.06 0.03 0.05 0.07 0.06 0.03 0.02 0.03 0.02
0.25 0.32 0.26 0.24 0.16 0.04 0.00 0.02 0.07 0.07 0.02 0.04 0.02 0.01 0.02 0.08 0.13 0.08 0.05 0.01 0.00 0.00 0.00 0.00 0.00 0.00 0.00 0.00 0.00 0.00 0.00 0.00 0.00 0.00 0.02 0.04 0.05 0.06 0.10 0.09 0.03 0.02 0.01 0.01
0.19 0.22 0.24 0.23 0.13 0.01 0.01 0.02 0.03 0.02 0.03 0.01 0.02 0.04 0.14 0.15 0.08 0.06 0.01 0.00 0.00 0.00 0.00 0.00 0.00 0.00 0.00 0.00 0.00 0.01 0.01 0.00 0.00 0.01 0.03 0.04 0.04 0.05 0.03 0.02 0.02 0.00 0.00 0.01
0.03 0.04 0.12 0.10 0.03 0.04 0.04 0.04 0.01 0.01 0.05 0.07 0.13 0.19 0.14 0.11 0.07 0.01 0.00 0.00 0.00 0.00 0.01 0.01 0.01 0.00 0.00 0.00 0.00 0.00 0.00 0.00 0.00 0.01 0.01 0.02 0.02 0.02 0.01 0.00 0.00 0.00 0.00 0.01
0.05 0.07 0.05 0.04 0.01 0.04 0.04 0.04 0.10 0.18 0.26 0.25 0.18 0.13 0.11 0.04 0.01 0.00 0.01 0.01 0.02 0.02 0.01 0.01 0.02 0.03 0.01 0.00 0.00 0.00 0.00 0.00 0.00 0.00 0.00 0.00 0.01 0.02 0.00 0.00 0.00 0.00 0.00 0.01
0.03 0.01 0.05 0.04 0.06 0.11 0.12 0.24 0.42 0.32 0.21 0.21 0.15 0.04 0.00 0.00 0.00 0.02 0.04 0.05 0.03 0.01 0.02 0.03 0.02 0.01 0.00 0.00 0.00 0.00 0.00 0.00 0.00 0.00 0.00 0.01 0.01 0.01 0.01 0.01 0.01 0.02 0.03 0.03

GFSCGP_prec_precacc_084.txt.gz
Total_Precipitation_Accumulation
0.00 0.00 0.00 0.00 0.00 0.00 0.00 0.00 0.00 0.00 0.00 0.00 0.00 0.00 0.00 0.00 0.01 0.03 0.04 0.03 0.01 0.00 0.00 0.00 0.01 0.03 0.03 0.15 0.48 0.73 0.80 0.90 0.79 0.34 0.21 0.09 0.06 0.06 0.08 0.15 0.11 0.13 0.09 0.05
0.00 0.00 0.00 0.00 0.00 0.00 0.00 0.00 0.00 0.00 0.00 0.00 0.00 0.00 0.00 0.00 0.00 0.00 0.01 0.01 0.00 0.00 0.00 0.01 0.05 0.10 0.18 0.32 0.36 0.22 0.08 0.04 0.07 0.07 0.08 0.05 0.01 0.01 0.06 0.13 0.15 0.13 0.08 0.04
0.01 0.01 0.00 0.00 0.00 0.00 0.00 0.00 0.00 0.00 0.00 0.00 0.00 0.00 0.00 0.00 0.01 0.01 0.01 0.00 0.00 0.00 0.00 0.04 0.05 0.07 0.06 0.04 0.09 0.04 0.03 0.02 0.01 0.02 0.01 0.02 0.00 0.01 0.07 0.18 0.13 0.10 0.07 0.07
0.02 0.00 0.00 0.00 0.00 0.00 0.01 0.00 0.00 0.00 0.00 0.02 0.00 0.00 0.01 0.00 0.00 0.00 0.01 0.01 0.01 0.00 0.01 0.01 0.00 0.01 0.01 0.06 0.02 0.06 0.10 0.04 0.04 0.02 0.02 0.02 0.02 0.03 0.09 0.08 0.04 0.02 0.01 0.01
0.01 0.00 0.00 0.00 0.00 0.00 0.01 0.00 0.00 0.00 0.00 0.01 0.02 0.00 0.02 0.00 0.00 0.00 0.00 0.00 0.00 0.00 0.00 0.00 0.00 0.01 0.03 0.04 0.05 0.09 0.08 0.10 0.11 0.07 0.07 0.07 0.07 0.12 0.11 0.05 0.03 0.02 0.02 0.04
0.01 0.01 0.01 0.01 0.00 0.00 0.00 0.00 0.00 0.00 0.00 0.00 0.01 0.02 0.01 0.01 0.01 0.03 0.02 0.00 0.00 0.00 0.01 0.00 0.01 0.00 0.01 0.03 0.03 0.06 0.11 0.16 0.19 0.17 0.14 0.17 0.22 0.15 0.10 0.14 0.14 0.05 0.08 0.08
0.00 0.00 0.01 0.01 0.00 0.00 0.00 0.00 0.01 0.10 0.04 0.02 0.05 0.05 0.03 0.00 0.00 0.01 0.01 0.00 0.00 0.01 0.01 0.00 0.00 0.01 0.03 0.04 0.07 0.15 0.16 0.18 0.20 0.18 0.27 0.20 0.18 0.13 0.08 0.09 0.07 0.07 0.16 0.18
0.00 0.00 0.00 0.00 0.00 0.02 0.01 0.00 0.04 0.08 0.04 0.05 0.05 0.01 0.00 0.00 0.00 0.00 0.00 0.00 0.00 0.00 0.00 0.00 0.01 0.03 0.06 0.05 0.12 0.28 0.30 0.24 0.23 0.22 0.26 0.26 0.13 0.10 0.13 0.06 0.11 0.09 0.09 0.13
0.00 0.01 0.01 0.00 0.00 0.00 0.01 0.02 0.00 0.00 0.01 0.01 0.00 0.00 0.00 0.00 0.00 0.00 0.00 0.00 0.00 0.00 0.00 0.00 0.01 0.04 0.05 0.06 0.10 0.20 0.21 0.11 0.15 0.17 0.16 0.18 0.18 0.12 0.15 0.14 0.10 0.25 0.25 0.20
0.02 0.06 0.03 0.00 0.00 0.00 0.00 0.00 0.00 0.00 0.00 0.02 0.00 0.00 0.01 0.01 0.00 0.00 0.00 0.00 0.00 0.00 0.00 0.00 0.00 0.02 0.04 0.05 0.11 0.16 0.10 0.06 0.02 0.01 0.07 0.12 0.17 0.21 0.20 0.28 0.40 0.54 0.41 0.36
0.00 0.03 0.08 0.00 0.00 0.00 0.00 0.00 0.00 0.00 0.00 0.04 0.08 0.01 0.00 0.00 0.00 0.00 0.00 0.00 0.00 0.00 0.00 0.00 0.00 0.00 0.02 0.06 0.11 0.16 0.19 0.14 0.14 0.15 0.16 0.12 0.12 0.25 0.46 0.51 0.84 0.70 0.67 0.88
0.00 0.00 0.01 0.01 0.01 0.01 0.00 0.00 0.01 0.01 0.02 0.01 0.03 0.01 0.00 0.00 0.00 0.00 0.01 0.00 0.00 0.00 0.00 0.00 0.00 0.01 0.03 0.06 0.08 0.06 0.23 0.44 0.28 0.25 0.30 0.29 0.42 0.67 0.98 0.96 1.10 1.36 1.64 1.54
0.00 0.01 0.02 0.00 0.02 0.01 0.00 0.00 0.00 0.00 0.00 0.00 0.03 0.01 0.00 0.00 0.00 0.00 0.00 0.00 0.00 0.00 0.00 0.00 0.00 0.00 0.00 0.01 0.11 0.11 0.12 0.31 0.37 0.56 0.48 0.73 0.91 0.78 0.97 0.88 0.81 0.92 0.97 0.99
0.05 0.05 0.02 0.02 0.00 0.00 0.00 0.00 0.00 0.00 0.00 0.00 0.00 0.00 0.00 0.00 0.00 0.00 0.00 0.00 0.00 0.00 0.00 0.00 0.00 0.00 0.01 0.05 0.08 0.09 0.13 0.21 0.31 0.41 0.39 0.39 0.47 0.65 0.58 0.69 0.85 1.05 0.99 0.76
0.09 0.11 0.00 0.00 0.00 0.00 0.00 0.00 0.00 0.00 0.00 0.00 0.00 0.00 0.00 0.00 0.00 0.00 0.00 0.00 0.00 0.00 0.00 0.01 0.02 0.04 0.03 0.09 0.12 0.11 0.11 0.14 0.22 0.29 0.33 0.29 0.34 0.45 0.47 0.40 0.35 0.34 0.38 0.34
0.13 0.11 0.01 0.00 0.00 0.00 0.01 0.00 0.00 0.00 0.00 0.00 0.00 0.00 0.00 0.00 0.00 0.00 0.00 0.00 0.00 0.00 0.00 0.00 0.02 0.03 0.04 0.07 0.10 0.13 0.14 0.14 0.19 0.21 0.28 0.24 0.29 0.31 0.33 0.35 0.29 0.25 0.24 0.19
0.26 0.17 0.08 0.03 0.00 0.01 0.05 0.00 0.00 0.00 0.00 0.00 0.00 0.00 0.00 0.00 0.00 0.00 0.00 0.00 0.00 0.00 0.00 0.00 0.00 0.00 0.03 0.03 0.06 0.07 0.08 0.10 0.11 0.11 0.14 0.17 0.21 0.23 0.19 0.13 0.14 0.14 0.16 0.15
0.28 0.29 0.22 0.09 0.04 0.20 0.06 0.00 0.00 0.00 0.00 0.00 0.00 0.00 0.00 0.00 0.00 0.00 0.00 0.00 0.00 0.00 0.00 0.01 0.00 0.01 0.00 0.00 0.00 0.00 0.01 0.02 0.04 0.06 0.07 0.07 0.05 0.05 0.06 0.08 0.13 0.14 0.10 0.06
0.16 0.25 0.36 0.23 0.15 0.10 0.00 0.00 0.00 0.00 0.00 0.00 0.00 0.01 0.01 0.02 0.01 0.00 0.00 0.01 0.04 0.05 0.03 0.01 0.00 0.00 0.00 0.00 0.00 0.00 0.00 0.01 0.04 0.01 0.02 0.02 0.04 0.09 0.12 0.13 0.11 0.07 0.10 0.08
0.07 0.11 0.29 0.29 0.29 0.11 0.00 0.00 0.00 0.00 0.01 0.00 0.02 0.06 0.10 0.05 0.05 0.03 0.05 0.09 0.08 0.03 0.01 0.00 0.00 0.00 0.00 0.00 0.00 0.01 0.01 0.01 0.01 0.01 0.03 0.05 0.10 0.12 0.09 0.07 0.06 0.08 0.08 0.06
0.33 0.24 0.19 0.16 0.22 0.07 0.01 0.03 0.03 0.16 0.12 0.02 0.10 0.11 0.04 0.08 0.14 0.14 0.13 0.06 0.01 0.00 0.00 0.00 0.00 0.00 0.00 0.00 0.00 0.00 0.00 0.00 0.00 0.02 0.05 0.06 0.04 0.06 0.08 0.08 0.06 0.06 0.07 0.05
0.27 0.38 0.30 0.27 0.21 0.07 0.04 0.10 0.11 0.08 0.03 0.04 0.02 0.01 0.02 0.08 0.13 0.08 0.05 0.01 0.00 0.00 0.00 0.00 0.00 0.00 0.00 0.00 0.00 0.00 0.00 0.00 0.00 0.00 0.02 0.04 0.05 0.06 0.11 0.11 0.05 0.04 0.03 0.02
0.19 0.22 0.24 0.24 0.16 0.07 0.03 0.06 0.05 0.05 0.05 0.02 0.03 0.04 0.14 0.15 0.08 0.06 0.01 0.00 0.00 0.00 0.00 0.00 0.00 0.00 0.00 0.00 0.00 0.01 0.01 0.00 0.00 0.01 0.03 0.04 0.05 0.06 0.04 0.03 0.03 0.02 0.01 0.02
0.03 0.06 0.13 0.10 0.03 0.04 0.05 0.04 0.01 0.02 0.06 0.08 0.13 0.19 0.14 0.11 0.07 0.01 0.00 0.00 0.00 0.00 0.01 0.01 0.01 0.00 0.00 0.00 0.00 0.00 0.00 0.00 0.00 0.01 0.01 0.02 0.02 0.02 0.01 0.01 0.01 0.01 0.01 0.01
0.05 0.07 0.06 0.05 0.02 0.04 0.04 0.04 0.10 0.18 0.26 0.25 0.19 0.14 0.12 0.05 0.01 0.00 0.01 0.01 0.02 0.02 0.01 0.01 0.02 0.03 0.01 0.00 0.00 0.00 0.00 0.00 0.00 0.00 0.00 0.00 0.01 0.02 0.00 0.00 0.00 0.01 0.02 0.03
0.03 0.01 0.05 0.04 0.06 0.11 0.12 0.24 0.42 0.32 0.21 0.21 0.16 0.05 0.00 0.01 0.01 0.02 0.04 0.06 0.04 0.01 0.02 0.03 0.03 0.01 0.00 0.00 0.00 0.00 0.00 0.00 0.00 0.00 0.00 0.01 0.01 0.01 0.01 0.02 0.04 0.05 0.05 0.06

GFSCGP_prec_precacc_090.txt.gz
Total_Precipitation_Accumulation
0.00 0.00 0.00 0.00 0.00 0.00 0.00 0.00 0.00 0.00 0.00 0.00 0.00 0.00 0.00 0.00 0.01 0.03 0.04 0.03 0.01 0.00 0.00 0.01 0.01 0.04 0.03 0.16 0.48 0.74 0.83 0.93 0.82 0.37 0.30 0.21 0.23 0.22 0.21 0.21 0.12 0.14 0.09 0.05
0.00 0.00 0.00 0.00 0.00 0.00 0.00 0.00 0.00 0.00 0.00 0.00 0.00 0.00 0.00 0.00 0.00 0.00 0.01 0.01 0.00 0.00 0.00 0.01 0.05 0.11 0.18 0.33 0.36 0.22 0.09 0.06 0.09 0.10 0.12 0.10 0.06 0.09 0.13 0.17 0.16 0.14 0.08 0.04
0.01 0.01 0.00 0.00 0.00 0.00 0.00 0.00 0.00 0.00 0.00 0.00 0.00 0.00 0.00 0.00 0.01 0.01 0.01 0.00 0.00 0.00 0.00 0.04 0.06 0.07 0.06 0.04 0.10 0.04 0.03 0.02 0.02 0.05 0.05 0.11 0.05 0.05 0.10 0.22 0.16 0.10 0.08 0.07
0.02 0.00 0.00 0.00 0.00 0.00 0.01 0.00 0.00 0.00 0.00 0.02 0.00 0.00 0.01 0.00 0.00 0.00 0.01 0.01 0.01 0.00 0.01 0.01 0.00 0.01 0.01 0.06 0.02 0.06 0.10 0.04 0.04 0.02 0.03 0.05 0.03 0.03 0.09 0.08 0.04 0.03 0.02 0.02
0.01 0.00 0.00 0.00 0.00 0.00 0.01 0.00 0.00 0.00 0.00 0.01 0.02 0.00 0.02 0.00 0.00 0.00 0.00 0.00 0.00 0.00 0.00 0.00 0.00 0.01 0.03 0.04 0.06 0.09 0.08 0.10 0.11 0.07 0.07 0.07 0.08 0.12 0.11 0.05 0.03 0.02 0.03 0.04
0.01 0.01 0.01 0.01 0.00 0.00 0.00 0.00 0.00 0.00 0.00 0.00 0.01 0.02 0.01 0.01 0.01 0.03 0.02 0.00 0.00 0.00 0.01 0.00 0.01 0.00 0.01 0.03 0.03 0.07 0.11 0.16 0.19 0.17 0.14 0.17 0.22 0.15 0.10 0.14 0.14 0.05 0.08 0.08
0.00 0.00 0.01 0.01 0.00 0.00 0.00 0.00 0.01 0.10 0.04 0.02 0.05 0.05 0.03 0.00 0.00 0.01 0.01 0.00 0.00 0.01 0.01 0.00 0.00 0.01 0.03 0.04 0.07 0.15 0.16 0.18 0.20 0.18 0.27 0.20 0.18 0.13 0.08 0.09 0.07 0.07 0.16 0.18
0.00 0.00 0.00 0.00 0.00 0.02 0.01 0.00 0.04 0.08 0.04 0.05 0.05 0.01 0.00 0.00 0.00 0.00 0.00 0.00 0.00 0.00 0.00 0.00 0.01 0.03 0.06 0.05 0.12 0.28 0.31 0.24 0.23 0.22 0.26 0.26 0.13 0.10 0.13 0.06 0.11 0.09 0.09 0.13
0.00 0.01 0.01 0.00 0.00 0.00 0.01 0.02 0.00 0.00 0.01 0.01 0.00 0.00 0.00 0.00 0.00 0.00 0.00 0.00 0.00 0.00 0.00 0.00 0.01 0.04 0.05 0.06 0.10 0.20 0.21 0.11 0.15 0.17 0.16 0.18 0.18 0.12 0.15 0.14 0.10 0.25 0.25 0.20
0.02 0.06 0.03 0.00 0.00 0.00 0.00 0.00 0.00 0.00 0.00 0.02 0.00 0.00 0.01 0.01 0.00 0.00 0.00 0.00 0.00 0.00 0.00 0.00 0.00 0.02 0.04 0.05 0.11 0.16 0.10 0.06 0.02 0.01 0.07 0.12 0.17 0.21 0.20 0.28 0.40 0.54 0.41 0.36
0.00 0.03 0.08 0.00 0.00 0.00 0.00 0.00 0.00 0.00 0.00 0.04 0.08 0.01 0.00 0.00 0.00 0.00 0.00 0.00 0.00 0.00 0.00 0.00 0.00 0.00 0.02 0.06 0.11 0.17 0.19 0.15 0.14 0.15 0.16 0.12 0.12 0.25 0.46 0.51 0.84 0.70 0.67 0.88
0.00 0.00 0.01 0.01 0.01 0.01 0.00 0.00 0.01 0.01 0.02 0.01 0.03 0.01 0.00 0.00 0.00 0.00 0.01 0.00 0.00 0.00 0.00 0.00 0.00 0.01 0.03 0.06 0.08 0.06 0.23 0.45 0.32 0.28 0.30 0.29 0.42 0.67 0.98 0.96 1.10 1.36 1.64 1.54
0.00 0.01 0.02 0.00 0.02 0.01 0.00 0.00 0.00 0.00 0.00 0.00 0.03 0.01 0.00 0.00 0.00 0.00 0.00 0.00 0.00 0.00 0.00 0.00 0.00 0.00 0.00 0.01 0.11 0.11 0.12 0.32 0.38 0.58 0.51 0.77 0.91 0.78 0.97 0.88 0.81 0.93 0.98 0.99
0.05 0.05 0.02 0.02 0.00 0.00 0.00 0.00 0.00 0.00 0.00 0.00 0.00 0.00 0.00 0.00 0.00 0.00 0.00 0.00 0.00 0.00 0.00 0.00 0.00 0.00 0.01 0.05 0.08 0.09 0.13 0.21 0.31 0.41 0.39 0.41 0.48 0.66 0.58 0.70 0.87 1.07 1.03 0.79
0.10 0.12 0.01 0.00 0.00 0.00 0.00 0.00 0.00 0.00 0.00 0.00 0.00 0.00 0.00 0.00 0.00 0.00 0.00 0.00 0.00 0.00 0.00 0.01 0.02 0.04 0.03 0.09 0.12 0.11 0.11 0.14 0.22 0.29 0.33 0.29 0.34 0.45 0.48 0.41 0.37 0.37 0.42 0.39
0.15 0.12 0.02 0.00 0.00 0.00 0.01 0.00 0.00 0.00 0.00 0.00 0.00 0.00 0.00 0.00 0.00 0.00 0.00 0.00 0.00 0.00 0.00 0.00 0.02 0.03 0.04 0.07 0.10 0.13 0.14 0.14 0.19 0.21 0.28 0.24 0.29 0.31 0.33 0.36 0.30 0.27 0.27 0.22
0.26 0.18 0.10 0.04 0.00 0.01 0.06 0.00 0.00 0.00 0.00 0.00 0.00 0.00 0.00 0.00 0.00 0.00 0.00 0.00 0.00 0.00 0.00 0.00 0.00 0.00 0.03 0.03 0.06 0.07 0.08 0.10 0.11 0.11 0.14 0.17 0.21 0.23 0.20 0.14 0.15 0.16 0.17 0.17
0.28 0.30 0.24 0.10 0.04 0.21 0.06 0.00 0.00 0.00 0.00 0.00 0.00 0.00 0.00 0.00 0.00 0.00 0.00 0.00 0.00 0.00 0.00 0.01 0.00 0.01 0.00 0.00 0.00 0.00 0.01 0.02 0.04 0.06 0.07 0.07 0.05 0.05 0.06 0.09 0.15 0.16 0.12 0.08
0.16 0.25 0.37 0.24 0.16 0.11 0.00 0.00 0.00 0.01 0.00 0.00 0.00 0.01 0.01 0.02 0.01 0.00 0.00 0.01 0.04 0.05 0.03 0.01 0.00 0.00 0.00 0.00 0.00 0.00 0.00 0.01 0.04 0.01 0.02 0.02 0.04 0.09 0.12 0.15 0.13 0.09 0.12 0.11
0.07 0.11 0.31 0.32 0.33 0.12 0.01 0.02 0.02 0.03 0.02 0.01 0.02 0.06 0.10 0.05 0.05 0.03 0.05 0.09 0.08 0.03 0.01 0.00 0.00 0.00 0.00 0.00 0.00 0.01 0.01 0.01 0.01 0.01 0.03 0.06 0.10 0.12 0.10 0.08 0.07 0.09 0.09 0.10
0.34 0.26 0.22 0.20 0.27 0.07 0.01 0.04 0.11 0.23 0.15 0.03 0.11 0.11 0.04 0.08 0.14 0.14 0.13 0.06 0.01 0.00 0.00 0.00 0.00 0.00 0.00 0.00 0.00 0.00 0.00 0.00 0.00 0.02 0.05 0.06 0.04 0.06 0.09 0.09 0.07 0.08 0.09 0.08
0.28 0.44 0.39 0.41 0.33 0.11 0.07 0.15 0.31 0.24 0.10 0.06 0.03 0.03 0.04 0.08 0.13 0.08 0.05 0.01 0.00 0.00 0.00 0.00 0.00 0.00 0.00 0.00 0.00 0.00 0.00 0.00 0.00 0.00 0.02 0.04 0.05 0.06 0.11 0.11 0.06 0.06 0.05 0.05
0.19 0.22 0.25 0.26 0.21 0.10 0.04 0.07 0.13 0.11 0.11 0.05 0.06 0.08 0.18 0.16 0.08 0.06 0.01 0.01 0.00 0.01 0.00 0.00 0.00 0.00 0.00 0.00 0.00 0.01 0.01 0.00 0.00 0.01 0.03 0.04 0.05 0.06 0.04 0.04 0.04 0.03 0.02 0.04
0.03 0.06 0.13 0.10 0.03 0.04 0.05 0.04 0.01 0.02 0.06 0.08 0.14 0.20 0.14 0.11 0.07 0.01 0.01 0.00 0.00 0.01 0.01 0.02 0.01 0.01 0.01 0.01 0.01 0.01 0.00 0.00 0.00 0.01 0.01 0.02 0.02 0.02 0.01 0.01 0.01 0.01 0.02 0.02
0.05 0.07 0.06 0.05 0.02 0.04 0.04 0.04 0.10 0.18 0.26 0.25 0.19 0.14 0.14 0.07 0.03 0.01 0.01 0.03 0.04 0.04 0.03 0.02 0.02 0.03 0.02 0.01 0.00 0.00 0.00 0.00 0.00 0.00 0.00 0.00 0.01 0.02 0.00 0.00 0.01 0.02 0.07 0.08
0.03 0.01 0.05 0.04 0.06 0.11 0.12 0.24 0.42 0.32 0.21 0.21 0.16 0.06 0.03 0.05 0.13 0.17 0.16 0.11 0.10 0.10 0.10 0.10 0.05 0.01 0.00 0.00 0.00 0.00 0.00 0.00 0.00 0.00 0.01 0.01 0.02 0.02 0.02 0.03 0.07 0.08 0.07 0.07

GFSCGP_prec_precacc_093.txt.gz
Total_Precipitation_Accumulation
0.00 0.00 0.00 0.00 0.00 0.00 0.00 0.00 0.00 0.00 0.00 0.00 0.00 0.00 0.00 0.00 0.01 0.03 0.04 0.03 0.01 0.00 0.00 0.01 0.01 0.04 0.03 0.16 0.49 0.75 0.83 0.94 0.82 0.37 0.33 0.32 0.41 0.53 0.48 0.37 0.18 0.15 0.10 0.05
0.00 0.00 0.00 0.00 0.00 0.00 0.00 0.00 0.00 0.00 0.00 0.00 0.00 0.00 0.00 0.00 0.00 0.00 0.01 0.01 0.00 0.00 0.00 0.01 0.05 0.11 0.18 0.33 0.37 0.23 0.09 0.06 0.10 0.11 0.13 0.14 0.16 0.28 0.34 0.31 0.20 0.15 0.09 0.04
0.01 0.01 0.00 0.00 0.00 0.00 0.00 0.00 0.00 0.00 0.00 0.00 0.00 0.00 0.00 0.00 0.01 0.01 0.01 0.00 0.00 0.00 0.00 0.04 0.06 0.07 0.06 0.04 0.10 0.05 0.04 0.02 0.02 0.05 0.05 0.11 0.07 0.10 0.17 0.29 0.19 0.11 0.08 0.07
0.02 0.00 0.00 0.00 0.00 0.00 0.01 0.00 0.00 0.00 0.00 0.02 0.00 0.00 0.01 0.00 0.00 0.00 0.01 0.01 0.01 0.00 0.01 0.01 0.00 0.01 0.01 0.06 0.03 0.06 0.10 0.05 0.04 0.02 0.03 0.05 0.04 0.04 0.10 0.09 0.06 0.05 0.02 0.02
0.01 0.00 0.00 0.00 0.00 0.00 0.01 0.00 0.00 0.00 0.00 0.01 0.02 0.00 0.02 0.00 0.00 0.00 0.00 0.00 0.00 0.00 0.00 0.00 0.00 0.01 0.03 0.04 0.06 0.10 0.09 0.10 0.11 0.07 0.08 0.08 0.08 0.12 0.11 0.06 0.04 0.03 0.03 0.05
0.01 0.01 0.01 0.01 0.00 0.00 0.00 0.00 0.00 0.00 0.00 0.00 0.01 0.02 0.01 0.01 0.01 0.03 0.02 0.00 0.00 0.00 0.01 0.00 0.01 0.00 0.01 0.03 0.03 0.07 0.12 0.16 0.19 0.18 0.14 0.17 0.22 0.15 0.10 0.14 0.14 0.05 0.09 0.09
0.00 0.00 0.01 0.01 0.00 0.00 0.00 0.00 0.01 0.10 0.04 0.02 0.05 0.05 0.03 0.00 0.00 0.01 0.01 0.00 0.00 0.01 0.01 0.00 0.00 0.01 0.03 0.04 0.07 0.15 0.16 0.19 0.21 0.18 0.27 0.20 0.18 0.13 0.08 0.09 0.07 0.07 0.16 0.19
0.00 0.00 0.00 0.00 0.00 0.02 0.01 0.00 0.04 0.08 0.05 0.05 0.05 0.01 0.00 0.00 0.00 0.00 0.00 0.00 0.00 0.00 0.00 0.00 0.01 0.03 0.06 0.05 0.12 0.28 0.31 0.24 0.23 0.23 0.26 0.26 0.13 0.10 0.13 0.06 0.11 0.09 0.09 0.13
0.00 0.01 0.01 0.00 0.00 0.00 0.01 0.02 0.00 0.00 0.01 0.01 0.00 0.00 0.00 0.00 0.00 0.00 0.00 0.00 0.00 0.00 0.00 0.00 0.01 0.04 0.05 0.06 0.10 0.20 0.21 0.11 0.15 0.17 0.16 0.18 0.18 0.12 0.15 0.14 0.10 0.25 0.25 0.20
0.02 0.06 0.03 0.00 0.00 0.00 0.00 0.00 0.00 0.00 0.00 0.02 0.00 0.00 0.01 0.01 0.00 0.00 0.00 0.00 0.00 0.00 0.00 0.00 0.00 0.02 0.04 0.05 0.11 0.16 0.10 0.06 0.02 0.01 0.07 0.12 0.17 0.21 0.20 0.28 0.40 0.55 0.41 0.36
0.00 0.03 0.08 0.00 0.00 0.00 0.00 0.00 0.00 0.00 0.00 0.04 0.08 0.01 0.00 0.00 0.00 0.00 0.00 0.00 0.00 0.00 0.00 0.00 0.00 0.00 0.02 0.06 0.11 0.17 0.19 0.15 0.14 0.15 0.16 0.12 0.12 0.25 0.46 0.51 0.84 0.70 0.67 0.88
0.00 0.00 0.01 0.01 0.01 0.01 0.00 0.00 0.01 0.01 0.02 0.01 0.03 0.01 0.00 0.00 0.00 0.00 0.01 0.00 0.00 0.00 0.00 0.00 0.00 0.01 0.03 0.06 0.08 0.06 0.23 0.45 0.32 0.28 0.30 0.29 0.42 0.67 0.98 0.96 1.10 1.36 1.64 1.54
0.00 0.01 0.02 0.00 0.02 0.01 0.00 0.00 0.00 0.00 0.00 0.00 0.04 0.01 0.00 0.00 0.00 0.00 0.00 0.00 0.00 0.00 0.00 0.00 0.00 0.00 0.00 0.01 0.11 0.11 0.12 0.32 0.38 0.58 0.51 0.77 0.91 0.78 0.97 0.88 0.81 0.93 0.98 0.99
0.05 0.05 0.02 0.02 0.00 0.00 0.00 0.00 0.00 0.00 0.00 0.00 0.00 0.00 0.00 0.00 0.00 0.00 0.00 0.00 0.00 0.00 0.00 0.00 0.00 0.00 0.01 0.05 0.08 0.09 0.13 0.21 0.31 0.41 0.39 0.41 0.48 0.66 0.58 0.70 0.87 1.07 1.03 0.79
0.10 0.12 0.01 0.00 0.00 0.00 0.00 0.00 0.00 0.00 0.00 0.00 0.00 0.00 0.00 0.00 0.00 0.00 0.00 0.00 0.00 0.00 0.00 0.01 0.02 0.04 0.03 0.09 0.12 0.11 0.11 0.14 0.22 0.29 0.33 0.29 0.34 0.45 0.48 0.41 0.37 0.37 0.42 0.39
0.15 0.12 0.02 0.00 0.00 0.00 0.01 0.00 0.00 0.00 0.00 0.00 0.00 0.00 0.00 0.00 0.00 0.00 0.00 0.00 0.00 0.00 0.00 0.00 0.02 0.03 0.04 0.07 0.10 0.13 0.14 0.14 0.19 0.21 0.28 0.24 0.29 0.31 0.33 0.36 0.30 0.27 0.27 0.22
0.27 0.19 0.10 0.04 0.00 0.01 0.06 0.00 0.00 0.00 0.00 0.00 0.00 0.00 0.00 0.00 0.00 0.00 0.00 0.00 0.00 0.00 0.00 0.00 0.00 0.00 0.03 0.03 0.06 0.07 0.08 0.10 0.11 0.11 0.14 0.17 0.21 0.23 0.20 0.14 0.15 0.16 0.17 0.17
0.28 0.30 0.24 0.10 0.04 0.21 0.06 0.00 0.00 0.00 0.00 0.00 0.00 0.00 0.00 0.00 0.00 0.00 0.00 0.00 0.00 0.00 0.00 0.01 0.00 0.01 0.00 0.00 0.00 0.00 0.01 0.02 0.04 0.06 0.07 0.07 0.05 0.05 0.06 0.09 0.15 0.16 0.12 0.09
0.16 0.26 0.37 0.25 0.16 0.11 0.01 0.00 0.00 0.01 0.00 0.01 0.01 0.02 0.01 0.02 0.01 0.00 0.00 0.01 0.04 0.05 0.03 0.01 0.00 0.00 0.00 0.00 0.00 0.00 0.00 0.01 0.04 0.01 0.02 0.02 0.04 0.09 0.12 0.15 0.13 0.09 0.12 0.12
0.07 0.12 0.32 0.33 0.33 0.12 0.01 0.02 0.02 0.03 0.03 0.04 0.04 0.08 0.12 0.05 0.07 0.04 0.05 0.09 0.08 0.03 0.01 0.00 0.00 0.00 0.00 0.00 0.00 0.01 0.01 0.01 0.01 0.01 0.03 0.06 0.10 0.12 0.10 0.08 0.07 0.09 0.10 0.10
0.35 0.30 0.26 0.21 0.27 0.07 0.01 0.04 0.11 0.24 0.17 0.03 0.11 0.11 0.04 0.08 0.15 0.14 0.13 0.06 0.01 0.00 0.00 0.00 0.00 0.00 0.00 0.00 0.00 0.00 0.00 0.00 0.00 0.02 0.05 0.06 0.04 0.06 0.09 0.09 0.07 0.09 0.09 0.09
0.30 0.45 0.41 0.42 0.36 0.11 0.07 0.15 0.31 0.25 0.10 0.06 0.03 0.03 0.04 0.09 0.13 0.08 0.05 0.01 0.00 0.00 0.00 0.00 0.00 0.00 0.00 0.00 0.00 0.00 0.00 0.00 0.00 0.00 0.02 0.04 0.06 0.06 0.12 0.11 0.07 0.06 0.05 0.05
0.21 0.22 0.26 0.27 0.22 0.10 0.04 0.07 0.13 0.11 0.11 0.05 0.06 0.08 0.18 0.19 0.10 0.06 0.02 0.01 0.00 0.01 0.00 0.00 0.00 0.00 0.00 0.00 0.00 0.01 0.01 0.00 0.00 0.01 0.03 0.05 0.05 0.06 0.04 0.04 0.04 0.03 0.02 0.04
0.03 0.06 0.13 0.11 0.03 0.04 0.05 0.04 0.01 0.02 0.06 0.08 0.14 0.20 0.15 0.14 0.14 0.08 0.04 0.01 0.01 0.01 0.02 0.02 0.01 0.01 0.01 0.01 0.01 0.01 0.01 0.00 0.00 0.01 0.01 0.02 0.02 0.03 0.01 0.01 0.02 0.02 0.02 0.02
0.05 0.07 0.06 0.05 0.02 0.04 0.04 0.04 0.10 0.18 0.26 0.25 0.19 0.14 0.14 0.11 0.09 0.07 0.05 0.03 0.05 0.05 0.04 0.03 0.03 0.03 0.02 0.02 0.00 0.00 0.00 0.01 0.00 0.00 0.00 0.00 0.01 0.02 0.00 0.01 0.02 0.02 0.08 0.09
0.03 0.01 0.05 0.04 0.06 0.11 0.12 0.24 0.42 0.32 0.21 0.21 0.16 0.06 0.03 0.11 0.18 0.19 0.28 0.22 0.15 0.12 0.12 0.13 0.08 0.04 0.02 0.04 0.02 0.01 0.01 0.00 0.00 0.01 0.01 0.03 0.04 0.05 0.06 0.08 0.14 0.14 0.12 0.10

GFSCGP_prec_precacc_096.txt.gz
Total_Precipitation_Accumulation
0.00 0.00 0.00 0.00 0.00 0.00 0.00 0.00 0.00 0.00 0.00 0.00 0.00 0.00 0.00 0.00 0.01 0.03 0.04 0.03 0.01 0.00 0.00 0.01 0.01 0.04 0.03 0.16 0.49 0.75 0.83 0.94 0.82 0.38 0.34 0.33 0.43 0.63 0.54 0.46 0.25 0.21 0.11 0.05
0.00 0.00 0.00 0.00 0.00 0.00 0.00 0.00 0.00 0.00 0.00 0.00 0.00 0.00 0.00 0.00 0.00 0.00 0.01 0.01 0.00 0.00 0.00 0.01 0.05 0.11 0.18 0.33 0.37 0.23 0.09 0.06 0.10 0.11 0.15 0.16 0.19 0.37 0.40 0.43 0.32 0.20 0.10 0.04
0.01 0.01 0.00 0.00 0.00 0.00 0.00 0.00 0.00 0.00 0.00 0.00 0.00 0.00 0.00 0.00 0.01 0.01 0.01 0.00 0.00 0.00 0.00 0.04 0.06 0.07 0.06 0.04 0.10 0.05 0.04 0.03 0.03 0.05 0.08 0.15 0.09 0.13 0.26 0.41 0.31 0.16 0.10 0.08
0.02 0.00 0.00 0.00 0.00 0.00 0.01 0.00 0.00 0.00 0.00 0.02 0.00 0.00 0.01 0.00 0.00 0.00 0.01 0.01 0.01 0.00 0.01 0.01 0.00 0.01 0.01 0.06 0.03 0.06 0.10 0.05 0.04 0.02 0.03 0.05 0.06 0.06 0.12 0.11 0.10 0.09 0.07 0.06
0.01 0.00 0.00 0.00 0.00 0.00 0.01 0.00 0.00 0.00 0.00 0.01 0.02 0.00 0.02 0.00 0.00 0.00 0.00 0.00 0.00 0.00 0.00 0.00 0.00 0.01 0.03 0.04 0.06 0.10 0.09 0.10 0.12 0.07 0.08 0.08 0.08 0.12 0.12 0.06 0.05 0.06 0.06 0.08
0.01 0.01 0.01 0.01 0.00 0.00 0.00 0.00 0.00 0.00 0.00 0.00 0.01 0.02 0.01 0.01 0.01 0.03 0.02 0.00 0.00 0.00 0.01 0.00 0.01 0.00 0.01 0.03 0.03 0.07 0.12 0.16 0.19 0.18 0.14 0.17 0.22 0.15 0.10 0.14 0.14 0.06 0.09 0.09
0.00 0.00 0.01 0.01 0.00 0.00 0.00 0.00 0.01 0.11 0.05 0.02 0.05 0.05 0.03 0.00 0.00 0.01 0.01 0.00 0.00 0.01 0.01 0.00 0.00 0.01 0.03 0.04 0.07 0.15 0.16 0.19 0.21 0.18 0.27 0.20 0.18 0.13 0.08 0.09 0.07 0.07 0.16 0.19
0.00 0.00 0.00 0.00 0.00 0.02 0.01 0.00 0.04 0.09 0.05 0.06 0.05 0.01 0.00 0.00 0.00 0.00 0.00 0.00 0.00 0.00 0.00 0.00 0.01 0.03 0.06 0.05 0.12 0.28 0.31 0.24 0.23 0.23 0.26 0.26 0.13 0.10 0.13 0.06 0.11 0.09 0.09 0.13
0.00 0.01 0.01 0.00 0.00 0.00 0.01 0.02 0.00 0.00 0.02 0.03 0.00 0.00 0.00 0.00 0.00 0.00 0.00 0.00 0.00 0.00 0.00 0.00 0.01 0.04 0.05 0.06 0.10 0.20 0.21 0.11 0.15 0.17 0.16 0.18 0.18 0.12 0.15 0.14 0.10 0.25 0.25 0.20
0.02 0.06 0.03 0.00 0.00 0.00 0.00 0.00 0.00 0.00 0.00 0.02 0.00 0.01 0.01 0.01 0.00 0.00 0.00 0.00 0.00 0.00 0.00 0.00 0.00 0.02 0.04 0.05 0.11 0.16 0.10 0.06 0.02 0.01 0.07 0.12 0.17 0.21 0.20 0.28 0.40 0.55 0.41 0.36
0.00 0.03 0.09 0.00 0.00 0.00 0.00 0.00 0.00 0.00 0.00 0.04 0.08 0.02 0.00 0.01 0.00 0.00 0.00 0.00 0.00 0.00 0.00 0.00 0.00 0.00 0.02 0.06 0.11 0.17 0.19 0.15 0.14 0.15 0.16 0.12 0.12 0.25 0.46 0.51 0.84 0.70 0.67 0.88
0.00 0.00 0.01 0.02 0.01 0.01 0.00 0.00 0.01 0.01 0.02 0.01 0.03 0.01 0.00 0.00 0.00 0.00 0.01 0.00 0.00 0.00 0.00 0.00 0.00 0.01 0.03 0.06 0.08 0.06 0.23 0.45 0.32 0.28 0.30 0.29 0.42 0.67 0.98 0.96 1.10 1.36 1.64 1.54
0.00 0.01 0.02 0.00 0.02 0.01 0.00 0.00 0.00 0.00 0.00 0.00 0.05 0.01 0.00 0.00 0.00 0.00 0.00 0.00 0.00 0.00 0.00 0.00 0.00 0.00 0.00 0.01 0.11 0.11 0.12 0.32 0.38 0.58 0.51 0.77 0.91 0.78 0.97 0.88 0.81 0.93 0.98 0.99
0.05 0.05 0.02 0.03 0.00 0.00 0.00 0.00 0.00 0.00 0.00 0.00 0.00 0.00 0.00 0.00 0.00 0.00 0.00 0.00 0.00 0.00 0.00 0.00 0.00 0.00 0.01 0.05 0.08 0.09 0.13 0.21 0.31 0.41 0.39 0.41 0.48 0.66 0.58 0.70 0.87 1.07 1.03 0.79
0.10 0.12 0.01 0.00 0.00 0.00 0.00 0.00 0.00 0.00 0.00 0.00 0.00 0.00 0.00 0.00 0.00 0.00 0.00 0.00 0.00 0.00 0.00 0.01 0.02 0.04 0.03 0.09 0.12 0.11 0.11 0.14 0.22 0.29 0.33 0.29 0.34 0.45 0.48 0.41 0.37 0.37 0.42 0.39
0.15 0.12 0.02 0.00 0.00 0.00 0.01 0.00 0.00 0.00 0.00 0.00 0.00 0.00 0.00 0.00 0.00 0.00 0.00 0.00 0.00 0.00 0.00 0.00 0.02 0.03 0.04 0.07 0.10 0.13 0.14 0.14 0.19 0.21 0.28 0.24 0.29 0.31 0.33 0.36 0.30 0.27 0.27 0.23
0.27 0.19 0.10 0.04 0.00 0.01 0.06 0.00 0.00 0.00 0.00 0.00 0.00 0.00 0.00 0.00 0.00 0.00 0.00 0.00 0.00 0.00 0.00 0.00 0.00 0.00 0.03 0.03 0.06 0.07 0.08 0.10 0.11 0.11 0.14 0.17 0.21 0.23 0.20 0.14 0.15 0.16 0.17 0.17
0.28 0.31 0.25 0.10 0.04 0.21 0.06 0.00 0.00 0.00 0.00 0.00 0.00 0.00 0.00 0.00 0.00 0.00 0.00 0.00 0.00 0.00 0.00 0.01 0.00 0.01 0.00 0.00 0.00 0.00 0.01 0.02 0.04 0.06 0.07 0.07 0.05 0.05 0.06 0.09 0.15 0.16 0.12 0.09
0.16 0.28 0.39 0.25 0.16 0.11 0.01 0.00 0.00 0.01 0.00 0.01 0.01 0.02 0.01 0.02 0.01 0.00 0.00 0.01 0.04 0.05 0.03 0.01 0.00 0.00 0.00 0.00 0.00 0.00 0.00 0.01 0.04 0.01 0.02 0.02 0.04 0.09 0.12 0.15 0.13 0.09 0.12 0.12
0.07 0.12 0.34 0.34 0.34 0.12 0.01 0.02 0.02 0.03 0.04 0.04 0.04 0.08 0.12 0.05 0.07 0.04 0.05 0.09 0.08 0.03 0.01 0.00 0.00 0.00 0.00 0.00 0.00 0.01 0.01 0.01 0.02 0.01 0.03 0.06 0.10 0.12 0.10 0.08 0.07 0.09 0.10 0.11
0.35 0.33 0.29 0.23 0.29 0.08 0.02 0.04 0.11 0.24 0.19 0.03 0.11 0.11 0.04 0.08 0.15 0.14 0.13 0.06 0.01 0.00 0.00 0.00 0.00 0.00 0.00 0.00 0.00 0.00 0.00 0.01 0.01 0.02 0.05 0.06 0.04 0.06 0.09 0.09 0.07 0.09 0.10 0.10
0.30 0.48 0.43 0.43 0.39 0.12 0.07 0.16 0.31 0.26 0.10 0.06 0.03 0.03 0.04 0.09 0.13 0.08 0.05 0.01 0.00 0.00 0.00 0.00 0.00 0.00 0.00 0.00 0.00 0.00 0.00 0.00 0.01 0.00 0.02 0.04 0.06 0.07 0.12 0.12 0.08 0.08 0.07 0.08
0.23 0.23 0.26 0.27 0.22 0.10 0.04 0.07 0.13 0.11 0.11 0.05 0.06 0.08 0.18 0.19 0.10 0.06 0.02 0.01 0.01 0.01 0.00 0.00 0.00 0.00 0.00 0.00 0.00 0.01 0.01 0.00 0.00 0.01 0.04 0.05 0.06 0.08 0.06 0.06 0.07 0.07 0.06 0.08
0.05 0.06 0.16 0.15 0.03 0.04 0.05 0.04 0.01 0.02 0.06 0.08 0.14 0.20 0.15 0.14 0.14 0.09 0.06 0.04 0.01 0.01 0.02 0.02 0.01 0.01 0.01 0.01 0.01 0.01 0.01 0.01 0.01 0.01 0.02 0.03 0.04 0.05 0.04 0.05 0.05 0.05 0.05 0.06
0.06 0.09 0.07 0.07 0.02 0.04 0.04 0.04 0.10 0.18 0.26 0.25 0.19 0.14 0.14 0.11 0.10 0.12 0.11 0.11 0.11 0.08 0.04 0.03 0.03 0.04 0.03 0.03 0.02 0.01 0.02 0.03 0.03 0.02 0.03 0.03 0.05 0.05 0.03 0.05 0.08 0.07 0.13 0.13
0.03 0.02 0.07 0.06 0.07 0.12 0.12 0.24 0.42 0.32 0.21 0.21 0.16 0.06 0.03 0.11 0.18 0.21 0.34 0.34 0.20 0.13 0.13 0.13 0.10 0.06 0.05 0.07 0.07 0.07 0.08 0.08 0.07 0.05 0.05 0.08 0.07 0.08 0.09 0.12 0.23 0.30 0.29 0.29

GFSCGP_prec_precacc_099.txt.gz
Total_Precipitation_Accumulation
0.00 0.00 0.00 0.00 0.00 0.00 0.00 0.00 0.00 0.00 0.00 0.00 0.00 0.00 0.00 0.00 0.01 0.03 0.04 0.03 0.01 0.00 0.00 0.01 0.01 0.04 0.03 0.16 0.49 0.75 0.83 0.94 0.82 0.38 0.34 0.33 0.44 0.64 0.56 0.53 0.29 0.36 0.19 0.08
0.00 0.00 0.00 0.00 0.00 0.00 0.00 0.00 0.00 0.00 0.00 0.00 0.00 0.00 0.00 0.00 0.00 0.00 0.01 0.01 0.00 0.00 0.00 0.01 0.05 0.11 0.18 0.33 0.37 0.23 0.09 0.06 0.10 0.11 0.15 0.16 0.19 0.40 0.43 0.46 0.41 0.30 0.17 0.07
0.01 0.01 0.00 0.00 0.00 0.00 0.00 0.00 0.00 0.00 0.00 0.00 0.00 0.00 0.00 0.00 0.01 0.01 0.01 0.00 0.00 0.00 0.00 0.04 0.06 0.07 0.06 0.04 0.10 0.05 0.04 0.03 0.03 0.05 0.09 0.16 0.09 0.16 0.31 0.53 0.46 0.33 0.17 0.10
0.02 0.00 0.00 0.00 0.00 0.00 0.01 0.00 0.00 0.00 0.00 0.02 0.00 0.00 0.01 0.00 0.00 0.00 0.01 0.01 0.01 0.00 0.01 0.01 0.00 0.01 0.01 0.06 0.03 0.06 0.10 0.05 0.05 0.02 0.04 0.06 0.07 0.09 0.16 0.16 0.21 0.26 0.14 0.08
0.01 0.00 0.00 0.00 0.00 0.00 0.01 0.00 0.00 0.00 0.00 0.01 0.02 0.00 0.02 0.00 0.00 0.00 0.00 0.00 0.00 0.00 0.00 0.00 0.00 0.01 0.03 0.04 0.06 0.10 0.09 0.11 0.12 0.07 0.08 0.08 0.08 0.15 0.16 0.08 0.07 0.14 0.13 0.13
0.01 0.01 0.01 0.01 0.00 0.00 0.00 0.00 0.00 0.00 0.00 0.00 0.01 0.02 0.01 0.01 0.01 0.03 0.02 0.00 0.00 0.00 0.01 0.00 0.01 0.00 0.01 0.03 0.03 0.07 0.12 0.16 0.19 0.18 0.14 0.17 0.22 0.15 0.11 0.16 0.15 0.07 0.11 0.11
0.00 0.00 0.01 0.01 0.00 0.00 0.00 0.00 0.01 0.11 0.05 0.02 0.05 0.05 0.03 0.00 0.00 0.01 0.01 0.00 0.00 0.01 0.01 0.00 0.00 0.01 0.03 0.04 0.07 0.15 0.17 0.20 0.21 0.19 0.27 0.20 0.18 0.13 0.08 0.09 0.07 0.08 0.19 0.21
0.00 0.00 0.00 0.00 0.00 0.02 0.01 0.00 0.04 0.09 0.06 0.06 0.06 0.01 0.00 0.00 0.00 0.00 0.00 0.00 0.00 0.00 0.00 0.00 0.01 0.03 0.06 0.05 0.12 0.28 0.31 0.25 0.23 0.24 0.27 0.26 0.13 0.10 0.13 0.06 0.11 0.10 0.10 0.14
0.00 0.01 0.01 0.00 0.00 0.00 0.01 0.02 0.00 0.00 0.02 0.04 0.01 0.00 0.00 0.00 0.00 0.00 0.00 0.00 0.00 0.00 0.00 0.00 0.01 0.04 0.05 0.06 0.10 0.20 0.21 0.11 0.16 0.17 0.16 0.18 0.18 0.12 0.15 0.14 0.10 0.25 0.25 0.20
0.02 0.07 0.03 0.00 0.00 0.00 0.00 0.00 0.00 0.00 0.00 0.02 0.00 0.01 0.01 0.01 0.00 0.00 0.00 0.00 0.00 0.00 0.00 0.00 0.00 0.02 0.04 0.05 0.11 0.16 0.10 0.06 0.02 0.01 0.07 0.12 0.17 0.21 0.20 0.28 0.40 0.55 0.41 0.36
0.00 0.03 0.10 0.00 0.00 0.00 0.00 0.00 0.00 0.00 0.00 0.04 0.08 0.02 0.00 0.01 0.00 0.00 0.00 0.00 0.00 0.00 0.00 0.00 0.00 0.00 0.02 0.06 0.11 0.17 0.19 0.15 0.14 0.15 0.16 0.12 0.12 0.25 0.46 0.51 0.84 0.70 0.67 0.88
0.00 0.00 0.02 0.02 0.01 0.01 0.00 0.00 0.01 0.02 0.02 0.01 0.03 0.01 0.00 0.00 0.00 0.00 0.01 0.00 0.00 0.00 0.00 0.00 0.00 0.01 0.03 0.06 0.08 0.06 0.23 0.45 0.32 0.28 0.30 0.29 0.42 0.67 0.98 0.96 1.10 1.36 1.64 1.54
0.00 0.01 0.02 0.02 0.08 0.03 0.00 0.00 0.00 0.00 0.00 0.00 0.05 0.01 0.00 0.00 0.00 0.01 0.00 0.00 0.00 0.00 0.01 0.00 0.00 0.00 0.00 0.01 0.11 0.11 0.12 0.32 0.38 0.58 0.51 0.77 0.91 0.78 0.97 0.88 0.81 0.93 0.98 0.99
0.05 0.05 0.02 0.03 0.03 0.02 0.00 0.01 0.01 0.00 0.00 0.00 0.00 0.00 0.00 0.01 0.01 0.00 0.00 0.00 0.00 0.00 0.01 0.03 0.01 0.00 0.01 0.05 0.08 0.09 0.13 0.21 0.31 0.41 0.39 0.41 0.48 0.66 0.58 0.70 0.87 1.07 1.03 0.79
0.10 0.12 0.01 0.00 0.00 0.00 0.00 0.00 0.01 0.02 0.01 0.00 0.00 0.00 0.00 0.01 0.02 0.00 0.00 0.00 0.00 0.00 0.00 0.01 0.03 0.04 0.04 0.09 0.12 0.11 0.11 0.14 0.22 0.29 0.33 0.29 0.34 0.45 0.48 0.41 0.37 0.37 0.42 0.39
0.15 0.12 0.02 0.00 0.00 0.00 0.01 0.00 0.00 0.00 0.00 0.00 0.00 0.00 0.00 0.00 0.00 0.00 0.00 0.00 0.00 0.00 0.00 0.00 0.02 0.03 0.05 0.07 0.10 0.13 0.14 0.14 0.19 0.21 0.28 0.24 0.29 0.31 0.33 0.36 0.30 0.27 0.27 0.23
0.27 0.19 0.10 0.04 0.00 0.01 0.06 0.00 0.00 0.00 0.00 0.00 0.00 0.00 0.00 0.00 0.00 0.00 0.00 0.00 0.00 0.00 0.00 0.00 0.00 0.00 0.03 0.06 0.08 0.07 0.08 0.10 0.11 0.11 0.14 0.17 0.21 0.23 0.20 0.14 0.15 0.16 0.17 0.17
0.29 0.31 0.26 0.10 0.04 0.21 0.06 0.00 0.00 0.00 0.00 0.00 0.00 0.00 0.00 0.00 0.00 0.00 0.00 0.00 0.00 0.00 0.00 0.01 0.00 0.01 0.00 0.01 0.03 0.05 0.02 0.02 0.04 0.06 0.07 0.07 0.05 0.05 0.06 0.09 0.15 0.16 0.12 0.09
0.16 0.28 0.39 0.25 0.16 0.11 0.01 0.00 0.00 0.01 0.01 0.01 0.01 0.02 0.01 0.02 0.01 0.00 0.00 0.01 0.04 0.05 0.03 0.01 0.00 0.00 0.00 0.00 0.00 0.01 0.03 0.03 0.04 0.01 0.02 0.03 0.04 0.09 0.12 0.15 0.13 0.09 0.12 0.12
0.07 0.12 0.35 0.34 0.34 0.12 0.02 0.02 0.02 0.03 0.04 0.04 0.04 0.08 0.12 0.05 0.07 0.04 0.05 0.09 0.08 0.03 0.01 0.00 0.00 0.00 0.00 0.00 0.00 0.01 0.02 0.06 0.07 0.02 0.10 0.12 0.12 0.12 0.10 0.08 0.07 0.09 0.10 0.12
0.35 0.34 0.29 0.23 0.31 0.08 0.02 0.04 0.11 0.24 0.19 0.03 0.11 0.11 0.04 0.08 0.15 0.14 0.13 0.06 0.01 0.00 0.00 0.00 0.00 0.00 0.00 0.00 0.00 0.00 0.00 0.06 0.13 0.12 0.14 0.12 0.08 0.08 0.09 0.09 0.07 0.09 0.12 0.13
0.30 0.49 0.44 0.44 0.40 0.13 0.07 0.16 0.32 0.26 0.10 0.06 0.03 0.03 0.04 0.09 0.13 0.08 0.05 0.01 0.00 0.00 0.00 0.00 0.00 0.00 0.00 0.00 0.00 0.00 0.00 0.02 0.07 0.09 0.10 0.13 0.14 0.12 0.15 0.13 0.08 0.08 0.08 0.10
0.24 0.23 0.26 0.27 0.22 0.10 0.04 0.08 0.15 0.11 0.11 0.05 0.06 0.08 0.18 0.19 0.10 0.06 0.02 0.01 0.01 0.01 0.00 0.00 0.00 0.00 0.00 0.00 0.00 0.01 0.01 0.01 0.02 0.04 0.09 0.11 0.13 0.13 0.10 0.08 0.09 0.09 0.10 0.12
0.11 0.10 0.17 0.17 0.03 0.04 0.05 0.05 0.02 0.02 0.06 0.08 0.14 0.20 0.15 0.14 0.14 0.09 0.06 0.04 0.01 0.01 0.02 0.02 0.01 0.01 0.02 0.02 0.02 0.01 0.01 0.01 0.01 0.02 0.03 0.04 0.08 0.09 0.07 0.08 0.11 0.12 0.14 0.14
0.08 0.12 0.10 0.12 0.09 0.05 0.06 0.05 0.11 0.18 0.26 0.25 0.19 0.14 0.14 0.11 0.10 0.12 0.11 0.11 0.11 0.08 0.04 0.03 0.04 0.05 0.04 0.04 0.03 0.02 0.03 0.04 0.03 0.03 0.05 0.07 0.10 0.10 0.08 0.11 0.17 0.18 0.28 0.27
0.05 0.07 0.14 0.10 0.14 0.14 0.15 0.28 0.42 0.32 0.21 0.21 0.16 0.06 0.03 0.11 0.18 0.21 0.34 0.34 0.21 0.13 0.13 0.14 0.11 0.08 0.07 0.09 0.10 0.09 0.09 0.11 0.10 0.07 0.08 0.12 0.10 0.13 0.15 0.18 0.35 0.47 0.51 0.54

GFSCGP_prec_precacc_102.txt.gz
Total_Precipitation_Accumulation
0.00 0.00 0.00 0.00 0.00 0.00 0.00 0.00 0.00 0.00 0.00 0.00 0.00 0.00 0.00 0.00 0.01 0.03 0.04 0.03 0.01 0.00 0.00 0.01 0.01 0.04 0.03 0.16 0.49 0.75 0.83 0.94 0.82 0.38 0.34 0.33 0.44 0.64 0.71 0.78 0.40 0.64 0.44 0.11
0.00 0.00 0.00 0.00 0.00 0.00 0.00 0.00 0.00 0.00 0.00 0.00 0.00 0.00 0.00 0.00 0.00 0.00 0.01 0.01 0.00 0.00 0.00 0.01 0.05 0.11 0.18 0.33 0.37 0.23 0.09 0.06 0.10 0.11 0.15 0.16 0.19 0.40 0.47 0.91 0.61 0.47 0.39 0.12
0.01 0.01 0.00 0.00 0.00 0.00 0.00 0.00 0.00 0.00 0.00 0.00 0.00 0.00 0.00 0.00 0.01 0.01 0.01 0.00 0.00 0.00 0.00 0.04 0.06 0.07 0.06 0.04 0.10 0.05 0.04 0.03 0.03 0.05 0.09 0.16 0.10 0.17 0.32 0.79 0.75 0.44 0.28 0.16
0.02 0.00 0.00 0.00 0.00 0.00 0.01 0.00 0.00 0.00 0.00 0.02 0.00 0.00 0.01 0.00 0.00 0.00 0.01 0.01 0.01 0.00 0.01 0.01 0.00 0.01 0.01 0.06 0.03 0.06 0.10 0.05 0.05 0.02 0.04 0.06 0.08 0.10 0.18 0.26 0.34 0.40 0.20 0.12
0.01 0.00 0.00 0.00 0.00 0.00 0.01 0.00 0.00 0.00 0.00 0.01 0.02 0.00 0.02 0.00 0.00 0.00 0.00 0.00 0.00 0.00 0.00 0.00 0.00 0.01 0.03 0.04 0.06 0.10 0.09 0.11 0.12 0.07 0.08 0.09 0.09 0.16 0.18 0.16 0.14 0.22 0.16 0.15
0.01 0.01 0.01 0.01 0.00 0.00 0.00 0.00 0.00 0.00 0.00 0.00 0.01 0.02 0.01 0.01 0.01 0.03 0.02 0.00 0.00 0.00 0.01 0.00 0.01 0.00 0.01 0.03 0.03 0.07 0.12 0.16 0.19 0.18 0.14 0.18 0.23 0.16 0.12 0.19 0.25 0.16 0.15 0.15
0.00 0.00 0.01 0.01 0.00 0.00 0.00 0.00 0.01 0.11 0.05 0.02 0.05 0.05 0.03 0.00 0.00 0.01 0.01 0.00 0.00 0.01 0.01 0.00 0.00 0.01 0.03 0.04 0.07 0.15 0.17 0.20 0.21 0.19 0.27 0.21 0.18 0.13 0.08 0.09 0.09 0.17 0.28 0.26
0.00 0.00 0.00 0.00 0.00 0.02 0.01 0.00 0.04 0.09 0.06 0.06 0.06 0.02 0.01 0.01 0.00 0.00 0.00 0.00 0.00 0.00 0.00 0.00 0.01 0.03 0.06 0.05 0.12 0.28 0.31 0.25 0.23 0.24 0.27 0.26 0.13 0.10 0.13 0.06 0.11 0.10 0.13 0.22
0.00 0.01 0.01 0.00 0.00 0.00 0.01 0.02 0.00 0.00 0.02 0.04 0.01 0.00 0.00 0.00 0.00 0.00 0.00 0.00 0.00 0.00 0.00 0.00 0.01 0.04 0.05 0.06 0.10 0.20 0.21 0.11 0.16 0.18 0.16 0.18 0.18 0.12 0.15 0.14 0.10 0.25 0.29 0.29
0.02 0.07 0.03 0.00 0.00 0.00 0.00 0.00 0.00 0.00 0.00 0.02 0.00 0.01 0.02 0.02 0.01 0.00 0.00 0.00 0.00 0.00 0.00 0.00 0.00 0.02 0.04 0.05 0.11 0.16 0.10 0.06 0.02 0.02 0.07 0.12 0.17 0.21 0.20 0.28 0.40 0.55 0.43 0.42
0.00 0.03 0.10 0.00 0.00 0.00 0.00 0.00 0.00 0.00 0.00 0.04 0.08 0.02 0.00 0.01 0.01 0.01 0.00 0.00 0.01 0.02 0.02 0.00 0.00 0.00 0.02 0.06 0.11 0.17 0.19 0.15 0.14 0.15 0.17 0.12 0.12 0.25 0.46 0.51 0.84 0.70 0.68 0.89
0.00 0.00 0.02 0.02 0.01 0.01 0.00 0.00 0.01 0.02 0.02 0.01 0.03 0.01 0.00 0.00 0.00 0.01 0.02 0.00 0.00 0.00 0.01 0.01 0.00 0.01 0.03 0.06 0.08 0.06 0.23 0.45 0.32 0.28 0.30 0.29 0.42 0.67 0.98 0.96 1.10 1.36 1.64 1.54
0.02 0.03 0.02 0.03 0.09 0.04 0.01 0.00 0.00 0.00 0.00 0.01 0.05 0.01 0.01 0.00 0.00 0.01 0.02 0.02 0.00 0.00 0.02 0.04 0.04 0.02 0.02 0.01 0.11 0.11 0.12 0.32 0.38 0.58 0.51 0.77 0.91 0.78 0.97 0.88 0.81 0.93 0.98 0.99
0.07 0.07 0.03 0.03 0.04 0.04 0.01 0.02 0.02 0.01 0.00 0.00 0.00 0.00 0.02 0.02 0.02 0.01 0.00 0.03 0.02 0.00 0.01 0.07 0.12 0.11 0.10 0.11 0.11 0.09 0.13 0.21 0.31 0.41 0.39 0.41 0.48 0.66 0.58 0.70 0.87 1.07 1.03 0.79
0.12 0.13 0.01 0.00 0.00 0.00 0.00 0.00 0.01 0.04 0.02 0.00 0.00 0.00 0.00 0.01 0.03 0.01 0.00 0.00 0.02 0.01 0.00 0.01 0.17 0.32 0.16 0.18 0.20 0.16 0.14 0.16 0.23 0.29 0.33 0.29 0.34 0.45 0.48 0.41 0.37 0.37 0.42 0.39
0.15 0.12 0.02 0.00 0.00 0.00 0.01 0.00 0.00 0.00 0.02 0.00 0.00 0.00 0.00 0.00 0.00 0.02 0.00 0.00 0.00 0.02 0.00 0.00 0.02 0.07 0.10 0.15 0.17 0.17 0.19 0.20 0.23 0.23 0.28 0.24 0.29 0.31 0.33 0.36 0.30 0.27 0.27 0.23
0.27 0.19 0.10 0.04 0.00 0.01 0.06 0.00 0.00 0.00 0.00 0.01 0.00 0.00 0.00 0.00 0.00 0.00 0.00 0.00 0.00 0.00 0.00 0.00 0.00 0.00 0.03 0.09 0.15 0.12 0.14 0.15 0.14 0.13 0.17 0.18 0.21 0.23 0.20 0.14 0.15 0.16 0.17 0.17
0.29 0.31 0.26 0.10 0.04 0.21 0.06 0.00 0.00 0.00 0.00 0.00 0.00 0.00 0.00 0.00 0.00 0.00 0.00 0.00 0.00 0.00 0.00 0.01 0.00 0.01 0.00 0.01 0.03 0.10 0.10 0.09 0.13 0.11 0.10 0.09 0.06 0.05 0.06 0.09 0.15 0.16 0.12 0.09
0.16 0.28 0.39 0.25 0.16 0.11 0.01 0.00 0.00 0.01 0.01 0.01 0.01 0.02 0.01 0.02 0.01 0.00 0.00 0.01 0.04 0.05 0.03 0.01 0.00 0.00 0.00 0.00 0.00 0.01 0.05 0.05 0.06 0.06 0.07 0.08 0.08 0.12 0.13 0.15 0.13 0.09 0.12 0.12
0.07 0.12 0.35 0.34 0.34 0.12 0.02 0.02 0.02 0.03 0.05 0.04 0.04 0.08 0.12 0.05 0.07 0.04 0.05 0.09 0.08 0.03 0.01 0.00 0.00 0.00 0.00 0.00 0.00 0.01 0.02 0.07 0.08 0.06 0.25 0.26 0.20 0.17 0.12 0.08 0.07 0.09 0.10 0.13
0.35 0.34 0.29 0.23 0.31 0.08 0.02 0.04 0.11 0.24 0.19 0.03 0.11 0.11 0.04 0.08 0.15 0.14 0.13 0.06 0.01 0.00 0.00 0.00 0.00 0.00 0.00 0.00 0.00 0.00 0.00 0.06 0.16 0.16 0.29 0.29 0.18 0.13 0.14 0.11 0.08 0.09 0.12 0.14
0.31 0.49 0.44 0.44 0.40 0.13 0.07 0.16 0.32 0.27 0.10 0.06 0.03 0.03 0.04 0.09 0.13 0.08 0.05 0.01 0.00 0.00 0.00 0.00 0.00 0.00 0.00 0.00 0.00 0.00 0.00 0.02 0.07 0.12 0.19 0.27 0.27 0.20 0.19 0.16 0.09 0.09 0.09 0.12
0.29 0.23 0.27 0.27 0.22 0.10 0.04 0.09 0.16 0.11 0.11 0.05 0.06 0.08 0.18 0.19 0.10 0.06 0.02 0.01 0.01 0.01 0.00 0.00 0.00 0.00 0.00 0.00 0.00 0.01 0.01 0.01 0.02 0.06 0.10 0.14 0.17 0.18 0.14 0.12 0.12 0.13 0.16 0.19
0.27 0.15 0.19 0.17 0.04 0.05 0.06 0.05 0.03 0.02 0.06 0.08 0.14 0.20 0.15 0.14 0.14 0.09 0.06 0.04 0.01 0.01 0.02 0.02 0.01 0.01 0.02 0.02 0.02 0.01 0.01 0.01 0.01 0.03 0.04 0.05 0.10 0.13 0.09 0.12 0.15 0.17 0.23 0.24
0.24 0.30 0.13 0.13 0.10 0.06 0.06 0.05 0.11 0.19 0.26 0.25 0.19 0.14 0.14 0.11 0.10 0.12 0.11 0.11 0.11 0.08 0.04 0.03 0.04 0.05 0.04 0.04 0.03 0.03 0.03 0.05 0.05 0.05 0.07 0.08 0.13 0.14 0.11 0.16 0.24 0.28 0.43 0.45
0.11 0.26 0.33 0.32 0.27 0.28 0.18 0.30 0.42 0.32 0.21 0.21 0.16 0.06 0.03 0.11 0.18 0.21 0.34 0.34 0.21 0.13 0.13 0.14 0.11 0.09 0.08 0.09 0.11 0.11 0.11 0.12 0.12 0.10 0.12 0.17 0.14 0.19 0.22 0.28 0.51 0.64 0.70 0.74

GFSCGP_prec_precacc_105.txt.gz
Total_Precipitation_Accumulation
0.00 0.00 0.00 0.00 0.00 0.00 0.00 0.00 0.00 0.00 0.00 0.00 0.00 0.00 0.00 0.00 0.01 0.03 0.04 0.03 0.01 0.00 0.00 0.01 0.01 0.04 0.03 0.16 0.49 0.75 0.83 0.94 0.82 0.38 0.34 0.33 0.45 0.65 0.73 0.82 0.51 0.95 0.64 0.14
0.00 0.00 0.00 0.00 0.00 0.00 0.00 0.00 0.00 0.00 0.00 0.00 0.00 0.00 0.00 0.00 0.00 0.00 0.01 0.01 0.00 0.00 0.00 0.01 0.05 0.11 0.18 0.33 0.37 0.23 0.09 0.06 0.10 0.11 0.15 0.16 0.19 0.41 0.47 1.05 0.72 0.71 0.71 0.17
0.01 0.01 0.00 0.00 0.00 0.00 0.00 0.00 0.00 0.00 0.00 0.00 0.00 0.00 0.00 0.00 0.01 0.01 0.01 0.00 0.00 0.00 0.00 0.04 0.06 0.07 0.06 0.04 0.10 0.05 0.04 0.03 0.03 0.05 0.09 0.16 0.10 0.18 0.32 1.01 1.03 0.64 0.56 0.29
0.02 0.00 0.00 0.00 0.00 0.00 0.01 0.00 0.00 0.00 0.00 0.02 0.00 0.00 0.01 0.00 0.00 0.00 0.01 0.01 0.01 0.00 0.01 0.01 0.00 0.01 0.01 0.06 0.03 0.06 0.10 0.05 0.05 0.02 0.04 0.06 0.08 0.10 0.18 0.42 0.62 0.60 0.39 0.32
0.01 0.00 0.00 0.00 0.00 0.00 0.01 0.00 0.00 0.00 0.00 0.01 0.02 0.00 0.02 0.00 0.00 0.00 0.00 0.00 0.00 0.00 0.00 0.00 0.00 0.01 0.03 0.04 0.06 0.10 0.09 0.11 0.12 0.07 0.08 0.09 0.09 0.17 0.19 0.30 0.54 0.50 0.40 0.32
0.01 0.01 0.01 0.01 0.00 0.00 0.00 0.00 0.00 0.00 0.00 0.00 0.01 0.02 0.01 0.01 0.01 0.03 0.02 0.00 0.00 0.00 0.01 0.00 0.01 0.00 0.01 0.03 0.03 0.07 0.12 0.16 0.19 0.18 0.14 0.18 0.23 0.16 0.13 0.22 0.56 0.50 0.40 0.27
0.00 0.00 0.01 0.01 0.00 0.00 0.00 0.00 0.01 0.11 0.05 0.02 0.05 0.05 0.03 0.00 0.00 0.01 0.01 0.00 0.00 0.01 0.01 0.00 0.00 0.01 0.03 0.04 0.07 0.15 0.17 0.20 0.21 0.19 0.27 0.21 0.18 0.13 0.08 0.10 0.14 0.37 0.44 0.37
0.00 0.00 0.00 0.00 0.00 0.02 0.01 0.00 0.04 0.09 0.06 0.06 0.06 0.02 0.01 0.01 0.00 0.00 0.00 0.00 0.00 0.00 0.00 0.00 0.01 0.03 0.06 0.05 0.12 0.28 0.31 0.25 0.23 0.24 0.27 0.26 0.13 0.10 0.13 0.06 0.11 0.12 0.18 0.29
0.00 0.01 0.01 0.00 0.00 0.00 0.01 0.02 0.00 0.00 0.02 0.04 0.01 0.00 0.00 0.00 0.00 0.00 0.00 0.00 0.00 0.00 0.00 0.00 0.01 0.04 0.05 0.06 0.10 0.20 0.21 0.11 0.16 0.18 0.16 0.18 0.18 0.12 0.15 0.14 0.11 0.26 0.31 0.35
0.02 0.07 0.03 0.00 0.00 0.00 0.00 0.00 0.00 0.00 0.00 0.02 0.00 0.01 0.02 0.02 0.01 0.00 0.00 0.00 0.00 0.00 0.00 0.00 0.00 0.02 0.04 0.05 0.11 0.16 0.10 0.06 0.02 0.02 0.07 0.12 0.17 0.21 0.20 0.28 0.40 0.55 0.44 0.48
0.00 0.03 0.10 0.00 0.00 0.00 0.00 0.00 0.00 0.00 0.00 0.04 0.08 0.02 0.00 0.01 0.01 0.02 0.01 0.00 0.01 0.02 0.02 0.01 0.00 0.01 0.03 0.07 0.11 0.17 0.19 0.15 0.14 0.15 0.17 0.12 0.12 0.25 0.46 0.51 0.84 0.70 0.68 0.93
0.00 0.00 0.02 0.02 0.01 0.01 0.00 0.00 0.01 0.02 0.02 0.01 0.03 0.01 0.00 0.00 0.00 0.02 0.04 0.01 0.00 0.00 0.01 0.01 0.01 0.04 0.07 0.09 0.08 0.06 0.23 0.45 0.32 0.28 0.30 0.29 0.42 0.67 0.98 0.96 1.10 1.36 1.64 1.55
0.05 0.05 0.03 0.06 0.11 0.05 0.01 0.00 0.00 0.00 0.00 0.01 0.05 0.02 0.04 0.03 0.00 0.01 0.05 0.10 0.01 0.00 0.02 0.04 0.06 0.05 0.08 0.08 0.13 0.11 0.12 0.32 0.38 0.58 0.51 0.77 0.91 0.78 0.97 0.88 0.81 0.93 0.98 0.99
0.09 0.11 0.04 0.05 0.04 0.04 0.01 0.02 0.02 0.01 0.00 0.00 0.00 0.01 0.06 0.05 0.03 0.02 0.01 0.07 0.07 0.00 0.01 0.07 0.14 0.16 0.17 0.18 0.17 0.12 0.14 0.21 0.31 0.41 0.39 0.41 0.48 0.66 0.58 0.70 0.87 1.07 1.03 0.79
0.13 0.17 0.03 0.00 0.00 0.00 0.01 0.01 0.01 0.04 0.02 0.01 0.00 0.00 0.01 0.03 0.04 0.01 0.00 0.00 0.07 0.05 0.00 0.01 0.17 0.34 0.21 0.24 0.24 0.20 0.19 0.19 0.24 0.29 0.33 0.29 0.34 0.45 0.48 0.41 0.37 0.37 0.42 0.39
0.16 0.20 0.07 0.01 0.00 0.00 0.02 0.01 0.01 0.01 0.02 0.03 0.02 0.00 0.00 0.02 0.01 0.02 0.00 0.00 0.01 0.13 0.03 0.00 0.02 0.07 0.13 0.18 0.19 0.19 0.23 0.24 0.28 0.25 0.29 0.24 0.29 0.31 0.33 0.36 0.30 0.27 0.27 0.23
0.28 0.21 0.14 0.05 0.00 0.01 0.07 0.01 0.00 0.01 0.01 0.02 0.04 0.00 0.00 0.00 0.00 0.00 0.00 0.00 0.01 0.03 0.02 0.00 0.00 0.00 0.04 0.10 0.17 0.15 0.18 0.23 0.19 0.18 0.23 0.22 0.22 0.23 0.20 0.14 0.15 0.16 0.17 0.17
0.29 0.31 0.26 0.11 0.04 0.21 0.06 0.00 0.00 0.00 0.00 0.00 0.00 0.01 0.01 0.00 0.00 0.00 0.00 0.00 0.00 0.00 0.01 0.01 0.00 0.01 0.00 0.01 0.03 0.11 0.11 0.13 0.17 0.15 0.15 0.15 0.13 0.09 0.07 0.09 0.15 0.16 0.12 0.09
0.16 0.28 0.39 0.25 0.16 0.11 0.01 0.01 0.00 0.01 0.02 0.01 0.01 0.02 0.02 0.02 0.01 0.00 0.00 0.01 0.04 0.05 0.03 0.01 0.00 0.00 0.00 0.00 0.00 0.01 0.05 0.06 0.07 0.06 0.08 0.12 0.16 0.21 0.18 0.16 0.13 0.09 0.12 0.12
0.07 0.12 0.35 0.34 0.34 0.12 0.02 0.02 0.02 0.04 0.07 0.05 0.05 0.09 0.12 0.06 0.08 0.04 0.05 0.09 0.08 0.03 0.01 0.00 0.00 0.00 0.00 0.00 0.00 0.01 0.02 0.07 0.08 0.07 0.28 0.30 0.26 0.24 0.18 0.14 0.10 0.09 0.10 0.13
0.35 0.34 0.29 0.23 0.31 0.08 0.02 0.04 0.11 0.24 0.21 0.04 0.11 0.12 0.04 0.08 0.15 0.14 0.13 0.06 0.01 0.00 0.00 0.00 0.00 0.00 0.00 0.00 0.00 0.00 0.00 0.06 0.16 0.16 0.30 0.32 0.24 0.21 0.19 0.16 0.13 0.11 0.12 0.14
0.34 0.50 0.44 0.44 0.40 0.13 0.07 0.16 0.33 0.27 0.10 0.06 0.03 0.03 0.04 0.09 0.13 0.08 0.05 0.01 0.00 0.00 0.00 0.00 0.00 0.00 0.00 0.00 0.00 0.00 0.00 0.02 0.07 0.12 0.19 0.28 0.30 0.27 0.27 0.23 0.17 0.17 0.16 0.16
0.46 0.24 0.27 0.27 0.22 0.10 0.04 0.10 0.16 0.11 0.11 0.05 0.06 0.08 0.18 0.19 0.10 0.06 0.02 0.01 0.01 0.01 0.00 0.00 0.00 0.00 0.00 0.00 0.00 0.01 0.01 0.01 0.02 0.06 0.10 0.14 0.18 0.20 0.18 0.19 0.21 0.31 0.39 0.42
0.48 0.20 0.21 0.17 0.04 0.05 0.08 0.06 0.04 0.03 0.06 0.08 0.14 0.20 0.15 0.14 0.14 0.09 0.06 0.04 0.01 0.01 0.02 0.02 0.01 0.01 0.02 0.02 0.02 0.01 0.01 0.01 0.02 0.03 0.05 0.06 0.13 0.17 0.11 0.14 0.17 0.18 0.25 0.30
0.54 0.53 0.15 0.16 0.14 0.09 0.08 0.06 0.12 0.19 0.26 0.25 0.19 0.14 0.14 0.11 0.10 0.12 0.11 0.11 0.11 0.08 0.04 0.03 0.04 0.05 0.04 0.04 0.03 0.03 0.03 0.06 0.07 0.08 0.09 0.10 0.16 0.17 0.14 0.20 0.30 0.31 0.47 0.50
0.35 0.56 0.46 0.47 0.32 0.30 0.21 0.31 0.43 0.34 0.21 0.21 0.16 0.06 0.03 0.11 0.18 0.21 0.34 0.34 0.21 0.13 0.13 0.14 0.11 0.09 0.08 0.09 0.11 0.11 0.11 0.13 0.14 0.13 0.16 0.21 0.17 0.23 0.27 0.35 0.65 0.81 0.86 0.86

GFSCGP_prec_precacc_111.txt.gz
Total_Precipitation_Accumulation
0.00 0.00 0.00 0.00 0.00 0.00 0.00 0.00 0.00 0.00 0.00 0.00 0.00 0.00 0.00 0.00 0.01 0.03 0.04 0.03 0.01 0.00 0.00 0.01 0.01 0.04 0.03 0.16 0.49 0.75 0.83 0.94 0.82 0.38 0.34 0.35 0.47 0.65 0.74 0.85 0.62 1.17 0.96 0.55
0.00 0.00 0.00 0.00 0.00 0.00 0.00 0.00 0.00 0.00 0.00 0.00 0.00 0.00 0.00 0.00 0.00 0.00 0.01 0.01 0.00 0.00 0.00 0.01 0.05 0.11 0.18 0.33 0.37 0.23 0.09 0.06 0.10 0.11 0.15 0.16 0.20 0.42 0.48 1.07 0.76 0.79 0.87 0.32
0.01 0.01 0.00 0.00 0.00 0.00 0.00 0.00 0.00 0.00 0.00 0.00 0.00 0.00 0.00 0.00 0.01 0.01 0.01 0.00 0.00 0.00 0.00 0.04 0.06 0.07 0.06 0.04 0.10 0.05 0.04 0.03 0.03 0.05 0.09 0.16 0.11 0.18 0.33 1.02 1.09 0.74 0.71 0.45
0.02 0.00 0.00 0.00 0.00 0.00 0.01 0.00 0.00 0.00 0.00 0.02 0.00 0.00 0.01 0.00 0.00 0.00 0.01 0.01 0.01 0.00 0.01 0.01 0.00 0.01 0.01 0.06 0.03 0.06 0.10 0.05 0.05 0.02 0.04 0.06 0.09 0.11 0.19 0.42 0.66 0.75 0.56 0.51
0.01 0.00 0.00 0.00 0.00 0.00 0.01 0.00 0.00 0.00 0.00 0.01 0.02 0.00 0.02 0.00 0.00 0.00 0.00 0.00 0.00 0.00 0.00 0.00 0.00 0.01 0.03 0.04 0.06 0.10 0.09 0.11 0.12 0.07 0.08 0.09 0.09 0.17 0.19 0.30 0.61 0.68 0.71 0.62
0.01 0.01 0.01 0.01 0.00 0.00 0.00 0.00 0.00 0.00 0.00 0.00 0.01 0.02 0.01 0.01 0.01 0.03 0.02 0.00 0.00 0.00 0.01 0.00 0.01 0.00 0.01 0.03 0.03 0.07 0.12 0.16 0.19 0.18 0.14 0.18 0.23 0.17 0.14 0.23 0.64 0.74 0.73 0.74
0.00 0.00 0.01 0.01 0.00 0.00 0.00 0.00 0.01 0.11 0.05 0.02 0.05 0.05 0.03 0.00 0.00 0.01 0.01 0.00 0.00 0.01 0.01 0.00 0.00 0.01 0.03 0.04 0.07 0.15 0.17 0.20 0.21 0.19 0.27 0.21 0.18 0.14 0.09 0.10 0.17 0.54 0.89 0.80
0.00 0.00 0.00 0.00 0.00 0.02 0.01 0.00 0.04 0.09 0.06 0.06 0.06 0.02 0.01 0.01 0.00 0.00 0.00 0.00 0.00 0.00 0.00 0.00 0.01 0.03 0.06 0.05 0.12 0.28 0.31 0.25 0.23 0.24 0.27 0.26 0.13 0.10 0.14 0.06 0.12 0.16 0.47 0.62
0.01 0.01 0.01 0.00 0.00 0.00 0.01 0.02 0.00 0.00 0.02 0.04 0.01 0.00 0.00 0.00 0.00 0.00 0.00 0.00 0.00 0.00 0.00 0.00 0.01 0.04 0.05 0.06 0.10 0.21 0.21 0.11 0.16 0.18 0.16 0.18 0.18 0.12 0.16 0.15 0.11 0.28 0.41 0.73
0.05 0.08 0.03 0.00 0.00 0.00 0.00 0.00 0.00 0.00 0.00 0.02 0.00 0.01 0.02 0.02 0.01 0.01 0.00 0.00 0.00 0.00 0.00 0.00 0.00 0.02 0.04 0.06 0.12 0.17 0.10 0.07 0.03 0.02 0.07 0.12 0.17 0.21 0.21 0.29 0.41 0.56 0.50 0.69
0.11 0.03 0.10 0.05 0.02 0.00 0.00 0.00 0.00 0.00 0.00 0.04 0.08 0.02 0.00 0.01 0.01 0.02 0.01 0.00 0.01 0.02 0.02 0.01 0.00 0.01 0.03 0.08 0.13 0.18 0.20 0.17 0.16 0.16 0.17 0.12 0.12 0.25 0.46 0.51 0.85 0.71 0.71 1.04
0.11 0.04 0.03 0.03 0.09 0.07 0.01 0.00 0.01 0.02 0.02 0.01 0.03 0.01 0.00 0.00 0.00 0.02 0.04 0.01 0.00 0.00 0.01 0.01 0.02 0.05 0.10 0.12 0.12 0.09 0.29 0.49 0.32 0.28 0.30 0.29 0.42 0.67 0.98 0.96 1.11 1.37 1.66 1.60
0.31 0.20 0.09 0.12 0.20 0.11 0.06 0.02 0.00 0.00 0.00 0.01 0.05 0.02 0.04 0.03 0.00 0.01 0.05 0.10 0.01 0.00 0.02 0.04 0.06 0.09 0.15 0.16 0.22 0.19 0.18 0.33 0.38 0.58 0.51 0.77 0.91 0.78 0.97 0.88 0.81 0.94 0.99 1.01
0.36 0.42 0.17 0.07 0.06 0.07 0.03 0.03 0.03 0.01 0.00 0.00 0.00 0.01 0.08 0.08 0.05 0.02 0.01 0.08 0.09 0.01 0.03 0.07 0.14 0.17 0.21 0.29 0.34 0.25 0.19 0.22 0.31 0.41 0.39 0.41 0.48 0.66 0.58 0.70 0.87 1.07 1.04 0.80
0.18 0.40 0.28 0.08 0.01 0.01 0.05 0.02 0.02 0.05 0.02 0.01 0.00 0.00 0.02 0.07 0.06 0.01 0.00 0.00 0.07 0.07 0.10 0.07 0.18 0.35 0.23 0.32 0.35 0.30 0.26 0.21 0.24 0.29 0.33 0.29 0.34 0.45 0.48 0.41 0.37 0.37 0.42 0.39
0.16 0.21 0.10 0.08 0.02 0.01 0.03 0.08 0.05 0.01 0.03 0.03 0.02 0.00 0.00 0.03 0.04 0.04 0.03 0.01 0.01 0.14 0.10 0.12 0.10 0.13 0.16 0.23 0.25 0.20 0.23 0.26 0.29 0.25 0.29 0.24 0.29 0.31 0.33 0.36 0.30 0.27 0.27 0.23
0.28 0.22 0.14 0.07 0.02 0.03 0.08 0.02 0.04 0.03 0.01 0.02 0.05 0.01 0.03 0.06 0.04 0.04 0.03 0.01 0.01 0.04 0.05 0.03 0.04 0.13 0.13 0.17 0.21 0.19 0.19 0.23 0.19 0.19 0.25 0.24 0.22 0.23 0.20 0.14 0.15 0.16 0.17 0.17
0.29 0.31 0.27 0.11 0.05 0.22 0.07 0.02 0.01 0.02 0.00 0.00 0.00 0.02 0.06 0.04 0.01 0.00 0.00 0.00 0.00 0.00 0.01 0.01 0.01 0.03 0.03 0.04 0.07 0.14 0.15 0.14 0.18 0.18 0.17 0.16 0.14 0.10 0.07 0.09 0.15 0.16 0.12 0.09
0.16 0.28 0.40 0.25 0.16 0.12 0.01 0.04 0.01 0.03 0.03 0.02 0.02 0.04 0.04 0.09 0.04 0.01 0.00 0.01 0.04 0.05 0.03 0.01 0.00 0.00 0.00 0.00 0.00 0.02 0.07 0.09 0.09 0.08 0.13 0.20 0.19 0.23 0.20 0.17 0.13 0.09 0.12 0.12
0.07 0.12 0.35 0.35 0.34 0.12 0.02 0.02 0.02 0.08 0.11 0.11 0.11 0.13 0.16 0.20 0.25 0.15 0.07 0.09 0.08 0.03 0.01 0.00 0.00 0.00 0.00 0.00 0.00 0.01 0.02 0.07 0.08 0.07 0.29 0.32 0.30 0.27 0.21 0.16 0.11 0.10 0.10 0.13
0.36 0.34 0.29 0.23 0.31 0.08 0.02 0.04 0.11 0.26 0.25 0.09 0.15 0.21 0.22 0.24 0.26 0.16 0.13 0.06 0.01 0.00 0.00 0.00 0.00 0.00 0.00 0.00 0.00 0.00 0.00 0.06 0.16 0.16 0.30 0.32 0.25 0.22 0.24 0.19 0.15 0.12 0.13 0.15
0.43 0.53 0.45 0.44 0.40 0.13 0.07 0.16 0.33 0.28 0.19 0.10 0.04 0.03 0.04 0.09 0.13 0.08 0.05 0.01 0.00 0.00 0.00 0.00 0.00 0.00 0.00 0.00 0.00 0.00 0.00 0.02 0.07 0.12 0.19 0.28 0.30 0.29 0.30 0.28 0.22 0.21 0.21 0.21
0.52 0.37 0.38 0.27 0.22 0.10 0.04 0.10 0.17 0.12 0.16 0.11 0.07 0.08 0.18 0.19 0.10 0.06 0.02 0.01 0.01 0.01 0.00 0.00 0.00 0.00 0.00 0.00 0.00 0.01 0.01 0.01 0.02 0.06 0.10 0.14 0.19 0.23 0.23 0.26 0.31 0.40 0.50 0.61
0.60 0.42 0.43 0.20 0.05 0.05 0.08 0.07 0.06 0.07 0.08 0.12 0.15 0.20 0.15 0.14 0.14 0.09 0.06 0.04 0.01 0.01 0.02 0.02 0.01 0.01 0.02 0.02 0.02 0.01 0.01 0.01 0.02 0.03 0.05 0.07 0.15 0.21 0.17 0.22 0.28 0.29 0.35 0.39
0.81 0.85 0.52 0.31 0.19 0.15 0.08 0.08 0.16 0.22 0.32 0.26 0.19 0.14 0.14 0.11 0.10 0.12 0.11 0.11 0.11 0.08 0.04 0.03 0.04 0.05 0.04 0.04 0.03 0.03 0.03 0.06 0.07 0.08 0.10 0.10 0.17 0.19 0.16 0.26 0.41 0.42 0.60 0.69
0.59 1.02 0.87 0.82 0.41 0.47 0.25 0.33 0.49 0.39 0.26 0.30 0.21 0.06 0.03 0.11 0.18 0.21 0.34 0.34 0.21 0.13 0.13 0.14 0.11 0.09 0.08 0.09 0.11 0.11 0.11 0.13 0.14 0.13 0.16 0.23 0.19 0.25 0.30 0.40 0.77 0.98 1.09 1.10

GFSCGP_prec_precacc_114.txt.gz
Total_Precipitation_Accumulation
0.00 0.00 0.00 0.00 0.00 0.00 0.00 0.00 0.00 0.00 0.00 0.00 0.00 0.00 0.00 0.00 0.01 0.03 0.04 0.03 0.01 0.00 0.00 0.01 0.01 0.04 0.03 0.16 0.49 0.75 0.83 0.94 0.82 0.38 0.34 0.35 0.47 0.66 0.75 0.86 0.63 1.17 0.96 0.61
0.00 0.00 0.00 0.00 0.00 0.00 0.00 0.00 0.00 0.00 0.00 0.00 0.00 0.00 0.00 0.00 0.00 0.00 0.01 0.01 0.00 0.00 0.00 0.01 0.05 0.11 0.18 0.33 0.37 0.23 0.09 0.06 0.10 0.11 0.15 0.16 0.20 0.42 0.49 1.08 0.76 0.80 0.88 0.33
0.01 0.01 0.00 0.00 0.00 0.00 0.00 0.00 0.00 0.00 0.00 0.00 0.00 0.00 0.00 0.00 0.01 0.01 0.01 0.00 0.00 0.00 0.00 0.04 0.06 0.07 0.06 0.04 0.10 0.05 0.04 0.03 0.03 0.05 0.09 0.17 0.11 0.19 0.34 1.03 1.11 0.75 0.71 0.45
0.02 0.00 0.00 0.00 0.00 0.00 0.01 0.00 0.00 0.00 0.00 0.02 0.00 0.00 0.01 0.00 0.00 0.00 0.01 0.01 0.01 0.00 0.01 0.01 0.00 0.01 0.01 0.06 0.03 0.06 0.10 0.05 0.05 0.02 0.04 0.06 0.09 0.11 0.19 0.43 0.67 0.76 0.57 0.52
0.01 0.00 0.00 0.00 0.00 0.00 0.01 0.00 0.00 0.00 0.00 0.01 0.02 0.00 0.02 0.00 0.00 0.00 0.00 0.00 0.00 0.00 0.00 0.00 0.00 0.01 0.03 0.04 0.06 0.10 0.09 0.11 0.12 0.07 0.08 0.09 0.10 0.18 0.20 0.31 0.61 0.69 0.71 0.63
0.01 0.01 0.01 0.01 0.00 0.00 0.00 0.00 0.00 0.00 0.00 0.00 0.01 0.02 0.01 0.01 0.01 0.03 0.02 0.00 0.00 0.00 0.01 0.00 0.01 0.00 0.01 0.03 0.03 0.08 0.12 0.16 0.19 0.18 0.14 0.18 0.23 0.17 0.15 0.23 0.65 0.75 0.74 0.75
0.00 0.00 0.01 0.01 0.00 0.00 0.00 0.00 0.01 0.11 0.05 0.02 0.05 0.05 0.03 0.00 0.00 0.01 0.01 0.00 0.00 0.01 0.01 0.00 0.00 0.01 0.03 0.04 0.07 0.16 0.17 0.20 0.21 0.19 0.28 0.21 0.18 0.14 0.09 0.10 0.18 0.55 0.89 0.82
0.01 0.00 0.00 0.00 0.00 0.02 0.01 0.00 0.04 0.09 0.06 0.06 0.06 0.02 0.01 0.01 0.00 0.00 0.00 0.00 0.00 0.00 0.00 0.00 0.01 0.03 0.06 0.05 0.12 0.28 0.31 0.25 0.23 0.24 0.27 0.26 0.14 0.10 0.15 0.07 0.13 0.16 0.47 0.63
0.10 0.04 0.01 0.00 0.00 0.00 0.01 0.02 0.00 0.00 0.02 0.04 0.01 0.00 0.00 0.00 0.00 0.00 0.00 0.00 0.00 0.00 0.00 0.00 0.01 0.04 0.05 0.06 0.10 0.21 0.21 0.11 0.16 0.18 0.17 0.18 0.18 0.12 0.16 0.15 0.11 0.28 0.41 0.74
0.25 0.17 0.04 0.02 0.00 0.00 0.00 0.00 0.00 0.00 0.00 0.02 0.00 0.01 0.02 0.02 0.01 0.01 0.00 0.00 0.00 0.00 0.00 0.00 0.00 0.02 0.04 0.06 0.12 0.17 0.10 0.07 0.03 0.03 0.08 0.13 0.17 0.21 0.21 0.29 0.41 0.57 0.51 0.71
0.33 0.17 0.13 0.09 0.02 0.00 0.00 0.00 0.00 0.00 0.00 0.04 0.08 0.02 0.00 0.01 0.01 0.02 0.01 0.00 0.01 0.02 0.02 0.01 0.00 0.01 0.03 0.08 0.13 0.18 0.21 0.18 0.19 0.18 0.17 0.12 0.12 0.25 0.46 0.52 0.85 0.71 0.72 1.08
0.26 0.23 0.06 0.07 0.15 0.08 0.01 0.00 0.01 0.02 0.02 0.01 0.03 0.01 0.00 0.00 0.00 0.02 0.04 0.01 0.00 0.00 0.01 0.01 0.02 0.05 0.10 0.13 0.13 0.10 0.30 0.52 0.38 0.30 0.31 0.29 0.42 0.67 0.99 0.96 1.11 1.37 1.67 1.63
0.37 0.34 0.14 0.16 0.26 0.16 0.13 0.02 0.00 0.00 0.00 0.01 0.05 0.02 0.04 0.03 0.00 0.01 0.05 0.10 0.01 0.00 0.02 0.04 0.06 0.09 0.15 0.19 0.25 0.21 0.22 0.39 0.42 0.58 0.51 0.77 0.91 0.78 0.97 0.89 0.82 0.94 0.99 1.04
0.39 0.55 0.39 0.32 0.15 0.12 0.11 0.13 0.05 0.01 0.00 0.00 0.00 0.02 0.09 0.10 0.06 0.02 0.01 0.08 0.09 0.01 0.03 0.07 0.14 0.17 0.22 0.33 0.38 0.32 0.25 0.25 0.32 0.41 0.40 0.41 0.49 0.66 0.58 0.71 0.87 1.07 1.04 0.80
0.19 0.44 0.33 0.16 0.02 0.01 0.08 0.07 0.06 0.08 0.03 0.01 0.00 0.00 0.02 0.09 0.13 0.05 0.00 0.00 0.07 0.07 0.10 0.07 0.18 0.35 0.23 0.33 0.40 0.35 0.33 0.26 0.26 0.30 0.34 0.29 0.35 0.45 0.48 0.41 0.37 0.37 0.42 0.39
0.16 0.22 0.10 0.09 0.03 0.01 0.04 0.10 0.07 0.03 0.07 0.04 0.02 0.00 0.00 0.04 0.05 0.05 0.03 0.01 0.01 0.14 0.10 0.12 0.10 0.13 0.17 0.26 0.33 0.32 0.35 0.34 0.32 0.26 0.30 0.25 0.29 0.31 0.33 0.36 0.30 0.27 0.27 0.23
0.28 0.22 0.15 0.07 0.03 0.03 0.09 0.03 0.05 0.03 0.02 0.03 0.07 0.04 0.04 0.10 0.10 0.07 0.05 0.02 0.02 0.04 0.05 0.03 0.04 0.13 0.14 0.24 0.30 0.39 0.38 0.37 0.25 0.20 0.26 0.25 0.22 0.23 0.20 0.14 0.15 0.16 0.17 0.17
0.29 0.31 0.27 0.11 0.05 0.25 0.07 0.03 0.01 0.02 0.01 0.00 0.02 0.08 0.09 0.08 0.08 0.04 0.03 0.03 0.01 0.00 0.01 0.01 0.01 0.03 0.03 0.06 0.16 0.24 0.35 0.28 0.21 0.18 0.18 0.18 0.15 0.10 0.07 0.09 0.15 0.16 0.12 0.09
0.16 0.28 0.40 0.26 0.17 0.12 0.02 0.04 0.01 0.03 0.06 0.03 0.05 0.12 0.09 0.14 0.08 0.04 0.01 0.01 0.04 0.05 0.03 0.01 0.00 0.00 0.00 0.00 0.01 0.05 0.10 0.17 0.14 0.09 0.14 0.20 0.20 0.24 0.21 0.17 0.13 0.09 0.12 0.12
0.07 0.12 0.36 0.35 0.34 0.13 0.03 0.02 0.02 0.09 0.18 0.17 0.15 0.19 0.19 0.21 0.28 0.16 0.07 0.09 0.08 0.03 0.01 0.00 0.00 0.00 0.00 0.00 0.00 0.02 0.04 0.08 0.09 0.08 0.30 0.32 0.30 0.28 0.21 0.16 0.12 0.10 0.10 0.13
0.37 0.35 0.29 0.23 0.31 0.08 0.02 0.04 0.11 0.31 0.30 0.15 0.25 0.31 0.29 0.35 0.44 0.26 0.14 0.06 0.01 0.00 0.00 0.00 0.00 0.00 0.00 0.00 0.00 0.00 0.02 0.08 0.16 0.16 0.31 0.33 0.25 0.22 0.24 0.21 0.16 0.13 0.13 0.15
0.45 0.55 0.46 0.44 0.40 0.13 0.07 0.16 0.34 0.29 0.20 0.18 0.12 0.14 0.10 0.10 0.14 0.09 0.05 0.01 0.00 0.00 0.00 0.00 0.00 0.00 0.00 0.00 0.00 0.00 0.00 0.03 0.08 0.12 0.19 0.28 0.30 0.29 0.30 0.28 0.24 0.24 0.25 0.24
0.55 0.45 0.44 0.29 0.22 0.10 0.05 0.10 0.17 0.12 0.27 0.21 0.10 0.09 0.18 0.19 0.10 0.06 0.02 0.01 0.01 0.01 0.00 0.00 0.00 0.00 0.00 0.00 0.00 0.01 0.01 0.01 0.03 0.06 0.10 0.14 0.19 0.23 0.23 0.26 0.32 0.42 0.55 0.66
0.62 0.44 0.51 0.25 0.07 0.08 0.08 0.08 0.06 0.07 0.09 0.23 0.16 0.20 0.15 0.14 0.14 0.09 0.06 0.04 0.01 0.01 0.02 0.02 0.01 0.01 0.02 0.02 0.02 0.01 0.01 0.01 0.02 0.03 0.05 0.07 0.15 0.21 0.17 0.22 0.28 0.31 0.38 0.42
0.92 0.98 0.69 0.43 0.21 0.23 0.10 0.09 0.16 0.22 0.33 0.29 0.19 0.14 0.14 0.11 0.10 0.12 0.11 0.11 0.11 0.08 0.04 0.03 0.04 0.05 0.04 0.04 0.03 0.03 0.03 0.06 0.07 0.08 0.10 0.10 0.17 0.19 0.16 0.26 0.42 0.43 0.62 0.72
0.69 1.15 1.04 0.96 0.48 0.59 0.30 0.35 0.51 0.40 0.30 0.40 0.22 0.07 0.03 0.11 0.18 0.21 0.34 0.34 0.21 0.13 0.13 0.14 0.11 0.09 0.08 0.09 0.11 0.11 0.11 0.13 0.14 0.13 0.16 0.23 0.19 0.25 0.30 0.40 0.78 1.01 1.12 1.13

GFSCGP_prec_precacc_117.txt.gz
Total_Precipitation_Accumulation
0.00 0.00 0.00 0.00 0.00 0.00 0.00 0.00 0.00 0.00 0.00 0.00 0.00 0.00 0.00 0.00 0.01 0.03 0.04 0.03 0.01 0.00 0.00 0.01 0.01 0.04 0.03 0.16 0.49 0.75 0.83 0.94 0.82 0.38 0.34 0.35 0.47 0.66 0.75 0.87 0.63 1.18 0.97 0.62
0.00 0.00 0.00 0.00 0.00 0.00 0.00 0.00 0.00 0.00 0.00 0.00 0.00 0.00 0.00 0.00 0.00 0.00 0.01 0.01 0.00 0.00 0.00 0.01 0.05 0.11 0.18 0.33 0.37 0.23 0.09 0.06 0.10 0.11 0.15 0.16 0.20 0.42 0.49 1.08 0.77 0.81 0.88 0.34
0.01 0.01 0.00 0.00 0.00 0.00 0.00 0.00 0.00 0.00 0.00 0.00 0.00 0.00 0.00 0.00 0.01 0.01 0.01 0.00 0.00 0.00 0.00 0.04 0.06 0.07 0.06 0.04 0.10 0.05 0.04 0.03 0.03 0.06 0.09 0.17 0.11 0.19 0.35 1.04 1.12 0.76 0.72 0.46
0.02 0.00 0.00 0.00 0.00 0.00 0.01 0.00 0.00 0.00 0.00 0.02 0.00 0.00 0.01 0.00 0.00 0.00 0.01 0.01 0.01 0.00 0.01 0.01 0.00 0.01 0.01 0.06 0.03 0.06 0.10 0.05 0.05 0.03 0.04 0.06 0.09 0.11 0.19 0.43 0.68 0.77 0.59 0.53
0.01 0.00 0.00 0.00 0.00 0.00 0.01 0.00 0.00 0.00 0.00 0.01 0.02 0.00 0.02 0.00 0.00 0.00 0.00 0.00 0.00 0.00 0.00 0.00 0.00 0.01 0.03 0.04 0.06 0.10 0.09 0.11 0.12 0.07 0.08 0.09 0.10 0.18 0.20 0.31 0.62 0.70 0.73 0.66
0.01 0.01 0.01 0.01 0.00 0.00 0.00 0.00 0.00 0.00 0.00 0.00 0.01 0.02 0.01 0.01 0.01 0.03 0.02 0.00 0.00 0.00 0.01 0.00 0.01 0.00 0.01 0.03 0.03 0.08 0.12 0.16 0.19 0.18 0.14 0.18 0.23 0.17 0.15 0.24 0.65 0.76 0.76 0.77
0.00 0.00 0.01 0.01 0.00 0.00 0.00 0.00 0.01 0.11 0.05 0.02 0.05 0.05 0.03 0.00 0.00 0.01 0.01 0.00 0.00 0.01 0.01 0.00 0.00 0.01 0.03 0.04 0.07 0.16 0.17 0.20 0.21 0.19 0.28 0.21 0.18 0.14 0.09 0.10 0.18 0.56 0.90 0.83
0.02 0.00 0.01 0.01 0.00 0.02 0.01 0.00 0.04 0.09 0.06 0.06 0.06 0.02 0.01 0.01 0.00 0.00 0.00 0.00 0.00 0.00 0.00 0.00 0.01 0.03 0.06 0.05 0.12 0.28 0.31 0.25 0.24 0.24 0.27 0.26 0.14 0.10 0.15 0.07 0.13 0.17 0.48 0.63
0.15 0.07 0.01 0.00 0.00 0.00 0.01 0.02 0.00 0.00 0.02 0.04 0.01 0.00 0.00 0.00 0.00 0.00 0.00 0.00 0.00 0.00 0.00 0.00 0.01 0.04 0.05 0.06 0.10 0.21 0.21 0.12 0.16 0.18 0.17 0.18 0.18 0.12 0.16 0.15 0.12 0.28 0.41 0.74
0.32 0.28 0.05 0.05 0.01 0.00 0.00 0.00 0.00 0.00 0.00 0.02 0.00 0.01 0.02 0.02 0.01 0.01 0.00 0.00 0.00 0.00 0.00 0.00 0.00 0.02 0.04 0.06 0.12 0.18 0.11 0.08 0.03 0.04 0.08 0.13 0.17 0.21 0.21 0.30 0.42 0.57 0.51 0.71
0.40 0.30 0.16 0.26 0.07 0.00 0.00 0.00 0.00 0.00 0.00 0.04 0.08 0.02 0.00 0.01 0.01 0.02 0.01 0.00 0.01 0.02 0.02 0.01 0.00 0.01 0.04 0.08 0.13 0.19 0.21 0.19 0.19 0.18 0.18 0.13 0.12 0.25 0.46 0.53 0.86 0.72 0.72 1.08
0.35 0.37 0.12 0.09 0.23 0.10 0.01 0.00 0.01 0.02 0.02 0.01 0.03 0.01 0.00 0.00 0.00 0.02 0.04 0.01 0.00 0.00 0.01 0.01 0.02 0.05 0.10 0.13 0.14 0.11 0.31 0.53 0.38 0.31 0.32 0.29 0.42 0.68 0.99 0.97 1.12 1.37 1.67 1.63
0.39 0.40 0.20 0.18 0.34 0.22 0.15 0.02 0.00 0.00 0.00 0.01 0.05 0.02 0.04 0.03 0.00 0.02 0.05 0.10 0.01 0.00 0.02 0.04 0.06 0.09 0.15 0.19 0.25 0.23 0.23 0.40 0.43 0.61 0.52 0.77 0.92 0.78 0.98 0.89 0.82 0.94 0.99 1.04
0.40 0.56 0.48 0.45 0.30 0.35 0.31 0.14 0.05 0.02 0.01 0.00 0.00 0.02 0.09 0.10 0.07 0.04 0.01 0.08 0.09 0.01 0.03 0.07 0.14 0.17 0.22 0.33 0.39 0.34 0.30 0.30 0.36 0.42 0.40 0.42 0.49 0.67 0.59 0.71 0.87 1.07 1.04 0.80
0.19 0.44 0.35 0.17 0.03 0.02 0.15 0.13 0.07 0.08 0.03 0.01 0.00 0.00 0.02 0.09 0.14 0.10 0.03 0.02 0.07 0.07 0.10 0.07 0.18 0.35 0.23 0.33 0.40 0.36 0.34 0.31 0.29 0.31 0.34 0.30 0.36 0.46 0.48 0.42 0.38 0.38 0.43 0.39
0.17 0.22 0.11 0.09 0.03 0.02 0.07 0.19 0.12 0.05 0.07 0.04 0.02 0.00 0.00 0.05 0.07 0.10 0.12 0.11 0.08 0.14 0.10 0.12 0.10 0.13 0.17 0.26 0.34 0.34 0.38 0.36 0.34 0.28 0.31 0.26 0.30 0.32 0.34 0.36 0.31 0.28 0.28 0.24
0.29 0.23 0.15 0.07 0.03 0.06 0.20 0.11 0.12 0.10 0.07 0.07 0.11 0.04 0.04 0.11 0.29 0.23 0.23 0.19 0.06 0.04 0.05 0.03 0.04 0.13 0.14 0.24 0.32 0.42 0.41 0.43 0.29 0.22 0.29 0.27 0.23 0.23 0.20 0.15 0.16 0.17 0.19 0.19
0.29 0.32 0.27 0.11 0.08 0.31 0.13 0.04 0.04 0.04 0.03 0.01 0.06 0.16 0.18 0.10 0.27 0.15 0.12 0.08 0.03 0.01 0.01 0.01 0.01 0.03 0.03 0.06 0.16 0.27 0.42 0.41 0.47 0.37 0.25 0.23 0.17 0.11 0.07 0.10 0.16 0.17 0.13 0.10
0.17 0.29 0.41 0.26 0.18 0.15 0.07 0.04 0.01 0.04 0.08 0.04 0.09 0.29 0.15 0.21 0.16 0.12 0.05 0.05 0.05 0.05 0.03 0.01 0.00 0.00 0.00 0.00 0.01 0.06 0.16 0.33 0.37 0.38 0.40 0.31 0.23 0.26 0.24 0.19 0.13 0.09 0.13 0.13
0.08 0.14 0.37 0.36 0.35 0.16 0.07 0.02 0.02 0.09 0.32 0.25 0.23 0.39 0.30 0.27 0.36 0.18 0.08 0.09 0.08 0.03 0.01 0.00 0.00 0.00 0.00 0.00 0.00 0.02 0.05 0.16 0.26 0.28 0.48 0.52 0.37 0.30 0.23 0.18 0.14 0.11 0.11 0.13
0.37 0.38 0.32 0.25 0.32 0.08 0.02 0.04 0.11 0.43 0.50 0.28 0.76 0.40 0.39 0.38 0.56 0.32 0.15 0.06 0.01 0.00 0.00 0.00 0.00 0.00 0.00 0.00 0.00 0.00 0.02 0.10 0.23 0.27 0.36 0.37 0.32 0.25 0.27 0.23 0.19 0.16 0.16 0.16
0.47 0.61 0.52 0.46 0.41 0.16 0.07 0.16 0.36 0.32 0.22 0.55 0.59 0.23 0.18 0.11 0.17 0.15 0.07 0.01 0.00 0.00 0.00 0.00 0.00 0.00 0.00 0.00 0.00 0.00 0.00 0.04 0.11 0.17 0.24 0.30 0.33 0.30 0.30 0.29 0.25 0.27 0.28 0.28
0.60 0.50 0.49 0.31 0.25 0.12 0.05 0.11 0.18 0.13 0.30 0.52 0.24 0.15 0.19 0.19 0.10 0.07 0.02 0.01 0.01 0.01 0.00 0.00 0.00 0.00 0.00 0.00 0.00 0.01 0.01 0.01 0.03 0.09 0.13 0.16 0.21 0.26 0.24 0.26 0.33 0.44 0.57 0.69
0.62 0.46 0.55 0.27 0.12 0.11 0.09 0.08 0.06 0.07 0.13 0.62 0.28 0.20 0.15 0.14 0.14 0.09 0.06 0.04 0.01 0.01 0.02 0.02 0.01 0.01 0.02 0.02 0.02 0.01 0.01 0.01 0.02 0.03 0.05 0.09 0.18 0.24 0.20 0.25 0.30 0.33 0.40 0.45
0.98 1.05 0.73 0.46 0.23 0.24 0.13 0.11 0.16 0.23 0.34 0.35 0.41 0.15 0.14 0.11 0.10 0.12 0.11 0.11 0.11 0.08 0.04 0.03 0.04 0.05 0.04 0.04 0.03 0.03 0.03 0.06 0.07 0.08 0.10 0.10 0.18 0.21 0.19 0.29 0.44 0.46 0.66 0.77
0.77 1.21 1.11 1.06 0.55 0.65 0.33 0.37 0.53 0.40 0.31 0.43 0.30 0.10 0.03 0.11 0.18 0.21 0.34 0.34 0.21 0.13 0.13 0.14 0.11 0.09 0.08 0.09 0.11 0.11 0.11 0.13 0.14 0.13 0.17 0.23 0.19 0.25 0.30 0.41 0.79 1.03 1.14 1.15

GFSCGP_prec_precacc_120.txt.gz
Total_Precipitation_Accumulation
0.00 0.00 0.00 0.00 0.00 0.00 0.00 0.00 0.00 0.00 0.00 0.00 0.00 0.00 0.00 0.00 0.01 0.03 0.04 0.03 0.01 0.00 0.00 0.01 0.01 0.04 0.03 0.16 0.49 0.75 0.83 0.94 0.82 0.38 0.34 0.35 0.47 0.66 0.75 0.87 0.63 1.18 0.98 0.62
0.00 0.00 0.00 0.00 0.00 0.00 0.00 0.00 0.00 0.00 0.00 0.00 0.00 0.00 0.00 0.00 0.00 0.00 0.01 0.01 0.00 0.00 0.00 0.01 0.05 0.11 0.18 0.33 0.37 0.23 0.09 0.06 0.10 0.11 0.15 0.17 0.20 0.42 0.49 1.08 0.77 0.81 0.88 0.34
0.01 0.01 0.00 0.00 0.00 0.00 0.00 0.00 0.00 0.00 0.00 0.00 0.00 0.00 0.00 0.00 0.01 0.01 0.01 0.00 0.00 0.00 0.00 0.04 0.06 0.07 0.06 0.04 0.10 0.05 0.04 0.03 0.03 0.06 0.09 0.17 0.12 0.20 0.35 1.04 1.12 0.76 0.73 0.46
0.02 0.00 0.00 0.00 0.00 0.00 0.01 0.00 0.00 0.00 0.00 0.02 0.00 0.00 0.01 0.00 0.00 0.00 0.01 0.01 0.01 0.00 0.01 0.01 0.00 0.01 0.01 0.06 0.03 0.06 0.10 0.05 0.05 0.03 0.04 0.06 0.09 0.11 0.19 0.43 0.68 0.77 0.59 0.53
0.01 0.00 0.00 0.00 0.00 0.00 0.01 0.00 0.00 0.00 0.00 0.01 0.02 0.00 0.02 0.00 0.00 0.00 0.00 0.00 0.00 0.00 0.00 0.00 0.00 0.01 0.03 0.04 0.06 0.10 0.09 0.11 0.12 0.07 0.08 0.09 0.10 0.18 0.20 0.31 0.62 0.70 0.74 0.66
0.01 0.01 0.01 0.01 0.00 0.00 0.00 0.00 0.00 0.00 0.00 0.00 0.01 0.02 0.01 0.01 0.01 0.03 0.02 0.00 0.00 0.00 0.01 0.00 0.01 0.00 0.01 0.03 0.03 0.08 0.12 0.16 0.19 0.18 0.14 0.18 0.24 0.17 0.15 0.24 0.65 0.76 0.77 0.78
0.00 0.00 0.01 0.01 0.00 0.00 0.00 0.00 0.01 0.11 0.05 0.02 0.05 0.05 0.03 0.00 0.00 0.01 0.01 0.00 0.00 0.01 0.01 0.00 0.00 0.01 0.03 0.04 0.07 0.16 0.17 0.20 0.21 0.19 0.28 0.21 0.19 0.15 0.09 0.10 0.18 0.56 0.91 0.84
0.02 0.01 0.01 0.01 0.00 0.03 0.01 0.01 0.04 0.09 0.06 0.06 0.06 0.02 0.01 0.01 0.00 0.00 0.00 0.00 0.00 0.00 0.00 0.00 0.01 0.03 0.06 0.05 0.12 0.28 0.31 0.25 0.24 0.24 0.27 0.27 0.14 0.11 0.15 0.07 0.13 0.17 0.48 0.64
0.16 0.08 0.01 0.00 0.01 0.01 0.02 0.02 0.00 0.00 0.02 0.04 0.01 0.00 0.00 0.00 0.00 0.00 0.00 0.00 0.00 0.00 0.00 0.00 0.01 0.04 0.05 0.06 0.10 0.21 0.22 0.12 0.16 0.18 0.17 0.19 0.19 0.12 0.16 0.15 0.12 0.28 0.42 0.75
0.33 0.29 0.05 0.05 0.02 0.00 0.01 0.00 0.01 0.00 0.00 0.03 0.00 0.01 0.02 0.02 0.01 0.01 0.00 0.00 0.00 0.00 0.00 0.00 0.00 0.02 0.04 0.06 0.13 0.18 0.11 0.08 0.04 0.04 0.09 0.13 0.18 0.21 0.21 0.30 0.42 0.57 0.51 0.71
0.40 0.34 0.16 0.27 0.20 0.06 0.11 0.05 0.01 0.00 0.00 0.04 0.08 0.02 0.00 0.01 0.01 0.02 0.01 0.00 0.01 0.02 0.02 0.01 0.00 0.01 0.04 0.08 0.13 0.19 0.22 0.19 0.20 0.19 0.18 0.13 0.12 0.26 0.46 0.53 0.87 0.72 0.73 1.08
0.35 0.39 0.12 0.10 0.33 0.14 0.04 0.07 0.02 0.02 0.02 0.01 0.03 0.01 0.00 0.00 0.00 0.02 0.04 0.01 0.00 0.00 0.01 0.01 0.02 0.05 0.10 0.13 0.14 0.11 0.31 0.54 0.39 0.32 0.34 0.30 0.43 0.68 0.99 0.97 1.13 1.38 1.68 1.63
0.39 0.41 0.24 0.19 0.37 0.25 0.16 0.03 0.01 0.01 0.00 0.01 0.05 0.02 0.04 0.04 0.02 0.02 0.06 0.11 0.06 0.00 0.02 0.04 0.06 0.09 0.15 0.19 0.25 0.24 0.25 0.41 0.44 0.63 0.55 0.78 0.92 0.79 0.98 0.90 0.83 0.94 0.99 1.04
0.40 0.57 0.52 0.49 0.33 0.36 0.34 0.18 0.06 0.05 0.03 0.00 0.00 0.02 0.10 0.11 0.14 0.21 0.31 0.35 0.46 0.04 0.03 0.07 0.14 0.17 0.22 0.33 0.39 0.34 0.32 0.32 0.39 0.46 0.43 0.44 0.50 0.67 0.59 0.73 0.88 1.08 1.04 0.80
0.19 0.44 0.35 0.17 0.03 0.02 0.18 0.20 0.09 0.10 0.05 0.04 0.00 0.00 0.02 0.15 0.19 0.26 0.17 0.10 0.10 0.07 0.10 0.07 0.18 0.35 0.23 0.33 0.40 0.36 0.36 0.32 0.31 0.36 0.38 0.33 0.38 0.48 0.49 0.43 0.39 0.38 0.43 0.39
0.17 0.23 0.11 0.09 0.03 0.02 0.07 0.28 0.15 0.05 0.08 0.06 0.02 0.00 0.00 0.05 0.17 0.35 0.29 0.16 0.12 0.15 0.10 0.12 0.10 0.13 0.17 0.26 0.34 0.34 0.39 0.38 0.36 0.31 0.33 0.28 0.31 0.33 0.36 0.38 0.32 0.29 0.28 0.24
0.29 0.24 0.16 0.07 0.03 0.07 0.31 0.23 0.32 0.28 0.14 0.08 0.12 0.05 0.06 0.14 0.32 0.55 1.03 0.64 0.19 0.06 0.05 0.03 0.04 0.13 0.14 0.24 0.32 0.42 0.42 0.44 0.32 0.26 0.31 0.28 0.24 0.24 0.21 0.17 0.18 0.18 0.19 0.20
0.30 0.33 0.28 0.12 0.09 0.42 0.35 0.06 0.04 0.07 0.20 0.12 0.09 0.21 0.24 0.16 0.40 0.44 0.65 0.68 0.17 0.03 0.01 0.01 0.01 0.03 0.03 0.06 0.16 0.27 0.43 0.42 0.50 0.40 0.29 0.25 0.20 0.12 0.08 0.10 0.17 0.18 0.15 0.12
0.17 0.30 0.43 0.27 0.18 0.20 0.14 0.04 0.01 0.04 0.12 0.09 0.11 0.42 0.39 0.30 0.18 0.15 0.08 0.11 0.14 0.07 0.04 0.01 0.00 0.00 0.00 0.00 0.01 0.06 0.16 0.33 0.40 0.45 0.50 0.39 0.28 0.30 0.26 0.20 0.14 0.10 0.15 0.15
0.08 0.16 0.41 0.37 0.37 0.21 0.12 0.02 0.02 0.09 0.38 0.30 0.25 0.43 0.56 0.35 0.38 0.19 0.08 0.10 0.08 0.03 0.01 0.00 0.00 0.00 0.00 0.00 0.00 0.02 0.05 0.16 0.26 0.34 0.63 0.76 0.60 0.43 0.30 0.22 0.16 0.13 0.12 0.15
0.37 0.40 0.36 0.29 0.36 0.12 0.04 0.04 0.11 0.49 0.61 0.42 0.94 0.77 0.77 0.74 0.65 0.36 0.15 0.06 0.01 0.00 0.00 0.00 0.00 0.00 0.00 0.00 0.00 0.00 0.02 0.10 0.23 0.29 0.51 0.61 0.65 0.54 0.42 0.31 0.22 0.19 0.19 0.18
0.48 0.62 0.58 0.50 0.45 0.28 0.09 0.17 0.40 0.37 0.24 0.68 1.01 0.70 0.44 0.29 0.20 0.21 0.08 0.01 0.00 0.00 0.00 0.00 0.00 0.00 0.00 0.00 0.00 0.00 0.00 0.04 0.11 0.17 0.27 0.45 0.58 0.62 0.52 0.38 0.33 0.34 0.33 0.33
0.70 0.54 0.53 0.36 0.31 0.20 0.06 0.13 0.20 0.13 0.30 0.73 0.79 0.51 0.31 0.21 0.10 0.07 0.02 0.01 0.01 0.01 0.00 0.00 0.00 0.00 0.00 0.00 0.00 0.01 0.01 0.01 0.03 0.09 0.13 0.18 0.27 0.40 0.46 0.43 0.42 0.53 0.74 0.83
0.63 0.47 0.56 0.28 0.14 0.11 0.10 0.08 0.07 0.07 0.14 0.75 0.62 0.27 0.17 0.15 0.14 0.09 0.06 0.04 0.01 0.01 0.02 0.02 0.01 0.01 0.02 0.02 0.02 0.01 0.01 0.01 0.02 0.03 0.05 0.09 0.20 0.30 0.32 0.43 0.41 0.40 0.51 0.73
0.99 1.06 0.73 0.47 0.24 0.26 0.14 0.11 0.17 0.24 0.35 0.39 0.57 0.25 0.15 0.11 0.10 0.13 0.11 0.11 0.12 0.08 0.04 0.03 0.04 0.05 0.04 0.04 0.03 0.03 0.03 0.06 0.07 0.08 0.10 0.11 0.18 0.22 0.24 0.39 0.56 0.54 0.74 0.85
0.80 1.22 1.12 1.08 0.59 0.69 0.34 0.39 0.53 0.42 0.33 0.45 0.33 0.23 0.09 0.11 0.18 0.21 0.34 0.34 0.21 0.13 0.13 0.14 0.11 0.09 0.08 0.09 0.11 0.11 0.11 0.13 0.14 0.14 0.17 0.23 0.19 0.25 0.31 0.43 0.85 1.12 1.21 1.21

GFSCGP_prec_precacc_123.txt.gz
Total_Precipitation_Accumulation
0.00 0.00 0.00 0.00 0.00 0.00 0.00 0.00 0.00 0.00 0.00 0.00 0.00 0.00 0.00 0.00 0.01 0.03 0.04 0.03 0.01 0.00 0.00 0.01 0.01 0.04 0.03 0.16 0.49 0.75 0.83 0.94 0.82 0.38 0.34 0.35 0.47 0.66 0.75 0.87 0.63 1.18 0.98 0.62
0.00 0.00 0.00 0.00 0.00 0.00 0.00 0.00 0.00 0.00 0.00 0.00 0.00 0.00 0.00 0.00 0.00 0.00 0.01 0.01 0.00 0.00 0.00 0.01 0.05 0.11 0.18 0.33 0.37 0.23 0.09 0.06 0.10 0.11 0.15 0.17 0.20 0.42 0.49 1.08 0.77 0.81 0.89 0.34
0.01 0.01 0.00 0.00 0.00 0.00 0.00 0.00 0.00 0.00 0.00 0.00 0.00 0.00 0.00 0.00 0.01 0.01 0.01 0.00 0.00 0.00 0.00 0.04 0.06 0.07 0.06 0.04 0.10 0.05 0.04 0.03 0.03 0.06 0.09 0.17 0.12 0.20 0.35 1.04 1.12 0.76 0.73 0.47
0.02 0.00 0.00 0.00 0.00 0.00 0.01 0.00 0.00 0.00 0.00 0.02 0.00 0.00 0.01 0.00 0.00 0.00 0.01 0.01 0.01 0.00 0.01 0.01 0.00 0.01 0.01 0.06 0.03 0.06 0.10 0.05 0.05 0.03 0.04 0.06 0.09 0.11 0.19 0.43 0.68 0.77 0.59 0.54
0.01 0.00 0.00 0.00 0.00 0.00 0.01 0.00 0.00 0.00 0.00 0.01 0.02 0.00 0.02 0.00 0.00 0.00 0.00 0.00 0.00 0.00 0.00 0.00 0.00 0.01 0.03 0.04 0.06 0.10 0.09 0.11 0.12 0.07 0.08 0.09 0.10 0.18 0.20 0.31 0.62 0.71 0.74 0.66
0.01 0.01 0.01 0.01 0.00 0.00 0.00 0.00 0.00 0.00 0.00 0.00 0.01 0.02 0.01 0.01 0.01 0.03 0.02 0.00 0.00 0.00 0.01 0.00 0.01 0.00 0.01 0.03 0.03 0.08 0.12 0.16 0.19 0.18 0.14 0.18 0.24 0.17 0.15 0.24 0.65 0.77 0.77 0.78
0.00 0.00 0.01 0.01 0.00 0.00 0.00 0.02 0.03 0.12 0.05 0.02 0.05 0.05 0.03 0.00 0.00 0.01 0.01 0.00 0.00 0.01 0.01 0.00 0.00 0.01 0.03 0.04 0.07 0.16 0.17 0.20 0.21 0.19 0.28 0.21 0.19 0.15 0.10 0.10 0.18 0.56 0.91 0.84
0.02 0.01 0.01 0.01 0.00 0.04 0.01 0.02 0.11 0.13 0.06 0.06 0.06 0.02 0.01 0.01 0.00 0.00 0.00 0.00 0.00 0.00 0.00 0.00 0.01 0.03 0.06 0.05 0.12 0.28 0.31 0.25 0.25 0.24 0.27 0.27 0.14 0.11 0.15 0.07 0.13 0.17 0.48 0.64
0.16 0.08 0.01 0.00 0.01 0.03 0.09 0.05 0.03 0.05 0.03 0.04 0.01 0.00 0.00 0.00 0.00 0.00 0.00 0.00 0.00 0.00 0.00 0.00 0.01 0.04 0.05 0.06 0.10 0.21 0.22 0.12 0.16 0.18 0.17 0.19 0.19 0.13 0.17 0.16 0.12 0.28 0.42 0.75
0.33 0.29 0.05 0.05 0.03 0.02 0.09 0.07 0.08 0.03 0.01 0.03 0.00 0.01 0.02 0.02 0.01 0.01 0.00 0.00 0.00 0.00 0.06 0.05 0.03 0.03 0.04 0.06 0.13 0.18 0.11 0.08 0.04 0.04 0.09 0.13 0.18 0.22 0.21 0.30 0.43 0.57 0.51 0.71
0.40 0.34 0.16 0.27 0.26 0.09 0.15 0.26 0.14 0.09 0.01 0.04 0.08 0.02 0.00 0.01 0.01 0.02 0.01 0.01 0.03 0.14 0.13 0.08 0.02 0.01 0.04 0.08 0.13 0.19 0.22 0.19 0.20 0.19 0.18 0.14 0.13 0.26 0.47 0.53 0.87 0.72 0.73 1.08
0.35 0.39 0.12 0.10 0.33 0.14 0.05 0.15 0.12 0.16 0.07 0.01 0.03 0.01 0.00 0.00 0.00 0.02 0.05 0.03 0.08 0.21 0.12 0.02 0.02 0.05 0.10 0.13 0.14 0.11 0.31 0.54 0.40 0.33 0.34 0.31 0.45 0.69 1.00 0.98 1.13 1.38 1.68 1.63
0.39 0.41 0.25 0.19 0.37 0.25 0.16 0.03 0.02 0.03 0.04 0.02 0.05 0.02 0.04 0.04 0.03 0.11 0.19 0.24 0.21 0.14 0.05 0.04 0.06 0.09 0.15 0.19 0.25 0.24 0.25 0.42 0.46 0.64 0.57 0.81 0.95 0.81 0.99 0.90 0.84 0.94 0.99 1.04
0.40 0.57 0.54 0.51 0.33 0.36 0.34 0.18 0.08 0.10 0.08 0.01 0.01 0.02 0.12 0.12 0.16 0.37 0.60 0.59 0.78 0.46 0.22 0.14 0.14 0.17 0.22 0.33 0.39 0.34 0.32 0.33 0.40 0.48 0.47 0.48 0.54 0.70 0.61 0.74 0.89 1.08 1.04 0.80
0.19 0.44 0.35 0.17 0.03 0.02 0.18 0.20 0.16 0.20 0.10 0.07 0.00 0.02 0.08 0.18 0.21 0.36 0.51 0.61 0.31 0.23 0.16 0.11 0.18 0.35 0.23 0.33 0.40 0.36 0.36 0.32 0.32 0.36 0.39 0.36 0.41 0.52 0.52 0.45 0.41 0.39 0.43 0.39
0.17 0.23 0.11 0.09 0.03 0.02 0.08 0.37 0.37 0.19 0.14 0.10 0.04 0.03 0.04 0.09 0.18 0.43 0.62 0.47 0.69 0.24 0.10 0.12 0.10 0.13 0.17 0.26 0.34 0.34 0.39 0.39 0.38 0.32 0.34 0.29 0.32 0.36 0.40 0.40 0.35 0.30 0.28 0.24
0.29 0.24 0.16 0.08 0.03 0.09 0.44 0.42 0.52 0.88 0.27 0.17 0.30 0.16 0.12 0.16 0.33 0.56 1.17 2.03 1.29 0.46 0.07 0.03 0.04 0.13 0.14 0.24 0.32 0.42 0.42 0.44 0.32 0.28 0.33 0.30 0.26 0.26 0.22 0.18 0.21 0.20 0.20 0.20
0.30 0.34 0.30 0.12 0.09 0.46 0.44 0.09 0.06 0.23 0.53 0.42 0.17 0.26 0.33 0.16 0.41 0.45 0.68 1.07 0.81 0.36 0.06 0.01 0.01 0.03 0.03 0.06 0.16 0.27 0.43 0.42 0.50 0.40 0.30 0.28 0.23 0.14 0.09 0.10 0.19 0.24 0.18 0.13
0.18 0.31 0.45 0.28 0.19 0.21 0.22 0.04 0.01 0.05 0.20 0.17 0.20 0.47 0.56 0.35 0.19 0.15 0.08 0.12 0.19 0.11 0.04 0.01 0.00 0.00 0.00 0.00 0.01 0.06 0.16 0.33 0.40 0.45 0.50 0.41 0.30 0.32 0.28 0.21 0.15 0.15 0.20 0.18
0.10 0.18 0.44 0.41 0.43 0.28 0.17 0.02 0.02 0.10 0.43 0.32 0.31 0.47 0.60 0.47 0.47 0.25 0.09 0.10 0.08 0.03 0.01 0.00 0.00 0.00 0.00 0.00 0.00 0.02 0.05 0.16 0.26 0.34 0.63 0.77 0.65 0.49 0.33 0.24 0.17 0.13 0.15 0.18
0.37 0.40 0.37 0.31 0.42 0.22 0.07 0.04 0.11 0.50 0.65 0.47 1.13 0.85 0.87 1.11 0.98 0.49 0.19 0.06 0.01 0.00 0.00 0.00 0.00 0.00 0.00 0.00 0.00 0.00 0.02 0.10 0.23 0.29 0.51 0.61 0.66 0.60 0.56 0.42 0.28 0.21 0.21 0.20
0.50 0.63 0.58 0.51 0.49 0.33 0.10 0.17 0.43 0.42 0.26 0.73 1.25 0.92 0.53 0.47 0.54 0.37 0.15 0.02 0.00 0.00 0.00 0.00 0.00 0.00 0.00 0.00 0.00 0.00 0.00 0.04 0.11 0.17 0.27 0.45 0.58 0.63 0.62 0.55 0.47 0.43 0.39 0.38
0.77 0.58 0.55 0.42 0.45 0.28 0.07 0.15 0.22 0.16 0.33 0.78 0.94 0.80 0.44 0.25 0.13 0.08 0.02 0.01 0.01 0.01 0.00 0.00 0.00 0.00 0.00 0.00 0.00 0.01 0.01 0.01 0.03 0.09 0.13 0.18 0.27 0.41 0.54 0.59 0.58 0.69 0.92 0.97
0.63 0.47 0.57 0.30 0.19 0.12 0.10 0.08 0.08 0.09 0.15 0.77 0.69 0.40 0.30 0.19 0.17 0.10 0.06 0.04 0.01 0.01 0.02 0.02 0.01 0.01 0.02 0.02 0.02 0.01 0.01 0.01 0.02 0.03 0.05 0.09 0.20 0.30 0.32 0.50 0.58 0.58 0.72 1.01
0.99 1.06 0.73 0.47 0.24 0.26 0.15 0.12 0.18 0.24 0.37 0.40 0.60 0.28 0.20 0.15 0.12 0.13 0.11 0.11 0.12 0.08 0.04 0.03 0.04 0.05 0.04 0.04 0.03 0.03 0.03 0.06 0.07 0.08 0.10 0.11 0.18 0.22 0.24 0.40 0.64 0.71 0.96 1.14
0.81 1.22 1.12 1.08 0.59 0.69 0.35 0.40 0.54 0.42 0.33 0.46 0.35 0.24 0.11 0.14 0.19 0.22 0.34 0.34 0.21 0.14 0.13 0.14 0.11 0.09 0.08 0.09 0.11 0.12 0.12 0.13 0.14 0.14 0.17 0.24 0.19 0.26 0.31 0.43 0.87 1.18 1.35 1.41

GFSCGP_prec_precacc_129.txt.gz
Total_Precipitation_Accumulation
0.00 0.00 0.00 0.00 0.00 0.00 0.00 0.00 0.00 0.00 0.00 0.00 0.00 0.00 0.00 0.00 0.01 0.03 0.04 0.03 0.01 0.00 0.00 0.01 0.01 0.04 0.03 0.16 0.49 0.75 0.83 0.94 0.82 0.38 0.34 0.35 0.47 0.66 0.75 0.87 0.63 1.18 0.98 0.62
0.00 0.00 0.00 0.00 0.00 0.00 0.00 0.00 0.00 0.00 0.00 0.00 0.00 0.00 0.00 0.00 0.00 0.00 0.01 0.01 0.00 0.00 0.00 0.01 0.05 0.11 0.18 0.33 0.37 0.23 0.09 0.06 0.10 0.11 0.15 0.17 0.20 0.42 0.49 1.08 0.77 0.81 0.89 0.35
0.01 0.01 0.00 0.00 0.00 0.00 0.00 0.00 0.00 0.00 0.00 0.00 0.00 0.00 0.00 0.00 0.01 0.01 0.01 0.00 0.00 0.00 0.00 0.04 0.06 0.07 0.06 0.04 0.10 0.05 0.04 0.03 0.03 0.06 0.09 0.17 0.17 0.25 0.37 1.04 1.12 0.76 0.74 0.48
0.02 0.00 0.00 0.00 0.00 0.00 0.01 0.00 0.00 0.00 0.00 0.02 0.00 0.00 0.01 0.00 0.00 0.00 0.01 0.01 0.01 0.00 0.01 0.01 0.00 0.01 0.01 0.06 0.03 0.06 0.10 0.05 0.05 0.03 0.04 0.06 0.09 0.11 0.19 0.43 0.68 0.78 0.60 0.55
0.01 0.00 0.00 0.00 0.00 0.00 0.01 0.00 0.00 0.00 0.00 0.01 0.02 0.00 0.02 0.00 0.00 0.00 0.00 0.00 0.00 0.00 0.00 0.00 0.00 0.01 0.03 0.04 0.06 0.10 0.09 0.11 0.12 0.07 0.08 0.09 0.10 0.18 0.20 0.31 0.62 0.71 0.74 0.67
0.01 0.01 0.01 0.01 0.00 0.00 0.00 0.00 0.00 0.00 0.00 0.00 0.01 0.02 0.01 0.01 0.01 0.03 0.02 0.00 0.00 0.00 0.01 0.00 0.01 0.00 0.01 0.03 0.03 0.08 0.12 0.16 0.19 0.18 0.14 0.18 0.24 0.17 0.15 0.24 0.66 0.78 0.77 0.78
0.00 0.00 0.01 0.01 0.00 0.00 0.00 0.02 0.06 0.13 0.05 0.02 0.05 0.05 0.03 0.00 0.00 0.01 0.01 0.00 0.00 0.01 0.01 0.00 0.00 0.01 0.03 0.04 0.07 0.16 0.17 0.20 0.21 0.19 0.28 0.21 0.19 0.16 0.10 0.10 0.19 0.56 0.91 0.85
0.02 0.01 0.01 0.01 0.00 0.04 0.02 0.03 0.23 0.35 0.09 0.07 0.06 0.02 0.01 0.01 0.01 0.02 0.01 0.01 0.00 0.00 0.00 0.00 0.01 0.03 0.06 0.05 0.12 0.28 0.31 0.25 0.26 0.26 0.32 0.32 0.21 0.19 0.18 0.08 0.13 0.17 0.48 0.64
0.16 0.08 0.01 0.00 0.01 0.04 0.12 0.08 0.08 0.30 0.08 0.08 0.01 0.00 0.00 0.01 0.03 0.06 0.05 0.04 0.10 0.07 0.07 0.05 0.04 0.06 0.06 0.06 0.10 0.21 0.22 0.13 0.23 0.30 0.28 0.31 0.31 0.19 0.19 0.17 0.14 0.29 0.42 0.75
0.33 0.29 0.05 0.05 0.03 0.02 0.11 0.10 0.16 0.17 0.16 0.11 0.00 0.01 0.02 0.02 0.03 0.02 0.01 0.04 0.31 0.33 0.32 0.28 0.21 0.15 0.12 0.10 0.16 0.21 0.16 0.13 0.10 0.13 0.18 0.23 0.27 0.31 0.27 0.33 0.43 0.58 0.51 0.71
0.40 0.34 0.16 0.27 0.26 0.09 0.15 0.26 0.20 0.24 0.11 0.20 0.13 0.02 0.02 0.05 0.07 0.03 0.08 0.13 0.17 0.64 0.65 0.43 0.24 0.15 0.15 0.17 0.19 0.25 0.28 0.24 0.25 0.25 0.24 0.18 0.18 0.37 0.53 0.57 0.90 0.73 0.74 1.09
0.35 0.39 0.12 0.10 0.33 0.14 0.05 0.15 0.15 0.44 0.25 0.08 0.10 0.03 0.01 0.06 0.08 0.07 0.28 0.39 0.32 0.57 0.80 0.41 0.12 0.10 0.13 0.16 0.16 0.13 0.32 0.56 0.42 0.35 0.37 0.32 0.47 0.73 1.09 1.07 1.19 1.39 1.69 1.65
0.39 0.41 0.25 0.19 0.37 0.25 0.16 0.03 0.02 0.12 0.17 0.14 0.17 0.04 0.04 0.06 0.11 0.20 0.67 0.76 0.67 0.59 0.48 0.34 0.12 0.10 0.16 0.19 0.25 0.24 0.25 0.42 0.46 0.64 0.57 0.81 0.96 0.86 1.07 0.98 0.94 1.01 1.03 1.06
0.40 0.57 0.55 0.52 0.33 0.36 0.34 0.19 0.09 0.33 0.43 0.11 0.08 0.09 0.13 0.14 0.25 0.46 1.26 1.27 1.21 0.81 0.63 0.38 0.18 0.18 0.24 0.34 0.39 0.34 0.32 0.33 0.40 0.48 0.47 0.49 0.55 0.74 0.72 0.82 0.94 1.15 1.09 0.84
0.19 0.44 0.35 0.17 0.03 0.02 0.18 0.26 0.30 0.57 0.31 0.30 0.14 0.08 0.12 0.26 0.35 0.46 0.74 1.14 1.12 1.13 0.76 0.36 0.23 0.35 0.24 0.33 0.40 0.36 0.36 0.32 0.32 0.36 0.40 0.37 0.47 0.57 0.57 0.59 0.55 0.46 0.47 0.43
0.17 0.23 0.11 0.09 0.03 0.02 0.15 0.50 0.49 0.46 0.32 0.15 0.07 0.06 0.12 0.27 0.44 0.50 0.70 0.74 1.61 1.09 0.72 0.40 0.16 0.15 0.17 0.26 0.34 0.34 0.39 0.39 0.38 0.32 0.34 0.29 0.33 0.43 0.51 0.50 0.50 0.48 0.41 0.26
0.29 0.24 0.16 0.08 0.03 0.09 0.58 0.46 0.56 1.20 0.51 0.35 0.55 0.44 0.45 0.66 0.70 0.64 1.23 2.16 1.59 0.92 0.82 0.37 0.19 0.16 0.14 0.24 0.32 0.42 0.42 0.44 0.32 0.28 0.33 0.30 0.26 0.28 0.26 0.27 0.34 0.32 0.25 0.21
0.30 0.34 0.30 0.12 0.09 0.47 0.48 0.11 0.06 0.33 0.67 0.52 0.35 0.58 0.72 0.51 0.61 0.49 0.71 1.11 0.90 0.58 0.72 0.26 0.05 0.04 0.03 0.06 0.16 0.27 0.43 0.42 0.50 0.40 0.30 0.28 0.23 0.15 0.11 0.13 0.23 0.35 0.36 0.22
0.20 0.33 0.50 0.31 0.20 0.22 0.23 0.05 0.01 0.07 0.30 0.22 0.38 0.78 0.88 0.74 0.49 0.23 0.09 0.12 0.20 0.11 0.06 0.02 0.00 0.00 0.00 0.00 0.01 0.06 0.16 0.33 0.40 0.45 0.50 0.41 0.30 0.32 0.30 0.23 0.18 0.17 0.26 0.29
0.10 0.18 0.46 0.42 0.44 0.32 0.22 0.02 0.02 0.12 0.54 0.35 0.48 0.63 0.81 0.60 0.56 0.36 0.13 0.10 0.09 0.03 0.01 0.00 0.00 0.00 0.00 0.00 0.00 0.02 0.05 0.16 0.26 0.34 0.63 0.77 0.65 0.49 0.34 0.26 0.21 0.18 0.21 0.26
0.37 0.40 0.37 0.31 0.43 0.30 0.11 0.04 0.11 0.51 0.69 0.54 1.33 1.09 1.06 1.26 1.15 0.63 0.28 0.09 0.02 0.00 0.00 0.00 0.00 0.00 0.00 0.00 0.00 0.00 0.02 0.10 0.23 0.29 0.51 0.61 0.66 0.60 0.56 0.43 0.30 0.23 0.24 0.26
0.50 0.63 0.58 0.51 0.50 0.35 0.10 0.17 0.45 0.45 0.29 0.79 1.33 1.07 0.69 0.61 0.66 0.44 0.18 0.05 0.00 0.00 0.00 0.00 0.00 0.00 0.00 0.00 0.00 0.00 0.00 0.04 0.11 0.17 0.27 0.45 0.58 0.63 0.62 0.55 0.47 0.45 0.42 0.44
0.78 0.58 0.55 0.43 0.47 0.29 0.07 0.15 0.24 0.18 0.35 0.81 0.98 0.88 0.57 0.36 0.23 0.14 0.03 0.01 0.01 0.01 0.00 0.00 0.00 0.00 0.00 0.00 0.01 0.01 0.01 0.01 0.03 0.09 0.13 0.18 0.27 0.41 0.54 0.59 0.58 0.70 0.95 1.06
0.63 0.47 0.57 0.31 0.21 0.12 0.10 0.09 0.08 0.10 0.16 0.79 0.72 0.43 0.35 0.28 0.27 0.16 0.08 0.04 0.02 0.01 0.02 0.02 0.01 0.01 0.02 0.02 0.02 0.02 0.01 0.01 0.02 0.03 0.05 0.09 0.20 0.30 0.32 0.50 0.58 0.59 0.76 1.09
1.00 1.06 0.73 0.47 0.24 0.26 0.15 0.12 0.18 0.25 0.37 0.41 0.61 0.29 0.24 0.20 0.19 0.20 0.13 0.12 0.12 0.08 0.04 0.03 0.04 0.05 0.04 0.04 0.04 0.03 0.04 0.06 0.07 0.08 0.10 0.11 0.18 0.23 0.24 0.40 0.65 0.72 1.02 1.26
0.82 1.22 1.12 1.08 0.59 0.69 0.35 0.40 0.54 0.43 0.34 0.47 0.35 0.25 0.13 0.16 0.22 0.24 0.38 0.36 0.21 0.14 0.13 0.14 0.11 0.09 0.08 0.10 0.11 0.12 0.12 0.13 0.14 0.14 0.17 0.24 0.20 0.26 0.31 0.43 0.88 1.20 1.37 1.47

GFSCGP_prec_precacc_132.txt.gz
Total_Precipitation_Accumulation
0.00 0.00 0.00 0.00 0.00 0.00 0.00 0.00 0.00 0.00 0.00 0.00 0.00 0.00 0.00 0.00 0.01 0.03 0.04 0.03 0.01 0.00 0.00 0.01 0.01 0.04 0.03 0.16 0.49 0.75 0.83 0.94 0.82 0.38 0.34 0.35 0.47 0.66 0.75 0.87 0.63 1.18 0.98 0.62
0.00 0.00 0.00 0.00 0.00 0.00 0.00 0.00 0.00 0.00 0.00 0.00 0.00 0.00 0.00 0.00 0.00 0.00 0.01 0.01 0.00 0.00 0.00 0.01 0.05 0.11 0.18 0.33 0.37 0.23 0.09 0.06 0.10 0.11 0.15 0.17 0.20 0.42 0.49 1.08 0.77 0.81 0.89 0.35
0.01 0.01 0.00 0.00 0.00 0.00 0.00 0.00 0.00 0.00 0.00 0.00 0.00 0.00 0.00 0.00 0.01 0.01 0.01 0.00 0.00 0.00 0.00 0.04 0.06 0.07 0.06 0.04 0.10 0.05 0.04 0.03 0.03 0.06 0.09 0.17 0.17 0.26 0.37 1.04 1.12 0.76 0.74 0.48
0.02 0.00 0.00 0.00 0.00 0.00 0.01 0.00 0.00 0.00 0.00 0.02 0.00 0.00 0.01 0.00 0.00 0.00 0.01 0.01 0.01 0.00 0.01 0.01 0.00 0.01 0.01 0.06 0.03 0.06 0.10 0.05 0.05 0.03 0.04 0.06 0.09 0.11 0.19 0.43 0.68 0.78 0.60 0.55
0.01 0.00 0.00 0.00 0.00 0.00 0.01 0.00 0.00 0.00 0.00 0.01 0.02 0.00 0.02 0.00 0.00 0.00 0.00 0.01 0.00 0.00 0.00 0.00 0.00 0.01 0.03 0.04 0.06 0.10 0.09 0.11 0.12 0.07 0.08 0.09 0.10 0.18 0.20 0.31 0.62 0.71 0.74 0.67
0.01 0.01 0.01 0.01 0.00 0.00 0.00 0.00 0.00 0.00 0.00 0.00 0.01 0.02 0.01 0.01 0.01 0.04 0.08 0.04 0.01 0.00 0.01 0.00 0.01 0.00 0.01 0.03 0.03 0.08 0.12 0.16 0.19 0.18 0.14 0.18 0.24 0.17 0.15 0.24 0.66 0.78 0.79 0.79
0.00 0.00 0.01 0.01 0.00 0.00 0.00 0.02 0.06 0.13 0.05 0.02 0.05 0.05 0.03 0.00 0.01 0.09 0.11 0.02 0.02 0.05 0.04 0.01 0.01 0.01 0.03 0.04 0.07 0.16 0.17 0.20 0.21 0.19 0.28 0.21 0.19 0.16 0.10 0.10 0.19 0.57 0.91 0.85
0.02 0.01 0.01 0.01 0.00 0.04 0.02 0.03 0.24 0.36 0.09 0.07 0.06 0.02 0.01 0.01 0.04 0.08 0.11 0.08 0.11 0.15 0.10 0.03 0.01 0.03 0.06 0.05 0.12 0.28 0.31 0.25 0.26 0.27 0.32 0.32 0.21 0.19 0.19 0.09 0.13 0.17 0.48 0.64
0.16 0.08 0.01 0.00 0.01 0.04 0.12 0.08 0.08 0.31 0.08 0.09 0.01 0.00 0.00 0.01 0.03 0.06 0.09 0.11 0.22 0.20 0.17 0.10 0.07 0.08 0.07 0.07 0.10 0.21 0.22 0.16 0.25 0.32 0.32 0.35 0.37 0.31 0.25 0.21 0.19 0.31 0.42 0.75
0.33 0.29 0.05 0.05 0.03 0.02 0.11 0.10 0.17 0.19 0.17 0.12 0.00 0.01 0.02 0.03 0.03 0.02 0.02 0.10 0.45 0.38 0.37 0.37 0.31 0.22 0.15 0.11 0.17 0.22 0.20 0.20 0.22 0.32 0.35 0.36 0.39 0.47 0.39 0.44 0.51 0.61 0.52 0.71
0.40 0.34 0.16 0.27 0.26 0.09 0.15 0.26 0.20 0.25 0.12 0.25 0.16 0.02 0.03 0.07 0.08 0.04 0.10 0.27 0.33 0.69 0.66 0.61 0.47 0.34 0.24 0.21 0.24 0.29 0.34 0.35 0.41 0.43 0.40 0.32 0.33 0.54 0.71 0.72 1.02 0.83 0.80 1.11
0.35 0.39 0.12 0.10 0.33 0.14 0.05 0.15 0.15 0.52 0.30 0.12 0.17 0.05 0.01 0.07 0.09 0.09 0.35 0.55 0.52 0.65 0.87 0.98 0.63 0.30 0.23 0.22 0.19 0.17 0.38 0.63 0.51 0.49 0.53 0.46 0.58 0.85 1.25 1.25 1.36 1.54 1.82 1.77
0.39 0.41 0.25 0.19 0.37 0.25 0.16 0.03 0.03 0.16 0.23 0.17 0.23 0.05 0.04 0.06 0.12 0.24 0.72 0.84 0.77 0.79 0.75 1.03 0.81 0.34 0.21 0.20 0.27 0.25 0.27 0.47 0.52 0.73 0.69 0.97 1.09 0.98 1.20 1.10 1.09 1.12 1.13 1.14
0.40 0.57 0.55 0.52 0.33 0.36 0.34 0.19 0.09 0.36 0.49 0.14 0.09 0.10 0.13 0.15 0.28 0.51 1.29 1.33 1.28 1.02 1.03 1.00 0.70 0.30 0.31 0.45 0.42 0.36 0.33 0.35 0.42 0.50 0.51 0.56 0.62 0.81 0.84 0.95 1.04 1.21 1.15 0.93
0.19 0.44 0.35 0.17 0.03 0.02 0.18 0.26 0.30 0.57 0.35 0.36 0.17 0.09 0.16 0.34 0.51 0.56 0.78 1.17 1.16 1.27 1.07 0.66 0.50 0.44 0.26 0.38 0.43 0.37 0.38 0.33 0.33 0.37 0.40 0.38 0.47 0.58 0.57 0.60 0.57 0.47 0.47 0.46
0.17 0.23 0.11 0.09 0.03 0.02 0.15 0.50 0.49 0.46 0.33 0.15 0.07 0.07 0.19 0.41 0.60 0.54 0.74 0.77 1.63 1.22 1.01 0.81 0.47 0.25 0.18 0.26 0.34 0.34 0.39 0.39 0.38 0.32 0.35 0.31 0.33 0.43 0.52 0.50 0.50 0.49 0.46 0.34
0.29 0.24 0.16 0.08 0.03 0.09 0.59 0.46 0.56 1.20 0.52 0.38 0.60 0.55 0.52 0.71 0.77 0.71 1.29 2.19 1.61 0.96 1.01 0.66 0.50 0.36 0.17 0.24 0.32 0.42 0.42 0.44 0.32 0.28 0.34 0.30 0.27 0.29 0.28 0.30 0.35 0.36 0.33 0.54
0.30 0.34 0.30 0.12 0.09 0.47 0.48 0.11 0.06 0.33 0.69 0.55 0.39 0.64 0.80 0.59 0.75 0.64 0.74 1.13 0.91 0.58 0.73 0.32 0.13 0.10 0.05 0.07 0.16 0.27 0.43 0.42 0.50 0.40 0.30 0.28 0.23 0.15 0.11 0.13 0.25 0.36 0.40 0.31
0.20 0.33 0.50 0.31 0.20 0.22 0.23 0.05 0.01 0.07 0.30 0.22 0.39 0.79 0.90 0.77 0.55 0.27 0.10 0.13 0.21 0.11 0.06 0.02 0.00 0.00 0.00 0.00 0.01 0.06 0.16 0.33 0.40 0.45 0.50 0.41 0.30 0.32 0.30 0.23 0.18 0.18 0.26 0.35
0.10 0.18 0.46 0.43 0.44 0.32 0.22 0.02 0.02 0.12 0.55 0.36 0.49 0.65 0.82 0.61 0.56 0.37 0.14 0.11 0.09 0.03 0.01 0.00 0.00 0.00 0.00 0.00 0.00 0.02 0.05 0.16 0.26 0.34 0.63 0.77 0.65 0.49 0.34 0.26 0.21 0.18 0.21 0.28
0.37 0.40 0.37 0.31 0.43 0.30 0.11 0.04 0.11 0.51 0.69 0.54 1.34 1.12 1.07 1.28 1.18 0.65 0.28 0.09 0.02 0.00 0.00 0.00 0.00 0.00 0.00 0.00 0.00 0.00 0.02 0.10 0.23 0.29 0.51 0.61 0.66 0.60 0.56 0.43 0.30 0.23 0.24 0.27
0.50 0.63 0.58 0.51 0.50 0.35 0.10 0.17 0.45 0.45 0.29 0.80 1.34 1.10 0.72 0.63 0.68 0.45 0.18 0.05 0.00 0.00 0.00 0.00 0.00 0.00 0.00 0.00 0.00 0.00 0.00 0.04 0.11 0.17 0.27 0.45 0.58 0.63 0.62 0.55 0.47 0.45 0.42 0.44
0.78 0.58 0.55 0.43 0.47 0.29 0.07 0.15 0.24 0.18 0.36 0.81 0.99 0.90 0.59 0.39 0.26 0.15 0.04 0.01 0.01 0.01 0.00 0.00 0.00 0.00 0.00 0.00 0.01 0.02 0.02 0.01 0.03 0.09 0.13 0.18 0.27 0.41 0.54 0.59 0.58 0.70 0.95 1.06
0.63 0.47 0.57 0.31 0.21 0.12 0.10 0.09 0.08 0.10 0.16 0.79 0.73 0.45 0.37 0.30 0.29 0.17 0.08 0.04 0.02 0.01 0.02 0.02 0.01 0.02 0.02 0.02 0.02 0.02 0.01 0.01 0.02 0.03 0.05 0.09 0.20 0.30 0.32 0.50 0.58 0.59 0.77 1.09
1.00 1.06 0.73 0.47 0.24 0.26 0.15 0.12 0.18 0.25 0.37 0.41 0.61 0.30 0.24 0.20 0.20 0.21 0.14 0.12 0.12 0.08 0.04 0.03 0.04 0.06 0.05 0.04 0.04 0.03 0.04 0.06 0.07 0.08 0.10 0.11 0.18 0.23 0.25 0.41 0.65 0.72 1.03 1.27
0.82 1.22 1.12 1.08 0.59 0.69 0.35 0.40 0.54 0.43 0.34 0.48 0.36 0.25 0.14 0.16 0.22 0.24 0.38 0.36 0.21 0.14 0.13 0.14 0.11 0.09 0.08 0.10 0.11 0.12 0.12 0.13 0.14 0.14 0.17 0.24 0.20 0.26 0.31 0.44 0.89 1.21 1.38 1.48

GFSCGP_prec_precacc_135.txt.gz
Total_Precipitation_Accumulation
0.00 0.00 0.00 0.00 0.00 0.00 0.00 0.00 0.00 0.00 0.00 0.00 0.00 0.00 0.00 0.00 0.01 0.03 0.04 0.03 0.01 0.00 0.00 0.01 0.01 0.04 0.03 0.16 0.49 0.75 0.83 0.94 0.82 0.38 0.34 0.35 0.47 0.66 0.75 0.87 0.63 1.18 0.98 0.62
0.00 0.00 0.00 0.00 0.00 0.00 0.00 0.00 0.00 0.00 0.00 0.00 0.00 0.00 0.00 0.00 0.00 0.00 0.01 0.01 0.00 0.00 0.00 0.01 0.05 0.11 0.18 0.33 0.37 0.23 0.09 0.06 0.10 0.11 0.15 0.17 0.20 0.42 0.49 1.08 0.77 0.81 0.89 0.35
0.01 0.01 0.00 0.00 0.00 0.00 0.00 0.00 0.00 0.00 0.00 0.00 0.00 0.00 0.00 0.00 0.01 0.01 0.01 0.00 0.00 0.00 0.00 0.04 0.06 0.07 0.06 0.04 0.10 0.05 0.04 0.03 0.03 0.06 0.09 0.17 0.17 0.26 0.37 1.04 1.12 0.76 0.74 0.48
0.02 0.00 0.00 0.00 0.00 0.00 0.01 0.00 0.00 0.00 0.00 0.02 0.00 0.00 0.01 0.00 0.00 0.00 0.01 0.01 0.01 0.00 0.01 0.01 0.00 0.01 0.01 0.06 0.03 0.06 0.10 0.05 0.05 0.03 0.04 0.06 0.09 0.11 0.19 0.43 0.68 0.78 0.60 0.56
0.01 0.00 0.00 0.00 0.00 0.00 0.01 0.00 0.00 0.00 0.00 0.01 0.02 0.00 0.02 0.00 0.00 0.00 0.00 0.01 0.01 0.00 0.01 0.01 0.01 0.01 0.03 0.04 0.06 0.10 0.09 0.11 0.12 0.07 0.08 0.09 0.10 0.18 0.20 0.31 0.62 0.71 0.74 0.68
0.01 0.01 0.01 0.01 0.00 0.00 0.00 0.00 0.00 0.00 0.00 0.00 0.01 0.02 0.01 0.01 0.01 0.04 0.08 0.05 0.02 0.04 0.17 0.25 0.06 0.02 0.01 0.03 0.03 0.08 0.12 0.16 0.19 0.18 0.14 0.18 0.24 0.17 0.15 0.24 0.66 0.78 0.79 0.80
0.00 0.00 0.01 0.01 0.00 0.00 0.00 0.02 0.06 0.13 0.05 0.02 0.05 0.05 0.03 0.00 0.01 0.09 0.12 0.03 0.05 0.18 0.48 0.13 0.07 0.06 0.05 0.04 0.07 0.16 0.17 0.20 0.21 0.19 0.28 0.21 0.19 0.16 0.10 0.10 0.19 0.57 0.92 0.86
0.02 0.01 0.01 0.01 0.00 0.04 0.02 0.03 0.24 0.36 0.09 0.07 0.06 0.02 0.01 0.01 0.04 0.09 0.13 0.09 0.16 0.29 0.31 0.17 0.08 0.10 0.10 0.05 0.12 0.28 0.31 0.25 0.26 0.27 0.32 0.32 0.21 0.19 0.19 0.09 0.13 0.17 0.48 0.64
0.16 0.08 0.01 0.00 0.01 0.04 0.12 0.08 0.08 0.31 0.08 0.09 0.01 0.00 0.00 0.01 0.03 0.06 0.09 0.12 0.27 0.29 0.28 0.33 0.20 0.15 0.12 0.09 0.11 0.21 0.22 0.16 0.25 0.32 0.32 0.36 0.38 0.32 0.26 0.21 0.20 0.31 0.42 0.76
0.33 0.29 0.05 0.05 0.03 0.02 0.11 0.10 0.17 0.19 0.17 0.12 0.00 0.01 0.02 0.03 0.03 0.02 0.07 0.19 0.55 0.46 0.39 0.55 0.48 0.32 0.21 0.14 0.19 0.23 0.20 0.22 0.25 0.38 0.42 0.43 0.42 0.49 0.40 0.48 0.55 0.66 0.59 0.74
0.40 0.34 0.16 0.27 0.26 0.09 0.15 0.26 0.20 0.25 0.12 0.26 0.17 0.02 0.03 0.07 0.08 0.07 0.24 0.41 0.49 0.79 0.68 0.73 0.67 0.46 0.36 0.27 0.29 0.30 0.35 0.38 0.47 0.51 0.53 0.52 0.56 0.77 0.80 0.84 1.14 0.98 0.99 1.31
0.35 0.39 0.12 0.10 0.33 0.14 0.05 0.15 0.15 0.52 0.31 0.13 0.19 0.06 0.01 0.07 0.09 0.13 0.45 0.67 0.68 0.80 0.97 1.04 0.91 0.45 0.41 0.42 0.29 0.19 0.39 0.68 0.57 0.57 0.64 0.57 0.75 1.06 1.39 1.34 1.47 1.68 1.98 1.96
0.39 0.41 0.25 0.19 0.37 0.25 0.16 0.03 0.03 0.16 0.23 0.18 0.24 0.05 0.04 0.06 0.12 0.26 0.77 0.94 0.90 0.95 0.94 1.21 1.54 0.82 0.37 0.33 0.34 0.26 0.27 0.51 0.65 0.86 0.83 1.11 1.25 1.06 1.24 1.16 1.15 1.21 1.25 1.29
0.40 0.57 0.55 0.52 0.33 0.36 0.34 0.19 0.09 0.36 0.50 0.15 0.09 0.10 0.13 0.15 0.31 0.56 1.32 1.39 1.37 1.13 1.29 1.34 1.26 1.08 0.51 0.54 0.49 0.37 0.34 0.41 0.58 0.70 0.93 0.79 0.89 1.02 0.97 1.06 1.18 1.36 1.31 1.10
0.19 0.44 0.35 0.17 0.03 0.02 0.18 0.26 0.30 0.57 0.35 0.38 0.17 0.09 0.16 0.38 0.60 0.68 0.86 1.19 1.17 1.29 1.16 0.91 0.92 1.14 0.61 0.64 0.65 0.46 0.44 0.46 0.47 0.53 0.54 0.48 0.57 0.69 0.69 0.71 0.67 0.65 0.69 0.61
0.17 0.23 0.11 0.09 0.03 0.02 0.15 0.50 0.49 0.46 0.33 0.15 0.07 0.07 0.20 0.44 0.66 0.59 0.75 0.77 1.63 1.23 1.05 0.94 0.69 0.57 0.34 0.32 0.39 0.37 0.45 0.45 0.45 0.37 0.37 0.31 0.35 0.45 0.54 0.54 0.54 0.53 0.52 0.42
0.29 0.24 0.16 0.08 0.03 0.09 0.59 0.46 0.56 1.20 0.52 0.38 0.61 0.56 0.53 0.72 0.78 0.74 1.31 2.20 1.61 0.96 1.01 0.69 0.62 0.52 0.33 0.27 0.33 0.42 0.42 0.44 0.32 0.29 0.34 0.31 0.28 0.30 0.29 0.32 0.35 0.37 0.38 0.59
0.30 0.34 0.30 0.12 0.09 0.47 0.48 0.11 0.06 0.33 0.69 0.55 0.40 0.64 0.81 0.61 0.76 0.65 0.75 1.13 0.91 0.58 0.73 0.32 0.15 0.13 0.10 0.13 0.17 0.27 0.43 0.42 0.50 0.40 0.30 0.28 0.24 0.16 0.12 0.16 0.29 0.38 0.45 0.33
0.20 0.33 0.50 0.31 0.20 0.22 0.23 0.05 0.01 0.07 0.31 0.22 0.39 0.79 0.90 0.77 0.55 0.27 0.10 0.13 0.21 0.11 0.06 0.02 0.00 0.01 0.01 0.01 0.02 0.06 0.16 0.33 0.40 0.45 0.50 0.41 0.30 0.32 0.30 0.24 0.18 0.20 0.30 0.38
0.10 0.18 0.46 0.43 0.44 0.32 0.22 0.02 0.02 0.12 0.55 0.36 0.49 0.65 0.82 0.61 0.57 0.37 0.14 0.11 0.09 0.03 0.01 0.00 0.00 0.00 0.00 0.00 0.00 0.02 0.05 0.16 0.26 0.34 0.63 0.77 0.65 0.49 0.34 0.26 0.21 0.18 0.21 0.28
0.37 0.40 0.37 0.32 0.44 0.30 0.11 0.04 0.11 0.51 0.69 0.54 1.34 1.12 1.08 1.29 1.21 0.68 0.29 0.09 0.02 0.00 0.00 0.00 0.00 0.00 0.00 0.00 0.00 0.00 0.02 0.10 0.23 0.29 0.51 0.61 0.66 0.60 0.56 0.43 0.30 0.23 0.24 0.27
0.50 0.63 0.59 0.51 0.50 0.35 0.10 0.17 0.45 0.45 0.29 0.80 1.34 1.11 0.73 0.64 0.68 0.45 0.19 0.05 0.00 0.00 0.00 0.00 0.00 0.00 0.00 0.00 0.00 0.00 0.01 0.04 0.11 0.17 0.27 0.45 0.58 0.63 0.62 0.55 0.47 0.45 0.42 0.44
0.78 0.58 0.55 0.43 0.47 0.29 0.07 0.15 0.24 0.18 0.36 0.81 0.99 0.91 0.60 0.39 0.26 0.16 0.04 0.01 0.01 0.01 0.00 0.00 0.00 0.00 0.00 0.00 0.01 0.02 0.02 0.01 0.03 0.09 0.13 0.18 0.27 0.41 0.54 0.59 0.58 0.70 0.95 1.06
0.63 0.47 0.57 0.31 0.21 0.12 0.10 0.09 0.08 0.10 0.16 0.79 0.73 0.45 0.37 0.30 0.29 0.17 0.09 0.05 0.02 0.02 0.02 0.02 0.01 0.02 0.02 0.02 0.02 0.02 0.01 0.01 0.02 0.03 0.05 0.09 0.20 0.30 0.32 0.50 0.58 0.60 0.77 1.09
1.00 1.06 0.73 0.47 0.24 0.26 0.15 0.12 0.18 0.25 0.37 0.41 0.61 0.30 0.25 0.21 0.20 0.21 0.15 0.13 0.13 0.09 0.05 0.03 0.04 0.06 0.05 0.04 0.04 0.03 0.04 0.06 0.07 0.08 0.10 0.11 0.18 0.23 0.25 0.41 0.66 0.73 1.04 1.28
0.82 1.22 1.12 1.08 0.59 0.69 0.35 0.40 0.54 0.43 0.34 0.48 0.36 0.25 0.14 0.16 0.23 0.25 0.39 0.36 0.22 0.15 0.14 0.15 0.12 0.09 0.08 0.10 0.11 0.12 0.12 0.13 0.14 0.14 0.17 0.24 0.20 0.26 0.31 0.44 0.89 1.22 1.39 1.49

GFSCGP_prec_precacc_138.txt.gz
Total_Precipitation_Accumulation
0.00 0.00 0.00 0.00 0.00 0.00 0.00 0.00 0.00 0.00 0.00 0.00 0.00 0.00 0.00 0.00 0.01 0.03 0.04 0.03 0.01 0.00 0.00 0.01 0.01 0.04 0.03 0.16 0.49 0.75 0.83 0.94 0.82 0.38 0.34 0.35 0.47 0.66 0.75 0.87 0.63 1.18 0.98 0.62
0.00 0.00 0.00 0.00 0.00 0.00 0.00 0.00 0.00 0.00 0.00 0.00 0.00 0.00 0.00 0.00 0.00 0.00 0.01 0.01 0.00 0.00 0.00 0.01 0.05 0.11 0.18 0.33 0.37 0.23 0.09 0.06 0.10 0.11 0.15 0.17 0.20 0.42 0.49 1.08 0.77 0.81 0.89 0.35
0.01 0.01 0.00 0.00 0.00 0.00 0.00 0.00 0.00 0.00 0.00 0.00 0.00 0.00 0.00 0.00 0.01 0.01 0.01 0.00 0.00 0.00 0.00 0.04 0.06 0.07 0.06 0.04 0.10 0.05 0.04 0.03 0.03 0.06 0.09 0.17 0.18 0.26 0.37 1.04 1.12 0.76 0.74 0.48
0.02 0.00 0.00 0.00 0.00 0.00 0.01 0.00 0.00 0.00 0.00 0.02 0.00 0.00 0.01 0.00 0.00 0.00 0.01 0.01 0.01 0.00 0.01 0.01 0.01 0.01 0.01 0.07 0.03 0.06 0.10 0.05 0.05 0.03 0.04 0.07 0.09 0.11 0.19 0.43 0.68 0.78 0.60 0.56
0.01 0.00 0.00 0.00 0.00 0.00 0.01 0.00 0.00 0.00 0.00 0.01 0.02 0.00 0.02 0.00 0.00 0.00 0.00 0.01 0.01 0.01 0.01 0.05 0.10 0.04 0.03 0.04 0.06 0.10 0.09 0.11 0.12 0.07 0.08 0.09 0.10 0.18 0.20 0.31 0.62 0.71 0.75 0.68
0.01 0.01 0.01 0.01 0.00 0.00 0.00 0.00 0.00 0.00 0.00 0.00 0.01 0.02 0.01 0.01 0.01 0.04 0.08 0.05 0.02 0.04 0.21 0.35 0.18 0.04 0.02 0.06 0.04 0.08 0.12 0.16 0.19 0.18 0.14 0.18 0.24 0.17 0.15 0.24 0.66 0.78 0.80 0.80
0.00 0.00 0.01 0.01 0.00 0.00 0.00 0.02 0.06 0.13 0.05 0.02 0.05 0.05 0.03 0.00 0.01 0.09 0.12 0.03 0.05 0.19 0.50 0.19 0.16 0.09 0.09 0.11 0.11 0.16 0.17 0.20 0.21 0.19 0.28 0.21 0.19 0.16 0.10 0.10 0.19 0.57 0.92 0.86
0.02 0.01 0.01 0.01 0.00 0.04 0.02 0.03 0.24 0.36 0.09 0.07 0.06 0.02 0.01 0.01 0.04 0.09 0.13 0.09 0.16 0.30 0.32 0.22 0.19 0.13 0.15 0.11 0.16 0.28 0.31 0.25 0.26 0.27 0.32 0.32 0.21 0.19 0.19 0.09 0.13 0.17 0.48 0.64
0.16 0.08 0.01 0.00 0.01 0.04 0.12 0.08 0.08 0.31 0.08 0.09 0.01 0.00 0.00 0.01 0.03 0.06 0.09 0.13 0.28 0.31 0.31 0.40 0.36 0.18 0.15 0.14 0.16 0.24 0.23 0.16 0.25 0.32 0.32 0.36 0.38 0.32 0.26 0.21 0.20 0.31 0.42 0.76
0.33 0.29 0.05 0.05 0.03 0.02 0.11 0.10 0.17 0.19 0.17 0.12 0.00 0.01 0.02 0.03 0.03 0.02 0.08 0.21 0.56 0.46 0.40 0.63 0.68 0.41 0.23 0.18 0.25 0.28 0.22 0.22 0.25 0.38 0.43 0.44 0.42 0.49 0.41 0.49 0.56 0.66 0.59 0.74
0.40 0.34 0.16 0.27 0.26 0.09 0.15 0.26 0.20 0.25 0.12 0.26 0.17 0.02 0.03 0.07 0.08 0.08 0.26 0.43 0.52 0.81 0.71 0.81 0.91 0.70 0.42 0.30 0.33 0.35 0.40 0.40 0.48 0.53 0.56 0.60 0.63 0.83 0.84 0.86 1.16 1.01 1.01 1.32
0.35 0.39 0.12 0.10 0.33 0.14 0.05 0.15 0.15 0.52 0.31 0.13 0.19 0.07 0.01 0.07 0.09 0.14 0.46 0.68 0.70 0.83 1.02 1.14 1.04 0.75 0.55 0.49 0.35 0.25 0.42 0.71 0.60 0.60 0.69 0.64 0.80 1.10 1.46 1.42 1.56 1.77 2.05 2.01
0.39 0.41 0.25 0.19 0.37 0.25 0.16 0.03 0.03 0.16 0.24 0.18 0.25 0.06 0.04 0.06 0.12 0.26 0.77 0.94 0.93 0.98 0.98 1.31 1.73 1.36 0.69 0.49 0.45 0.32 0.29 0.52 0.66 0.88 0.89 1.22 1.36 1.16 1.36 1.24 1.23 1.29 1.34 1.37
0.40 0.58 0.55 0.52 0.33 0.36 0.34 0.19 0.09 0.36 0.50 0.15 0.09 0.10 0.13 0.15 0.31 0.56 1.32 1.40 1.39 1.15 1.32 1.41 1.51 1.71 0.96 0.77 0.60 0.43 0.35 0.41 0.58 0.70 0.98 0.90 1.01 1.17 1.09 1.16 1.22 1.41 1.36 1.12
0.20 0.45 0.36 0.17 0.03 0.02 0.18 0.26 0.30 0.57 0.35 0.38 0.17 0.09 0.16 0.38 0.60 0.68 0.86 1.19 1.17 1.30 1.16 0.94 1.05 1.43 1.09 0.92 0.82 0.51 0.46 0.48 0.51 0.56 0.75 1.09 0.80 0.88 0.88 0.91 0.82 0.68 0.71 0.64
0.17 0.23 0.11 0.09 0.03 0.02 0.15 0.50 0.49 0.46 0.33 0.15 0.07 0.07 0.20 0.45 0.66 0.60 0.75 0.77 1.63 1.23 1.05 0.94 0.78 0.73 0.71 0.53 0.50 0.50 0.57 0.56 0.64 0.61 0.57 0.67 0.65 0.64 0.73 0.73 0.76 0.65 0.54 0.44
0.29 0.24 0.16 0.08 0.03 0.09 0.59 0.46 0.56 1.20 0.52 0.38 0.61 0.56 0.53 0.72 0.78 0.74 1.31 2.20 1.61 0.96 1.01 0.69 0.63 0.59 0.46 0.42 0.41 0.47 0.45 0.48 0.40 0.53 0.53 0.42 0.54 0.59 0.44 0.48 0.50 0.53 0.50 0.64
0.30 0.34 0.30 0.12 0.09 0.47 0.48 0.11 0.06 0.33 0.69 0.55 0.40 0.64 0.81 0.61 0.76 0.66 0.75 1.13 0.91 0.58 0.73 0.32 0.15 0.13 0.11 0.17 0.24 0.31 0.43 0.42 0.50 0.41 0.31 0.32 0.27 0.21 0.16 0.20 0.34 0.41 0.49 0.39
0.20 0.33 0.50 0.31 0.20 0.22 0.23 0.05 0.01 0.07 0.31 0.22 0.39 0.79 0.90 0.77 0.55 0.28 0.10 0.13 0.21 0.11 0.06 0.02 0.00 0.01 0.01 0.01 0.03 0.08 0.17 0.33 0.40 0.45 0.50 0.41 0.31 0.34 0.32 0.25 0.22 0.24 0.32 0.43
0.10 0.18 0.46 0.43 0.44 0.32 0.22 0.02 0.02 0.12 0.55 0.36 0.49 0.65 0.83 0.61 0.57 0.37 0.14 0.11 0.09 0.03 0.01 0.00 0.00 0.00 0.00 0.00 0.00 0.02 0.06 0.16 0.26 0.34 0.63 0.77 0.65 0.49 0.34 0.26 0.21 0.20 0.23 0.33
0.37 0.40 0.38 0.32 0.44 0.30 0.11 0.04 0.11 0.51 0.69 0.54 1.35 1.12 1.09 1.30 1.22 0.68 0.29 0.09 0.02 0.00 0.00 0.00 0.00 0.00 0.00 0.00 0.00 0.00 0.02 0.10 0.23 0.29 0.51 0.61 0.66 0.60 0.56 0.43 0.30 0.23 0.24 0.27
0.50 0.64 0.59 0.52 0.50 0.35 0.10 0.17 0.45 0.45 0.29 0.80 1.34 1.11 0.73 0.65 0.68 0.45 0.19 0.05 0.00 0.00 0.00 0.00 0.00 0.00 0.00 0.00 0.00 0.00 0.01 0.04 0.11 0.17 0.27 0.45 0.58 0.63 0.62 0.55 0.47 0.45 0.42 0.44
0.78 0.58 0.55 0.43 0.47 0.29 0.07 0.15 0.24 0.18 0.36 0.81 1.00 0.91 0.60 0.39 0.26 0.16 0.04 0.01 0.01 0.01 0.00 0.00 0.00 0.00 0.00 0.00 0.01 0.02 0.02 0.01 0.03 0.09 0.13 0.18 0.27 0.41 0.54 0.59 0.58 0.70 0.95 1.06
0.63 0.47 0.57 0.31 0.21 0.12 0.10 0.09 0.08 0.10 0.16 0.79 0.73 0.45 0.37 0.30 0.29 0.17 0.09 0.05 0.02 0.02 0.02 0.02 0.01 0.02 0.02 0.02 0.02 0.02 0.01 0.01 0.02 0.03 0.05 0.09 0.20 0.30 0.33 0.51 0.58 0.60 0.77 1.09
1.00 1.06 0.73 0.47 0.24 0.26 0.15 0.12 0.18 0.25 0.37 0.41 0.61 0.30 0.25 0.21 0.21 0.21 0.15 0.13 0.13 0.09 0.05 0.04 0.04 0.06 0.05 0.05 0.04 0.03 0.04 0.06 0.07 0.08 0.10 0.11 0.18 0.23 0.25 0.42 0.66 0.73 1.05 1.29
0.82 1.22 1.12 1.08 0.59 0.69 0.35 0.40 0.54 0.43 0.34 0.48 0.36 0.25 0.14 0.16 0.23 0.25 0.39 0.36 0.22 0.15 0.14 0.15 0.13 0.10 0.09 0.10 0.12 0.12 0.12 0.13 0.14 0.14 0.17 0.24 0.20 0.26 0.31 0.44 0.89 1.22 1.39 1.49

GFSCGP_prec_precacc_141.txt.gz
Total_Precipitation_Accumulation
0.00 0.00 0.00 0.00 0.00 0.00 0.00 0.00 0.00 0.00 0.00 0.00 0.00 0.00 0.00 0.00 0.01 0.03 0.04 0.03 0.01 0.00 0.00 0.01 0.01 0.04 0.03 0.16 0.49 0.75 0.83 0.94 0.82 0.38 0.34 0.35 0.49 0.70 0.76 0.87 0.63 1.18 0.98 0.62
0.00 0.00 0.00 0.00 0.00 0.00 0.00 0.00 0.00 0.00 0.00 0.00 0.00 0.00 0.00 0.00 0.00 0.00 0.01 0.01 0.00 0.00 0.00 0.01 0.05 0.11 0.18 0.33 0.37 0.23 0.09 0.06 0.10 0.11 0.15 0.17 0.21 0.45 0.53 1.08 0.77 0.81 0.89 0.35
0.01 0.01 0.00 0.00 0.00 0.00 0.00 0.00 0.00 0.00 0.00 0.00 0.00 0.00 0.00 0.00 0.01 0.01 0.01 0.00 0.00 0.00 0.00 0.04 0.06 0.07 0.06 0.04 0.10 0.05 0.04 0.03 0.03 0.06 0.09 0.17 0.18 0.31 0.52 1.14 1.15 0.76 0.74 0.48
0.02 0.00 0.00 0.00 0.00 0.00 0.01 0.00 0.00 0.00 0.00 0.02 0.00 0.00 0.01 0.00 0.00 0.00 0.01 0.01 0.01 0.00 0.01 0.01 0.01 0.02 0.01 0.07 0.03 0.06 0.10 0.05 0.05 0.03 0.04 0.07 0.10 0.15 0.27 0.56 0.77 0.78 0.60 0.56
0.01 0.00 0.00 0.00 0.00 0.00 0.01 0.00 0.00 0.00 0.00 0.01 0.02 0.00 0.02 0.00 0.00 0.00 0.00 0.01 0.01 0.01 0.01 0.05 0.10 0.04 0.03 0.04 0.06 0.10 0.09 0.11 0.12 0.07 0.08 0.09 0.10 0.18 0.21 0.39 0.81 0.78 0.75 0.68
0.01 0.01 0.01 0.01 0.00 0.00 0.00 0.00 0.00 0.00 0.00 0.00 0.01 0.02 0.01 0.01 0.01 0.04 0.08 0.05 0.02 0.04 0.21 0.35 0.18 0.04 0.02 0.06 0.04 0.08 0.12 0.16 0.19 0.18 0.14 0.18 0.24 0.18 0.18 0.31 0.84 0.98 0.86 0.81
0.00 0.00 0.01 0.01 0.00 0.00 0.00 0.02 0.06 0.13 0.05 0.02 0.05 0.05 0.03 0.00 0.01 0.09 0.12 0.03 0.05 0.19 0.50 0.19 0.17 0.10 0.09 0.12 0.12 0.17 0.17 0.20 0.21 0.19 0.28 0.21 0.19 0.17 0.15 0.18 0.27 0.74 1.08 0.89
0.02 0.01 0.01 0.01 0.00 0.04 0.02 0.03 0.24 0.36 0.09 0.07 0.06 0.02 0.01 0.01 0.04 0.09 0.13 0.09 0.16 0.30 0.32 0.22 0.20 0.15 0.16 0.15 0.19 0.33 0.34 0.27 0.27 0.27 0.32 0.32 0.21 0.20 0.24 0.18 0.20 0.21 0.55 0.69
0.16 0.08 0.01 0.00 0.01 0.04 0.12 0.08 0.08 0.31 0.08 0.09 0.01 0.00 0.00 0.01 0.03 0.06 0.09 0.13 0.28 0.31 0.31 0.40 0.37 0.22 0.17 0.17 0.24 0.33 0.28 0.19 0.27 0.33 0.32 0.36 0.38 0.32 0.29 0.28 0.30 0.38 0.48 0.81
0.33 0.29 0.05 0.05 0.03 0.02 0.11 0.10 0.17 0.19 0.17 0.12 0.00 0.01 0.02 0.03 0.03 0.02 0.08 0.21 0.56 0.46 0.40 0.63 0.68 0.44 0.25 0.19 0.32 0.40 0.29 0.26 0.28 0.42 0.43 0.44 0.43 0.49 0.41 0.50 0.78 0.89 0.72 0.85
0.40 0.34 0.16 0.27 0.26 0.09 0.15 0.26 0.20 0.25 0.12 0.26 0.17 0.02 0.03 0.07 0.08 0.08 0.26 0.43 0.52 0.81 0.71 0.81 0.92 0.74 0.45 0.31 0.37 0.43 0.46 0.45 0.52 0.63 0.65 0.68 0.80 1.08 1.01 0.97 1.27 1.45 1.20 1.44
0.35 0.39 0.12 0.10 0.33 0.14 0.05 0.15 0.15 0.52 0.31 0.13 0.19 0.07 0.01 0.07 0.09 0.14 0.46 0.68 0.70 0.83 1.02 1.14 1.05 0.78 0.62 0.51 0.38 0.28 0.46 0.76 0.66 0.71 0.85 0.76 0.92 1.37 1.67 1.73 1.84 2.04 2.28 2.13
0.39 0.41 0.25 0.19 0.37 0.25 0.16 0.03 0.03 0.16 0.24 0.18 0.25 0.06 0.04 0.06 0.12 0.26 0.77 0.94 0.93 0.98 0.98 1.31 1.75 1.43 0.86 0.60 0.49 0.36 0.31 0.54 0.71 0.95 0.97 1.30 1.46 1.36 1.49 1.36 1.43 1.45 1.48 1.50
0.40 0.58 0.55 0.52 0.33 0.36 0.34 0.19 0.09 0.36 0.50 0.15 0.09 0.10 0.13 0.15 0.31 0.56 1.32 1.40 1.39 1.15 1.32 1.41 1.53 1.82 1.23 1.00 0.72 0.51 0.40 0.42 0.59 0.73 1.01 0.93 1.05 1.25 1.20 1.28 1.33 1.55 1.48 1.23
0.20 0.45 0.36 0.17 0.03 0.02 0.18 0.26 0.30 0.57 0.35 0.38 0.17 0.09 0.16 0.38 0.60 0.69 0.86 1.19 1.17 1.30 1.16 0.95 1.06 1.51 1.34 1.22 1.03 0.66 0.55 0.49 0.51 0.56 0.76 1.10 0.83 0.93 0.91 0.95 0.90 0.78 0.82 0.77
0.17 0.23 0.11 0.09 0.03 0.02 0.15 0.50 0.49 0.46 0.33 0.15 0.07 0.07 0.20 0.45 0.66 0.60 0.75 0.77 1.63 1.23 1.05 0.94 0.78 0.74 0.78 0.75 0.75 0.64 0.71 0.63 0.65 0.62 0.57 0.67 0.65 0.64 0.73 0.74 0.79 0.77 0.73 0.57
0.29 0.24 0.16 0.08 0.03 0.09 0.59 0.46 0.56 1.20 0.52 0.38 0.61 0.56 0.53 0.72 0.78 0.74 1.31 2.20 1.61 0.96 1.01 0.69 0.63 0.59 0.47 0.45 0.48 0.57 0.54 0.57 0.46 0.70 0.70 0.48 0.55 0.66 0.52 0.53 0.53 0.58 0.65 0.87
0.30 0.34 0.30 0.12 0.09 0.47 0.48 0.11 0.06 0.33 0.69 0.55 0.40 0.64 0.81 0.61 0.76 0.66 0.75 1.13 0.91 0.58 0.73 0.32 0.15 0.13 0.11 0.17 0.25 0.34 0.46 0.45 0.52 0.46 0.40 0.58 0.41 0.31 0.32 0.36 0.48 0.50 0.63 0.61
0.20 0.33 0.50 0.31 0.20 0.22 0.23 0.05 0.01 0.07 0.31 0.22 0.39 0.79 0.90 0.77 0.55 0.29 0.10 0.13 0.21 0.11 0.06 0.02 0.00 0.01 0.01 0.01 0.03 0.08 0.19 0.34 0.40 0.45 0.50 0.42 0.36 0.41 0.49 0.34 0.30 0.34 0.44 0.56
0.10 0.18 0.46 0.43 0.44 0.32 0.22 0.02 0.02 0.12 0.55 0.36 0.49 0.65 0.83 0.61 0.57 0.38 0.14 0.11 0.09 0.03 0.01 0.00 0.00 0.00 0.00 0.00 0.00 0.02 0.06 0.16 0.27 0.34 0.63 0.77 0.65 0.49 0.35 0.29 0.30 0.32 0.34 0.40
0.37 0.40 0.38 0.32 0.44 0.30 0.11 0.04 0.11 0.51 0.70 0.54 1.35 1.12 1.09 1.30 1.23 0.69 0.29 0.09 0.02 0.00 0.00 0.00 0.00 0.00 0.00 0.00 0.00 0.00 0.02 0.10 0.23 0.29 0.51 0.61 0.66 0.60 0.56 0.43 0.30 0.29 0.34 0.40
0.50 0.64 0.59 0.52 0.50 0.35 0.10 0.17 0.45 0.45 0.29 0.80 1.34 1.11 0.73 0.65 0.68 0.45 0.19 0.05 0.00 0.00 0.00 0.00 0.00 0.00 0.00 0.00 0.00 0.00 0.01 0.04 0.11 0.17 0.27 0.45 0.58 0.63 0.62 0.55 0.47 0.45 0.42 0.44
0.78 0.58 0.55 0.43 0.47 0.29 0.07 0.15 0.24 0.18 0.36 0.81 1.00 0.91 0.60 0.39 0.26 0.16 0.04 0.01 0.01 0.01 0.00 0.00 0.00 0.00 0.00 0.00 0.01 0.02 0.02 0.01 0.03 0.09 0.13 0.18 0.27 0.41 0.54 0.59 0.58 0.70 0.95 1.06
0.63 0.47 0.57 0.31 0.21 0.12 0.10 0.09 0.08 0.10 0.16 0.79 0.73 0.45 0.37 0.30 0.29 0.17 0.09 0.05 0.02 0.02 0.02 0.02 0.01 0.02 0.02 0.02 0.02 0.02 0.01 0.01 0.02 0.03 0.05 0.09 0.20 0.30 0.33 0.51 0.58 0.60 0.77 1.10
1.00 1.06 0.73 0.47 0.24 0.26 0.15 0.12 0.18 0.25 0.37 0.41 0.61 0.30 0.25 0.21 0.21 0.21 0.15 0.13 0.13 0.09 0.05 0.04 0.04 0.06 0.05 0.05 0.04 0.03 0.04 0.06 0.07 0.08 0.10 0.11 0.18 0.23 0.25 0.42 0.66 0.74 1.06 1.29
0.82 1.22 1.12 1.08 0.59 0.69 0.35 0.40 0.54 0.43 0.34 0.48 0.36 0.25 0.14 0.16 0.23 0.25 0.39 0.36 0.22 0.15 0.14 0.15 0.13 0.10 0.09 0.10 0.12 0.12 0.12 0.13 0.14 0.14 0.17 0.24 0.20 0.26 0.31 0.44 0.90 1.22 1.39 1.49

GFSCGP_prec_precacc_144.txt.gz
Total_Precipitation_Accumulation
0.00 0.00 0.00 0.00 0.00 0.00 0.00 0.00 0.00 0.00 0.00 0.00 0.00 0.00 0.00 0.00 0.01 0.03 0.04 0.03 0.01 0.00 0.00 0.01 0.01 0.04 0.03 0.16 0.49 0.75 0.83 0.94 0.82 0.38 0.34 0.35 0.49 0.73 0.84 0.90 0.68 1.18 0.98 0.62
0.00 0.00 0.00 0.00 0.00 0.00 0.00 0.00 0.00 0.00 0.00 0.00 0.00 0.00 0.00 0.00 0.00 0.00 0.01 0.01 0.00 0.00 0.00 0.01 0.05 0.11 0.18 0.33 0.37 0.23 0.09 0.06 0.10 0.11 0.15 0.17 0.21 0.45 0.55 1.15 0.83 0.94 0.93 0.35
0.01 0.01 0.00 0.00 0.00 0.00 0.00 0.00 0.00 0.00 0.00 0.00 0.00 0.00 0.00 0.00 0.01 0.01 0.01 0.00 0.00 0.00 0.00 0.04 0.06 0.07 0.06 0.04 0.10 0.05 0.04 0.03 0.03 0.06 0.09 0.17 0.18 0.31 0.55 1.21 1.27 0.87 0.99 0.50
0.02 0.00 0.00 0.00 0.00 0.00 0.01 0.00 0.00 0.00 0.00 0.02 0.00 0.00 0.01 0.00 0.00 0.00 0.01 0.01 0.01 0.00 0.01 0.01 0.01 0.02 0.01 0.07 0.03 0.06 0.10 0.05 0.05 0.03 0.04 0.07 0.10 0.15 0.28 0.62 0.88 0.95 0.94 0.70
0.01 0.00 0.00 0.00 0.00 0.00 0.01 0.00 0.00 0.00 0.00 0.01 0.02 0.00 0.02 0.00 0.00 0.00 0.00 0.01 0.01 0.01 0.01 0.05 0.10 0.04 0.03 0.04 0.06 0.10 0.09 0.11 0.12 0.07 0.08 0.09 0.10 0.18 0.21 0.39 0.89 1.02 1.09 1.21
0.01 0.01 0.01 0.01 0.00 0.00 0.00 0.00 0.00 0.00 0.00 0.00 0.01 0.02 0.01 0.01 0.01 0.04 0.08 0.05 0.02 0.04 0.21 0.35 0.18 0.04 0.02 0.06 0.04 0.08 0.12 0.16 0.19 0.18 0.14 0.18 0.24 0.18 0.18 0.31 0.85 1.11 1.17 1.14
0.00 0.00 0.01 0.01 0.00 0.00 0.00 0.02 0.06 0.13 0.05 0.02 0.05 0.05 0.03 0.00 0.01 0.09 0.12 0.03 0.05 0.19 0.50 0.19 0.17 0.10 0.09 0.12 0.12 0.17 0.17 0.20 0.21 0.19 0.28 0.21 0.19 0.17 0.15 0.18 0.27 0.79 1.35 1.41
0.02 0.01 0.01 0.01 0.00 0.04 0.02 0.03 0.24 0.36 0.09 0.07 0.06 0.02 0.01 0.01 0.04 0.09 0.13 0.09 0.16 0.30 0.32 0.22 0.20 0.15 0.16 0.15 0.19 0.34 0.34 0.27 0.27 0.27 0.32 0.32 0.21 0.21 0.24 0.21 0.23 0.24 0.66 1.28
0.16 0.08 0.01 0.00 0.01 0.04 0.12 0.08 0.08 0.31 0.08 0.09 0.01 0.00 0.00 0.01 0.03 0.06 0.09 0.13 0.28 0.31 0.31 0.40 0.37 0.22 0.17 0.17 0.25 0.38 0.34 0.21 0.27 0.33 0.32 0.36 0.38 0.33 0.29 0.31 0.42 0.44 0.64 1.02
0.33 0.29 0.05 0.05 0.03 0.02 0.11 0.10 0.17 0.19 0.17 0.12 0.00 0.01 0.02 0.03 0.03 0.02 0.08 0.21 0.56 0.46 0.40 0.63 0.68 0.44 0.25 0.19 0.33 0.46 0.37 0.28 0.31 0.43 0.45 0.46 0.43 0.49 0.41 0.52 0.97 1.30 0.94 0.96
0.40 0.34 0.16 0.27 0.26 0.09 0.15 0.26 0.20 0.25 0.12 0.26 0.17 0.02 0.03 0.07 0.08 0.08 0.26 0.43 0.52 0.81 0.71 0.81 0.92 0.74 0.45 0.31 0.37 0.47 0.52 0.48 0.55 0.66 0.68 0.71 0.83 1.10 1.09 1.10 1.52 1.89 1.57 1.63
0.35 0.39 0.12 0.10 0.33 0.14 0.05 0.15 0.15 0.52 0.31 0.13 0.19 0.07 0.01 0.07 0.09 0.14 0.46 0.68 0.70 0.83 1.02 1.14 1.05 0.78 0.62 0.51 0.38 0.29 0.48 0.78 0.68 0.76 0.98 0.89 1.01 1.46 1.89 2.01 2.21 2.91 3.26 2.60
0.39 0.41 0.25 0.19 0.37 0.25 0.16 0.03 0.03 0.16 0.24 0.18 0.25 0.06 0.04 0.06 0.12 0.26 0.77 0.94 0.93 0.98 0.98 1.31 1.75 1.43 0.86 0.61 0.50 0.37 0.31 0.55 0.72 0.97 1.10 1.53 1.70 1.57 1.77 1.65 1.72 1.96 2.34 2.10
0.40 0.58 0.55 0.52 0.33 0.36 0.34 0.19 0.09 0.36 0.50 0.15 0.09 0.10 0.13 0.15 0.31 0.56 1.32 1.40 1.39 1.15 1.32 1.41 1.53 1.82 1.23 1.01 0.76 0.52 0.40 0.42 0.59 0.73 1.04 1.02 1.21 1.44 1.43 1.54 1.62 1.86 2.02 2.15
0.20 0.46 0.36 0.17 0.03 0.02 0.18 0.26 0.30 0.57 0.35 0.38 0.17 0.09 0.16 0.38 0.60 0.69 0.86 1.19 1.17 1.30 1.16 0.95 1.06 1.51 1.34 1.23 1.07 0.71 0.56 0.50 0.51 0.56 0.76 1.11 0.86 1.01 0.99 1.05 1.02 0.96 1.20 1.35
0.17 0.24 0.11 0.09 0.03 0.02 0.15 0.50 0.49 0.46 0.33 0.15 0.07 0.07 0.20 0.45 0.66 0.60 0.75 0.77 1.63 1.23 1.05 0.94 0.78 0.74 0.78 0.75 0.76 0.69 0.76 0.65 0.65 0.62 0.57 0.67 0.66 0.65 0.74 0.77 0.83 0.80 0.80 0.69
0.30 0.24 0.17 0.08 0.03 0.09 0.59 0.46 0.56 1.20 0.52 0.38 0.61 0.56 0.53 0.72 0.78 0.74 1.31 2.20 1.61 0.96 1.01 0.69 0.63 0.59 0.47 0.45 0.48 0.57 0.56 0.61 0.47 0.70 0.70 0.48 0.55 0.66 0.52 0.53 0.54 0.58 0.65 0.88
0.30 0.34 0.30 0.12 0.10 0.47 0.48 0.11 0.06 0.33 0.69 0.55 0.40 0.64 0.81 0.61 0.76 0.66 0.75 1.13 0.91 0.58 0.73 0.32 0.15 0.13 0.11 0.17 0.25 0.34 0.46 0.46 0.52 0.46 0.40 0.59 0.45 0.33 0.33 0.36 0.49 0.52 0.64 0.61
0.20 0.33 0.50 0.31 0.20 0.22 0.23 0.05 0.01 0.07 0.31 0.22 0.39 0.79 0.90 0.77 0.55 0.30 0.10 0.13 0.21 0.11 0.06 0.02 0.00 0.01 0.01 0.01 0.03 0.08 0.19 0.34 0.41 0.46 0.52 0.44 0.40 0.48 0.57 0.40 0.37 0.41 0.50 0.60
0.10 0.18 0.46 0.43 0.44 0.32 0.22 0.02 0.02 0.12 0.55 0.36 0.49 0.65 0.83 0.61 0.57 0.38 0.14 0.11 0.09 0.03 0.01 0.00 0.00 0.00 0.00 0.00 0.00 0.02 0.06 0.16 0.27 0.34 0.64 0.79 0.66 0.50 0.35 0.31 0.34 0.42 0.40 0.47
0.38 0.41 0.38 0.32 0.44 0.30 0.11 0.04 0.11 0.51 0.70 0.54 1.35 1.12 1.09 1.30 1.23 0.69 0.29 0.09 0.02 0.00 0.00 0.00 0.00 0.00 0.00 0.00 0.00 0.00 0.02 0.10 0.23 0.29 0.51 0.61 0.66 0.60 0.56 0.43 0.31 0.34 0.50 0.62
0.51 0.64 0.59 0.52 0.50 0.35 0.10 0.17 0.45 0.45 0.29 0.80 1.34 1.11 0.73 0.65 0.68 0.45 0.19 0.05 0.00 0.00 0.00 0.00 0.00 0.00 0.00 0.00 0.00 0.00 0.01 0.04 0.11 0.17 0.27 0.45 0.58 0.63 0.62 0.55 0.47 0.45 0.42 0.47
0.78 0.58 0.55 0.43 0.47 0.29 0.07 0.15 0.24 0.18 0.36 0.81 1.00 0.91 0.60 0.39 0.26 0.16 0.04 0.01 0.01 0.01 0.00 0.00 0.00 0.00 0.00 0.00 0.01 0.02 0.02 0.01 0.03 0.09 0.13 0.18 0.27 0.41 0.54 0.59 0.58 0.70 0.95 1.06
0.63 0.47 0.58 0.31 0.21 0.12 0.10 0.09 0.08 0.10 0.16 0.79 0.73 0.45 0.37 0.30 0.29 0.17 0.09 0.05 0.02 0.02 0.02 0.02 0.01 0.02 0.02 0.02 0.02 0.02 0.01 0.01 0.02 0.03 0.05 0.09 0.20 0.30 0.33 0.51 0.58 0.60 0.78 1.10
1.00 1.06 0.74 0.47 0.24 0.26 0.15 0.12 0.18 0.25 0.37 0.41 0.61 0.30 0.25 0.21 0.21 0.21 0.15 0.13 0.13 0.09 0.05 0.04 0.04 0.06 0.05 0.05 0.04 0.03 0.04 0.06 0.07 0.08 0.10 0.11 0.18 0.23 0.25 0.43 0.67 0.74 1.07 1.31
0.82 1.22 1.12 1.08 0.59 0.69 0.35 0.40 0.54 0.43 0.34 0.48 0.36 0.25 0.14 0.16 0.23 0.25 0.39 0.36 0.22 0.15 0.14 0.15 0.13 0.10 0.09 0.10 0.12 0.13 0.12 0.13 0.14 0.14 0.17 0.24 0.20 0.26 0.31 0.45 0.91 1.23 1.40 1.50

GFSCGP_prec_precacc_147.txt.gz
Total_Precipitation_Accumulation
0.00 0.00 0.00 0.00 0.00 0.00 0.00 0.00 0.00 0.00 0.00 0.00 0.00 0.00 0.00 0.00 0.01 0.03 0.04 0.03 0.01 0.00 0.00 0.01 0.01 0.04 0.03 0.16 0.49 0.75 0.83 0.94 0.82 0.38 0.34 0.35 0.49 0.73 0.84 0.90 0.74 1.37 1.14 0.72
0.00 0.00 0.00 0.00 0.00 0.00 0.00 0.00 0.00 0.00 0.00 0.00 0.00 0.00 0.00 0.00 0.00 0.00 0.01 0.01 0.00 0.00 0.00 0.01 0.05 0.11 0.18 0.33 0.37 0.23 0.09 0.06 0.10 0.11 0.15 0.17 0.21 0.45 0.55 1.15 0.83 1.00 1.15 0.50
0.01 0.01 0.00 0.00 0.00 0.00 0.00 0.00 0.00 0.00 0.00 0.00 0.00 0.00 0.00 0.00 0.01 0.01 0.01 0.00 0.00 0.00 0.00 0.04 0.06 0.07 0.06 0.04 0.10 0.05 0.04 0.03 0.03 0.06 0.09 0.17 0.18 0.31 0.55 1.21 1.27 0.87 1.13 0.68
0.02 0.00 0.00 0.00 0.00 0.00 0.01 0.00 0.00 0.00 0.00 0.02 0.00 0.00 0.01 0.00 0.00 0.00 0.01 0.01 0.01 0.00 0.01 0.01 0.01 0.02 0.01 0.07 0.03 0.06 0.10 0.05 0.05 0.03 0.04 0.07 0.10 0.15 0.28 0.62 0.88 0.95 0.95 0.83
0.01 0.00 0.00 0.00 0.00 0.00 0.01 0.00 0.00 0.00 0.00 0.01 0.02 0.00 0.02 0.00 0.00 0.00 0.00 0.01 0.01 0.01 0.01 0.05 0.10 0.04 0.03 0.04 0.06 0.10 0.09 0.11 0.12 0.07 0.08 0.09 0.10 0.18 0.21 0.39 0.89 1.02 1.09 1.27
0.01 0.01 0.01 0.01 0.00 0.00 0.00 0.00 0.00 0.00 0.00 0.00 0.01 0.02 0.01 0.01 0.01 0.04 0.08 0.05 0.02 0.04 0.21 0.35 0.18 0.04 0.02 0.06 0.04 0.08 0.12 0.16 0.19 0.18 0.14 0.18 0.24 0.18 0.18 0.31 0.85 1.11 1.17 1.14
0.00 0.00 0.01 0.01 0.00 0.00 0.00 0.02 0.06 0.13 0.05 0.02 0.05 0.05 0.03 0.00 0.01 0.09 0.12 0.03 0.05 0.19 0.50 0.19 0.17 0.10 0.09 0.12 0.12 0.17 0.17 0.20 0.21 0.19 0.28 0.22 0.19 0.17 0.15 0.18 0.27 0.79 1.36 1.42
0.02 0.01 0.01 0.01 0.00 0.04 0.02 0.03 0.24 0.36 0.09 0.07 0.06 0.02 0.01 0.01 0.04 0.09 0.13 0.09 0.16 0.30 0.32 0.22 0.20 0.15 0.16 0.15 0.19 0.34 0.34 0.27 0.27 0.27 0.32 0.32 0.21 0.21 0.24 0.21 0.23 0.24 0.68 1.31
0.16 0.08 0.01 0.00 0.01 0.04 0.12 0.08 0.08 0.31 0.08 0.09 0.01 0.00 0.00 0.01 0.03 0.06 0.09 0.13 0.28 0.31 0.31 0.40 0.37 0.22 0.17 0.17 0.25 0.38 0.35 0.23 0.29 0.35 0.33 0.36 0.38 0.34 0.32 0.34 0.45 0.45 0.65 1.07
0.33 0.29 0.05 0.05 0.03 0.02 0.11 0.10 0.17 0.19 0.17 0.12 0.00 0.01 0.02 0.03 0.03 0.02 0.08 0.21 0.56 0.46 0.40 0.63 0.68 0.44 0.25 0.19 0.33 0.46 0.39 0.34 0.35 0.47 0.49 0.48 0.44 0.50 0.42 0.54 1.00 1.34 0.97 1.27
0.40 0.35 0.16 0.27 0.26 0.09 0.15 0.26 0.20 0.25 0.12 0.26 0.17 0.02 0.03 0.07 0.08 0.08 0.26 0.43 0.52 0.81 0.71 0.81 0.92 0.74 0.45 0.31 0.37 0.47 0.54 0.52 0.58 0.69 0.74 0.73 0.85 1.12 1.10 1.11 1.52 1.90 1.60 1.74
0.35 0.39 0.13 0.10 0.33 0.14 0.05 0.15 0.15 0.52 0.31 0.13 0.19 0.07 0.01 0.07 0.09 0.14 0.46 0.68 0.70 0.83 1.02 1.14 1.05 0.78 0.62 0.51 0.38 0.29 0.49 0.79 0.70 0.79 1.01 0.95 1.08 1.50 1.92 2.03 2.22 2.94 3.33 2.70
0.39 0.41 0.26 0.20 0.37 0.25 0.16 0.03 0.03 0.16 0.24 0.18 0.25 0.06 0.04 0.06 0.12 0.26 0.77 0.94 0.93 0.98 0.98 1.31 1.75 1.43 0.86 0.61 0.50 0.37 0.31 0.55 0.72 0.98 1.12 1.64 1.89 1.73 1.86 1.76 1.79 2.01 2.41 2.20
0.40 0.58 0.56 0.53 0.33 0.36 0.34 0.19 0.09 0.36 0.50 0.15 0.09 0.10 0.13 0.15 0.31 0.56 1.32 1.40 1.39 1.15 1.32 1.41 1.53 1.82 1.23 1.01 0.76 0.52 0.40 0.42 0.59 0.73 1.04 1.03 1.29 1.66 1.80 1.91 1.94 2.27 2.18 2.25
0.21 0.47 0.37 0.18 0.03 0.02 0.18 0.26 0.30 0.57 0.35 0.38 0.17 0.09 0.16 0.38 0.60 0.69 0.86 1.19 1.17 1.30 1.16 0.95 1.06 1.51 1.34 1.23 1.07 0.71 0.56 0.50 0.51 0.56 0.76 1.11 0.86 1.01 1.01 1.14 1.37 1.46 1.67 1.74
0.18 0.25 0.13 0.12 0.04 0.03 0.15 0.50 0.49 0.46 0.33 0.15 0.07 0.07 0.20 0.45 0.66 0.60 0.75 0.77 1.63 1.23 1.05 0.94 0.78 0.74 0.78 0.75 0.76 0.69 0.76 0.65 0.65 0.62 0.57 0.67 0.66 0.65 0.74 0.77 0.85 0.86 0.93 0.89
0.31 0.26 0.20 0.11 0.04 0.11 0.60 0.46 0.56 1.20 0.52 0.38 0.61 0.56 0.53 0.72 0.78 0.74 1.31 2.20 1.61 0.96 1.01 0.69 0.63 0.59 0.47 0.45 0.48 0.57 0.56 0.61 0.47 0.70 0.70 0.48 0.55 0.66 0.52 0.53 0.54 0.58 0.65 0.89
0.31 0.35 0.31 0.14 0.10 0.47 0.49 0.11 0.06 0.33 0.69 0.55 0.40 0.64 0.81 0.61 0.76 0.66 0.75 1.13 0.91 0.58 0.73 0.32 0.15 0.13 0.11 0.17 0.25 0.34 0.46 0.46 0.52 0.46 0.40 0.59 0.45 0.33 0.33 0.36 0.49 0.52 0.64 0.61
0.20 0.33 0.50 0.32 0.21 0.22 0.23 0.05 0.01 0.07 0.31 0.22 0.39 0.79 0.90 0.77 0.55 0.30 0.10 0.13 0.21 0.11 0.06 0.02 0.00 0.01 0.01 0.01 0.03 0.08 0.19 0.34 0.41 0.46 0.52 0.44 0.40 0.48 0.57 0.41 0.40 0.43 0.52 0.61
0.10 0.18 0.47 0.44 0.45 0.33 0.22 0.02 0.02 0.12 0.55 0.36 0.49 0.65 0.83 0.61 0.57 0.39 0.14 0.11 0.09 0.03 0.01 0.00 0.00 0.00 0.00 0.00 0.00 0.02 0.06 0.16 0.27 0.34 0.64 0.79 0.66 0.50 0.35 0.32 0.36 0.44 0.44 0.49
0.38 0.41 0.38 0.32 0.45 0.31 0.11 0.04 0.11 0.51 0.70 0.54 1.35 1.12 1.09 1.30 1.23 0.69 0.29 0.09 0.02 0.00 0.00 0.00 0.00 0.00 0.00 0.00 0.00 0.00 0.02 0.10 0.23 0.29 0.51 0.61 0.66 0.60 0.56 0.43 0.31 0.35 0.50 0.62
0.51 0.64 0.59 0.52 0.53 0.36 0.10 0.17 0.45 0.45 0.29 0.80 1.34 1.11 0.73 0.65 0.68 0.45 0.19 0.05 0.00 0.00 0.00 0.00 0.00 0.00 0.00 0.00 0.00 0.00 0.01 0.04 0.11 0.17 0.27 0.45 0.58 0.64 0.62 0.55 0.47 0.45 0.43 0.47
0.78 0.58 0.55 0.43 0.47 0.29 0.07 0.15 0.24 0.18 0.36 0.81 1.00 0.91 0.60 0.39 0.26 0.16 0.04 0.01 0.01 0.01 0.00 0.00 0.00 0.00 0.00 0.00 0.01 0.02 0.02 0.01 0.03 0.09 0.13 0.18 0.27 0.42 0.54 0.59 0.58 0.70 0.95 1.06
0.63 0.47 0.59 0.32 0.22 0.12 0.10 0.09 0.08 0.10 0.16 0.79 0.73 0.45 0.37 0.30 0.29 0.17 0.09 0.05 0.02 0.02 0.02 0.02 0.01 0.02 0.02 0.02 0.02 0.02 0.01 0.01 0.02 0.03 0.05 0.09 0.21 0.31 0.34 0.51 0.58 0.60 0.78 1.10
1.00 1.06 0.75 0.49 0.25 0.26 0.15 0.12 0.18 0.25 0.37 0.41 0.61 0.30 0.25 0.21 0.21 0.21 0.15 0.13 0.13 0.09 0.05 0.04 0.04 0.06 0.05 0.05 0.04 0.03 0.04 0.06 0.08 0.08 0.10 0.11 0.19 0.24 0.26 0.45 0.69 0.75 1.08 1.32
0.82 1.22 1.14 1.12 0.59 0.69 0.35 0.40 0.54 0.43 0.34 0.48 0.36 0.25 0.14 0.16 0.23 0.25 0.39 0.36 0.22 0.15 0.14 0.15 0.13 0.10 0.09 0.10 0.12 0.13 0.13 0.16 0.17 0.15 0.18 0.25 0.20 0.26 0.32 0.46 0.94 1.26 1.44 1.51

GFSCGP_prec_precacc_153.txt.gz
Total_Precipitation_Accumulation
0.00 0.00 0.00 0.00 0.00 0.00 0.00 0.00 0.00 0.00 0.00 0.00 0.00 0.00 0.00 0.00 0.01 0.03 0.04 0.03 0.01 0.00 0.00 0.01 0.01 0.04 0.03 0.16 0.49 0.75 0.83 0.94 0.82 0.38 0.34 0.35 0.49 0.73 0.84 0.90 0.74 1.37 1.14 0.73
0.00 0.00 0.00 0.00 0.00 0.00 0.00 0.00 0.00 0.00 0.00 0.00 0.00 0.00 0.00 0.00 0.00 0.00 0.01 0.01 0.00 0.00 0.00 0.01 0.05 0.11 0.18 0.33 0.37 0.23 0.09 0.06 0.10 0.11 0.15 0.17 0.21 0.45 0.55 1.15 0.83 1.00 1.15 0.50
0.01 0.01 0.00 0.00 0.00 0.00 0.00 0.00 0.00 0.00 0.00 0.00 0.00 0.00 0.00 0.00 0.01 0.01 0.01 0.00 0.00 0.00 0.00 0.04 0.06 0.07 0.06 0.04 0.10 0.05 0.04 0.03 0.03 0.06 0.09 0.17 0.18 0.31 0.55 1.21 1.27 0.87 1.13 0.68
0.02 0.00 0.00 0.00 0.00 0.00 0.01 0.00 0.00 0.00 0.00 0.02 0.00 0.00 0.01 0.00 0.00 0.00 0.01 0.01 0.01 0.00 0.01 0.01 0.01 0.02 0.01 0.07 0.03 0.06 0.10 0.05 0.05 0.03 0.04 0.07 0.10 0.15 0.28 0.62 0.88 0.95 0.95 0.83
0.01 0.00 0.00 0.00 0.00 0.00 0.01 0.00 0.00 0.00 0.00 0.01 0.02 0.00 0.02 0.00 0.00 0.00 0.00 0.01 0.01 0.01 0.01 0.05 0.10 0.04 0.03 0.04 0.06 0.10 0.09 0.11 0.12 0.07 0.08 0.09 0.10 0.18 0.21 0.39 0.89 1.02 1.09 1.27
0.01 0.01 0.01 0.01 0.00 0.00 0.00 0.00 0.00 0.00 0.00 0.00 0.01 0.02 0.01 0.01 0.01 0.04 0.08 0.05 0.02 0.04 0.21 0.35 0.18 0.04 0.02 0.06 0.04 0.08 0.12 0.16 0.19 0.18 0.14 0.18 0.24 0.18 0.18 0.31 0.85 1.11 1.17 1.14
0.00 0.00 0.01 0.01 0.00 0.00 0.00 0.02 0.06 0.13 0.05 0.02 0.05 0.05 0.03 0.00 0.01 0.09 0.12 0.03 0.05 0.19 0.50 0.19 0.17 0.10 0.09 0.12 0.12 0.17 0.17 0.20 0.21 0.19 0.28 0.22 0.19 0.17 0.15 0.19 0.28 0.80 1.36 1.42
0.02 0.01 0.01 0.01 0.00 0.04 0.02 0.03 0.24 0.36 0.09 0.07 0.06 0.02 0.01 0.01 0.04 0.09 0.13 0.09 0.16 0.30 0.32 0.22 0.20 0.15 0.16 0.15 0.19 0.34 0.34 0.27 0.27 0.27 0.32 0.32 0.21 0.22 0.25 0.21 0.24 0.25 0.69 1.32
0.16 0.08 0.01 0.00 0.01 0.04 0.12 0.08 0.08 0.31 0.08 0.09 0.01 0.00 0.00 0.01 0.03 0.06 0.09 0.13 0.28 0.31 0.31 0.40 0.37 0.22 0.17 0.17 0.25 0.38 0.35 0.23 0.29 0.35 0.34 0.37 0.39 0.34 0.33 0.35 0.47 0.49 0.67 1.09
0.33 0.29 0.05 0.05 0.03 0.02 0.11 0.10 0.17 0.19 0.17 0.12 0.00 0.01 0.02 0.03 0.03 0.02 0.08 0.21 0.56 0.46 0.40 0.63 0.68 0.44 0.25 0.19 0.33 0.46 0.39 0.34 0.35 0.48 0.50 0.53 0.47 0.53 0.48 0.59 1.08 1.47 1.08 1.38
0.41 0.35 0.16 0.27 0.26 0.09 0.15 0.26 0.20 0.25 0.12 0.26 0.17 0.02 0.03 0.07 0.08 0.08 0.26 0.43 0.52 0.81 0.71 0.81 0.92 0.74 0.45 0.31 0.37 0.47 0.54 0.52 0.58 0.69 0.75 0.76 0.87 1.17 1.21 1.22 1.79 2.09 1.74 1.88
0.36 0.40 0.14 0.10 0.33 0.14 0.05 0.15 0.15 0.52 0.31 0.13 0.20 0.07 0.01 0.07 0.09 0.14 0.46 0.68 0.70 0.83 1.02 1.14 1.05 0.78 0.62 0.51 0.38 0.29 0.49 0.79 0.70 0.79 1.01 0.96 1.10 1.56 2.03 2.21 2.37 3.12 3.51 2.82
0.39 0.43 0.29 0.21 0.38 0.25 0.16 0.03 0.03 0.16 0.24 0.19 0.25 0.06 0.04 0.06 0.12 0.26 0.77 0.94 0.93 0.98 0.98 1.31 1.75 1.43 0.86 0.61 0.50 0.37 0.31 0.55 0.72 0.98 1.12 1.64 1.90 1.76 1.92 1.90 1.90 2.16 2.63 2.34
0.40 0.59 0.56 0.53 0.33 0.36 0.34 0.19 0.10 0.39 0.56 0.16 0.09 0.11 0.13 0.15 0.31 0.56 1.32 1.40 1.39 1.15 1.32 1.41 1.53 1.82 1.23 1.01 0.76 0.52 0.40 0.42 0.59 0.73 1.04 1.03 1.29 1.66 1.81 2.00 2.06 2.50 2.40 2.54
0.21 0.49 0.38 0.19 0.04 0.04 0.19 0.27 0.31 0.60 0.37 0.39 0.18 0.10 0.17 0.38 0.60 0.69 0.86 1.19 1.17 1.30 1.16 0.95 1.06 1.51 1.34 1.23 1.07 0.71 0.56 0.50 0.51 0.56 0.76 1.11 0.86 1.01 1.01 1.14 1.38 1.53 1.82 2.13
0.22 0.32 0.16 0.14 0.05 0.05 0.17 0.51 0.49 0.47 0.34 0.15 0.07 0.08 0.20 0.45 0.66 0.60 0.75 0.77 1.63 1.23 1.05 0.94 0.78 0.74 0.78 0.75 0.76 0.69 0.76 0.65 0.65 0.62 0.57 0.67 0.66 0.65 0.74 0.77 0.85 0.86 0.94 0.98
0.37 0.31 0.26 0.18 0.05 0.20 0.80 0.47 0.56 1.20 0.53 0.39 0.62 0.56 0.53 0.72 0.78 0.74 1.31 2.20 1.61 0.96 1.01 0.69 0.63 0.59 0.47 0.45 0.48 0.57 0.56 0.61 0.47 0.70 0.70 0.48 0.55 0.66 0.52 0.53 0.54 0.59 0.66 0.91
0.35 0.42 0.36 0.18 0.14 0.62 0.54 0.11 0.06 0.33 0.69 0.55 0.40 0.64 0.81 0.61 0.76 0.66 0.75 1.13 0.91 0.58 0.73 0.32 0.15 0.13 0.11 0.17 0.25 0.34 0.46 0.46 0.52 0.46 0.40 0.59 0.45 0.33 0.33 0.36 0.49 0.52 0.66 0.66
0.20 0.36 0.60 0.36 0.26 0.23 0.23 0.05 0.01 0.07 0.31 0.22 0.39 0.79 0.90 0.77 0.55 0.30 0.10 0.13 0.21 0.11 0.06 0.02 0.00 0.01 0.01 0.01 0.03 0.08 0.19 0.34 0.41 0.46 0.52 0.44 0.40 0.49 0.57 0.41 0.40 0.43 0.53 0.66
0.10 0.21 0.53 0.52 0.50 0.34 0.22 0.02 0.02 0.12 0.55 0.36 0.49 0.65 0.83 0.61 0.57 0.39 0.14 0.11 0.09 0.03 0.01 0.00 0.00 0.00 0.00 0.00 0.00 0.02 0.06 0.16 0.27 0.35 0.65 0.79 0.67 0.50 0.35 0.32 0.36 0.44 0.45 0.50
0.41 0.46 0.45 0.36 0.47 0.31 0.11 0.04 0.11 0.51 0.70 0.54 1.35 1.12 1.09 1.30 1.23 0.69 0.29 0.09 0.02 0.00 0.00 0.00 0.00 0.00 0.00 0.00 0.00 0.00 0.02 0.10 0.23 0.29 0.51 0.61 0.66 0.61 0.56 0.43 0.31 0.35 0.50 0.62
0.53 0.68 0.64 0.57 0.58 0.37 0.10 0.17 0.45 0.45 0.29 0.80 1.34 1.11 0.73 0.65 0.68 0.45 0.19 0.05 0.00 0.00 0.00 0.00 0.00 0.00 0.00 0.00 0.00 0.00 0.01 0.04 0.11 0.17 0.27 0.45 0.59 0.64 0.62 0.55 0.47 0.45 0.43 0.47
0.78 0.58 0.55 0.44 0.48 0.29 0.07 0.15 0.24 0.18 0.36 0.81 1.00 0.91 0.60 0.39 0.26 0.16 0.04 0.01 0.01 0.01 0.00 0.00 0.00 0.00 0.00 0.00 0.01 0.02 0.02 0.01 0.03 0.09 0.13 0.18 0.27 0.42 0.54 0.60 0.59 0.70 0.95 1.07
0.63 0.47 0.59 0.32 0.22 0.12 0.10 0.09 0.08 0.10 0.16 0.79 0.73 0.45 0.37 0.30 0.29 0.17 0.09 0.05 0.02 0.02 0.02 0.02 0.01 0.02 0.02 0.02 0.02 0.03 0.01 0.01 0.03 0.04 0.06 0.09 0.21 0.31 0.34 0.52 0.59 0.61 0.79 1.12
1.00 1.07 0.76 0.53 0.34 0.28 0.15 0.12 0.18 0.25 0.38 0.41 0.61 0.30 0.25 0.21 0.21 0.21 0.15 0.13 0.13 0.09 0.05 0.04 0.04 0.06 0.05 0.05 0.04 0.03 0.04 0.07 0.08 0.09 0.11 0.12 0.19 0.24 0.27 0.46 0.70 0.77 1.11 1.39
0.82 1.23 1.15 1.20 0.62 0.70 0.36 0.40 0.58 0.48 0.35 0.48 0.36 0.25 0.14 0.16 0.23 0.25 0.39 0.36 0.22 0.15 0.14 0.15 0.13 0.10 0.09 0.10 0.12 0.13 0.13 0.16 0.18 0.17 0.20 0.28 0.23 0.28 0.33 0.47 0.94 1.27 1.44 1.51